<?xml version="1.0" encoding="UTF-8" standalone="no" ?>
<gpx xmlns="http://www.topografix.com/GPX/1/1" xmlns:xsi="http://www.w3.org/2001/XMLSchema-instance" xsi:schemaLocation="http://www.topografix.com/GPX/1/1 http://www.topografix.com/GPX/1/1/gpx.xsd" version="1.1" creator="VisuGPX - https://www.visugpx.com">
  <metadata>
    <name>Rando bellerive 14 04 2013 55kms</name>
    <desc><![CDATA[Rando  depart de la maison,boucle au depart de bellerive 55 kms 
beau circuit entre les kms 16 et 43]]></desc>
  </metadata>
  <trk>
    <name><![CDATA[2013-04-14 08:32]]></name>
    <desc><![CDATA[<h1>OruxMaps</h1><br /><hr align="center" width="480" style="height: 2px; width: 517px"/><h2>Nom: 2013-04-14 08:32</h2><br /><p>Temps de départ: 04/14/2013 08:34</p><p>Temps d'arrivée: 04/14/2013 14:15</p><p>Distance: 68,6 km (05:40)</p><p>Temps déplacement: 04:40</p><p>Vitesse moyenne: 12,1 km/h</p><p>Vitesse moyenne: 14,7 km/h</p><p>Vitess Max.: 56 km/h</p><p>Altitude minimale: 246 m</p><p>Altitude maximale: 536 m</p><p>Vitesse d'élévation: 581,7 m/h</p><p>Vitesse de descente: -939,1 m/h</p><p>Gain Altitude: 1384 m</p><p>Perte Altitude: -1314 m</p><p>Temps d'élévation: 02:22</p><p>Temps de descente: 01:23</p><hr align="center" width="480" style="height: 2px; width: 517px"/>]]></desc>
    <trkseg>
      <trkpt lat="46.16793" lon="3.42411">
        <ele>270.55</ele>
        <time>2013-04-14T06:34:52Z</time>
      </trkpt>
      <trkpt lat="46.16775" lon="3.42387">
        <ele>272.3</ele>
        <time>2013-04-14T06:34:54Z</time>
      </trkpt>
      <trkpt lat="46.16766" lon="3.42355">
        <ele>272.22</ele>
        <time>2013-04-14T06:34:56Z</time>
      </trkpt>
      <trkpt lat="46.16762" lon="3.42323">
        <ele>271.93</ele>
        <time>2013-04-14T06:34:58Z</time>
      </trkpt>
      <trkpt lat="46.16758" lon="3.42291">
        <ele>271.33</ele>
        <time>2013-04-14T06:35:00Z</time>
      </trkpt>
      <trkpt lat="46.16761" lon="3.42258">
        <ele>270.24</ele>
        <time>2013-04-14T06:35:02Z</time>
      </trkpt>
      <trkpt lat="46.16768" lon="3.42228">
        <ele>268.38</ele>
        <time>2013-04-14T06:35:04Z</time>
      </trkpt>
      <trkpt lat="46.16777" lon="3.42198">
        <ele>266.89</ele>
        <time>2013-04-14T06:35:06Z</time>
      </trkpt>
      <trkpt lat="46.16783" lon="3.4217">
        <ele>265.87</ele>
        <time>2013-04-14T06:35:08Z</time>
      </trkpt>
      <trkpt lat="46.16781" lon="3.42145">
        <ele>265.29</ele>
        <time>2013-04-14T06:35:10Z</time>
      </trkpt>
      <trkpt lat="46.16764" lon="3.42121">
        <ele>264.29</ele>
        <time>2013-04-14T06:35:13Z</time>
      </trkpt>
      <trkpt lat="46.16744" lon="3.42121">
        <ele>263.86</ele>
        <time>2013-04-14T06:35:16Z</time>
      </trkpt>
      <trkpt lat="46.16724" lon="3.42115">
        <ele>263.68</ele>
        <time>2013-04-14T06:35:19Z</time>
      </trkpt>
      <trkpt lat="46.16714" lon="3.42085">
        <ele>263.6</ele>
        <time>2013-04-14T06:35:23Z</time>
      </trkpt>
      <trkpt lat="46.16707" lon="3.42057">
        <ele>264</ele>
        <time>2013-04-14T06:35:28Z</time>
      </trkpt>
      <trkpt lat="46.16685" lon="3.42048">
        <ele>264.38</ele>
        <time>2013-04-14T06:35:32Z</time>
      </trkpt>
      <trkpt lat="46.16661" lon="3.42042">
        <ele>264.25</ele>
        <time>2013-04-14T06:35:36Z</time>
      </trkpt>
      <trkpt lat="46.16643" lon="3.42033">
        <ele>263.85</ele>
        <time>2013-04-14T06:35:39Z</time>
      </trkpt>
      <trkpt lat="46.16628" lon="3.42018">
        <ele>263.68</ele>
        <time>2013-04-14T06:35:42Z</time>
      </trkpt>
      <trkpt lat="46.16613" lon="3.42003">
        <ele>263.61</ele>
        <time>2013-04-14T06:35:45Z</time>
      </trkpt>
      <trkpt lat="46.16599" lon="3.41986">
        <ele>263.14</ele>
        <time>2013-04-14T06:35:48Z</time>
      </trkpt>
      <trkpt lat="46.16587" lon="3.41964">
        <ele>262.55</ele>
        <time>2013-04-14T06:35:51Z</time>
      </trkpt>
      <trkpt lat="46.16574" lon="3.41945">
        <ele>261.97</ele>
        <time>2013-04-14T06:35:54Z</time>
      </trkpt>
      <trkpt lat="46.16561" lon="3.41922">
        <ele>261.29</ele>
        <time>2013-04-14T06:35:57Z</time>
      </trkpt>
      <trkpt lat="46.16547" lon="3.419">
        <ele>260.62</ele>
        <time>2013-04-14T06:36:00Z</time>
      </trkpt>
      <trkpt lat="46.16529" lon="3.41879">
        <ele>260</ele>
        <time>2013-04-14T06:36:03Z</time>
      </trkpt>
      <trkpt lat="46.16507" lon="3.41859">
        <ele>259.74</ele>
        <time>2013-04-14T06:36:06Z</time>
      </trkpt>
      <trkpt lat="46.16482" lon="3.41842">
        <ele>259.38</ele>
        <time>2013-04-14T06:36:09Z</time>
      </trkpt>
      <trkpt lat="46.16466" lon="3.41829">
        <ele>259.02</ele>
        <time>2013-04-14T06:36:11Z</time>
      </trkpt>
      <trkpt lat="46.16443" lon="3.41812">
        <ele>258.75</ele>
        <time>2013-04-14T06:36:14Z</time>
      </trkpt>
      <trkpt lat="46.16425" lon="3.41795">
        <ele>258.64</ele>
        <time>2013-04-14T06:36:17Z</time>
      </trkpt>
      <trkpt lat="46.16408" lon="3.41778">
        <ele>258.59</ele>
        <time>2013-04-14T06:36:20Z</time>
      </trkpt>
      <trkpt lat="46.16391" lon="3.41758">
        <ele>258.57</ele>
        <time>2013-04-14T06:36:23Z</time>
      </trkpt>
      <trkpt lat="46.16374" lon="3.41737">
        <ele>258.31</ele>
        <time>2013-04-14T06:36:26Z</time>
      </trkpt>
      <trkpt lat="46.16359" lon="3.41716">
        <ele>257.62</ele>
        <time>2013-04-14T06:36:29Z</time>
      </trkpt>
      <trkpt lat="46.16342" lon="3.41694">
        <ele>257</ele>
        <time>2013-04-14T06:36:32Z</time>
      </trkpt>
      <trkpt lat="46.16328" lon="3.41675">
        <ele>256.74</ele>
        <time>2013-04-14T06:36:35Z</time>
      </trkpt>
      <trkpt lat="46.16315" lon="3.41655">
        <ele>256.06</ele>
        <time>2013-04-14T06:36:38Z</time>
      </trkpt>
      <trkpt lat="46.163" lon="3.41636">
        <ele>255.76</ele>
        <time>2013-04-14T06:36:41Z</time>
      </trkpt>
      <trkpt lat="46.16284" lon="3.41621">
        <ele>255.06</ele>
        <time>2013-04-14T06:36:44Z</time>
      </trkpt>
      <trkpt lat="46.16265" lon="3.41602">
        <ele>254.03</ele>
        <time>2013-04-14T06:36:48Z</time>
      </trkpt>
      <trkpt lat="46.16244" lon="3.41587">
        <ele>252.77</ele>
        <time>2013-04-14T06:36:52Z</time>
      </trkpt>
      <trkpt lat="46.16227" lon="3.41574">
        <ele>251.63</ele>
        <time>2013-04-14T06:36:55Z</time>
      </trkpt>
      <trkpt lat="46.16209" lon="3.41561">
        <ele>250.18</ele>
        <time>2013-04-14T06:36:58Z</time>
      </trkpt>
      <trkpt lat="46.16192" lon="3.41546">
        <ele>248.8</ele>
        <time>2013-04-14T06:37:01Z</time>
      </trkpt>
      <trkpt lat="46.16174" lon="3.4154">
        <ele>247.64</ele>
        <time>2013-04-14T06:37:04Z</time>
      </trkpt>
      <trkpt lat="46.16156" lon="3.41531">
        <ele>247.01</ele>
        <time>2013-04-14T06:37:07Z</time>
      </trkpt>
      <trkpt lat="46.16139" lon="3.4152">
        <ele>246.75</ele>
        <time>2013-04-14T06:37:10Z</time>
      </trkpt>
      <trkpt lat="46.16121" lon="3.4151">
        <ele>246.63</ele>
        <time>2013-04-14T06:37:13Z</time>
      </trkpt>
      <trkpt lat="46.161" lon="3.41495">
        <ele>246.33</ele>
        <time>2013-04-14T06:37:17Z</time>
      </trkpt>
      <trkpt lat="46.16084" lon="3.41482">
        <ele>246.46</ele>
        <time>2013-04-14T06:37:20Z</time>
      </trkpt>
      <trkpt lat="46.16062" lon="3.41467">
        <ele>246.52</ele>
        <time>2013-04-14T06:37:24Z</time>
      </trkpt>
      <trkpt lat="46.16046" lon="3.41454">
        <ele>246.54</ele>
        <time>2013-04-14T06:37:27Z</time>
      </trkpt>
      <trkpt lat="46.16029" lon="3.41441">
        <ele>246.55</ele>
        <time>2013-04-14T06:37:30Z</time>
      </trkpt>
      <trkpt lat="46.16012" lon="3.4143">
        <ele>246.8</ele>
        <time>2013-04-14T06:37:33Z</time>
      </trkpt>
      <trkpt lat="46.15996" lon="3.41417">
        <ele>247.67</ele>
        <time>2013-04-14T06:37:36Z</time>
      </trkpt>
      <trkpt lat="46.1598" lon="3.41404">
        <ele>248.76</ele>
        <time>2013-04-14T06:37:39Z</time>
      </trkpt>
      <trkpt lat="46.15963" lon="3.41392">
        <ele>249.8</ele>
        <time>2013-04-14T06:37:42Z</time>
      </trkpt>
      <trkpt lat="46.15945" lon="3.41379">
        <ele>250.23</ele>
        <time>2013-04-14T06:37:45Z</time>
      </trkpt>
      <trkpt lat="46.15928" lon="3.41366">
        <ele>250.17</ele>
        <time>2013-04-14T06:37:48Z</time>
      </trkpt>
      <trkpt lat="46.15912" lon="3.41353">
        <ele>249.81</ele>
        <time>2013-04-14T06:37:51Z</time>
      </trkpt>
      <trkpt lat="46.15892" lon="3.41336">
        <ele>249.64</ele>
        <time>2013-04-14T06:37:55Z</time>
      </trkpt>
      <trkpt lat="46.15874" lon="3.41319">
        <ele>249.58</ele>
        <time>2013-04-14T06:37:59Z</time>
      </trkpt>
      <trkpt lat="46.15854" lon="3.41299">
        <ele>250.24</ele>
        <time>2013-04-14T06:38:03Z</time>
      </trkpt>
      <trkpt lat="46.15838" lon="3.41284">
        <ele>250.42</ele>
        <time>2013-04-14T06:38:06Z</time>
      </trkpt>
      <trkpt lat="46.15823" lon="3.41269">
        <ele>250.75</ele>
        <time>2013-04-14T06:38:09Z</time>
      </trkpt>
      <trkpt lat="46.15807" lon="3.41256">
        <ele>251.21</ele>
        <time>2013-04-14T06:38:12Z</time>
      </trkpt>
      <trkpt lat="46.15792" lon="3.41239">
        <ele>251.41</ele>
        <time>2013-04-14T06:38:15Z</time>
      </trkpt>
      <trkpt lat="46.15776" lon="3.41224">
        <ele>250.91</ele>
        <time>2013-04-14T06:38:18Z</time>
      </trkpt>
      <trkpt lat="46.1576" lon="3.41209">
        <ele>250.71</ele>
        <time>2013-04-14T06:38:21Z</time>
      </trkpt>
      <trkpt lat="46.15744" lon="3.41194">
        <ele>250.04</ele>
        <time>2013-04-14T06:38:24Z</time>
      </trkpt>
      <trkpt lat="46.15728" lon="3.41179">
        <ele>249.76</ele>
        <time>2013-04-14T06:38:27Z</time>
      </trkpt>
      <trkpt lat="46.15712" lon="3.41166">
        <ele>249.64</ele>
        <time>2013-04-14T06:38:30Z</time>
      </trkpt>
      <trkpt lat="46.15694" lon="3.41153">
        <ele>249.59</ele>
        <time>2013-04-14T06:38:33Z</time>
      </trkpt>
      <trkpt lat="46.15677" lon="3.41141">
        <ele>249.57</ele>
        <time>2013-04-14T06:38:36Z</time>
      </trkpt>
      <trkpt lat="46.1566" lon="3.4113">
        <ele>249.56</ele>
        <time>2013-04-14T06:38:39Z</time>
      </trkpt>
      <trkpt lat="46.15643" lon="3.41119">
        <ele>249.56</ele>
        <time>2013-04-14T06:38:42Z</time>
      </trkpt>
      <trkpt lat="46.15626" lon="3.41108">
        <ele>249.37</ele>
        <time>2013-04-14T06:38:45Z</time>
      </trkpt>
      <trkpt lat="46.15608" lon="3.41095">
        <ele>249.47</ele>
        <time>2013-04-14T06:38:48Z</time>
      </trkpt>
      <trkpt lat="46.15589" lon="3.41085">
        <ele>249.52</ele>
        <time>2013-04-14T06:38:51Z</time>
      </trkpt>
      <trkpt lat="46.15572" lon="3.41074">
        <ele>249.1</ele>
        <time>2013-04-14T06:38:54Z</time>
      </trkpt>
      <trkpt lat="46.15551" lon="3.41059">
        <ele>248.97</ele>
        <time>2013-04-14T06:38:58Z</time>
      </trkpt>
      <trkpt lat="46.15528" lon="3.41046">
        <ele>248.11</ele>
        <time>2013-04-14T06:39:02Z</time>
      </trkpt>
      <trkpt lat="46.1551" lon="3.4104">
        <ele>247.79</ele>
        <time>2013-04-14T06:39:05Z</time>
      </trkpt>
      <trkpt lat="46.15492" lon="3.4104">
        <ele>247.65</ele>
        <time>2013-04-14T06:39:08Z</time>
      </trkpt>
      <trkpt lat="46.15473" lon="3.41046">
        <ele>247.59</ele>
        <time>2013-04-14T06:39:11Z</time>
      </trkpt>
      <trkpt lat="46.15455" lon="3.41053">
        <ele>248.01</ele>
        <time>2013-04-14T06:39:14Z</time>
      </trkpt>
      <trkpt lat="46.15437" lon="3.41061">
        <ele>248.32</ele>
        <time>2013-04-14T06:39:17Z</time>
      </trkpt>
      <trkpt lat="46.15417" lon="3.41072">
        <ele>248.48</ele>
        <time>2013-04-14T06:39:21Z</time>
      </trkpt>
      <trkpt lat="46.15398" lon="3.41085">
        <ele>249.21</ele>
        <time>2013-04-14T06:39:25Z</time>
      </trkpt>
      <trkpt lat="46.15381" lon="3.411">
        <ele>250.13</ele>
        <time>2013-04-14T06:39:29Z</time>
      </trkpt>
      <trkpt lat="46.15362" lon="3.41104">
        <ele>250.97</ele>
        <time>2013-04-14T06:39:34Z</time>
      </trkpt>
      <trkpt lat="46.15348" lon="3.4108">
        <ele>250.61</ele>
        <time>2013-04-14T06:39:41Z</time>
      </trkpt>
      <trkpt lat="46.15332" lon="3.41061">
        <ele>251.14</ele>
        <time>2013-04-14T06:39:46Z</time>
      </trkpt>
      <trkpt lat="46.15311" lon="3.41057">
        <ele>251.42</ele>
        <time>2013-04-14T06:39:50Z</time>
      </trkpt>
      <trkpt lat="46.1529" lon="3.41063">
        <ele>251.51</ele>
        <time>2013-04-14T06:39:54Z</time>
      </trkpt>
      <trkpt lat="46.15272" lon="3.41076">
        <ele>251.54</ele>
        <time>2013-04-14T06:39:58Z</time>
      </trkpt>
      <trkpt lat="46.15251" lon="3.4108">
        <ele>251.55</ele>
        <time>2013-04-14T06:40:02Z</time>
      </trkpt>
      <trkpt lat="46.15232" lon="3.41074">
        <ele>252.13</ele>
        <time>2013-04-14T06:40:06Z</time>
      </trkpt>
      <trkpt lat="46.15216" lon="3.41057">
        <ele>253</ele>
        <time>2013-04-14T06:40:10Z</time>
      </trkpt>
      <trkpt lat="46.15203" lon="3.41033">
        <ele>253.38</ele>
        <time>2013-04-14T06:40:14Z</time>
      </trkpt>
      <trkpt lat="46.15188" lon="3.4101">
        <ele>253.5</ele>
        <time>2013-04-14T06:40:18Z</time>
      </trkpt>
      <trkpt lat="46.15177" lon="3.40984">
        <ele>253.54</ele>
        <time>2013-04-14T06:40:22Z</time>
      </trkpt>
      <trkpt lat="46.15161" lon="3.40967">
        <ele>253.55</ele>
        <time>2013-04-14T06:40:25Z</time>
      </trkpt>
      <trkpt lat="46.15143" lon="3.40962">
        <ele>253.3</ele>
        <time>2013-04-14T06:40:28Z</time>
      </trkpt>
      <trkpt lat="46.15128" lon="3.40937">
        <ele>252.79</ele>
        <time>2013-04-14T06:40:32Z</time>
      </trkpt>
      <trkpt lat="46.15123" lon="3.40904">
        <ele>252.38</ele>
        <time>2013-04-14T06:40:36Z</time>
      </trkpt>
      <trkpt lat="46.15119" lon="3.40877">
        <ele>251.9</ele>
        <time>2013-04-14T06:40:39Z</time>
      </trkpt>
      <trkpt lat="46.15106" lon="3.40855">
        <ele>251.95</ele>
        <time>2013-04-14T06:40:42Z</time>
      </trkpt>
      <trkpt lat="46.15089" lon="3.40844">
        <ele>252.3</ele>
        <time>2013-04-14T06:40:45Z</time>
      </trkpt>
      <trkpt lat="46.15067" lon="3.40836">
        <ele>252.47</ele>
        <time>2013-04-14T06:40:49Z</time>
      </trkpt>
      <trkpt lat="46.15045" lon="3.40825">
        <ele>252.53</ele>
        <time>2013-04-14T06:40:53Z</time>
      </trkpt>
      <trkpt lat="46.15024" lon="3.40816">
        <ele>252.29</ele>
        <time>2013-04-14T06:40:57Z</time>
      </trkpt>
      <trkpt lat="46.15" lon="3.40812">
        <ele>251.79</ele>
        <time>2013-04-14T06:41:01Z</time>
      </trkpt>
      <trkpt lat="46.14978" lon="3.40812">
        <ele>251.63</ele>
        <time>2013-04-14T06:41:05Z</time>
      </trkpt>
      <trkpt lat="46.14955" lon="3.40814">
        <ele>250.89</ele>
        <time>2013-04-14T06:41:09Z</time>
      </trkpt>
      <trkpt lat="46.14934" lon="3.40827">
        <ele>250.66</ele>
        <time>2013-04-14T06:41:13Z</time>
      </trkpt>
      <trkpt lat="46.14912" lon="3.40836">
        <ele>250.59</ele>
        <time>2013-04-14T06:41:17Z</time>
      </trkpt>
      <trkpt lat="46.14892" lon="3.40849">
        <ele>249.99</ele>
        <time>2013-04-14T06:41:21Z</time>
      </trkpt>
      <trkpt lat="46.14872" lon="3.40862">
        <ele>249.44</ele>
        <time>2013-04-14T06:41:25Z</time>
      </trkpt>
      <trkpt lat="46.14852" lon="3.40879">
        <ele>249.52</ele>
        <time>2013-04-14T06:41:29Z</time>
      </trkpt>
      <trkpt lat="46.14834" lon="3.40894">
        <ele>249.79</ele>
        <time>2013-04-14T06:41:33Z</time>
      </trkpt>
      <trkpt lat="46.14817" lon="3.40913">
        <ele>251.14</ele>
        <time>2013-04-14T06:41:37Z</time>
      </trkpt>
      <trkpt lat="46.14797" lon="3.40932">
        <ele>252.11</ele>
        <time>2013-04-14T06:41:41Z</time>
      </trkpt>
      <trkpt lat="46.14781" lon="3.40947">
        <ele>252.36</ele>
        <time>2013-04-14T06:41:44Z</time>
      </trkpt>
      <trkpt lat="46.14762" lon="3.40962">
        <ele>252.49</ele>
        <time>2013-04-14T06:41:48Z</time>
      </trkpt>
      <trkpt lat="46.14743" lon="3.40973">
        <ele>252.53</ele>
        <time>2013-04-14T06:41:52Z</time>
      </trkpt>
      <trkpt lat="46.14722" lon="3.4098">
        <ele>252.55</ele>
        <time>2013-04-14T06:41:56Z</time>
      </trkpt>
      <trkpt lat="46.14703" lon="3.40984">
        <ele>252.8</ele>
        <time>2013-04-14T06:42:00Z</time>
      </trkpt>
      <trkpt lat="46.14684" lon="3.40995">
        <ele>252.63</ele>
        <time>2013-04-14T06:42:04Z</time>
      </trkpt>
      <trkpt lat="46.14666" lon="3.41007">
        <ele>252.58</ele>
        <time>2013-04-14T06:42:08Z</time>
      </trkpt>
      <trkpt lat="46.14648" lon="3.41027">
        <ele>253.14</ele>
        <time>2013-04-14T06:42:12Z</time>
      </trkpt>
      <trkpt lat="46.14634" lon="3.41053">
        <ele>254</ele>
        <time>2013-04-14T06:42:16Z</time>
      </trkpt>
      <trkpt lat="46.14618" lon="3.41074">
        <ele>254.38</ele>
        <time>2013-04-14T06:42:20Z</time>
      </trkpt>
      <trkpt lat="46.146" lon="3.41089">
        <ele>255.18</ele>
        <time>2013-04-14T06:42:24Z</time>
      </trkpt>
      <trkpt lat="46.14579" lon="3.41098">
        <ele>255.44</ele>
        <time>2013-04-14T06:42:28Z</time>
      </trkpt>
      <trkpt lat="46.14556" lon="3.41104">
        <ele>254.83</ele>
        <time>2013-04-14T06:42:32Z</time>
      </trkpt>
      <trkpt lat="46.14537" lon="3.41119">
        <ele>255.32</ele>
        <time>2013-04-14T06:42:36Z</time>
      </trkpt>
      <trkpt lat="46.14513" lon="3.41128">
        <ele>255.48</ele>
        <time>2013-04-14T06:42:40Z</time>
      </trkpt>
      <trkpt lat="46.1449" lon="3.4113">
        <ele>254.85</ele>
        <time>2013-04-14T06:42:44Z</time>
      </trkpt>
      <trkpt lat="46.14469" lon="3.41141">
        <ele>254.07</ele>
        <time>2013-04-14T06:42:48Z</time>
      </trkpt>
      <trkpt lat="46.14449" lon="3.41156">
        <ele>253.28</ele>
        <time>2013-04-14T06:42:52Z</time>
      </trkpt>
      <trkpt lat="46.14428" lon="3.41171">
        <ele>253.22</ele>
        <time>2013-04-14T06:42:56Z</time>
      </trkpt>
      <trkpt lat="46.14409" lon="3.41186">
        <ele>253.01</ele>
        <time>2013-04-14T06:43:00Z</time>
      </trkpt>
      <trkpt lat="46.14389" lon="3.41196">
        <ele>253.96</ele>
        <time>2013-04-14T06:43:04Z</time>
      </trkpt>
      <trkpt lat="46.14369" lon="3.41205">
        <ele>254.8</ele>
        <time>2013-04-14T06:43:08Z</time>
      </trkpt>
      <trkpt lat="46.14351" lon="3.41216">
        <ele>254.74</ele>
        <time>2013-04-14T06:43:12Z</time>
      </trkpt>
      <trkpt lat="46.14332" lon="3.41226">
        <ele>253.78</ele>
        <time>2013-04-14T06:43:16Z</time>
      </trkpt>
      <trkpt lat="46.14311" lon="3.41235">
        <ele>252.94</ele>
        <time>2013-04-14T06:43:20Z</time>
      </trkpt>
      <trkpt lat="46.14291" lon="3.41244">
        <ele>253.36</ele>
        <time>2013-04-14T06:43:24Z</time>
      </trkpt>
      <trkpt lat="46.14273" lon="3.4125">
        <ele>253.93</ele>
        <time>2013-04-14T06:43:28Z</time>
      </trkpt>
      <trkpt lat="46.14255" lon="3.41252">
        <ele>254.49</ele>
        <time>2013-04-14T06:43:36Z</time>
      </trkpt>
      <trkpt lat="46.14233" lon="3.41248">
        <ele>254.54</ele>
        <time>2013-04-14T06:43:42Z</time>
      </trkpt>
      <trkpt lat="46.14215" lon="3.41254">
        <ele>254.3</ele>
        <time>2013-04-14T06:43:46Z</time>
      </trkpt>
      <trkpt lat="46.14196" lon="3.41261">
        <ele>253.79</ele>
        <time>2013-04-14T06:43:50Z</time>
      </trkpt>
      <trkpt lat="46.14177" lon="3.41267">
        <ele>253.63</ele>
        <time>2013-04-14T06:43:54Z</time>
      </trkpt>
      <trkpt lat="46.14157" lon="3.41271">
        <ele>253.58</ele>
        <time>2013-04-14T06:43:58Z</time>
      </trkpt>
      <trkpt lat="46.14136" lon="3.41276">
        <ele>253.12</ele>
        <time>2013-04-14T06:44:02Z</time>
      </trkpt>
      <trkpt lat="46.14114" lon="3.4128">
        <ele>252.73</ele>
        <time>2013-04-14T06:44:06Z</time>
      </trkpt>
      <trkpt lat="46.14092" lon="3.41284">
        <ele>252.61</ele>
        <time>2013-04-14T06:44:10Z</time>
      </trkpt>
      <trkpt lat="46.14068" lon="3.41289">
        <ele>253.25</ele>
        <time>2013-04-14T06:44:14Z</time>
      </trkpt>
      <trkpt lat="46.1405" lon="3.41291">
        <ele>253.43</ele>
        <time>2013-04-14T06:44:17Z</time>
      </trkpt>
      <trkpt lat="46.14031" lon="3.41295">
        <ele>253.5</ele>
        <time>2013-04-14T06:44:20Z</time>
      </trkpt>
      <trkpt lat="46.14008" lon="3.41299">
        <ele>253.54</ele>
        <time>2013-04-14T06:44:24Z</time>
      </trkpt>
      <trkpt lat="46.1399" lon="3.41301">
        <ele>253.3</ele>
        <time>2013-04-14T06:44:27Z</time>
      </trkpt>
      <trkpt lat="46.13971" lon="3.41306">
        <ele>253.01</ele>
        <time>2013-04-14T06:44:30Z</time>
      </trkpt>
      <trkpt lat="46.13953" lon="3.4131">
        <ele>252.74</ele>
        <time>2013-04-14T06:44:33Z</time>
      </trkpt>
      <trkpt lat="46.13935" lon="3.41314">
        <ele>252.2</ele>
        <time>2013-04-14T06:44:36Z</time>
      </trkpt>
      <trkpt lat="46.13917" lon="3.41316">
        <ele>252.26</ele>
        <time>2013-04-14T06:44:39Z</time>
      </trkpt>
      <trkpt lat="46.13898" lon="3.41323">
        <ele>251.99</ele>
        <time>2013-04-14T06:44:42Z</time>
      </trkpt>
      <trkpt lat="46.1388" lon="3.41325">
        <ele>251.74</ele>
        <time>2013-04-14T06:44:45Z</time>
      </trkpt>
      <trkpt lat="46.13862" lon="3.41329">
        <ele>251.63</ele>
        <time>2013-04-14T06:44:48Z</time>
      </trkpt>
      <trkpt lat="46.13844" lon="3.41334">
        <ele>251.34</ele>
        <time>2013-04-14T06:44:51Z</time>
      </trkpt>
      <trkpt lat="46.13825" lon="3.41338">
        <ele>251.32</ele>
        <time>2013-04-14T06:44:54Z</time>
      </trkpt>
      <trkpt lat="46.13807" lon="3.4134">
        <ele>251.46</ele>
        <time>2013-04-14T06:44:57Z</time>
      </trkpt>
      <trkpt lat="46.13785" lon="3.41344">
        <ele>251.52</ele>
        <time>2013-04-14T06:45:01Z</time>
      </trkpt>
      <trkpt lat="46.13761" lon="3.41349">
        <ele>251.54</ele>
        <time>2013-04-14T06:45:05Z</time>
      </trkpt>
      <trkpt lat="46.13743" lon="3.41351">
        <ele>251.55</ele>
        <time>2013-04-14T06:45:08Z</time>
      </trkpt>
      <trkpt lat="46.13725" lon="3.41355">
        <ele>251.8</ele>
        <time>2013-04-14T06:45:11Z</time>
      </trkpt>
      <trkpt lat="46.13702" lon="3.41359">
        <ele>252.32</ele>
        <time>2013-04-14T06:45:15Z</time>
      </trkpt>
      <trkpt lat="46.13684" lon="3.41362">
        <ele>252.45</ele>
        <time>2013-04-14T06:45:18Z</time>
      </trkpt>
      <trkpt lat="46.13661" lon="3.41366">
        <ele>253.2</ele>
        <time>2013-04-14T06:45:22Z</time>
      </trkpt>
      <trkpt lat="46.13643" lon="3.4137">
        <ele>253.41</ele>
        <time>2013-04-14T06:45:25Z</time>
      </trkpt>
      <trkpt lat="46.13625" lon="3.41374">
        <ele>253.49</ele>
        <time>2013-04-14T06:45:28Z</time>
      </trkpt>
      <trkpt lat="46.13601" lon="3.41381">
        <ele>252.96</ele>
        <time>2013-04-14T06:45:32Z</time>
      </trkpt>
      <trkpt lat="46.13578" lon="3.41385">
        <ele>252.79</ele>
        <time>2013-04-14T06:45:36Z</time>
      </trkpt>
      <trkpt lat="46.13558" lon="3.41387">
        <ele>253.23</ele>
        <time>2013-04-14T06:45:39Z</time>
      </trkpt>
      <trkpt lat="46.13535" lon="3.41394">
        <ele>253.45</ele>
        <time>2013-04-14T06:45:43Z</time>
      </trkpt>
      <trkpt lat="46.13511" lon="3.41398">
        <ele>253.52</ele>
        <time>2013-04-14T06:45:47Z</time>
      </trkpt>
      <trkpt lat="46.13487" lon="3.41402">
        <ele>253.54</ele>
        <time>2013-04-14T06:45:51Z</time>
      </trkpt>
      <trkpt lat="46.13464" lon="3.41409">
        <ele>253.88</ele>
        <time>2013-04-14T06:45:55Z</time>
      </trkpt>
      <trkpt lat="46.1344" lon="3.41417">
        <ele>253.66</ele>
        <time>2013-04-14T06:45:59Z</time>
      </trkpt>
      <trkpt lat="46.13418" lon="3.41426">
        <ele>254.16</ele>
        <time>2013-04-14T06:46:03Z</time>
      </trkpt>
      <trkpt lat="46.13394" lon="3.41432">
        <ele>254.43</ele>
        <time>2013-04-14T06:46:07Z</time>
      </trkpt>
      <trkpt lat="46.13371" lon="3.41441">
        <ele>254.51</ele>
        <time>2013-04-14T06:46:11Z</time>
      </trkpt>
      <trkpt lat="46.13347" lon="3.41449">
        <ele>254.54</ele>
        <time>2013-04-14T06:46:15Z</time>
      </trkpt>
      <trkpt lat="46.13329" lon="3.41456">
        <ele>254.55</ele>
        <time>2013-04-14T06:46:18Z</time>
      </trkpt>
      <trkpt lat="46.13312" lon="3.41465">
        <ele>256.07</ele>
        <time>2013-04-14T06:46:21Z</time>
      </trkpt>
      <trkpt lat="46.13289" lon="3.41471">
        <ele>258.34</ele>
        <time>2013-04-14T06:46:25Z</time>
      </trkpt>
      <trkpt lat="46.13266" lon="3.41477">
        <ele>260</ele>
        <time>2013-04-14T06:46:29Z</time>
      </trkpt>
      <trkpt lat="46.13248" lon="3.41482">
        <ele>261.48</ele>
        <time>2013-04-14T06:46:32Z</time>
      </trkpt>
      <trkpt lat="46.13226" lon="3.4149">
        <ele>262.21</ele>
        <time>2013-04-14T06:46:36Z</time>
      </trkpt>
      <trkpt lat="46.13203" lon="3.41499">
        <ele>261.32</ele>
        <time>2013-04-14T06:46:40Z</time>
      </trkpt>
      <trkpt lat="46.13181" lon="3.41505">
        <ele>259.29</ele>
        <time>2013-04-14T06:46:44Z</time>
      </trkpt>
      <trkpt lat="46.13157" lon="3.41514">
        <ele>257.27</ele>
        <time>2013-04-14T06:46:48Z</time>
      </trkpt>
      <trkpt lat="46.13139" lon="3.4152">
        <ele>256.28</ele>
        <time>2013-04-14T06:46:51Z</time>
      </trkpt>
      <trkpt lat="46.13115" lon="3.41529">
        <ele>255.2</ele>
        <time>2013-04-14T06:46:55Z</time>
      </trkpt>
      <trkpt lat="46.13097" lon="3.41535">
        <ele>254.25</ele>
        <time>2013-04-14T06:46:58Z</time>
      </trkpt>
      <trkpt lat="46.13074" lon="3.41544">
        <ele>253.34</ele>
        <time>2013-04-14T06:47:02Z</time>
      </trkpt>
      <trkpt lat="46.13051" lon="3.41552">
        <ele>252.8</ele>
        <time>2013-04-14T06:47:06Z</time>
      </trkpt>
      <trkpt lat="46.13027" lon="3.41561">
        <ele>253.31</ele>
        <time>2013-04-14T06:47:10Z</time>
      </trkpt>
      <trkpt lat="46.13005" lon="3.4157">
        <ele>254.06</ele>
        <time>2013-04-14T06:47:14Z</time>
      </trkpt>
      <trkpt lat="46.12986" lon="3.41574">
        <ele>254.92</ele>
        <time>2013-04-14T06:47:17Z</time>
      </trkpt>
      <trkpt lat="46.12964" lon="3.4158">
        <ele>255.35</ele>
        <time>2013-04-14T06:47:21Z</time>
      </trkpt>
      <trkpt lat="46.1294" lon="3.41589">
        <ele>255.49</ele>
        <time>2013-04-14T06:47:25Z</time>
      </trkpt>
      <trkpt lat="46.12919" lon="3.41598">
        <ele>255.67</ele>
        <time>2013-04-14T06:47:29Z</time>
      </trkpt>
      <trkpt lat="46.12895" lon="3.41608">
        <ele>255.59</ele>
        <time>2013-04-14T06:47:33Z</time>
      </trkpt>
      <trkpt lat="46.12872" lon="3.4161">
        <ele>255.57</ele>
        <time>2013-04-14T06:47:37Z</time>
      </trkpt>
      <trkpt lat="46.12853" lon="3.41606">
        <ele>255.56</ele>
        <time>2013-04-14T06:47:40Z</time>
      </trkpt>
      <trkpt lat="46.1283" lon="3.416">
        <ele>255.55</ele>
        <time>2013-04-14T06:47:44Z</time>
      </trkpt>
      <trkpt lat="46.12812" lon="3.41595">
        <ele>255.55</ele>
        <time>2013-04-14T06:47:47Z</time>
      </trkpt>
      <trkpt lat="46.12793" lon="3.41589">
        <ele>254.98</ele>
        <time>2013-04-14T06:47:50Z</time>
      </trkpt>
      <trkpt lat="46.12775" lon="3.41585">
        <ele>253.9</ele>
        <time>2013-04-14T06:47:53Z</time>
      </trkpt>
      <trkpt lat="46.12756" lon="3.41578">
        <ele>252.69</ele>
        <time>2013-04-14T06:47:56Z</time>
      </trkpt>
      <trkpt lat="46.12733" lon="3.4157">
        <ele>250.98</ele>
        <time>2013-04-14T06:48:00Z</time>
      </trkpt>
      <trkpt lat="46.12715" lon="3.41565">
        <ele>250.15</ele>
        <time>2013-04-14T06:48:03Z</time>
      </trkpt>
      <trkpt lat="46.12692" lon="3.41557">
        <ele>249.31</ele>
        <time>2013-04-14T06:48:07Z</time>
      </trkpt>
      <trkpt lat="46.1267" lon="3.41548">
        <ele>248.79</ele>
        <time>2013-04-14T06:48:11Z</time>
      </trkpt>
      <trkpt lat="46.12647" lon="3.41544">
        <ele>248.63</ele>
        <time>2013-04-14T06:48:15Z</time>
      </trkpt>
      <trkpt lat="46.12626" lon="3.4154">
        <ele>248.58</ele>
        <time>2013-04-14T06:48:19Z</time>
      </trkpt>
      <trkpt lat="46.12606" lon="3.41535">
        <ele>249.93</ele>
        <time>2013-04-14T06:48:23Z</time>
      </trkpt>
      <trkpt lat="46.12584" lon="3.41533">
        <ele>251.87</ele>
        <time>2013-04-14T06:48:27Z</time>
      </trkpt>
      <trkpt lat="46.12563" lon="3.41533">
        <ele>253.6</ele>
        <time>2013-04-14T06:48:31Z</time>
      </trkpt>
      <trkpt lat="46.1254" lon="3.41533">
        <ele>254.83</ele>
        <time>2013-04-14T06:48:35Z</time>
      </trkpt>
      <trkpt lat="46.12522" lon="3.41533">
        <ele>255.83</ele>
        <time>2013-04-14T06:48:38Z</time>
      </trkpt>
      <trkpt lat="46.12498" lon="3.41535">
        <ele>257.01</ele>
        <time>2013-04-14T06:48:42Z</time>
      </trkpt>
      <trkpt lat="46.1248" lon="3.41537">
        <ele>257.76</ele>
        <time>2013-04-14T06:48:45Z</time>
      </trkpt>
      <trkpt lat="46.12462" lon="3.4154">
        <ele>258.22</ele>
        <time>2013-04-14T06:48:48Z</time>
      </trkpt>
      <trkpt lat="46.12444" lon="3.4154">
        <ele>258.99</ele>
        <time>2013-04-14T06:48:51Z</time>
      </trkpt>
      <trkpt lat="46.12421" lon="3.41542">
        <ele>260.06</ele>
        <time>2013-04-14T06:48:55Z</time>
      </trkpt>
      <trkpt lat="46.12399" lon="3.41546">
        <ele>261.33</ele>
        <time>2013-04-14T06:48:59Z</time>
      </trkpt>
      <trkpt lat="46.12379" lon="3.41552">
        <ele>262.47</ele>
        <time>2013-04-14T06:49:02Z</time>
      </trkpt>
      <trkpt lat="46.12357" lon="3.41557">
        <ele>263.79</ele>
        <time>2013-04-14T06:49:06Z</time>
      </trkpt>
      <trkpt lat="46.12333" lon="3.41565">
        <ele>264.56</ele>
        <time>2013-04-14T06:49:10Z</time>
      </trkpt>
      <trkpt lat="46.12316" lon="3.41576">
        <ele>265.38</ele>
        <time>2013-04-14T06:49:13Z</time>
      </trkpt>
      <trkpt lat="46.12297" lon="3.41583">
        <ele>265.62</ele>
        <time>2013-04-14T06:49:16Z</time>
      </trkpt>
      <trkpt lat="46.12278" lon="3.41593">
        <ele>265.58</ele>
        <time>2013-04-14T06:49:19Z</time>
      </trkpt>
      <trkpt lat="46.12259" lon="3.41602">
        <ele>264.55</ele>
        <time>2013-04-14T06:49:22Z</time>
      </trkpt>
      <trkpt lat="46.1224" lon="3.41613">
        <ele>263.72</ele>
        <time>2013-04-14T06:49:25Z</time>
      </trkpt>
      <trkpt lat="46.12223" lon="3.41623">
        <ele>262.86</ele>
        <time>2013-04-14T06:49:28Z</time>
      </trkpt>
      <trkpt lat="46.12202" lon="3.41636">
        <ele>263.48</ele>
        <time>2013-04-14T06:49:32Z</time>
      </trkpt>
      <trkpt lat="46.12177" lon="3.41651">
        <ele>265.04</ele>
        <time>2013-04-14T06:49:37Z</time>
      </trkpt>
      <trkpt lat="46.12161" lon="3.41664">
        <ele>266.49</ele>
        <time>2013-04-14T06:49:40Z</time>
      </trkpt>
      <trkpt lat="46.12142" lon="3.41679">
        <ele>267.22</ele>
        <time>2013-04-14T06:49:44Z</time>
      </trkpt>
      <trkpt lat="46.12123" lon="3.41694">
        <ele>267.45</ele>
        <time>2013-04-14T06:49:48Z</time>
      </trkpt>
      <trkpt lat="46.12103" lon="3.41711">
        <ele>266.84</ele>
        <time>2013-04-14T06:49:52Z</time>
      </trkpt>
      <trkpt lat="46.12086" lon="3.41731">
        <ele>267.58</ele>
        <time>2013-04-14T06:49:56Z</time>
      </trkpt>
      <trkpt lat="46.12069" lon="3.41748">
        <ele>268.49</ele>
        <time>2013-04-14T06:50:00Z</time>
      </trkpt>
      <trkpt lat="46.12051" lon="3.41767">
        <ele>269.22</ele>
        <time>2013-04-14T06:50:04Z</time>
      </trkpt>
      <trkpt lat="46.12037" lon="3.41786">
        <ele>269.45</ele>
        <time>2013-04-14T06:50:08Z</time>
      </trkpt>
      <trkpt lat="46.12017" lon="3.41791">
        <ele>268.96</ele>
        <time>2013-04-14T06:50:15Z</time>
      </trkpt>
      <trkpt lat="46.11998" lon="3.41784">
        <ele>264.82</ele>
        <time>2013-04-14T06:50:20Z</time>
      </trkpt>
      <trkpt lat="46.11981" lon="3.41767">
        <ele>261.76</ele>
        <time>2013-04-14T06:50:24Z</time>
      </trkpt>
      <trkpt lat="46.11964" lon="3.41746">
        <ele>259.67</ele>
        <time>2013-04-14T06:50:28Z</time>
      </trkpt>
      <trkpt lat="46.11947" lon="3.41722">
        <ele>258.91</ele>
        <time>2013-04-14T06:50:32Z</time>
      </trkpt>
      <trkpt lat="46.1193" lon="3.41701">
        <ele>258.67</ele>
        <time>2013-04-14T06:50:36Z</time>
      </trkpt>
      <trkpt lat="46.11917" lon="3.41681">
        <ele>258.6</ele>
        <time>2013-04-14T06:50:39Z</time>
      </trkpt>
      <trkpt lat="46.119" lon="3.4166">
        <ele>258.57</ele>
        <time>2013-04-14T06:50:43Z</time>
      </trkpt>
      <trkpt lat="46.11887" lon="3.4164">
        <ele>258.31</ele>
        <time>2013-04-14T06:50:46Z</time>
      </trkpt>
      <trkpt lat="46.1187" lon="3.41617">
        <ele>258.48</ele>
        <time>2013-04-14T06:50:50Z</time>
      </trkpt>
      <trkpt lat="46.11856" lon="3.416">
        <ele>258.27</ele>
        <time>2013-04-14T06:50:53Z</time>
      </trkpt>
      <trkpt lat="46.11837" lon="3.41578">
        <ele>258.46</ele>
        <time>2013-04-14T06:50:57Z</time>
      </trkpt>
      <trkpt lat="46.11822" lon="3.41561">
        <ele>258.95</ele>
        <time>2013-04-14T06:51:00Z</time>
      </trkpt>
      <trkpt lat="46.11808" lon="3.41544">
        <ele>259.3</ele>
        <time>2013-04-14T06:51:03Z</time>
      </trkpt>
      <trkpt lat="46.1179" lon="3.4152">
        <ele>259.04</ele>
        <time>2013-04-14T06:51:07Z</time>
      </trkpt>
      <trkpt lat="46.11776" lon="3.41501">
        <ele>258.76</ele>
        <time>2013-04-14T06:51:10Z</time>
      </trkpt>
      <trkpt lat="46.11761" lon="3.41482">
        <ele>258.64</ele>
        <time>2013-04-14T06:51:13Z</time>
      </trkpt>
      <trkpt lat="46.11747" lon="3.4146">
        <ele>258.01</ele>
        <time>2013-04-14T06:51:16Z</time>
      </trkpt>
      <trkpt lat="46.11737" lon="3.41437">
        <ele>257.17</ele>
        <time>2013-04-14T06:51:19Z</time>
      </trkpt>
      <trkpt lat="46.11733" lon="3.41407">
        <ele>257.06</ele>
        <time>2013-04-14T06:51:22Z</time>
      </trkpt>
      <trkpt lat="46.11734" lon="3.41377">
        <ele>257.35</ele>
        <time>2013-04-14T06:51:25Z</time>
      </trkpt>
      <trkpt lat="46.11737" lon="3.41347">
        <ele>257.72</ele>
        <time>2013-04-14T06:51:28Z</time>
      </trkpt>
      <trkpt lat="46.1174" lon="3.41319">
        <ele>258.2</ele>
        <time>2013-04-14T06:51:31Z</time>
      </trkpt>
      <trkpt lat="46.11742" lon="3.41284">
        <ele>258.44</ele>
        <time>2013-04-14T06:51:35Z</time>
      </trkpt>
      <trkpt lat="46.11744" lon="3.41252">
        <ele>258.62</ele>
        <time>2013-04-14T06:51:39Z</time>
      </trkpt>
      <trkpt lat="46.1173" lon="3.41226">
        <ele>257.8</ele>
        <time>2013-04-14T06:51:45Z</time>
      </trkpt>
      <trkpt lat="46.1172" lon="3.41201">
        <ele>257.19</ele>
        <time>2013-04-14T06:51:49Z</time>
      </trkpt>
      <trkpt lat="46.11713" lon="3.41173">
        <ele>257.58</ele>
        <time>2013-04-14T06:51:53Z</time>
      </trkpt>
      <trkpt lat="46.11704" lon="3.41143">
        <ele>258.82</ele>
        <time>2013-04-14T06:51:59Z</time>
      </trkpt>
      <trkpt lat="46.117" lon="3.41117">
        <ele>260.44</ele>
        <time>2013-04-14T06:52:03Z</time>
      </trkpt>
      <trkpt lat="46.11694" lon="3.41089">
        <ele>261.88</ele>
        <time>2013-04-14T06:52:07Z</time>
      </trkpt>
      <trkpt lat="46.11687" lon="3.41063">
        <ele>262.34</ele>
        <time>2013-04-14T06:52:11Z</time>
      </trkpt>
      <trkpt lat="46.1168" lon="3.41035">
        <ele>262.05</ele>
        <time>2013-04-14T06:52:15Z</time>
      </trkpt>
      <trkpt lat="46.11668" lon="3.41007">
        <ele>260.88</ele>
        <time>2013-04-14T06:52:19Z</time>
      </trkpt>
      <trkpt lat="46.11654" lon="3.40984">
        <ele>259.15</ele>
        <time>2013-04-14T06:52:23Z</time>
      </trkpt>
      <trkpt lat="46.1164" lon="3.4096">
        <ele>258.06</ele>
        <time>2013-04-14T06:52:27Z</time>
      </trkpt>
      <trkpt lat="46.11627" lon="3.40937">
        <ele>257.71</ele>
        <time>2013-04-14T06:52:31Z</time>
      </trkpt>
      <trkpt lat="46.11612" lon="3.40913">
        <ele>257.6</ele>
        <time>2013-04-14T06:52:35Z</time>
      </trkpt>
      <trkpt lat="46.11594" lon="3.40894">
        <ele>257.57</ele>
        <time>2013-04-14T06:52:39Z</time>
      </trkpt>
      <trkpt lat="46.11577" lon="3.40874">
        <ele>257.56</ele>
        <time>2013-04-14T06:52:43Z</time>
      </trkpt>
      <trkpt lat="46.11563" lon="3.40857">
        <ele>257.55</ele>
        <time>2013-04-14T06:52:47Z</time>
      </trkpt>
      <trkpt lat="46.11549" lon="3.40836">
        <ele>258.32</ele>
        <time>2013-04-14T06:52:52Z</time>
      </trkpt>
      <trkpt lat="46.11532" lon="3.40827">
        <ele>258.54</ele>
        <time>2013-04-14T06:53:01Z</time>
      </trkpt>
      <trkpt lat="46.11521" lon="3.40851">
        <ele>258.8</ele>
        <time>2013-04-14T06:53:07Z</time>
      </trkpt>
      <trkpt lat="46.1151" lon="3.40872">
        <ele>259.31</ele>
        <time>2013-04-14T06:53:11Z</time>
      </trkpt>
      <trkpt lat="46.11499" lon="3.40898">
        <ele>259.92</ele>
        <time>2013-04-14T06:53:15Z</time>
      </trkpt>
      <trkpt lat="46.1149" lon="3.40922">
        <ele>260.35</ele>
        <time>2013-04-14T06:53:19Z</time>
      </trkpt>
      <trkpt lat="46.1148" lon="3.40945">
        <ele>260.93</ele>
        <time>2013-04-14T06:53:23Z</time>
      </trkpt>
      <trkpt lat="46.11469" lon="3.40969">
        <ele>261.35</ele>
        <time>2013-04-14T06:53:27Z</time>
      </trkpt>
      <trkpt lat="46.11459" lon="3.40992">
        <ele>261.49</ele>
        <time>2013-04-14T06:53:31Z</time>
      </trkpt>
      <trkpt lat="46.11447" lon="3.41016">
        <ele>261.53</ele>
        <time>2013-04-14T06:53:35Z</time>
      </trkpt>
      <trkpt lat="46.11434" lon="3.41042">
        <ele>261.55</ele>
        <time>2013-04-14T06:53:39Z</time>
      </trkpt>
      <trkpt lat="46.11418" lon="3.41059">
        <ele>261.3</ele>
        <time>2013-04-14T06:53:44Z</time>
      </trkpt>
      <trkpt lat="46.11398" lon="3.41048">
        <ele>260.29</ele>
        <time>2013-04-14T06:53:49Z</time>
      </trkpt>
      <trkpt lat="46.11381" lon="3.41033">
        <ele>259.79</ele>
        <time>2013-04-14T06:53:53Z</time>
      </trkpt>
      <trkpt lat="46.11361" lon="3.4102">
        <ele>259.19</ele>
        <time>2013-04-14T06:53:57Z</time>
      </trkpt>
      <trkpt lat="46.11341" lon="3.41007">
        <ele>258.75</ele>
        <time>2013-04-14T06:54:01Z</time>
      </trkpt>
      <trkpt lat="46.11323" lon="3.40988">
        <ele>258.62</ele>
        <time>2013-04-14T06:54:05Z</time>
      </trkpt>
      <trkpt lat="46.11311" lon="3.40962">
        <ele>258.57</ele>
        <time>2013-04-14T06:54:09Z</time>
      </trkpt>
      <trkpt lat="46.11301" lon="3.40935">
        <ele>258.56</ele>
        <time>2013-04-14T06:54:13Z</time>
      </trkpt>
      <trkpt lat="46.11289" lon="3.40911">
        <ele>258.99</ele>
        <time>2013-04-14T06:54:17Z</time>
      </trkpt>
      <trkpt lat="46.1127" lon="3.40907">
        <ele>259.45</ele>
        <time>2013-04-14T06:54:23Z</time>
      </trkpt>
      <trkpt lat="46.11255" lon="3.40889">
        <ele>259.54</ele>
        <time>2013-04-14T06:54:29Z</time>
      </trkpt>
      <trkpt lat="46.11247" lon="3.40866">
        <ele>259.55</ele>
        <time>2013-04-14T06:54:37Z</time>
      </trkpt>
      <trkpt lat="46.1123" lon="3.40857">
        <ele>259.11</ele>
        <time>2013-04-14T06:54:41Z</time>
      </trkpt>
      <trkpt lat="46.11209" lon="3.40853">
        <ele>257.22</ele>
        <time>2013-04-14T06:54:45Z</time>
      </trkpt>
      <trkpt lat="46.11187" lon="3.40849">
        <ele>255.39</ele>
        <time>2013-04-14T06:54:49Z</time>
      </trkpt>
      <trkpt lat="46.11169" lon="3.40847">
        <ele>253.56</ele>
        <time>2013-04-14T06:54:53Z</time>
      </trkpt>
      <trkpt lat="46.11151" lon="3.40849">
        <ele>252.87</ele>
        <time>2013-04-14T06:54:57Z</time>
      </trkpt>
      <trkpt lat="46.11129" lon="3.40849">
        <ele>252.77</ele>
        <time>2013-04-14T06:55:02Z</time>
      </trkpt>
      <trkpt lat="46.11111" lon="3.40842">
        <ele>252.03</ele>
        <time>2013-04-14T06:55:07Z</time>
      </trkpt>
      <trkpt lat="46.11093" lon="3.40836">
        <ele>252.55</ele>
        <time>2013-04-14T06:55:42Z</time>
      </trkpt>
      <trkpt lat="46.11095" lon="3.4081">
        <ele>252.55</ele>
        <time>2013-04-14T06:55:54Z</time>
      </trkpt>
      <trkpt lat="46.1111" lon="3.40793">
        <ele>253.13</ele>
        <time>2013-04-14T06:56:01Z</time>
      </trkpt>
      <trkpt lat="46.11127" lon="3.40778">
        <ele>254.06</ele>
        <time>2013-04-14T06:56:07Z</time>
      </trkpt>
      <trkpt lat="46.11142" lon="3.40761">
        <ele>256.96</ele>
        <time>2013-04-14T06:56:12Z</time>
      </trkpt>
      <trkpt lat="46.11159" lon="3.40744">
        <ele>261.13</ele>
        <time>2013-04-14T06:56:17Z</time>
      </trkpt>
      <trkpt lat="46.11174" lon="3.40729">
        <ele>264.32</ele>
        <time>2013-04-14T06:56:22Z</time>
      </trkpt>
      <trkpt lat="46.1119" lon="3.40711">
        <ele>265.39</ele>
        <time>2013-04-14T06:56:29Z</time>
      </trkpt>
      <trkpt lat="46.11207" lon="3.40696">
        <ele>266.64</ele>
        <time>2013-04-14T06:56:34Z</time>
      </trkpt>
      <trkpt lat="46.11222" lon="3.40681">
        <ele>267.95</ele>
        <time>2013-04-14T06:56:38Z</time>
      </trkpt>
      <trkpt lat="46.11237" lon="3.40666">
        <ele>268.41</ele>
        <time>2013-04-14T06:56:43Z</time>
      </trkpt>
      <trkpt lat="46.11229" lon="3.40641">
        <ele>268.53</ele>
        <time>2013-04-14T06:56:49Z</time>
      </trkpt>
      <trkpt lat="46.11216" lon="3.40619">
        <ele>268.55</ele>
        <time>2013-04-14T06:56:55Z</time>
      </trkpt>
      <trkpt lat="46.11205" lon="3.40598">
        <ele>268.55</ele>
        <time>2013-04-14T06:57:00Z</time>
      </trkpt>
      <trkpt lat="46.11194" lon="3.40572">
        <ele>269.13</ele>
        <time>2013-04-14T06:57:05Z</time>
      </trkpt>
      <trkpt lat="46.11183" lon="3.40548">
        <ele>269.42</ele>
        <time>2013-04-14T06:57:09Z</time>
      </trkpt>
      <trkpt lat="46.11183" lon="3.4052">
        <ele>270.21</ele>
        <time>2013-04-14T06:57:15Z</time>
      </trkpt>
      <trkpt lat="46.11201" lon="3.4051">
        <ele>270.45</ele>
        <time>2013-04-14T06:57:19Z</time>
      </trkpt>
      <trkpt lat="46.11219" lon="3.40497">
        <ele>270.96</ele>
        <time>2013-04-14T06:57:23Z</time>
      </trkpt>
      <trkpt lat="46.1124" lon="3.4048">
        <ele>271.36</ele>
        <time>2013-04-14T06:57:27Z</time>
      </trkpt>
      <trkpt lat="46.1126" lon="3.40467">
        <ele>271.49</ele>
        <time>2013-04-14T06:57:31Z</time>
      </trkpt>
      <trkpt lat="46.11281" lon="3.40452">
        <ele>271.53</ele>
        <time>2013-04-14T06:57:35Z</time>
      </trkpt>
      <trkpt lat="46.11302" lon="3.40437">
        <ele>271.55</ele>
        <time>2013-04-14T06:57:39Z</time>
      </trkpt>
      <trkpt lat="46.11321" lon="3.40422">
        <ele>271.55</ele>
        <time>2013-04-14T06:57:43Z</time>
      </trkpt>
      <trkpt lat="46.1134" lon="3.40422">
        <ele>271.3</ele>
        <time>2013-04-14T06:57:51Z</time>
      </trkpt>
      <trkpt lat="46.11351" lon="3.40447">
        <ele>270.79</ele>
        <time>2013-04-14T06:57:55Z</time>
      </trkpt>
      <trkpt lat="46.11364" lon="3.40475">
        <ele>271.07</ele>
        <time>2013-04-14T06:57:59Z</time>
      </trkpt>
      <trkpt lat="46.11378" lon="3.40503">
        <ele>271.98</ele>
        <time>2013-04-14T06:58:03Z</time>
      </trkpt>
      <trkpt lat="46.11391" lon="3.40531">
        <ele>273.49</ele>
        <time>2013-04-14T06:58:07Z</time>
      </trkpt>
      <trkpt lat="46.11402" lon="3.40553">
        <ele>274.11</ele>
        <time>2013-04-14T06:58:10Z</time>
      </trkpt>
      <trkpt lat="46.11414" lon="3.40574">
        <ele>274.36</ele>
        <time>2013-04-14T06:58:13Z</time>
      </trkpt>
      <trkpt lat="46.11424" lon="3.40595">
        <ele>273.79</ele>
        <time>2013-04-14T06:58:16Z</time>
      </trkpt>
      <trkpt lat="46.11436" lon="3.40617">
        <ele>272.39</ele>
        <time>2013-04-14T06:58:19Z</time>
      </trkpt>
      <trkpt lat="46.11451" lon="3.40636">
        <ele>269.29</ele>
        <time>2013-04-14T06:58:25Z</time>
      </trkpt>
      <trkpt lat="46.11468" lon="3.40621">
        <ele>268.15</ele>
        <time>2013-04-14T06:58:30Z</time>
      </trkpt>
      <trkpt lat="46.11485" lon="3.40604">
        <ele>266.49</ele>
        <time>2013-04-14T06:58:35Z</time>
      </trkpt>
      <trkpt lat="46.11503" lon="3.40587">
        <ele>265.78</ele>
        <time>2013-04-14T06:58:40Z</time>
      </trkpt>
      <trkpt lat="46.11518" lon="3.4057">
        <ele>265.61</ele>
        <time>2013-04-14T06:58:45Z</time>
      </trkpt>
      <trkpt lat="46.11534" lon="3.4055">
        <ele>265.56</ele>
        <time>2013-04-14T06:58:51Z</time>
      </trkpt>
      <trkpt lat="46.11548" lon="3.40533">
        <ele>265.55</ele>
        <time>2013-04-14T06:58:58Z</time>
      </trkpt>
      <trkpt lat="46.11528" lon="3.40542">
        <ele>273.25</ele>
        <time>2013-04-14T07:02:05Z</time>
      </trkpt>
      <trkpt lat="46.11513" lon="3.40559">
        <ele>274.72</ele>
        <time>2013-04-14T07:02:09Z</time>
      </trkpt>
      <trkpt lat="46.11497" lon="3.40578">
        <ele>275.29</ele>
        <time>2013-04-14T07:02:13Z</time>
      </trkpt>
      <trkpt lat="46.11481" lon="3.40598">
        <ele>275.47</ele>
        <time>2013-04-14T07:02:17Z</time>
      </trkpt>
      <trkpt lat="46.11467" lon="3.40615">
        <ele>275.53</ele>
        <time>2013-04-14T07:02:21Z</time>
      </trkpt>
      <trkpt lat="46.11448" lon="3.40619">
        <ele>275.11</ele>
        <time>2013-04-14T07:02:27Z</time>
      </trkpt>
      <trkpt lat="46.11433" lon="3.40593">
        <ele>272.8</ele>
        <time>2013-04-14T07:02:32Z</time>
      </trkpt>
      <trkpt lat="46.11421" lon="3.40568">
        <ele>271.01</ele>
        <time>2013-04-14T07:02:36Z</time>
      </trkpt>
      <trkpt lat="46.11409" lon="3.40542">
        <ele>270.02</ele>
        <time>2013-04-14T07:02:40Z</time>
      </trkpt>
      <trkpt lat="46.11393" lon="3.40523">
        <ele>269.7</ele>
        <time>2013-04-14T07:02:44Z</time>
      </trkpt>
      <trkpt lat="46.11373" lon="3.40531">
        <ele>269.6</ele>
        <time>2013-04-14T07:02:48Z</time>
      </trkpt>
      <trkpt lat="46.11351" lon="3.40544">
        <ele>269.57</ele>
        <time>2013-04-14T07:02:52Z</time>
      </trkpt>
      <trkpt lat="46.11331" lon="3.40561">
        <ele>268.87</ele>
        <time>2013-04-14T07:02:56Z</time>
      </trkpt>
      <trkpt lat="46.11311" lon="3.40574">
        <ele>268.22</ele>
        <time>2013-04-14T07:03:00Z</time>
      </trkpt>
      <trkpt lat="46.11295" lon="3.40587">
        <ele>268.27</ele>
        <time>2013-04-14T07:03:03Z</time>
      </trkpt>
      <trkpt lat="46.11277" lon="3.406">
        <ele>268.87</ele>
        <time>2013-04-14T07:03:06Z</time>
      </trkpt>
      <trkpt lat="46.11258" lon="3.40613">
        <ele>269.27</ele>
        <time>2013-04-14T07:03:09Z</time>
      </trkpt>
      <trkpt lat="46.11241" lon="3.40626">
        <ele>269.43</ele>
        <time>2013-04-14T07:03:12Z</time>
      </trkpt>
      <trkpt lat="46.11237" lon="3.40651">
        <ele>269.09</ele>
        <time>2013-04-14T07:03:17Z</time>
      </trkpt>
      <trkpt lat="46.1122" lon="3.40675">
        <ele>268.68</ele>
        <time>2013-04-14T07:03:22Z</time>
      </trkpt>
      <trkpt lat="46.11203" lon="3.4069">
        <ele>268.36</ele>
        <time>2013-04-14T07:03:25Z</time>
      </trkpt>
      <trkpt lat="46.11185" lon="3.40707">
        <ele>267.89</ele>
        <time>2013-04-14T07:03:28Z</time>
      </trkpt>
      <trkpt lat="46.11168" lon="3.40724">
        <ele>267.12</ele>
        <time>2013-04-14T07:03:31Z</time>
      </trkpt>
      <trkpt lat="46.11152" lon="3.40741">
        <ele>266.21</ele>
        <time>2013-04-14T07:03:34Z</time>
      </trkpt>
      <trkpt lat="46.11137" lon="3.40759">
        <ele>265.25</ele>
        <time>2013-04-14T07:03:37Z</time>
      </trkpt>
      <trkpt lat="46.11122" lon="3.40774">
        <ele>264.85</ele>
        <time>2013-04-14T07:03:40Z</time>
      </trkpt>
      <trkpt lat="46.11104" lon="3.40795">
        <ele>264.65</ele>
        <time>2013-04-14T07:03:44Z</time>
      </trkpt>
      <trkpt lat="46.11087" lon="3.40812">
        <ele>264.59</ele>
        <time>2013-04-14T07:03:47Z</time>
      </trkpt>
      <trkpt lat="46.11092" lon="3.4084">
        <ele>264.12</ele>
        <time>2013-04-14T07:03:54Z</time>
      </trkpt>
      <trkpt lat="46.11113" lon="3.40853">
        <ele>263.69</ele>
        <time>2013-04-14T07:03:59Z</time>
      </trkpt>
      <trkpt lat="46.11135" lon="3.40855">
        <ele>263.85</ele>
        <time>2013-04-14T07:04:03Z</time>
      </trkpt>
      <trkpt lat="46.11155" lon="3.40851">
        <ele>264.33</ele>
        <time>2013-04-14T07:04:07Z</time>
      </trkpt>
      <trkpt lat="46.11178" lon="3.40853">
        <ele>265.06</ele>
        <time>2013-04-14T07:04:11Z</time>
      </trkpt>
      <trkpt lat="46.11199" lon="3.40857">
        <ele>265.4</ele>
        <time>2013-04-14T07:04:15Z</time>
      </trkpt>
      <trkpt lat="46.11219" lon="3.40859">
        <ele>265.25</ele>
        <time>2013-04-14T07:04:19Z</time>
      </trkpt>
      <trkpt lat="46.11231" lon="3.40883">
        <ele>264.68</ele>
        <time>2013-04-14T07:04:25Z</time>
      </trkpt>
      <trkpt lat="46.11242" lon="3.40904">
        <ele>264.33</ele>
        <time>2013-04-14T07:04:31Z</time>
      </trkpt>
      <trkpt lat="46.11261" lon="3.40913">
        <ele>263.69</ele>
        <time>2013-04-14T07:04:37Z</time>
      </trkpt>
      <trkpt lat="46.11278" lon="3.40935">
        <ele>262.32</ele>
        <time>2013-04-14T07:04:42Z</time>
      </trkpt>
      <trkpt lat="46.11288" lon="3.4096">
        <ele>261.8</ele>
        <time>2013-04-14T07:04:46Z</time>
      </trkpt>
      <trkpt lat="46.113" lon="3.40984">
        <ele>260.95</ele>
        <time>2013-04-14T07:04:50Z</time>
      </trkpt>
      <trkpt lat="46.11314" lon="3.41001">
        <ele>260.72</ele>
        <time>2013-04-14T07:04:53Z</time>
      </trkpt>
      <trkpt lat="46.11335" lon="3.41014">
        <ele>260.61</ele>
        <time>2013-04-14T07:04:57Z</time>
      </trkpt>
      <trkpt lat="46.11352" lon="3.41022">
        <ele>260.58</ele>
        <time>2013-04-14T07:05:00Z</time>
      </trkpt>
      <trkpt lat="46.11369" lon="3.41035">
        <ele>260.81</ele>
        <time>2013-04-14T07:05:03Z</time>
      </trkpt>
      <trkpt lat="46.11387" lon="3.4105">
        <ele>260.64</ele>
        <time>2013-04-14T07:05:07Z</time>
      </trkpt>
      <trkpt lat="46.11404" lon="3.41065">
        <ele>260.58</ele>
        <time>2013-04-14T07:05:11Z</time>
      </trkpt>
      <trkpt lat="46.11408" lon="3.41095">
        <ele>260.56</ele>
        <time>2013-04-14T07:05:18Z</time>
      </trkpt>
      <trkpt lat="46.114" lon="3.41121">
        <ele>259.98</ele>
        <time>2013-04-14T07:05:23Z</time>
      </trkpt>
      <trkpt lat="46.11381" lon="3.4113">
        <ele>259.63</ele>
        <time>2013-04-14T07:05:29Z</time>
      </trkpt>
      <trkpt lat="46.11373" lon="3.41153">
        <ele>259.83</ele>
        <time>2013-04-14T07:05:33Z</time>
      </trkpt>
      <trkpt lat="46.11371" lon="3.41186">
        <ele>259.75</ele>
        <time>2013-04-14T07:05:37Z</time>
      </trkpt>
      <trkpt lat="46.11369" lon="3.41211">
        <ele>259.38</ele>
        <time>2013-04-14T07:05:40Z</time>
      </trkpt>
      <trkpt lat="46.11363" lon="3.41241">
        <ele>258.82</ele>
        <time>2013-04-14T07:05:44Z</time>
      </trkpt>
      <trkpt lat="46.11354" lon="3.41271">
        <ele>259.07</ele>
        <time>2013-04-14T07:05:48Z</time>
      </trkpt>
      <trkpt lat="46.11341" lon="3.41297">
        <ele>260.77</ele>
        <time>2013-04-14T07:05:52Z</time>
      </trkpt>
      <trkpt lat="46.11325" lon="3.41321">
        <ele>261.99</ele>
        <time>2013-04-14T07:05:56Z</time>
      </trkpt>
      <trkpt lat="46.11308" lon="3.41342">
        <ele>262.12</ele>
        <time>2013-04-14T07:06:00Z</time>
      </trkpt>
      <trkpt lat="46.11291" lon="3.41364">
        <ele>261.3</ele>
        <time>2013-04-14T07:06:04Z</time>
      </trkpt>
      <trkpt lat="46.11277" lon="3.41381">
        <ele>260.62</ele>
        <time>2013-04-14T07:06:07Z</time>
      </trkpt>
      <trkpt lat="46.11262" lon="3.41396">
        <ele>259.75</ele>
        <time>2013-04-14T07:06:10Z</time>
      </trkpt>
      <trkpt lat="46.11242" lon="3.41413">
        <ele>258.93</ele>
        <time>2013-04-14T07:06:14Z</time>
      </trkpt>
      <trkpt lat="46.11223" lon="3.41432">
        <ele>258.42</ele>
        <time>2013-04-14T07:06:18Z</time>
      </trkpt>
      <trkpt lat="46.11205" lon="3.41452">
        <ele>257.58</ele>
        <time>2013-04-14T07:06:22Z</time>
      </trkpt>
      <trkpt lat="46.11187" lon="3.41473">
        <ele>255.18</ele>
        <time>2013-04-14T07:06:26Z</time>
      </trkpt>
      <trkpt lat="46.1117" lon="3.41495">
        <ele>252.95</ele>
        <time>2013-04-14T07:06:30Z</time>
      </trkpt>
      <trkpt lat="46.11154" lon="3.41514">
        <ele>251.99</ele>
        <time>2013-04-14T07:06:34Z</time>
      </trkpt>
      <trkpt lat="46.11136" lon="3.41501">
        <ele>251.44</ele>
        <time>2013-04-14T07:06:38Z</time>
      </trkpt>
      <trkpt lat="46.11116" lon="3.41486">
        <ele>251.77</ele>
        <time>2013-04-14T07:06:42Z</time>
      </trkpt>
      <trkpt lat="46.11095" lon="3.41471">
        <ele>252.88</ele>
        <time>2013-04-14T07:06:46Z</time>
      </trkpt>
      <trkpt lat="46.1108" lon="3.41456">
        <ele>253.52</ele>
        <time>2013-04-14T07:06:49Z</time>
      </trkpt>
      <trkpt lat="46.1106" lon="3.41441">
        <ele>254.23</ele>
        <time>2013-04-14T07:06:53Z</time>
      </trkpt>
      <trkpt lat="46.11038" lon="3.41426">
        <ele>254.7</ele>
        <time>2013-04-14T07:06:57Z</time>
      </trkpt>
      <trkpt lat="46.11022" lon="3.41413">
        <ele>255.19</ele>
        <time>2013-04-14T07:07:00Z</time>
      </trkpt>
      <trkpt lat="46.11006" lon="3.414">
        <ele>255.4</ele>
        <time>2013-04-14T07:07:03Z</time>
      </trkpt>
      <trkpt lat="46.10984" lon="3.41385">
        <ele>255.25</ele>
        <time>2013-04-14T07:07:07Z</time>
      </trkpt>
      <trkpt lat="46.10964" lon="3.41372">
        <ele>254.78</ele>
        <time>2013-04-14T07:07:11Z</time>
      </trkpt>
      <trkpt lat="46.10945" lon="3.41357">
        <ele>254.62</ele>
        <time>2013-04-14T07:07:15Z</time>
      </trkpt>
      <trkpt lat="46.10928" lon="3.41342">
        <ele>255.15</ele>
        <time>2013-04-14T07:07:19Z</time>
      </trkpt>
      <trkpt lat="46.1093" lon="3.41314">
        <ele>254.85</ele>
        <time>2013-04-14T07:07:23Z</time>
      </trkpt>
      <trkpt lat="46.10937" lon="3.41291">
        <ele>254.65</ele>
        <time>2013-04-14T07:07:27Z</time>
      </trkpt>
      <trkpt lat="46.10935" lon="3.41265">
        <ele>255.15</ele>
        <time>2013-04-14T07:07:32Z</time>
      </trkpt>
      <trkpt lat="46.10917" lon="3.41246">
        <ele>255.46</ele>
        <time>2013-04-14T07:07:37Z</time>
      </trkpt>
      <trkpt lat="46.10896" lon="3.41244">
        <ele>255.54</ele>
        <time>2013-04-14T07:07:43Z</time>
      </trkpt>
      <trkpt lat="46.10876" lon="3.41248">
        <ele>256.37</ele>
        <time>2013-04-14T07:07:49Z</time>
      </trkpt>
      <trkpt lat="46.10856" lon="3.41256">
        <ele>256.52</ele>
        <time>2013-04-14T07:07:55Z</time>
      </trkpt>
      <trkpt lat="46.10836" lon="3.41263">
        <ele>256.55</ele>
        <time>2013-04-14T07:08:02Z</time>
      </trkpt>
      <trkpt lat="46.10818" lon="3.41267">
        <ele>256.55</ele>
        <time>2013-04-14T07:08:09Z</time>
      </trkpt>
      <trkpt lat="46.10803" lon="3.41282">
        <ele>256.55</ele>
        <time>2013-04-14T07:08:16Z</time>
      </trkpt>
      <trkpt lat="46.10783" lon="3.41293">
        <ele>257.13</ele>
        <time>2013-04-14T07:08:22Z</time>
      </trkpt>
      <trkpt lat="46.10765" lon="3.41312">
        <ele>259.34</ele>
        <time>2013-04-14T07:08:27Z</time>
      </trkpt>
      <trkpt lat="46.10746" lon="3.41329">
        <ele>260.7</ele>
        <time>2013-04-14T07:08:32Z</time>
      </trkpt>
      <trkpt lat="46.1073" lon="3.41347">
        <ele>262.22</ele>
        <time>2013-04-14T07:08:36Z</time>
      </trkpt>
      <trkpt lat="46.10712" lon="3.41364">
        <ele>264.25</ele>
        <time>2013-04-14T07:08:40Z</time>
      </trkpt>
      <trkpt lat="46.10694" lon="3.41381">
        <ele>265.72</ele>
        <time>2013-04-14T07:08:44Z</time>
      </trkpt>
      <trkpt lat="46.10674" lon="3.41398">
        <ele>267.22</ele>
        <time>2013-04-14T07:08:48Z</time>
      </trkpt>
      <trkpt lat="46.10653" lon="3.41411">
        <ele>268.57</ele>
        <time>2013-04-14T07:08:52Z</time>
      </trkpt>
      <trkpt lat="46.10635" lon="3.41422">
        <ele>269.14</ele>
        <time>2013-04-14T07:08:55Z</time>
      </trkpt>
      <trkpt lat="46.10615" lon="3.41432">
        <ele>269.13</ele>
        <time>2013-04-14T07:08:58Z</time>
      </trkpt>
      <trkpt lat="46.10596" lon="3.41443">
        <ele>268.8</ele>
        <time>2013-04-14T07:09:01Z</time>
      </trkpt>
      <trkpt lat="46.10578" lon="3.41452">
        <ele>268.66</ele>
        <time>2013-04-14T07:09:04Z</time>
      </trkpt>
      <trkpt lat="46.1056" lon="3.41462">
        <ele>268.35</ele>
        <time>2013-04-14T07:09:07Z</time>
      </trkpt>
      <trkpt lat="46.1054" lon="3.41458">
        <ele>267.89</ele>
        <time>2013-04-14T07:09:10Z</time>
      </trkpt>
      <trkpt lat="46.10525" lon="3.4148">
        <ele>267.66</ele>
        <time>2013-04-14T07:09:14Z</time>
      </trkpt>
      <trkpt lat="46.10512" lon="3.41507">
        <ele>268.52</ele>
        <time>2013-04-14T07:09:18Z</time>
      </trkpt>
      <trkpt lat="46.10501" lon="3.41529">
        <ele>269.55</ele>
        <time>2013-04-14T07:09:21Z</time>
      </trkpt>
      <trkpt lat="46.10482" lon="3.41552">
        <ele>270.82</ele>
        <time>2013-04-14T07:09:25Z</time>
      </trkpt>
      <trkpt lat="46.10468" lon="3.4157">
        <ele>271.68</ele>
        <time>2013-04-14T07:09:28Z</time>
      </trkpt>
      <trkpt lat="46.10451" lon="3.41578">
        <ele>272.62</ele>
        <time>2013-04-14T07:09:31Z</time>
      </trkpt>
      <trkpt lat="46.10434" lon="3.41587">
        <ele>272.72</ele>
        <time>2013-04-14T07:09:34Z</time>
      </trkpt>
      <trkpt lat="46.10416" lon="3.41595">
        <ele>271.94</ele>
        <time>2013-04-14T07:09:37Z</time>
      </trkpt>
      <trkpt lat="46.10399" lon="3.41606">
        <ele>270.7</ele>
        <time>2013-04-14T07:09:40Z</time>
      </trkpt>
      <trkpt lat="46.10377" lon="3.41619">
        <ele>268.79</ele>
        <time>2013-04-14T07:09:44Z</time>
      </trkpt>
      <trkpt lat="46.1036" lon="3.41628">
        <ele>267.64</ele>
        <time>2013-04-14T07:09:47Z</time>
      </trkpt>
      <trkpt lat="46.10343" lon="3.41638">
        <ele>267.01</ele>
        <time>2013-04-14T07:09:50Z</time>
      </trkpt>
      <trkpt lat="46.10326" lon="3.41649">
        <ele>266.75</ele>
        <time>2013-04-14T07:09:53Z</time>
      </trkpt>
      <trkpt lat="46.10307" lon="3.41653">
        <ele>266.63</ele>
        <time>2013-04-14T07:09:56Z</time>
      </trkpt>
      <trkpt lat="46.10289" lon="3.41649">
        <ele>266.01</ele>
        <time>2013-04-14T07:09:59Z</time>
      </trkpt>
      <trkpt lat="46.10271" lon="3.41647">
        <ele>266.18</ele>
        <time>2013-04-14T07:10:02Z</time>
      </trkpt>
      <trkpt lat="46.10248" lon="3.41643">
        <ele>266.58</ele>
        <time>2013-04-14T07:10:06Z</time>
      </trkpt>
      <trkpt lat="46.10226" lon="3.41638">
        <ele>267.25</ele>
        <time>2013-04-14T07:10:10Z</time>
      </trkpt>
      <trkpt lat="46.10204" lon="3.41634">
        <ele>267.02</ele>
        <time>2013-04-14T07:10:14Z</time>
      </trkpt>
      <trkpt lat="46.10186" lon="3.4163">
        <ele>266.75</ele>
        <time>2013-04-14T07:10:17Z</time>
      </trkpt>
      <trkpt lat="46.10168" lon="3.41628">
        <ele>267.21</ele>
        <time>2013-04-14T07:10:20Z</time>
      </trkpt>
      <trkpt lat="46.10145" lon="3.41623">
        <ele>267.45</ele>
        <time>2013-04-14T07:10:24Z</time>
      </trkpt>
      <trkpt lat="46.10126" lon="3.41621">
        <ele>267.52</ele>
        <time>2013-04-14T07:10:28Z</time>
      </trkpt>
      <trkpt lat="46.10108" lon="3.41619">
        <ele>268.48</ele>
        <time>2013-04-14T07:10:32Z</time>
      </trkpt>
      <trkpt lat="46.1009" lon="3.41613">
        <ele>270.04</ele>
        <time>2013-04-14T07:10:36Z</time>
      </trkpt>
      <trkpt lat="46.1007" lon="3.41604">
        <ele>272.01</ele>
        <time>2013-04-14T07:10:40Z</time>
      </trkpt>
      <trkpt lat="46.10051" lon="3.41595">
        <ele>273.64</ele>
        <time>2013-04-14T07:10:44Z</time>
      </trkpt>
      <trkpt lat="46.10032" lon="3.41587">
        <ele>275.2</ele>
        <time>2013-04-14T07:10:48Z</time>
      </trkpt>
      <trkpt lat="46.10013" lon="3.41578">
        <ele>276.95</ele>
        <time>2013-04-14T07:10:52Z</time>
      </trkpt>
      <trkpt lat="46.09995" lon="3.4157">
        <ele>278.05</ele>
        <time>2013-04-14T07:10:56Z</time>
      </trkpt>
      <trkpt lat="46.09976" lon="3.41563">
        <ele>279.08</ele>
        <time>2013-04-14T07:11:00Z</time>
      </trkpt>
      <trkpt lat="46.09956" lon="3.41555">
        <ele>279.84</ele>
        <time>2013-04-14T07:11:04Z</time>
      </trkpt>
      <trkpt lat="46.09934" lon="3.41546">
        <ele>280.33</ele>
        <time>2013-04-14T07:11:08Z</time>
      </trkpt>
      <trkpt lat="46.09917" lon="3.41537">
        <ele>280.46</ele>
        <time>2013-04-14T07:11:11Z</time>
      </trkpt>
      <trkpt lat="46.09897" lon="3.41529">
        <ele>280.95</ele>
        <time>2013-04-14T07:11:14Z</time>
      </trkpt>
      <trkpt lat="46.09875" lon="3.41518">
        <ele>280.72</ele>
        <time>2013-04-14T07:11:17Z</time>
      </trkpt>
      <trkpt lat="46.09853" lon="3.4151">
        <ele>280.62</ele>
        <time>2013-04-14T07:11:20Z</time>
      </trkpt>
      <trkpt lat="46.09832" lon="3.41499">
        <ele>280.33</ele>
        <time>2013-04-14T07:11:23Z</time>
      </trkpt>
      <trkpt lat="46.09818" lon="3.41516">
        <ele>279.61</ele>
        <time>2013-04-14T07:11:32Z</time>
      </trkpt>
      <trkpt lat="46.09809" lon="3.4154">
        <ele>279.56</ele>
        <time>2013-04-14T07:11:42Z</time>
      </trkpt>
      <trkpt lat="46.09792" lon="3.41555">
        <ele>279.55</ele>
        <time>2013-04-14T07:11:54Z</time>
      </trkpt>
      <trkpt lat="46.09775" lon="3.41563">
        <ele>279.55</ele>
        <time>2013-04-14T07:12:08Z</time>
      </trkpt>
      <trkpt lat="46.09757" lon="3.41563">
        <ele>281.03</ele>
        <time>2013-04-14T07:12:24Z</time>
      </trkpt>
      <trkpt lat="46.09738" lon="3.41557">
        <ele>283.61</ele>
        <time>2013-04-14T07:12:37Z</time>
      </trkpt>
      <trkpt lat="46.0972" lon="3.4155">
        <ele>285.34</ele>
        <time>2013-04-14T07:12:48Z</time>
      </trkpt>
      <trkpt lat="46.09702" lon="3.4154">
        <ele>287.98</ele>
        <time>2013-04-14T07:13:02Z</time>
      </trkpt>
      <trkpt lat="46.09683" lon="3.41531">
        <ele>289.87</ele>
        <time>2013-04-14T07:13:11Z</time>
      </trkpt>
      <trkpt lat="46.09665" lon="3.41522">
        <ele>290.53</ele>
        <time>2013-04-14T07:13:23Z</time>
      </trkpt>
      <trkpt lat="46.09652" lon="3.41503">
        <ele>292.52</ele>
        <time>2013-04-14T07:13:34Z</time>
      </trkpt>
      <trkpt lat="46.09634" lon="3.41492">
        <ele>294.55</ele>
        <time>2013-04-14T07:13:43Z</time>
      </trkpt>
      <trkpt lat="46.09621" lon="3.41471">
        <ele>296.77</ele>
        <time>2013-04-14T07:13:54Z</time>
      </trkpt>
      <trkpt lat="46.09604" lon="3.41458">
        <ele>298.18</ele>
        <time>2013-04-14T07:14:00Z</time>
      </trkpt>
      <trkpt lat="46.09585" lon="3.41445">
        <ele>299.31</ele>
        <time>2013-04-14T07:14:06Z</time>
      </trkpt>
      <trkpt lat="46.09566" lon="3.41443">
        <ele>300.27</ele>
        <time>2013-04-14T07:14:12Z</time>
      </trkpt>
      <trkpt lat="46.09547" lon="3.41441">
        <ele>301.08</ele>
        <time>2013-04-14T07:14:18Z</time>
      </trkpt>
      <trkpt lat="46.09527" lon="3.41434">
        <ele>301.47</ele>
        <time>2013-04-14T07:14:24Z</time>
      </trkpt>
      <trkpt lat="46.09509" lon="3.41428">
        <ele>302.3</ele>
        <time>2013-04-14T07:14:30Z</time>
      </trkpt>
      <trkpt lat="46.09492" lon="3.41413">
        <ele>302.76</ele>
        <time>2013-04-14T07:14:36Z</time>
      </trkpt>
      <trkpt lat="46.09474" lon="3.41402">
        <ele>303.41</ele>
        <time>2013-04-14T07:14:42Z</time>
      </trkpt>
      <trkpt lat="46.09456" lon="3.41394">
        <ele>303.96</ele>
        <time>2013-04-14T07:14:47Z</time>
      </trkpt>
      <trkpt lat="46.09437" lon="3.41387">
        <ele>305.75</ele>
        <time>2013-04-14T07:14:52Z</time>
      </trkpt>
      <trkpt lat="46.09417" lon="3.41379">
        <ele>306.41</ele>
        <time>2013-04-14T07:14:58Z</time>
      </trkpt>
      <trkpt lat="46.09398" lon="3.41372">
        <ele>306.77</ele>
        <time>2013-04-14T07:15:03Z</time>
      </trkpt>
      <trkpt lat="46.09378" lon="3.41366">
        <ele>307.37</ele>
        <time>2013-04-14T07:15:08Z</time>
      </trkpt>
      <trkpt lat="46.09359" lon="3.41357">
        <ele>307.95</ele>
        <time>2013-04-14T07:15:13Z</time>
      </trkpt>
      <trkpt lat="46.09339" lon="3.41349">
        <ele>308.41</ele>
        <time>2013-04-14T07:15:18Z</time>
      </trkpt>
      <trkpt lat="46.09318" lon="3.4134">
        <ele>308.01</ele>
        <time>2013-04-14T07:15:23Z</time>
      </trkpt>
      <trkpt lat="46.09297" lon="3.41331">
        <ele>308.86</ele>
        <time>2013-04-14T07:15:28Z</time>
      </trkpt>
      <trkpt lat="46.0928" lon="3.41323">
        <ele>309.33</ele>
        <time>2013-04-14T07:15:32Z</time>
      </trkpt>
      <trkpt lat="46.09261" lon="3.41316">
        <ele>308.91</ele>
        <time>2013-04-14T07:15:36Z</time>
      </trkpt>
      <trkpt lat="46.09243" lon="3.4131">
        <ele>307.98</ele>
        <time>2013-04-14T07:15:40Z</time>
      </trkpt>
      <trkpt lat="46.09226" lon="3.41301">
        <ele>307.69</ele>
        <time>2013-04-14T07:15:44Z</time>
      </trkpt>
      <trkpt lat="46.09208" lon="3.41295">
        <ele>307.6</ele>
        <time>2013-04-14T07:15:48Z</time>
      </trkpt>
      <trkpt lat="46.0919" lon="3.41286">
        <ele>307.82</ele>
        <time>2013-04-14T07:15:52Z</time>
      </trkpt>
      <trkpt lat="46.09168" lon="3.41278">
        <ele>307.94</ele>
        <time>2013-04-14T07:15:57Z</time>
      </trkpt>
      <trkpt lat="46.09149" lon="3.41271">
        <ele>307.68</ele>
        <time>2013-04-14T07:16:01Z</time>
      </trkpt>
      <trkpt lat="46.09131" lon="3.41265">
        <ele>307.59</ele>
        <time>2013-04-14T07:16:05Z</time>
      </trkpt>
      <trkpt lat="46.09112" lon="3.41256">
        <ele>307.57</ele>
        <time>2013-04-14T07:16:09Z</time>
      </trkpt>
      <trkpt lat="46.09094" lon="3.4125">
        <ele>307.56</ele>
        <time>2013-04-14T07:16:13Z</time>
      </trkpt>
      <trkpt lat="46.09076" lon="3.41241">
        <ele>307.55</ele>
        <time>2013-04-14T07:16:17Z</time>
      </trkpt>
      <trkpt lat="46.09056" lon="3.41237">
        <ele>308.13</ele>
        <time>2013-04-14T07:16:22Z</time>
      </trkpt>
      <trkpt lat="46.0906" lon="3.41265">
        <ele>308.48</ele>
        <time>2013-04-14T07:16:28Z</time>
      </trkpt>
      <trkpt lat="46.09063" lon="3.41293">
        <ele>308.53</ele>
        <time>2013-04-14T07:16:32Z</time>
      </trkpt>
      <trkpt lat="46.09066" lon="3.41321">
        <ele>308.55</ele>
        <time>2013-04-14T07:16:36Z</time>
      </trkpt>
      <trkpt lat="46.09069" lon="3.41347">
        <ele>308.99</ele>
        <time>2013-04-14T07:16:39Z</time>
      </trkpt>
      <trkpt lat="46.09074" lon="3.41379">
        <ele>309.37</ele>
        <time>2013-04-14T07:16:43Z</time>
      </trkpt>
      <trkpt lat="46.09077" lon="3.41404">
        <ele>309.04</ele>
        <time>2013-04-14T07:16:46Z</time>
      </trkpt>
      <trkpt lat="46.0908" lon="3.41432">
        <ele>309.09</ele>
        <time>2013-04-14T07:16:49Z</time>
      </trkpt>
      <trkpt lat="46.09082" lon="3.41458">
        <ele>308.78</ele>
        <time>2013-04-14T07:16:52Z</time>
      </trkpt>
      <trkpt lat="46.09085" lon="3.41486">
        <ele>308.65</ele>
        <time>2013-04-14T07:16:55Z</time>
      </trkpt>
      <trkpt lat="46.09088" lon="3.41512">
        <ele>307.76</ele>
        <time>2013-04-14T07:16:58Z</time>
      </trkpt>
      <trkpt lat="46.09088" lon="3.41544">
        <ele>306.5</ele>
        <time>2013-04-14T07:17:02Z</time>
      </trkpt>
      <trkpt lat="46.09088" lon="3.41578">
        <ele>305.85</ele>
        <time>2013-04-14T07:17:06Z</time>
      </trkpt>
      <trkpt lat="46.09088" lon="3.41606">
        <ele>306.12</ele>
        <time>2013-04-14T07:17:09Z</time>
      </trkpt>
      <trkpt lat="46.09089" lon="3.41634">
        <ele>306.81</ele>
        <time>2013-04-14T07:17:12Z</time>
      </trkpt>
      <trkpt lat="46.09083" lon="3.41664">
        <ele>307.82</ele>
        <time>2013-04-14T07:17:15Z</time>
      </trkpt>
      <trkpt lat="46.0907" lon="3.41696">
        <ele>308.49</ele>
        <time>2013-04-14T07:17:18Z</time>
      </trkpt>
      <trkpt lat="46.09062" lon="3.41722">
        <ele>308.52</ele>
        <time>2013-04-14T07:17:20Z</time>
      </trkpt>
      <trkpt lat="46.09054" lon="3.41748">
        <ele>308.53</ele>
        <time>2013-04-14T07:17:22Z</time>
      </trkpt>
      <trkpt lat="46.09046" lon="3.41776">
        <ele>308.54</ele>
        <time>2013-04-14T07:17:24Z</time>
      </trkpt>
      <trkpt lat="46.09037" lon="3.41801">
        <ele>308.55</ele>
        <time>2013-04-14T07:17:26Z</time>
      </trkpt>
      <trkpt lat="46.09037" lon="3.41836">
        <ele>308.55</ele>
        <time>2013-04-14T07:17:29Z</time>
      </trkpt>
      <trkpt lat="46.09051" lon="3.41866">
        <ele>308.3</ele>
        <time>2013-04-14T07:17:32Z</time>
      </trkpt>
      <trkpt lat="46.09061" lon="3.41889">
        <ele>307.29</ele>
        <time>2013-04-14T07:17:34Z</time>
      </trkpt>
      <trkpt lat="46.09076" lon="3.41919">
        <ele>305.6</ele>
        <time>2013-04-14T07:17:37Z</time>
      </trkpt>
      <trkpt lat="46.09089" lon="3.41949">
        <ele>303.15</ele>
        <time>2013-04-14T07:17:40Z</time>
      </trkpt>
      <trkpt lat="46.09098" lon="3.4198">
        <ele>300.82</ele>
        <time>2013-04-14T07:17:43Z</time>
      </trkpt>
      <trkpt lat="46.09105" lon="3.42012">
        <ele>299.07</ele>
        <time>2013-04-14T07:17:46Z</time>
      </trkpt>
      <trkpt lat="46.09111" lon="3.42044">
        <ele>297.62</ele>
        <time>2013-04-14T07:17:49Z</time>
      </trkpt>
      <trkpt lat="46.09117" lon="3.42078">
        <ele>296.42</ele>
        <time>2013-04-14T07:17:52Z</time>
      </trkpt>
      <trkpt lat="46.0912" lon="3.4211">
        <ele>295.48</ele>
        <time>2013-04-14T07:17:55Z</time>
      </trkpt>
      <trkpt lat="46.09117" lon="3.4214">
        <ele>294.51</ele>
        <time>2013-04-14T07:17:58Z</time>
      </trkpt>
      <trkpt lat="46.09112" lon="3.42168">
        <ele>293.13</ele>
        <time>2013-04-14T07:18:01Z</time>
      </trkpt>
      <trkpt lat="46.09114" lon="3.42198">
        <ele>291.53</ele>
        <time>2013-04-14T07:18:04Z</time>
      </trkpt>
      <trkpt lat="46.09115" lon="3.42231">
        <ele>289.95</ele>
        <time>2013-04-14T07:18:07Z</time>
      </trkpt>
      <trkpt lat="46.0911" lon="3.42263">
        <ele>288.13</ele>
        <time>2013-04-14T07:18:10Z</time>
      </trkpt>
      <trkpt lat="46.09104" lon="3.42299">
        <ele>286.2</ele>
        <time>2013-04-14T07:18:13Z</time>
      </trkpt>
      <trkpt lat="46.09097" lon="3.42325">
        <ele>284.79</ele>
        <time>2013-04-14T07:18:15Z</time>
      </trkpt>
      <trkpt lat="46.09088" lon="3.42359">
        <ele>283.06</ele>
        <time>2013-04-14T07:18:18Z</time>
      </trkpt>
      <trkpt lat="46.09081" lon="3.42391">
        <ele>281.75</ele>
        <time>2013-04-14T07:18:21Z</time>
      </trkpt>
      <trkpt lat="46.09076" lon="3.42422">
        <ele>280.62</ele>
        <time>2013-04-14T07:18:24Z</time>
      </trkpt>
      <trkpt lat="46.0907" lon="3.42454">
        <ele>279.57</ele>
        <time>2013-04-14T07:18:27Z</time>
      </trkpt>
      <trkpt lat="46.09066" lon="3.42482">
        <ele>278.54</ele>
        <time>2013-04-14T07:18:30Z</time>
      </trkpt>
      <trkpt lat="46.09062" lon="3.42514">
        <ele>277.72</ele>
        <time>2013-04-14T07:18:33Z</time>
      </trkpt>
      <trkpt lat="46.09058" lon="3.42544">
        <ele>276.61</ele>
        <time>2013-04-14T07:18:36Z</time>
      </trkpt>
      <trkpt lat="46.09053" lon="3.42576">
        <ele>275.75</ele>
        <time>2013-04-14T07:18:39Z</time>
      </trkpt>
      <trkpt lat="46.0905" lon="3.42606">
        <ele>275.06</ele>
        <time>2013-04-14T07:18:42Z</time>
      </trkpt>
      <trkpt lat="46.09046" lon="3.42634">
        <ele>274.52</ele>
        <time>2013-04-14T07:18:45Z</time>
      </trkpt>
      <trkpt lat="46.09041" lon="3.42666">
        <ele>273.71</ele>
        <time>2013-04-14T07:18:48Z</time>
      </trkpt>
      <trkpt lat="46.09038" lon="3.42692">
        <ele>273.2</ele>
        <time>2013-04-14T07:18:50Z</time>
      </trkpt>
      <trkpt lat="46.09031" lon="3.42718">
        <ele>272.92</ele>
        <time>2013-04-14T07:18:52Z</time>
      </trkpt>
      <trkpt lat="46.0902" lon="3.42739">
        <ele>272.76</ele>
        <time>2013-04-14T07:18:54Z</time>
      </trkpt>
      <trkpt lat="46.09005" lon="3.42771">
        <ele>272.83</ele>
        <time>2013-04-14T07:18:57Z</time>
      </trkpt>
      <trkpt lat="46.08992" lon="3.42801">
        <ele>271.98</ele>
        <time>2013-04-14T07:19:00Z</time>
      </trkpt>
      <trkpt lat="46.08976" lon="3.42825">
        <ele>268.51</ele>
        <time>2013-04-14T07:19:03Z</time>
      </trkpt>
      <trkpt lat="46.08959" lon="3.4284">
        <ele>263.37</ele>
        <time>2013-04-14T07:19:06Z</time>
      </trkpt>
      <trkpt lat="46.08942" lon="3.42853">
        <ele>259.13</ele>
        <time>2013-04-14T07:19:09Z</time>
      </trkpt>
      <trkpt lat="46.08923" lon="3.42864">
        <ele>256.48</ele>
        <time>2013-04-14T07:19:12Z</time>
      </trkpt>
      <trkpt lat="46.08905" lon="3.42874">
        <ele>255.12</ele>
        <time>2013-04-14T07:19:15Z</time>
      </trkpt>
      <trkpt lat="46.08886" lon="3.42887">
        <ele>254.05</ele>
        <time>2013-04-14T07:19:19Z</time>
      </trkpt>
      <trkpt lat="46.08891" lon="3.42915">
        <ele>255.22</ele>
        <time>2013-04-14T07:19:23Z</time>
      </trkpt>
      <trkpt lat="46.08902" lon="3.42941">
        <ele>255.99</ele>
        <time>2013-04-14T07:19:26Z</time>
      </trkpt>
      <trkpt lat="46.08911" lon="3.42967">
        <ele>256.32</ele>
        <time>2013-04-14T07:19:29Z</time>
      </trkpt>
      <trkpt lat="46.08919" lon="3.42997">
        <ele>256.7</ele>
        <time>2013-04-14T07:19:32Z</time>
      </trkpt>
      <trkpt lat="46.08928" lon="3.43024">
        <ele>257.63</ele>
        <time>2013-04-14T07:19:35Z</time>
      </trkpt>
      <trkpt lat="46.0894" lon="3.4305">
        <ele>258.16</ele>
        <time>2013-04-14T07:19:38Z</time>
      </trkpt>
      <trkpt lat="46.08958" lon="3.43067">
        <ele>258.39</ele>
        <time>2013-04-14T07:19:41Z</time>
      </trkpt>
      <trkpt lat="46.08975" lon="3.4308">
        <ele>258.73</ele>
        <time>2013-04-14T07:19:44Z</time>
      </trkpt>
      <trkpt lat="46.08992" lon="3.43091">
        <ele>259.21</ele>
        <time>2013-04-14T07:19:47Z</time>
      </trkpt>
      <trkpt lat="46.09012" lon="3.43104">
        <ele>260.02</ele>
        <time>2013-04-14T07:19:51Z</time>
      </trkpt>
      <trkpt lat="46.09029" lon="3.43125">
        <ele>260.38</ele>
        <time>2013-04-14T07:19:55Z</time>
      </trkpt>
      <trkpt lat="46.0903" lon="3.43158">
        <ele>259.38</ele>
        <time>2013-04-14T07:19:59Z</time>
      </trkpt>
      <trkpt lat="46.09031" lon="3.4319">
        <ele>257.88</ele>
        <time>2013-04-14T07:20:03Z</time>
      </trkpt>
      <trkpt lat="46.09031" lon="3.4322">
        <ele>256.97</ele>
        <time>2013-04-14T07:20:07Z</time>
      </trkpt>
      <trkpt lat="46.09032" lon="3.4325">
        <ele>256</ele>
        <time>2013-04-14T07:20:11Z</time>
      </trkpt>
      <trkpt lat="46.09031" lon="3.43278">
        <ele>255.7</ele>
        <time>2013-04-14T07:20:15Z</time>
      </trkpt>
      <trkpt lat="46.09029" lon="3.4331">
        <ele>256.16</ele>
        <time>2013-04-14T07:20:20Z</time>
      </trkpt>
      <trkpt lat="46.09026" lon="3.43338">
        <ele>256.43</ele>
        <time>2013-04-14T07:20:24Z</time>
      </trkpt>
      <trkpt lat="46.09024" lon="3.43366">
        <ele>256.76</ele>
        <time>2013-04-14T07:20:28Z</time>
      </trkpt>
      <trkpt lat="46.09022" lon="3.43394">
        <ele>257.3</ele>
        <time>2013-04-14T07:20:32Z</time>
      </trkpt>
      <trkpt lat="46.09019" lon="3.43421">
        <ele>257.72</ele>
        <time>2013-04-14T07:20:36Z</time>
      </trkpt>
      <trkpt lat="46.09017" lon="3.43447">
        <ele>258.29</ele>
        <time>2013-04-14T07:20:40Z</time>
      </trkpt>
      <trkpt lat="46.09029" lon="3.43469">
        <ele>258.51</ele>
        <time>2013-04-14T07:20:46Z</time>
      </trkpt>
      <trkpt lat="46.09049" lon="3.43475">
        <ele>257.96</ele>
        <time>2013-04-14T07:20:51Z</time>
      </trkpt>
      <trkpt lat="46.0907" lon="3.43479">
        <ele>258.09</ele>
        <time>2013-04-14T07:20:56Z</time>
      </trkpt>
      <trkpt lat="46.09089" lon="3.43484">
        <ele>258.41</ele>
        <time>2013-04-14T07:21:00Z</time>
      </trkpt>
      <trkpt lat="46.09108" lon="3.43488">
        <ele>259.08</ele>
        <time>2013-04-14T07:21:04Z</time>
      </trkpt>
      <trkpt lat="46.09126" lon="3.43492">
        <ele>259.84</ele>
        <time>2013-04-14T07:21:08Z</time>
      </trkpt>
      <trkpt lat="46.09144" lon="3.43501">
        <ele>260.33</ele>
        <time>2013-04-14T07:21:12Z</time>
      </trkpt>
      <trkpt lat="46.09162" lon="3.43512">
        <ele>260.48</ele>
        <time>2013-04-14T07:21:16Z</time>
      </trkpt>
      <trkpt lat="46.0918" lon="3.43522">
        <ele>260.53</ele>
        <time>2013-04-14T07:21:20Z</time>
      </trkpt>
      <trkpt lat="46.09198" lon="3.43533">
        <ele>260.55</ele>
        <time>2013-04-14T07:21:24Z</time>
      </trkpt>
      <trkpt lat="46.09217" lon="3.43542">
        <ele>260.99</ele>
        <time>2013-04-14T07:21:28Z</time>
      </trkpt>
      <trkpt lat="46.09236" lon="3.43548">
        <ele>261.31</ele>
        <time>2013-04-14T07:21:31Z</time>
      </trkpt>
      <trkpt lat="46.09257" lon="3.43559">
        <ele>261.48</ele>
        <time>2013-04-14T07:21:35Z</time>
      </trkpt>
      <trkpt lat="46.09277" lon="3.4357">
        <ele>261.53</ele>
        <time>2013-04-14T07:21:39Z</time>
      </trkpt>
      <trkpt lat="46.09298" lon="3.4358">
        <ele>261.55</ele>
        <time>2013-04-14T07:21:43Z</time>
      </trkpt>
      <trkpt lat="46.09318" lon="3.43589">
        <ele>261.55</ele>
        <time>2013-04-14T07:21:47Z</time>
      </trkpt>
      <trkpt lat="46.09338" lon="3.436">
        <ele>261.8</ele>
        <time>2013-04-14T07:21:51Z</time>
      </trkpt>
      <trkpt lat="46.09356" lon="3.43608">
        <ele>262.32</ele>
        <time>2013-04-14T07:21:55Z</time>
      </trkpt>
      <trkpt lat="46.09375" lon="3.43619">
        <ele>262.92</ele>
        <time>2013-04-14T07:21:59Z</time>
      </trkpt>
      <trkpt lat="46.09396" lon="3.4363">
        <ele>263.35</ele>
        <time>2013-04-14T07:22:03Z</time>
      </trkpt>
      <trkpt lat="46.09415" lon="3.4364">
        <ele>264.17</ele>
        <time>2013-04-14T07:22:07Z</time>
      </trkpt>
      <trkpt lat="46.09418" lon="3.43666">
        <ele>264.26</ele>
        <time>2013-04-14T07:22:15Z</time>
      </trkpt>
      <trkpt lat="46.09411" lon="3.4369">
        <ele>262.6</ele>
        <time>2013-04-14T07:22:20Z</time>
      </trkpt>
      <trkpt lat="46.09399" lon="3.43715">
        <ele>261.36</ele>
        <time>2013-04-14T07:22:25Z</time>
      </trkpt>
      <trkpt lat="46.09388" lon="3.43737">
        <ele>260.81</ele>
        <time>2013-04-14T07:22:29Z</time>
      </trkpt>
      <trkpt lat="46.09375" lon="3.4376">
        <ele>261.21</ele>
        <time>2013-04-14T07:22:33Z</time>
      </trkpt>
      <trkpt lat="46.09363" lon="3.43784">
        <ele>261.12</ele>
        <time>2013-04-14T07:22:37Z</time>
      </trkpt>
      <trkpt lat="46.0935" lon="3.4381">
        <ele>261.42</ele>
        <time>2013-04-14T07:22:41Z</time>
      </trkpt>
      <trkpt lat="46.09338" lon="3.43838">
        <ele>261.51</ele>
        <time>2013-04-14T07:22:45Z</time>
      </trkpt>
      <trkpt lat="46.09325" lon="3.43866">
        <ele>261.54</ele>
        <time>2013-04-14T07:22:49Z</time>
      </trkpt>
      <trkpt lat="46.09314" lon="3.43887">
        <ele>261.55</ele>
        <time>2013-04-14T07:22:52Z</time>
      </trkpt>
      <trkpt lat="46.093" lon="3.43913">
        <ele>261.55</ele>
        <time>2013-04-14T07:22:56Z</time>
      </trkpt>
      <trkpt lat="46.09285" lon="3.43939">
        <ele>261.55</ele>
        <time>2013-04-14T07:23:00Z</time>
      </trkpt>
      <trkpt lat="46.09271" lon="3.43964">
        <ele>261.55</ele>
        <time>2013-04-14T07:23:04Z</time>
      </trkpt>
      <trkpt lat="46.09257" lon="3.43988">
        <ele>261.55</ele>
        <time>2013-04-14T07:23:08Z</time>
      </trkpt>
      <trkpt lat="46.09244" lon="3.44012">
        <ele>261.55</ele>
        <time>2013-04-14T07:23:12Z</time>
      </trkpt>
      <trkpt lat="46.09228" lon="3.44044">
        <ele>261.55</ele>
        <time>2013-04-14T07:23:17Z</time>
      </trkpt>
      <trkpt lat="46.09233" lon="3.44069">
        <ele>261.55</ele>
        <time>2013-04-14T07:23:26Z</time>
      </trkpt>
      <trkpt lat="46.09252" lon="3.44076">
        <ele>261.55</ele>
        <time>2013-04-14T07:23:31Z</time>
      </trkpt>
      <trkpt lat="46.0927" lon="3.44082">
        <ele>261.55</ele>
        <time>2013-04-14T07:23:36Z</time>
      </trkpt>
      <trkpt lat="46.09288" lon="3.44091">
        <ele>261.8</ele>
        <time>2013-04-14T07:23:41Z</time>
      </trkpt>
      <trkpt lat="46.09308" lon="3.441">
        <ele>262.63</ele>
        <time>2013-04-14T07:23:46Z</time>
      </trkpt>
      <trkpt lat="46.09327" lon="3.44106">
        <ele>263.91</ele>
        <time>2013-04-14T07:23:51Z</time>
      </trkpt>
      <trkpt lat="46.09348" lon="3.44115">
        <ele>265.2</ele>
        <time>2013-04-14T07:23:57Z</time>
      </trkpt>
      <trkpt lat="46.09369" lon="3.44123">
        <ele>265.74</ele>
        <time>2013-04-14T07:24:03Z</time>
      </trkpt>
      <trkpt lat="46.09386" lon="3.44132">
        <ele>266.36</ele>
        <time>2013-04-14T07:24:08Z</time>
      </trkpt>
      <trkpt lat="46.09405" lon="3.4414">
        <ele>266.77</ele>
        <time>2013-04-14T07:24:14Z</time>
      </trkpt>
      <trkpt lat="46.09424" lon="3.44149">
        <ele>267.37</ele>
        <time>2013-04-14T07:24:19Z</time>
      </trkpt>
      <trkpt lat="46.09444" lon="3.44157">
        <ele>267.95</ele>
        <time>2013-04-14T07:24:24Z</time>
      </trkpt>
      <trkpt lat="46.09463" lon="3.44168">
        <ele>269.1</ele>
        <time>2013-04-14T07:24:29Z</time>
      </trkpt>
      <trkpt lat="46.0948" lon="3.44177">
        <ele>270.78</ele>
        <time>2013-04-14T07:24:33Z</time>
      </trkpt>
      <trkpt lat="46.09497" lon="3.44185">
        <ele>271.89</ele>
        <time>2013-04-14T07:24:37Z</time>
      </trkpt>
      <trkpt lat="46.09515" lon="3.44194">
        <ele>272.59</ele>
        <time>2013-04-14T07:24:41Z</time>
      </trkpt>
      <trkpt lat="46.09532" lon="3.44203">
        <ele>273.25</ele>
        <time>2013-04-14T07:24:45Z</time>
      </trkpt>
      <trkpt lat="46.0955" lon="3.44211">
        <ele>272.88</ele>
        <time>2013-04-14T07:24:49Z</time>
      </trkpt>
      <trkpt lat="46.09567" lon="3.4422">
        <ele>272.66</ele>
        <time>2013-04-14T07:24:53Z</time>
      </trkpt>
      <trkpt lat="46.09584" lon="3.44228">
        <ele>272.59</ele>
        <time>2013-04-14T07:24:57Z</time>
      </trkpt>
      <trkpt lat="46.09603" lon="3.44237">
        <ele>272.56</ele>
        <time>2013-04-14T07:25:01Z</time>
      </trkpt>
      <trkpt lat="46.09625" lon="3.44245">
        <ele>272.56</ele>
        <time>2013-04-14T07:25:06Z</time>
      </trkpt>
      <trkpt lat="46.09642" lon="3.44254">
        <ele>272.55</ele>
        <time>2013-04-14T07:25:10Z</time>
      </trkpt>
      <trkpt lat="46.09662" lon="3.44265">
        <ele>272.3</ele>
        <time>2013-04-14T07:25:15Z</time>
      </trkpt>
      <trkpt lat="46.0968" lon="3.44275">
        <ele>271.21</ele>
        <time>2013-04-14T07:25:19Z</time>
      </trkpt>
      <trkpt lat="46.09699" lon="3.44286">
        <ele>269.64</ele>
        <time>2013-04-14T07:25:23Z</time>
      </trkpt>
      <trkpt lat="46.09717" lon="3.44303">
        <ele>268.9</ele>
        <time>2013-04-14T07:25:27Z</time>
      </trkpt>
      <trkpt lat="46.09736" lon="3.44314">
        <ele>268.63</ele>
        <time>2013-04-14T07:25:32Z</time>
      </trkpt>
      <trkpt lat="46.09754" lon="3.44323">
        <ele>269.26</ele>
        <time>2013-04-14T07:25:37Z</time>
      </trkpt>
      <trkpt lat="46.09771" lon="3.44331">
        <ele>269.48</ele>
        <time>2013-04-14T07:25:42Z</time>
      </trkpt>
      <trkpt lat="46.09789" lon="3.44331">
        <ele>270.22</ele>
        <time>2013-04-14T07:25:48Z</time>
      </trkpt>
      <trkpt lat="46.09807" lon="3.44327">
        <ele>270.91</ele>
        <time>2013-04-14T07:25:53Z</time>
      </trkpt>
      <trkpt lat="46.09826" lon="3.44329">
        <ele>272.85</ele>
        <time>2013-04-14T07:25:58Z</time>
      </trkpt>
      <trkpt lat="46.09834" lon="3.44357">
        <ele>274.94</ele>
        <time>2013-04-14T07:26:04Z</time>
      </trkpt>
      <trkpt lat="46.09824" lon="3.44378">
        <ele>276.93</ele>
        <time>2013-04-14T07:26:09Z</time>
      </trkpt>
      <trkpt lat="46.09807" lon="3.44398">
        <ele>277.69</ele>
        <time>2013-04-14T07:26:15Z</time>
      </trkpt>
      <trkpt lat="46.09791" lon="3.44413">
        <ele>279.47</ele>
        <time>2013-04-14T07:26:20Z</time>
      </trkpt>
      <trkpt lat="46.0977" lon="3.44417">
        <ele>281.27</ele>
        <time>2013-04-14T07:26:27Z</time>
      </trkpt>
      <trkpt lat="46.09748" lon="3.44411">
        <ele>281.75</ele>
        <time>2013-04-14T07:26:33Z</time>
      </trkpt>
      <trkpt lat="46.09729" lon="3.44409">
        <ele>282.88</ele>
        <time>2013-04-14T07:26:37Z</time>
      </trkpt>
      <trkpt lat="46.0971" lon="3.44415">
        <ele>283.27</ele>
        <time>2013-04-14T07:26:40Z</time>
      </trkpt>
      <trkpt lat="46.09688" lon="3.44421">
        <ele>283.18</ele>
        <time>2013-04-14T07:26:43Z</time>
      </trkpt>
      <trkpt lat="46.09665" lon="3.44436">
        <ele>282.82</ele>
        <time>2013-04-14T07:26:46Z</time>
      </trkpt>
      <trkpt lat="46.09647" lon="3.4446">
        <ele>282.09</ele>
        <time>2013-04-14T07:26:49Z</time>
      </trkpt>
      <trkpt lat="46.09634" lon="3.4449">
        <ele>281.78</ele>
        <time>2013-04-14T07:26:52Z</time>
      </trkpt>
      <trkpt lat="46.09623" lon="3.44524">
        <ele>281.65</ele>
        <time>2013-04-14T07:26:55Z</time>
      </trkpt>
      <trkpt lat="46.0961" lon="3.44554">
        <ele>281.16</ele>
        <time>2013-04-14T07:26:58Z</time>
      </trkpt>
      <trkpt lat="46.09593" lon="3.44582">
        <ele>280.56</ele>
        <time>2013-04-14T07:27:01Z</time>
      </trkpt>
      <trkpt lat="46.09574" lon="3.44606">
        <ele>279.98</ele>
        <time>2013-04-14T07:27:04Z</time>
      </trkpt>
      <trkpt lat="46.09559" lon="3.44627">
        <ele>279.73</ele>
        <time>2013-04-14T07:27:07Z</time>
      </trkpt>
      <trkpt lat="46.09541" lon="3.44647">
        <ele>279.86</ele>
        <time>2013-04-14T07:27:11Z</time>
      </trkpt>
      <trkpt lat="46.09523" lon="3.44664">
        <ele>280.33</ele>
        <time>2013-04-14T07:27:15Z</time>
      </trkpt>
      <trkpt lat="46.09504" lon="3.44675">
        <ele>280.05</ele>
        <time>2013-04-14T07:27:19Z</time>
      </trkpt>
      <trkpt lat="46.09487" lon="3.4469">
        <ele>279.23</ele>
        <time>2013-04-14T07:27:24Z</time>
      </trkpt>
      <trkpt lat="46.09472" lon="3.44707">
        <ele>278.77</ele>
        <time>2013-04-14T07:27:28Z</time>
      </trkpt>
      <trkpt lat="46.09459" lon="3.44726">
        <ele>278.39</ele>
        <time>2013-04-14T07:27:31Z</time>
      </trkpt>
      <trkpt lat="46.09443" lon="3.4475">
        <ele>277.91</ele>
        <time>2013-04-14T07:27:34Z</time>
      </trkpt>
      <trkpt lat="46.09426" lon="3.44775">
        <ele>277.27</ele>
        <time>2013-04-14T07:27:37Z</time>
      </trkpt>
      <trkpt lat="46.09406" lon="3.44797">
        <ele>276.85</ele>
        <time>2013-04-14T07:27:40Z</time>
      </trkpt>
      <trkpt lat="46.09393" lon="3.44816">
        <ele>276.28</ele>
        <time>2013-04-14T07:27:42Z</time>
      </trkpt>
      <trkpt lat="46.0938" lon="3.44836">
        <ele>275.96</ele>
        <time>2013-04-14T07:27:44Z</time>
      </trkpt>
      <trkpt lat="46.09369" lon="3.44857">
        <ele>275.78</ele>
        <time>2013-04-14T07:27:46Z</time>
      </trkpt>
      <trkpt lat="46.09356" lon="3.44876">
        <ele>275.68</ele>
        <time>2013-04-14T07:27:48Z</time>
      </trkpt>
      <trkpt lat="46.09339" lon="3.44902">
        <ele>275.36</ele>
        <time>2013-04-14T07:27:51Z</time>
      </trkpt>
      <trkpt lat="46.09323" lon="3.44928">
        <ele>274.46</ele>
        <time>2013-04-14T07:27:54Z</time>
      </trkpt>
      <trkpt lat="46.09308" lon="3.44949">
        <ele>273.36</ele>
        <time>2013-04-14T07:27:57Z</time>
      </trkpt>
      <trkpt lat="46.09293" lon="3.44969">
        <ele>272.31</ele>
        <time>2013-04-14T07:28:00Z</time>
      </trkpt>
      <trkpt lat="46.09279" lon="3.44986">
        <ele>271.87</ele>
        <time>2013-04-14T07:28:03Z</time>
      </trkpt>
      <trkpt lat="46.09265" lon="3.45003">
        <ele>271.69</ele>
        <time>2013-04-14T07:28:06Z</time>
      </trkpt>
      <trkpt lat="46.09245" lon="3.45024">
        <ele>271.85</ele>
        <time>2013-04-14T07:28:10Z</time>
      </trkpt>
      <trkpt lat="46.09226" lon="3.45042">
        <ele>272.33</ele>
        <time>2013-04-14T07:28:14Z</time>
      </trkpt>
      <trkpt lat="46.09208" lon="3.45059">
        <ele>273.06</ele>
        <time>2013-04-14T07:28:18Z</time>
      </trkpt>
      <trkpt lat="46.09188" lon="3.45078">
        <ele>274.33</ele>
        <time>2013-04-14T07:28:22Z</time>
      </trkpt>
      <trkpt lat="46.09169" lon="3.45097">
        <ele>275.17</ele>
        <time>2013-04-14T07:28:26Z</time>
      </trkpt>
      <trkpt lat="46.09154" lon="3.45112">
        <ele>274.81</ele>
        <time>2013-04-14T07:28:29Z</time>
      </trkpt>
      <trkpt lat="46.09138" lon="3.45129">
        <ele>274.52</ele>
        <time>2013-04-14T07:28:32Z</time>
      </trkpt>
      <trkpt lat="46.09121" lon="3.45153">
        <ele>273.86</ele>
        <time>2013-04-14T07:28:36Z</time>
      </trkpt>
      <trkpt lat="46.09105" lon="3.45179">
        <ele>273.4</ele>
        <time>2013-04-14T07:28:40Z</time>
      </trkpt>
      <trkpt lat="46.09092" lon="3.45207">
        <ele>272.82</ele>
        <time>2013-04-14T07:28:44Z</time>
      </trkpt>
      <trkpt lat="46.09078" lon="3.4523">
        <ele>272.99</ele>
        <time>2013-04-14T07:28:48Z</time>
      </trkpt>
      <trkpt lat="46.09067" lon="3.45252">
        <ele>272.74</ele>
        <time>2013-04-14T07:28:51Z</time>
      </trkpt>
      <trkpt lat="46.09052" lon="3.45278">
        <ele>272.61</ele>
        <time>2013-04-14T07:28:55Z</time>
      </trkpt>
      <trkpt lat="46.0904" lon="3.45299">
        <ele>272.58</ele>
        <time>2013-04-14T07:28:58Z</time>
      </trkpt>
      <trkpt lat="46.09028" lon="3.4532">
        <ele>272.56</ele>
        <time>2013-04-14T07:29:01Z</time>
      </trkpt>
      <trkpt lat="46.09012" lon="3.45342">
        <ele>272.56</ele>
        <time>2013-04-14T07:29:05Z</time>
      </trkpt>
      <trkpt lat="46.09" lon="3.45363">
        <ele>272.55</ele>
        <time>2013-04-14T07:29:09Z</time>
      </trkpt>
      <trkpt lat="46.08985" lon="3.45383">
        <ele>271.73</ele>
        <time>2013-04-14T07:29:14Z</time>
      </trkpt>
      <trkpt lat="46.0897" lon="3.45402">
        <ele>271.36</ele>
        <time>2013-04-14T07:29:18Z</time>
      </trkpt>
      <trkpt lat="46.08952" lon="3.45421">
        <ele>271.72</ele>
        <time>2013-04-14T07:29:21Z</time>
      </trkpt>
      <trkpt lat="46.08941" lon="3.45443">
        <ele>272.29</ele>
        <time>2013-04-14T07:29:25Z</time>
      </trkpt>
      <trkpt lat="46.08932" lon="3.45469">
        <ele>272.53</ele>
        <time>2013-04-14T07:29:33Z</time>
      </trkpt>
      <trkpt lat="46.08921" lon="3.45492">
        <ele>272.55</ele>
        <time>2013-04-14T07:29:42Z</time>
      </trkpt>
      <trkpt lat="46.08911" lon="3.45518">
        <ele>272.55</ele>
        <time>2013-04-14T07:29:49Z</time>
      </trkpt>
      <trkpt lat="46.08905" lon="3.45546">
        <ele>271.97</ele>
        <time>2013-04-14T07:29:56Z</time>
      </trkpt>
      <trkpt lat="46.08906" lon="3.45574">
        <ele>272.03</ele>
        <time>2013-04-14T07:30:04Z</time>
      </trkpt>
      <trkpt lat="46.08905" lon="3.45604">
        <ele>272.51</ele>
        <time>2013-04-14T07:30:13Z</time>
      </trkpt>
      <trkpt lat="46.08902" lon="3.45632">
        <ele>273.13</ele>
        <time>2013-04-14T07:30:21Z</time>
      </trkpt>
      <trkpt lat="46.0889" lon="3.45653">
        <ele>273.5</ele>
        <time>2013-04-14T07:30:28Z</time>
      </trkpt>
      <trkpt lat="46.08874" lon="3.4567">
        <ele>274.41</ele>
        <time>2013-04-14T07:30:36Z</time>
      </trkpt>
      <trkpt lat="46.08877" lon="3.45696">
        <ele>276.39</ele>
        <time>2013-04-14T07:30:49Z</time>
      </trkpt>
      <trkpt lat="46.08893" lon="3.45683">
        <ele>277.29</ele>
        <time>2013-04-14T07:30:55Z</time>
      </trkpt>
      <trkpt lat="46.08909" lon="3.45668">
        <ele>279.42</ele>
        <time>2013-04-14T07:30:59Z</time>
      </trkpt>
      <trkpt lat="46.08928" lon="3.45651">
        <ele>282</ele>
        <time>2013-04-14T07:31:03Z</time>
      </trkpt>
      <trkpt lat="46.08947" lon="3.45632">
        <ele>283.99</ele>
        <time>2013-04-14T07:31:07Z</time>
      </trkpt>
      <trkpt lat="46.08962" lon="3.45614">
        <ele>284.9</ele>
        <time>2013-04-14T07:31:10Z</time>
      </trkpt>
      <trkpt lat="46.08977" lon="3.45599">
        <ele>285.03</ele>
        <time>2013-04-14T07:31:13Z</time>
      </trkpt>
      <trkpt lat="46.08992" lon="3.45582">
        <ele>284.75</ele>
        <time>2013-04-14T07:31:16Z</time>
      </trkpt>
      <trkpt lat="46.09009" lon="3.45561">
        <ele>284.62</ele>
        <time>2013-04-14T07:31:20Z</time>
      </trkpt>
      <trkpt lat="46.09026" lon="3.45552">
        <ele>284.57</ele>
        <time>2013-04-14T07:31:24Z</time>
      </trkpt>
      <trkpt lat="46.09039" lon="3.45574">
        <ele>285.49</ele>
        <time>2013-04-14T07:31:29Z</time>
      </trkpt>
      <trkpt lat="46.09038" lon="3.45608">
        <ele>286.3</ele>
        <time>2013-04-14T07:31:34Z</time>
      </trkpt>
      <trkpt lat="46.09043" lon="3.45634">
        <ele>286.49</ele>
        <time>2013-04-14T07:31:39Z</time>
      </trkpt>
      <trkpt lat="46.09045" lon="3.45662">
        <ele>286.55</ele>
        <time>2013-04-14T07:31:46Z</time>
      </trkpt>
      <trkpt lat="46.09049" lon="3.4569">
        <ele>286.55</ele>
        <time>2013-04-14T07:31:52Z</time>
      </trkpt>
      <trkpt lat="46.09058" lon="3.45713">
        <ele>287.13</ele>
        <time>2013-04-14T07:31:57Z</time>
      </trkpt>
      <trkpt lat="46.09066" lon="3.45741">
        <ele>288.96</ele>
        <time>2013-04-14T07:32:02Z</time>
      </trkpt>
      <trkpt lat="46.09074" lon="3.45767">
        <ele>290.18</ele>
        <time>2013-04-14T07:32:07Z</time>
      </trkpt>
      <trkpt lat="46.0908" lon="3.45793">
        <ele>291.23</ele>
        <time>2013-04-14T07:32:12Z</time>
      </trkpt>
      <trkpt lat="46.09088" lon="3.45818">
        <ele>292.24</ele>
        <time>2013-04-14T07:32:17Z</time>
      </trkpt>
      <trkpt lat="46.09097" lon="3.45844">
        <ele>293.41</ele>
        <time>2013-04-14T07:32:22Z</time>
      </trkpt>
      <trkpt lat="46.09109" lon="3.45868">
        <ele>294.28</ele>
        <time>2013-04-14T07:32:27Z</time>
      </trkpt>
      <trkpt lat="46.0912" lon="3.45889">
        <ele>294.49</ele>
        <time>2013-04-14T07:32:32Z</time>
      </trkpt>
      <trkpt lat="46.09131" lon="3.45913">
        <ele>294.54</ele>
        <time>2013-04-14T07:32:37Z</time>
      </trkpt>
      <trkpt lat="46.09137" lon="3.45938">
        <ele>295.75</ele>
        <time>2013-04-14T07:32:42Z</time>
      </trkpt>
      <trkpt lat="46.09144" lon="3.45962">
        <ele>296.74</ele>
        <time>2013-04-14T07:32:46Z</time>
      </trkpt>
      <trkpt lat="46.0915" lon="3.45992">
        <ele>298.12</ele>
        <time>2013-04-14T07:32:51Z</time>
      </trkpt>
      <trkpt lat="46.09158" lon="3.4602">
        <ele>298.45</ele>
        <time>2013-04-14T07:32:56Z</time>
      </trkpt>
      <trkpt lat="46.09167" lon="3.46044">
        <ele>298.96</ele>
        <time>2013-04-14T07:33:00Z</time>
      </trkpt>
      <trkpt lat="46.09173" lon="3.46069">
        <ele>299.8</ele>
        <time>2013-04-14T07:33:04Z</time>
      </trkpt>
      <trkpt lat="46.09178" lon="3.46095">
        <ele>300.32</ele>
        <time>2013-04-14T07:33:08Z</time>
      </trkpt>
      <trkpt lat="46.09182" lon="3.46121">
        <ele>300.48</ele>
        <time>2013-04-14T07:33:12Z</time>
      </trkpt>
      <trkpt lat="46.09184" lon="3.46151">
        <ele>299.77</ele>
        <time>2013-04-14T07:33:17Z</time>
      </trkpt>
      <trkpt lat="46.09185" lon="3.46181">
        <ele>299.61</ele>
        <time>2013-04-14T07:33:22Z</time>
      </trkpt>
      <trkpt lat="46.09186" lon="3.46209">
        <ele>299.57</ele>
        <time>2013-04-14T07:33:27Z</time>
      </trkpt>
      <trkpt lat="46.09188" lon="3.46239">
        <ele>300.13</ele>
        <time>2013-04-14T07:33:32Z</time>
      </trkpt>
      <trkpt lat="46.0919" lon="3.46271">
        <ele>301.06</ele>
        <time>2013-04-14T07:33:38Z</time>
      </trkpt>
      <trkpt lat="46.09188" lon="3.46303">
        <ele>301.49</ele>
        <time>2013-04-14T07:33:45Z</time>
      </trkpt>
      <trkpt lat="46.09191" lon="3.46335">
        <ele>301.54</ele>
        <time>2013-04-14T07:33:51Z</time>
      </trkpt>
      <trkpt lat="46.09194" lon="3.46361">
        <ele>301.55</ele>
        <time>2013-04-14T07:33:57Z</time>
      </trkpt>
      <trkpt lat="46.09201" lon="3.46385">
        <ele>301.55</ele>
        <time>2013-04-14T07:34:04Z</time>
      </trkpt>
      <trkpt lat="46.0922" lon="3.46387">
        <ele>302.48</ele>
        <time>2013-04-14T07:34:14Z</time>
      </trkpt>
      <trkpt lat="46.09239" lon="3.46385">
        <ele>303.37</ele>
        <time>2013-04-14T07:34:24Z</time>
      </trkpt>
      <trkpt lat="46.09258" lon="3.46385">
        <ele>304.12</ele>
        <time>2013-04-14T07:34:33Z</time>
      </trkpt>
      <trkpt lat="46.09277" lon="3.4638">
        <ele>305.21</ele>
        <time>2013-04-14T07:34:43Z</time>
      </trkpt>
      <trkpt lat="46.09294" lon="3.46368">
        <ele>306.21</ele>
        <time>2013-04-14T07:34:52Z</time>
      </trkpt>
      <trkpt lat="46.09309" lon="3.46353">
        <ele>308.07</ele>
        <time>2013-04-14T07:35:07Z</time>
      </trkpt>
      <trkpt lat="46.09323" lon="3.46335">
        <ele>310.48</ele>
        <time>2013-04-14T07:35:19Z</time>
      </trkpt>
      <trkpt lat="46.09336" lon="3.46318">
        <ele>313</ele>
        <time>2013-04-14T07:35:31Z</time>
      </trkpt>
      <trkpt lat="46.0935" lon="3.46301">
        <ele>315.41</ele>
        <time>2013-04-14T07:35:42Z</time>
      </trkpt>
      <trkpt lat="46.09368" lon="3.4629">
        <ele>318.24</ele>
        <time>2013-04-14T07:35:56Z</time>
      </trkpt>
      <trkpt lat="46.09386" lon="3.46292">
        <ele>321.47</ele>
        <time>2013-04-14T07:36:11Z</time>
      </trkpt>
      <trkpt lat="46.09404" lon="3.46288">
        <ele>325.12</ele>
        <time>2013-04-14T07:36:36Z</time>
      </trkpt>
      <trkpt lat="46.09422" lon="3.46286">
        <ele>327.85</ele>
        <time>2013-04-14T07:36:45Z</time>
      </trkpt>
      <trkpt lat="46.09441" lon="3.46277">
        <ele>331.28</ele>
        <time>2013-04-14T07:36:56Z</time>
      </trkpt>
      <trkpt lat="46.09459" lon="3.46271">
        <ele>335.28</ele>
        <time>2013-04-14T07:37:09Z</time>
      </trkpt>
      <trkpt lat="46.09476" lon="3.46262">
        <ele>341.28</ele>
        <time>2013-04-14T07:37:29Z</time>
      </trkpt>
      <trkpt lat="46.09494" lon="3.46254">
        <ele>344.86</ele>
        <time>2013-04-14T07:37:41Z</time>
      </trkpt>
      <trkpt lat="46.09512" lon="3.4625">
        <ele>347.45</ele>
        <time>2013-04-14T07:37:51Z</time>
      </trkpt>
      <trkpt lat="46.09532" lon="3.46254">
        <ele>349.95</ele>
        <time>2013-04-14T07:38:02Z</time>
      </trkpt>
      <trkpt lat="46.0955" lon="3.46265">
        <ele>352.14</ele>
        <time>2013-04-14T07:38:13Z</time>
      </trkpt>
      <trkpt lat="46.09566" lon="3.46277">
        <ele>354</ele>
        <time>2013-04-14T07:38:22Z</time>
      </trkpt>
      <trkpt lat="46.09583" lon="3.4629">
        <ele>355.26</ele>
        <time>2013-04-14T07:38:30Z</time>
      </trkpt>
      <trkpt lat="46.09599" lon="3.46305">
        <ele>356.34</ele>
        <time>2013-04-14T07:38:37Z</time>
      </trkpt>
      <trkpt lat="46.09615" lon="3.46318">
        <ele>357.19</ele>
        <time>2013-04-14T07:38:42Z</time>
      </trkpt>
      <trkpt lat="46.0963" lon="3.46333">
        <ele>357.97</ele>
        <time>2013-04-14T07:38:47Z</time>
      </trkpt>
      <trkpt lat="46.09645" lon="3.4635">
        <ele>360.77</ele>
        <time>2013-04-14T07:38:52Z</time>
      </trkpt>
      <trkpt lat="46.09662" lon="3.4637">
        <ele>362.57</ele>
        <time>2013-04-14T07:38:57Z</time>
      </trkpt>
      <trkpt lat="46.09677" lon="3.46391">
        <ele>363.32</ele>
        <time>2013-04-14T07:39:02Z</time>
      </trkpt>
      <trkpt lat="46.09692" lon="3.46413">
        <ele>364.18</ele>
        <time>2013-04-14T07:39:07Z</time>
      </trkpt>
      <trkpt lat="46.09706" lon="3.46436">
        <ele>365.31</ele>
        <time>2013-04-14T07:39:13Z</time>
      </trkpt>
      <trkpt lat="46.09725" lon="3.46436">
        <ele>366.28</ele>
        <time>2013-04-14T07:39:20Z</time>
      </trkpt>
      <trkpt lat="46.09741" lon="3.46419">
        <ele>367.1</ele>
        <time>2013-04-14T07:39:28Z</time>
      </trkpt>
      <trkpt lat="46.09759" lon="3.46406">
        <ele>367.96</ele>
        <time>2013-04-14T07:39:37Z</time>
      </trkpt>
      <trkpt lat="46.09779" lon="3.464">
        <ele>369.21</ele>
        <time>2013-04-14T07:39:48Z</time>
      </trkpt>
      <trkpt lat="46.09796" lon="3.46391">
        <ele>370.6</ele>
        <time>2013-04-14T07:39:57Z</time>
      </trkpt>
      <trkpt lat="46.09815" lon="3.46391">
        <ele>372.62</ele>
        <time>2013-04-14T07:40:07Z</time>
      </trkpt>
      <trkpt lat="46.09834" lon="3.46389">
        <ele>374.74</ele>
        <time>2013-04-14T07:40:16Z</time>
      </trkpt>
      <trkpt lat="46.09855" lon="3.46389">
        <ele>376.61</ele>
        <time>2013-04-14T07:40:25Z</time>
      </trkpt>
      <trkpt lat="46.09874" lon="3.46391">
        <ele>377.71</ele>
        <time>2013-04-14T07:40:33Z</time>
      </trkpt>
      <trkpt lat="46.09892" lon="3.46391">
        <ele>378.44</ele>
        <time>2013-04-14T07:40:40Z</time>
      </trkpt>
      <trkpt lat="46.09912" lon="3.46393">
        <ele>379.41</ele>
        <time>2013-04-14T07:40:48Z</time>
      </trkpt>
      <trkpt lat="46.09931" lon="3.46395">
        <ele>380.69</ele>
        <time>2013-04-14T07:40:57Z</time>
      </trkpt>
      <trkpt lat="46.09951" lon="3.46395">
        <ele>381.9</ele>
        <time>2013-04-14T07:41:05Z</time>
      </trkpt>
      <trkpt lat="46.09969" lon="3.46395">
        <ele>383.25</ele>
        <time>2013-04-14T07:41:13Z</time>
      </trkpt>
      <trkpt lat="46.09988" lon="3.46395">
        <ele>384.33</ele>
        <time>2013-04-14T07:41:20Z</time>
      </trkpt>
      <trkpt lat="46.10007" lon="3.464">
        <ele>386.01</ele>
        <time>2013-04-14T07:41:28Z</time>
      </trkpt>
      <trkpt lat="46.10025" lon="3.46402">
        <ele>386.94</ele>
        <time>2013-04-14T07:41:36Z</time>
      </trkpt>
      <trkpt lat="46.10044" lon="3.46408">
        <ele>388.5</ele>
        <time>2013-04-14T07:41:44Z</time>
      </trkpt>
      <trkpt lat="46.10063" lon="3.46413">
        <ele>390.13</ele>
        <time>2013-04-14T07:41:52Z</time>
      </trkpt>
      <trkpt lat="46.10082" lon="3.46419">
        <ele>392.09</ele>
        <time>2013-04-14T07:42:00Z</time>
      </trkpt>
      <trkpt lat="46.10101" lon="3.46426">
        <ele>393.99</ele>
        <time>2013-04-14T07:42:08Z</time>
      </trkpt>
      <trkpt lat="46.10121" lon="3.4643">
        <ele>396.09</ele>
        <time>2013-04-14T07:42:17Z</time>
      </trkpt>
      <trkpt lat="46.1014" lon="3.46434">
        <ele>398.09</ele>
        <time>2013-04-14T07:42:25Z</time>
      </trkpt>
      <trkpt lat="46.10159" lon="3.46438">
        <ele>399.75</ele>
        <time>2013-04-14T07:42:32Z</time>
      </trkpt>
      <trkpt lat="46.10179" lon="3.46441">
        <ele>401.54</ele>
        <time>2013-04-14T07:42:40Z</time>
      </trkpt>
      <trkpt lat="46.10198" lon="3.46443">
        <ele>403.21</ele>
        <time>2013-04-14T07:42:48Z</time>
      </trkpt>
      <trkpt lat="46.10216" lon="3.46447">
        <ele>405</ele>
        <time>2013-04-14T07:42:56Z</time>
      </trkpt>
      <trkpt lat="46.10234" lon="3.46449">
        <ele>406.57</ele>
        <time>2013-04-14T07:43:04Z</time>
      </trkpt>
      <trkpt lat="46.10253" lon="3.46453">
        <ele>408.03</ele>
        <time>2013-04-14T07:43:12Z</time>
      </trkpt>
      <trkpt lat="46.10271" lon="3.46458">
        <ele>410.11</ele>
        <time>2013-04-14T07:43:22Z</time>
      </trkpt>
      <trkpt lat="46.1029" lon="3.46462">
        <ele>421.15</ele>
        <time>2013-04-14T07:46:45Z</time>
      </trkpt>
      <trkpt lat="46.1031" lon="3.46466">
        <ele>421.89</ele>
        <time>2013-04-14T07:46:50Z</time>
      </trkpt>
      <trkpt lat="46.10328" lon="3.46473">
        <ele>422.4</ele>
        <time>2013-04-14T07:46:55Z</time>
      </trkpt>
      <trkpt lat="46.10347" lon="3.46475">
        <ele>423.09</ele>
        <time>2013-04-14T07:47:00Z</time>
      </trkpt>
      <trkpt lat="46.10365" lon="3.46479">
        <ele>423.47</ele>
        <time>2013-04-14T07:47:06Z</time>
      </trkpt>
      <trkpt lat="46.10385" lon="3.46475">
        <ele>424.11</ele>
        <time>2013-04-14T07:47:11Z</time>
      </trkpt>
      <trkpt lat="46.10403" lon="3.46473">
        <ele>424.45</ele>
        <time>2013-04-14T07:47:16Z</time>
      </trkpt>
      <trkpt lat="46.10419" lon="3.46486">
        <ele>425.98</ele>
        <time>2013-04-14T07:47:21Z</time>
      </trkpt>
      <trkpt lat="46.10423" lon="3.46514">
        <ele>427.49</ele>
        <time>2013-04-14T07:47:25Z</time>
      </trkpt>
      <trkpt lat="46.10424" lon="3.46541">
        <ele>428.8</ele>
        <time>2013-04-14T07:47:29Z</time>
      </trkpt>
      <trkpt lat="46.10427" lon="3.46571">
        <ele>430.57</ele>
        <time>2013-04-14T07:47:34Z</time>
      </trkpt>
      <trkpt lat="46.10428" lon="3.46601">
        <ele>431.68</ele>
        <time>2013-04-14T07:47:38Z</time>
      </trkpt>
      <trkpt lat="46.1043" lon="3.46636">
        <ele>432.53</ele>
        <time>2013-04-14T07:47:42Z</time>
      </trkpt>
      <trkpt lat="46.10434" lon="3.46662">
        <ele>433.23</ele>
        <time>2013-04-14T07:47:46Z</time>
      </trkpt>
      <trkpt lat="46.10453" lon="3.46664">
        <ele>433.91</ele>
        <time>2013-04-14T07:47:51Z</time>
      </trkpt>
      <trkpt lat="46.10475" lon="3.46659">
        <ele>434.4</ele>
        <time>2013-04-14T07:47:56Z</time>
      </trkpt>
      <trkpt lat="46.10494" lon="3.46662">
        <ele>434.77</ele>
        <time>2013-04-14T07:48:01Z</time>
      </trkpt>
      <trkpt lat="46.10501" lon="3.46687">
        <ele>434.87</ele>
        <time>2013-04-14T07:48:05Z</time>
      </trkpt>
      <trkpt lat="46.10505" lon="3.4672">
        <ele>434.21</ele>
        <time>2013-04-14T07:48:09Z</time>
      </trkpt>
      <trkpt lat="46.10508" lon="3.46747">
        <ele>432.82</ele>
        <time>2013-04-14T07:48:12Z</time>
      </trkpt>
      <trkpt lat="46.10512" lon="3.4678">
        <ele>431.26</ele>
        <time>2013-04-14T07:48:15Z</time>
      </trkpt>
      <trkpt lat="46.10518" lon="3.46812">
        <ele>429.44</ele>
        <time>2013-04-14T07:48:18Z</time>
      </trkpt>
      <trkpt lat="46.10522" lon="3.46838">
        <ele>427.47</ele>
        <time>2013-04-14T07:48:22Z</time>
      </trkpt>
      <trkpt lat="46.1053" lon="3.46861">
        <ele>418.55</ele>
        <time>2013-04-14T07:53:20Z</time>
      </trkpt>
      <trkpt lat="46.10549" lon="3.46855">
        <ele>418.55</ele>
        <time>2013-04-14T07:59:24Z</time>
      </trkpt>
      <trkpt lat="46.10555" lon="3.4688">
        <ele>417.43</ele>
        <time>2013-04-14T07:59:28Z</time>
      </trkpt>
      <trkpt lat="46.1055" lon="3.46906">
        <ele>415.91</ele>
        <time>2013-04-14T07:59:31Z</time>
      </trkpt>
      <trkpt lat="46.10548" lon="3.46938">
        <ele>414.69</ele>
        <time>2013-04-14T07:59:34Z</time>
      </trkpt>
      <trkpt lat="46.10545" lon="3.46964">
        <ele>414.19</ele>
        <time>2013-04-14T07:59:36Z</time>
      </trkpt>
      <trkpt lat="46.10541" lon="3.4699">
        <ele>413.47</ele>
        <time>2013-04-14T07:59:38Z</time>
      </trkpt>
      <trkpt lat="46.10538" lon="3.47022">
        <ele>412.11</ele>
        <time>2013-04-14T07:59:41Z</time>
      </trkpt>
      <trkpt lat="46.10556" lon="3.4702">
        <ele>409.45</ele>
        <time>2013-04-14T07:59:56Z</time>
      </trkpt>
      <trkpt lat="46.10575" lon="3.47011">
        <ele>408.01</ele>
        <time>2013-04-14T08:00:00Z</time>
      </trkpt>
      <trkpt lat="46.10595" lon="3.47003">
        <ele>406.44</ele>
        <time>2013-04-14T08:00:04Z</time>
      </trkpt>
      <trkpt lat="46.10613" lon="3.46996">
        <ele>405.35</ele>
        <time>2013-04-14T08:00:07Z</time>
      </trkpt>
      <trkpt lat="46.10631" lon="3.46988">
        <ele>404.31</ele>
        <time>2013-04-14T08:00:10Z</time>
      </trkpt>
      <trkpt lat="46.1065" lon="3.46981">
        <ele>403.29</ele>
        <time>2013-04-14T08:00:13Z</time>
      </trkpt>
      <trkpt lat="46.10668" lon="3.46975">
        <ele>402.04</ele>
        <time>2013-04-14T08:00:16Z</time>
      </trkpt>
      <trkpt lat="46.10686" lon="3.46968">
        <ele>400.74</ele>
        <time>2013-04-14T08:00:19Z</time>
      </trkpt>
      <trkpt lat="46.10705" lon="3.46962">
        <ele>399.8</ele>
        <time>2013-04-14T08:00:22Z</time>
      </trkpt>
      <trkpt lat="46.10728" lon="3.46956">
        <ele>398.7</ele>
        <time>2013-04-14T08:00:26Z</time>
      </trkpt>
      <trkpt lat="46.10749" lon="3.46947">
        <ele>396.65</ele>
        <time>2013-04-14T08:00:30Z</time>
      </trkpt>
      <trkpt lat="46.1077" lon="3.46941">
        <ele>393.08</ele>
        <time>2013-04-14T08:00:34Z</time>
      </trkpt>
      <trkpt lat="46.10791" lon="3.46934">
        <ele>389.84</ele>
        <time>2013-04-14T08:00:38Z</time>
      </trkpt>
      <trkpt lat="46.10812" lon="3.46928">
        <ele>387.7</ele>
        <time>2013-04-14T08:00:42Z</time>
      </trkpt>
      <trkpt lat="46.10833" lon="3.46921">
        <ele>386.14</ele>
        <time>2013-04-14T08:00:47Z</time>
      </trkpt>
      <trkpt lat="46.10851" lon="3.46934">
        <ele>386.46</ele>
        <time>2013-04-14T08:00:52Z</time>
      </trkpt>
      <trkpt lat="46.10872" lon="3.46951">
        <ele>387.21</ele>
        <time>2013-04-14T08:00:56Z</time>
      </trkpt>
      <trkpt lat="46.10893" lon="3.46953">
        <ele>387.16</ele>
        <time>2013-04-14T08:00:59Z</time>
      </trkpt>
      <trkpt lat="46.10916" lon="3.46949">
        <ele>386.81</ele>
        <time>2013-04-14T08:01:02Z</time>
      </trkpt>
      <trkpt lat="46.10936" lon="3.46947">
        <ele>386.66</ele>
        <time>2013-04-14T08:01:05Z</time>
      </trkpt>
      <trkpt lat="46.10938" lon="3.46975">
        <ele>384.29</ele>
        <time>2013-04-14T08:01:12Z</time>
      </trkpt>
      <trkpt lat="46.10928" lon="3.47001">
        <ele>380.42</ele>
        <time>2013-04-14T08:01:15Z</time>
      </trkpt>
      <trkpt lat="46.10914" lon="3.47024">
        <ele>376.92</ele>
        <time>2013-04-14T08:01:18Z</time>
      </trkpt>
      <trkpt lat="46.10895" lon="3.47041">
        <ele>374.54</ele>
        <time>2013-04-14T08:01:21Z</time>
      </trkpt>
      <trkpt lat="46.10876" lon="3.47056">
        <ele>372.81</ele>
        <time>2013-04-14T08:01:24Z</time>
      </trkpt>
      <trkpt lat="46.10859" lon="3.47074">
        <ele>371.51</ele>
        <time>2013-04-14T08:01:27Z</time>
      </trkpt>
      <trkpt lat="46.10845" lon="3.47097">
        <ele>370.95</ele>
        <time>2013-04-14T08:01:30Z</time>
      </trkpt>
      <trkpt lat="46.10829" lon="3.47125">
        <ele>370.29</ele>
        <time>2013-04-14T08:01:33Z</time>
      </trkpt>
      <trkpt lat="46.10817" lon="3.47147">
        <ele>369.53</ele>
        <time>2013-04-14T08:01:35Z</time>
      </trkpt>
      <trkpt lat="46.10802" lon="3.47177">
        <ele>367.95</ele>
        <time>2013-04-14T08:01:38Z</time>
      </trkpt>
      <trkpt lat="46.10797" lon="3.47207">
        <ele>365.87</ele>
        <time>2013-04-14T08:01:42Z</time>
      </trkpt>
      <trkpt lat="46.10811" lon="3.47224">
        <ele>363.81</ele>
        <time>2013-04-14T08:01:52Z</time>
      </trkpt>
      <trkpt lat="46.10828" lon="3.47234">
        <ele>362.64</ele>
        <time>2013-04-14T08:02:02Z</time>
      </trkpt>
      <trkpt lat="46.1084" lon="3.47256">
        <ele>361.7</ele>
        <time>2013-04-14T08:02:10Z</time>
      </trkpt>
      <trkpt lat="46.10852" lon="3.47277">
        <ele>361.56</ele>
        <time>2013-04-14T08:02:20Z</time>
      </trkpt>
      <trkpt lat="46.10866" lon="3.47295">
        <ele>361.55</ele>
        <time>2013-04-14T08:02:32Z</time>
      </trkpt>
      <trkpt lat="46.1088" lon="3.47312">
        <ele>361.55</ele>
        <time>2013-04-14T08:02:40Z</time>
      </trkpt>
      <trkpt lat="46.10899" lon="3.47322">
        <ele>362.42</ele>
        <time>2013-04-14T08:02:52Z</time>
      </trkpt>
      <trkpt lat="46.10916" lon="3.47331">
        <ele>363.31</ele>
        <time>2013-04-14T08:03:01Z</time>
      </trkpt>
      <trkpt lat="46.10922" lon="3.47357">
        <ele>364.9</ele>
        <time>2013-04-14T08:03:11Z</time>
      </trkpt>
      <trkpt lat="46.10928" lon="3.47383">
        <ele>366.35</ele>
        <time>2013-04-14T08:03:22Z</time>
      </trkpt>
      <trkpt lat="46.10935" lon="3.47406">
        <ele>367.76</ele>
        <time>2013-04-14T08:03:35Z</time>
      </trkpt>
      <trkpt lat="46.10945" lon="3.4743">
        <ele>371.02</ele>
        <time>2013-04-14T08:03:57Z</time>
      </trkpt>
      <trkpt lat="46.1095" lon="3.47456">
        <ele>374</ele>
        <time>2013-04-14T08:04:16Z</time>
      </trkpt>
      <trkpt lat="46.10957" lon="3.47488">
        <ele>378.25</ele>
        <time>2013-04-14T08:04:35Z</time>
      </trkpt>
      <trkpt lat="46.10961" lon="3.47513">
        <ele>382.9</ele>
        <time>2013-04-14T08:04:48Z</time>
      </trkpt>
      <trkpt lat="46.10968" lon="3.47537">
        <ele>385.23</ele>
        <time>2013-04-14T08:04:59Z</time>
      </trkpt>
      <trkpt lat="46.10979" lon="3.47561">
        <ele>388</ele>
        <time>2013-04-14T08:05:12Z</time>
      </trkpt>
      <trkpt lat="46.1099" lon="3.47582">
        <ele>390.65</ele>
        <time>2013-04-14T08:05:22Z</time>
      </trkpt>
      <trkpt lat="46.10999" lon="3.47606">
        <ele>392.79</ele>
        <time>2013-04-14T08:05:31Z</time>
      </trkpt>
      <trkpt lat="46.11007" lon="3.47629">
        <ele>394.81</ele>
        <time>2013-04-14T08:05:41Z</time>
      </trkpt>
      <trkpt lat="46.11014" lon="3.47655">
        <ele>396.82</ele>
        <time>2013-04-14T08:05:51Z</time>
      </trkpt>
      <trkpt lat="46.11017" lon="3.47681">
        <ele>398.18</ele>
        <time>2013-04-14T08:06:00Z</time>
      </trkpt>
      <trkpt lat="46.1102" lon="3.47707">
        <ele>399.08</ele>
        <time>2013-04-14T08:06:07Z</time>
      </trkpt>
      <trkpt lat="46.11019" lon="3.47734">
        <ele>400.61</ele>
        <time>2013-04-14T08:06:18Z</time>
      </trkpt>
      <trkpt lat="46.11002" lon="3.47743">
        <ele>404.61</ele>
        <time>2013-04-14T08:06:33Z</time>
      </trkpt>
      <trkpt lat="46.10984" lon="3.47752">
        <ele>410.41</ele>
        <time>2013-04-14T08:06:49Z</time>
      </trkpt>
      <trkpt lat="46.10966" lon="3.47758">
        <ele>414.57</ele>
        <time>2013-04-14T08:07:01Z</time>
      </trkpt>
      <trkpt lat="46.10948" lon="3.47767">
        <ele>419.22</ele>
        <time>2013-04-14T08:07:13Z</time>
      </trkpt>
      <trkpt lat="46.10929" lon="3.47773">
        <ele>422.87</ele>
        <time>2013-04-14T08:07:26Z</time>
      </trkpt>
      <trkpt lat="46.10911" lon="3.47784">
        <ele>425.9</ele>
        <time>2013-04-14T08:07:36Z</time>
      </trkpt>
      <trkpt lat="46.10894" lon="3.47795">
        <ele>428.04</ele>
        <time>2013-04-14T08:07:44Z</time>
      </trkpt>
      <trkpt lat="46.10877" lon="3.47803">
        <ele>429.98</ele>
        <time>2013-04-14T08:07:52Z</time>
      </trkpt>
      <trkpt lat="46.10858" lon="3.4781">
        <ele>432.64</ele>
        <time>2013-04-14T08:08:01Z</time>
      </trkpt>
      <trkpt lat="46.10837" lon="3.47816">
        <ele>435.72</ele>
        <time>2013-04-14T08:08:10Z</time>
      </trkpt>
      <trkpt lat="46.10819" lon="3.4782">
        <ele>437.99</ele>
        <time>2013-04-14T08:08:17Z</time>
      </trkpt>
      <trkpt lat="46.10799" lon="3.4782">
        <ele>439.59</ele>
        <time>2013-04-14T08:08:24Z</time>
      </trkpt>
      <trkpt lat="46.10781" lon="3.47814">
        <ele>441.7</ele>
        <time>2013-04-14T08:08:29Z</time>
      </trkpt>
      <trkpt lat="46.10759" lon="3.47801">
        <ele>445.55</ele>
        <time>2013-04-14T08:08:32Z</time>
      </trkpt>
      <trkpt lat="46.10741" lon="3.47788">
        <ele>450.97</ele>
        <time>2013-04-14T08:08:35Z</time>
      </trkpt>
      <trkpt lat="46.10721" lon="3.47788">
        <ele>456.29</ele>
        <time>2013-04-14T08:08:38Z</time>
      </trkpt>
      <trkpt lat="46.107" lon="3.47786">
        <ele>461.15</ele>
        <time>2013-04-14T08:08:42Z</time>
      </trkpt>
      <trkpt lat="46.10681" lon="3.47795">
        <ele>462.73</ele>
        <time>2013-04-14T08:08:49Z</time>
      </trkpt>
      <trkpt lat="46.10668" lon="3.4782">
        <ele>459.59</ele>
        <time>2013-04-14T08:08:55Z</time>
      </trkpt>
      <trkpt lat="46.10655" lon="3.47848">
        <ele>454.68</ele>
        <time>2013-04-14T08:09:04Z</time>
      </trkpt>
      <trkpt lat="46.1064" lon="3.47867">
        <ele>450.39</ele>
        <time>2013-04-14T08:09:16Z</time>
      </trkpt>
      <trkpt lat="46.10625" lon="3.47883">
        <ele>447.72</ele>
        <time>2013-04-14T08:09:24Z</time>
      </trkpt>
      <trkpt lat="46.10615" lon="3.47906">
        <ele>446.71</ele>
        <time>2013-04-14T08:09:31Z</time>
      </trkpt>
      <trkpt lat="46.10607" lon="3.47932">
        <ele>445.58</ele>
        <time>2013-04-14T08:09:36Z</time>
      </trkpt>
      <trkpt lat="46.10598" lon="3.47958">
        <ele>444.3</ele>
        <time>2013-04-14T08:09:42Z</time>
      </trkpt>
      <trkpt lat="46.10592" lon="3.47983">
        <ele>443.11</ele>
        <time>2013-04-14T08:09:48Z</time>
      </trkpt>
      <trkpt lat="46.10587" lon="3.48018">
        <ele>440.85</ele>
        <time>2013-04-14T08:10:01Z</time>
      </trkpt>
      <trkpt lat="46.10584" lon="3.48043">
        <ele>440.04</ele>
        <time>2013-04-14T08:10:06Z</time>
      </trkpt>
      <trkpt lat="46.10582" lon="3.48069">
        <ele>439.23</ele>
        <time>2013-04-14T08:10:11Z</time>
      </trkpt>
      <trkpt lat="46.10578" lon="3.48095">
        <ele>438.71</ele>
        <time>2013-04-14T08:10:16Z</time>
      </trkpt>
      <trkpt lat="46.10563" lon="3.4811">
        <ele>437.59</ele>
        <time>2013-04-14T08:10:20Z</time>
      </trkpt>
      <trkpt lat="46.10554" lon="3.48136">
        <ele>437.46</ele>
        <time>2013-04-14T08:10:24Z</time>
      </trkpt>
      <trkpt lat="46.10538" lon="3.48153">
        <ele>437.52</ele>
        <time>2013-04-14T08:10:28Z</time>
      </trkpt>
      <trkpt lat="46.10521" lon="3.48164">
        <ele>437.54</ele>
        <time>2013-04-14T08:10:31Z</time>
      </trkpt>
      <trkpt lat="46.10506" lon="3.48185">
        <ele>438.92</ele>
        <time>2013-04-14T08:10:35Z</time>
      </trkpt>
      <trkpt lat="46.10491" lon="3.48207">
        <ele>440.61</ele>
        <time>2013-04-14T08:10:39Z</time>
      </trkpt>
      <trkpt lat="46.10497" lon="3.48232">
        <ele>439.66</ele>
        <time>2013-04-14T08:10:43Z</time>
      </trkpt>
      <trkpt lat="46.10508" lon="3.48256">
        <ele>436.43</ele>
        <time>2013-04-14T08:10:48Z</time>
      </trkpt>
      <trkpt lat="46.10519" lon="3.48286">
        <ele>433.16</ele>
        <time>2013-04-14T08:10:53Z</time>
      </trkpt>
      <trkpt lat="46.10521" lon="3.48322">
        <ele>430.39</ele>
        <time>2013-04-14T08:10:56Z</time>
      </trkpt>
      <trkpt lat="46.10527" lon="3.48357">
        <ele>428.06</ele>
        <time>2013-04-14T08:10:59Z</time>
      </trkpt>
      <trkpt lat="46.10536" lon="3.4838">
        <ele>425.92</ele>
        <time>2013-04-14T08:11:02Z</time>
      </trkpt>
      <trkpt lat="46.10549" lon="3.48402">
        <ele>422.67</ele>
        <time>2013-04-14T08:11:07Z</time>
      </trkpt>
      <trkpt lat="46.10562" lon="3.48423">
        <ele>421.17</ele>
        <time>2013-04-14T08:11:13Z</time>
      </trkpt>
      <trkpt lat="46.10576" lon="3.48445">
        <ele>416.27</ele>
        <time>2013-04-14T08:11:17Z</time>
      </trkpt>
      <trkpt lat="46.10592" lon="3.48462">
        <ele>410.54</ele>
        <time>2013-04-14T08:11:22Z</time>
      </trkpt>
      <trkpt lat="46.10607" lon="3.48483">
        <ele>407.34</ele>
        <time>2013-04-14T08:11:26Z</time>
      </trkpt>
      <trkpt lat="46.10621" lon="3.48507">
        <ele>404.46</ele>
        <time>2013-04-14T08:11:29Z</time>
      </trkpt>
      <trkpt lat="46.10629" lon="3.48533">
        <ele>400.71</ele>
        <time>2013-04-14T08:11:33Z</time>
      </trkpt>
      <trkpt lat="46.1063" lon="3.48561">
        <ele>396.03</ele>
        <time>2013-04-14T08:11:38Z</time>
      </trkpt>
      <trkpt lat="46.10638" lon="3.48584">
        <ele>391.13</ele>
        <time>2013-04-14T08:11:42Z</time>
      </trkpt>
      <trkpt lat="46.10648" lon="3.48608">
        <ele>386.63</ele>
        <time>2013-04-14T08:11:47Z</time>
      </trkpt>
      <trkpt lat="46.10658" lon="3.48631">
        <ele>384.47</ele>
        <time>2013-04-14T08:11:52Z</time>
      </trkpt>
      <trkpt lat="46.10653" lon="3.48659">
        <ele>381.54</ele>
        <time>2013-04-14T08:12:00Z</time>
      </trkpt>
      <trkpt lat="46.1065" lon="3.48685">
        <ele>379.53</ele>
        <time>2013-04-14T08:12:06Z</time>
      </trkpt>
      <trkpt lat="46.10659" lon="3.48709">
        <ele>377.33</ele>
        <time>2013-04-14T08:12:12Z</time>
      </trkpt>
      <trkpt lat="46.10697" lon="3.48728">
        <ele>375.07</ele>
        <time>2013-04-14T08:12:28Z</time>
      </trkpt>
      <trkpt lat="46.10678" lon="3.48726">
        <ele>363.36</ele>
        <time>2013-04-14T08:12:52Z</time>
      </trkpt>
      <trkpt lat="46.1066" lon="3.48713">
        <ele>356.05</ele>
        <time>2013-04-14T08:13:43Z</time>
      </trkpt>
      <trkpt lat="46.10642" lon="3.487">
        <ele>354.59</ele>
        <time>2013-04-14T08:13:47Z</time>
      </trkpt>
      <trkpt lat="46.10623" lon="3.48691">
        <ele>353.36</ele>
        <time>2013-04-14T08:13:52Z</time>
      </trkpt>
      <trkpt lat="46.10596" lon="3.48685">
        <ele>352.57</ele>
        <time>2013-04-14T08:14:05Z</time>
      </trkpt>
      <trkpt lat="46.1058" lon="3.48672">
        <ele>352.55</ele>
        <time>2013-04-14T08:14:18Z</time>
      </trkpt>
      <trkpt lat="46.10563" lon="3.48664">
        <ele>352.55</ele>
        <time>2013-04-14T08:14:24Z</time>
      </trkpt>
      <trkpt lat="46.10546" lon="3.48653">
        <ele>352.55</ele>
        <time>2013-04-14T08:14:31Z</time>
      </trkpt>
      <trkpt lat="46.10528" lon="3.4864">
        <ele>352.8</ele>
        <time>2013-04-14T08:14:41Z</time>
      </trkpt>
      <trkpt lat="46.10536" lon="3.48616">
        <ele>357.87</ele>
        <time>2013-04-14T08:14:58Z</time>
      </trkpt>
      <trkpt lat="46.10553" lon="3.48608">
        <ele>358.53</ele>
        <time>2013-04-14T08:15:10Z</time>
      </trkpt>
      <trkpt lat="46.1056" lon="3.48582">
        <ele>365.92</ele>
        <time>2013-04-14T08:15:39Z</time>
      </trkpt>
      <trkpt lat="46.10542" lon="3.48567">
        <ele>368.23</ele>
        <time>2013-04-14T08:15:56Z</time>
      </trkpt>
      <trkpt lat="46.10525" lon="3.48558">
        <ele>367.59</ele>
        <time>2013-04-14T08:16:06Z</time>
      </trkpt>
      <trkpt lat="46.10507" lon="3.4855">
        <ele>366.48</ele>
        <time>2013-04-14T08:16:14Z</time>
      </trkpt>
      <trkpt lat="46.10488" lon="3.48541">
        <ele>364.99</ele>
        <time>2013-04-14T08:16:21Z</time>
      </trkpt>
      <trkpt lat="46.10468" lon="3.48535">
        <ele>363.12</ele>
        <time>2013-04-14T08:16:29Z</time>
      </trkpt>
      <trkpt lat="46.10448" lon="3.48526">
        <ele>360.88</ele>
        <time>2013-04-14T08:16:39Z</time>
      </trkpt>
      <trkpt lat="46.1043" lon="3.48522">
        <ele>361.44</ele>
        <time>2013-04-14T08:16:48Z</time>
      </trkpt>
      <trkpt lat="46.10412" lon="3.48516">
        <ele>360.72</ele>
        <time>2013-04-14T08:16:55Z</time>
      </trkpt>
      <trkpt lat="46.10393" lon="3.48505">
        <ele>359.66</ele>
        <time>2013-04-14T08:17:05Z</time>
      </trkpt>
      <trkpt lat="46.10375" lon="3.48494">
        <ele>360.24</ele>
        <time>2013-04-14T08:17:14Z</time>
      </trkpt>
      <trkpt lat="46.10357" lon="3.48485">
        <ele>361.09</ele>
        <time>2013-04-14T08:17:21Z</time>
      </trkpt>
      <trkpt lat="46.10339" lon="3.48479">
        <ele>362.77</ele>
        <time>2013-04-14T08:17:29Z</time>
      </trkpt>
      <trkpt lat="46.10321" lon="3.48468">
        <ele>364.8</ele>
        <time>2013-04-14T08:17:38Z</time>
      </trkpt>
      <trkpt lat="46.10303" lon="3.4846">
        <ele>366.32</ele>
        <time>2013-04-14T08:17:47Z</time>
      </trkpt>
      <trkpt lat="46.10286" lon="3.48451">
        <ele>367.68</ele>
        <time>2013-04-14T08:17:55Z</time>
      </trkpt>
      <trkpt lat="46.10268" lon="3.4844">
        <ele>368.84</ele>
        <time>2013-04-14T08:18:01Z</time>
      </trkpt>
      <trkpt lat="46.10251" lon="3.4843">
        <ele>370.66</ele>
        <time>2013-04-14T08:18:08Z</time>
      </trkpt>
      <trkpt lat="46.10261" lon="3.48453">
        <ele>375.38</ele>
        <time>2013-04-14T08:18:26Z</time>
      </trkpt>
      <trkpt lat="46.10276" lon="3.4847">
        <ele>373.71</ele>
        <time>2013-04-14T08:18:35Z</time>
      </trkpt>
      <trkpt lat="46.10291" lon="3.4849">
        <ele>370.52</ele>
        <time>2013-04-14T08:18:45Z</time>
      </trkpt>
      <trkpt lat="46.10304" lon="3.48511">
        <ele>368.58</ele>
        <time>2013-04-14T08:18:53Z</time>
      </trkpt>
      <trkpt lat="46.10318" lon="3.48528">
        <ele>367.01</ele>
        <time>2013-04-14T08:19:00Z</time>
      </trkpt>
      <trkpt lat="46.10332" lon="3.48548">
        <ele>365.12</ele>
        <time>2013-04-14T08:19:08Z</time>
      </trkpt>
      <trkpt lat="46.10347" lon="3.48565">
        <ele>364.19</ele>
        <time>2013-04-14T08:19:15Z</time>
      </trkpt>
      <trkpt lat="46.10362" lon="3.48586">
        <ele>363.62</ele>
        <time>2013-04-14T08:19:23Z</time>
      </trkpt>
      <trkpt lat="46.10369" lon="3.48612">
        <ele>362.74</ele>
        <time>2013-04-14T08:19:30Z</time>
      </trkpt>
      <trkpt lat="46.10369" lon="3.4864">
        <ele>362.57</ele>
        <time>2013-04-14T08:19:38Z</time>
      </trkpt>
      <trkpt lat="46.10381" lon="3.48659">
        <ele>361.65</ele>
        <time>2013-04-14T08:19:48Z</time>
      </trkpt>
      <trkpt lat="46.104" lon="3.48651">
        <ele>362.39</ele>
        <time>2013-04-14T08:19:55Z</time>
      </trkpt>
      <trkpt lat="46.10418" lon="3.48638">
        <ele>363.3</ele>
        <time>2013-04-14T08:20:04Z</time>
      </trkpt>
      <trkpt lat="46.10437" lon="3.48638">
        <ele>364.36</ele>
        <time>2013-04-14T08:20:13Z</time>
      </trkpt>
      <trkpt lat="46.10454" lon="3.48646">
        <ele>365.11</ele>
        <time>2013-04-14T08:20:21Z</time>
      </trkpt>
      <trkpt lat="46.10469" lon="3.48664">
        <ele>366.07</ele>
        <time>2013-04-14T08:20:28Z</time>
      </trkpt>
      <trkpt lat="46.10477" lon="3.48687">
        <ele>367.64</ele>
        <time>2013-04-14T08:20:38Z</time>
      </trkpt>
      <trkpt lat="46.1046" lon="3.48698">
        <ele>370.26</ele>
        <time>2013-04-14T08:20:54Z</time>
      </trkpt>
      <trkpt lat="46.10447" lon="3.48719">
        <ele>375.82</ele>
        <time>2013-04-14T08:21:14Z</time>
      </trkpt>
      <trkpt lat="46.10435" lon="3.48741">
        <ele>380.84</ele>
        <time>2013-04-14T08:21:29Z</time>
      </trkpt>
      <trkpt lat="46.10421" lon="3.48758">
        <ele>385.58</ele>
        <time>2013-04-14T08:21:43Z</time>
      </trkpt>
      <trkpt lat="46.10409" lon="3.48779">
        <ele>389.9</ele>
        <time>2013-04-14T08:21:57Z</time>
      </trkpt>
      <trkpt lat="46.10399" lon="3.48801">
        <ele>393.96</ele>
        <time>2013-04-14T08:22:10Z</time>
      </trkpt>
      <trkpt lat="46.10387" lon="3.48822">
        <ele>397.83</ele>
        <time>2013-04-14T08:22:22Z</time>
      </trkpt>
      <trkpt lat="46.10373" lon="3.4884">
        <ele>400.93</ele>
        <time>2013-04-14T08:22:34Z</time>
      </trkpt>
      <trkpt lat="46.10359" lon="3.48857">
        <ele>404.1</ele>
        <time>2013-04-14T08:22:48Z</time>
      </trkpt>
      <trkpt lat="46.10346" lon="3.48878">
        <ele>406.64</ele>
        <time>2013-04-14T08:23:02Z</time>
      </trkpt>
      <trkpt lat="46.10333" lon="3.48897">
        <ele>408.35</ele>
        <time>2013-04-14T08:23:14Z</time>
      </trkpt>
      <trkpt lat="46.10319" lon="3.48915">
        <ele>408.54</ele>
        <time>2013-04-14T08:23:24Z</time>
      </trkpt>
      <trkpt lat="46.10302" lon="3.48923">
        <ele>409.32</ele>
        <time>2013-04-14T08:23:38Z</time>
      </trkpt>
      <trkpt lat="46.10284" lon="3.48927">
        <ele>411.28</ele>
        <time>2013-04-14T08:23:53Z</time>
      </trkpt>
      <trkpt lat="46.10263" lon="3.48923">
        <ele>414.38</ele>
        <time>2013-04-14T08:24:10Z</time>
      </trkpt>
      <trkpt lat="46.10246" lon="3.48932">
        <ele>415.94</ele>
        <time>2013-04-14T08:24:21Z</time>
      </trkpt>
      <trkpt lat="46.10229" lon="3.4894">
        <ele>419.41</ele>
        <time>2013-04-14T08:24:39Z</time>
      </trkpt>
      <trkpt lat="46.10211" lon="3.48938">
        <ele>423.04</ele>
        <time>2013-04-14T08:24:59Z</time>
      </trkpt>
      <trkpt lat="46.10193" lon="3.48943">
        <ele>426.13</ele>
        <time>2013-04-14T08:25:13Z</time>
      </trkpt>
      <trkpt lat="46.1018" lon="3.48962">
        <ele>429.23</ele>
        <time>2013-04-14T08:25:39Z</time>
      </trkpt>
      <trkpt lat="46.10166" lon="3.48992">
        <ele>432.41</ele>
        <time>2013-04-14T08:25:43Z</time>
      </trkpt>
      <trkpt lat="46.10162" lon="3.49018">
        <ele>434.48</ele>
        <time>2013-04-14T08:25:46Z</time>
      </trkpt>
      <trkpt lat="46.10166" lon="3.49046">
        <ele>436.33</ele>
        <time>2013-04-14T08:25:50Z</time>
      </trkpt>
      <trkpt lat="46.1017" lon="3.49071">
        <ele>437.17</ele>
        <time>2013-04-14T08:25:54Z</time>
      </trkpt>
      <trkpt lat="46.10178" lon="3.49095">
        <ele>436.34</ele>
        <time>2013-04-14T08:25:59Z</time>
      </trkpt>
      <trkpt lat="46.10192" lon="3.49112">
        <ele>435.41</ele>
        <time>2013-04-14T08:26:06Z</time>
      </trkpt>
      <trkpt lat="46.10211" lon="3.49121">
        <ele>431.39</ele>
        <time>2013-04-14T08:26:13Z</time>
      </trkpt>
      <trkpt lat="46.10225" lon="3.4914">
        <ele>430.02</ele>
        <time>2013-04-14T08:26:19Z</time>
      </trkpt>
      <trkpt lat="46.10238" lon="3.49161">
        <ele>427.55</ele>
        <time>2013-04-14T08:26:25Z</time>
      </trkpt>
      <trkpt lat="46.10251" lon="3.49183">
        <ele>426.04</ele>
        <time>2013-04-14T08:26:31Z</time>
      </trkpt>
      <trkpt lat="46.10263" lon="3.49204">
        <ele>424.66</ele>
        <time>2013-04-14T08:26:36Z</time>
      </trkpt>
      <trkpt lat="46.10274" lon="3.49228">
        <ele>423.13</ele>
        <time>2013-04-14T08:26:41Z</time>
      </trkpt>
      <trkpt lat="46.10282" lon="3.49252">
        <ele>421.61</ele>
        <time>2013-04-14T08:26:45Z</time>
      </trkpt>
      <trkpt lat="46.10287" lon="3.49277">
        <ele>420.04</ele>
        <time>2013-04-14T08:26:50Z</time>
      </trkpt>
      <trkpt lat="46.10289" lon="3.49303">
        <ele>419.71</ele>
        <time>2013-04-14T08:26:54Z</time>
      </trkpt>
      <trkpt lat="46.10289" lon="3.49331">
        <ele>419.57</ele>
        <time>2013-04-14T08:27:01Z</time>
      </trkpt>
      <trkpt lat="46.10288" lon="3.49361">
        <ele>418.73</ele>
        <time>2013-04-14T08:27:10Z</time>
      </trkpt>
      <trkpt lat="46.10285" lon="3.49387">
        <ele>418.58</ele>
        <time>2013-04-14T08:27:16Z</time>
      </trkpt>
      <trkpt lat="46.10269" lon="3.494">
        <ele>419</ele>
        <time>2013-04-14T08:27:22Z</time>
      </trkpt>
      <trkpt lat="46.1025" lon="3.49408">
        <ele>420.68</ele>
        <time>2013-04-14T08:27:29Z</time>
      </trkpt>
      <trkpt lat="46.10232" lon="3.49417">
        <ele>422.03</ele>
        <time>2013-04-14T08:27:34Z</time>
      </trkpt>
      <trkpt lat="46.10214" lon="3.49432">
        <ele>423.01</ele>
        <time>2013-04-14T08:27:39Z</time>
      </trkpt>
      <trkpt lat="46.10206" lon="3.49458">
        <ele>424.55</ele>
        <time>2013-04-14T08:27:46Z</time>
      </trkpt>
      <trkpt lat="46.10218" lon="3.49481">
        <ele>427.87</ele>
        <time>2013-04-14T08:27:50Z</time>
      </trkpt>
      <trkpt lat="46.10229" lon="3.49507">
        <ele>429.81</ele>
        <time>2013-04-14T08:27:54Z</time>
      </trkpt>
      <trkpt lat="46.10237" lon="3.49537">
        <ele>430.38</ele>
        <time>2013-04-14T08:27:59Z</time>
      </trkpt>
      <trkpt lat="46.10238" lon="3.49567">
        <ele>431.62</ele>
        <time>2013-04-14T08:28:03Z</time>
      </trkpt>
      <trkpt lat="46.10231" lon="3.49595">
        <ele>433.67</ele>
        <time>2013-04-14T08:28:08Z</time>
      </trkpt>
      <trkpt lat="46.10215" lon="3.49612">
        <ele>432.87</ele>
        <time>2013-04-14T08:28:26Z</time>
      </trkpt>
      <trkpt lat="46.10202" lon="3.49631">
        <ele>421.06</ele>
        <time>2013-04-14T08:32:18Z</time>
      </trkpt>
      <trkpt lat="46.10184" lon="3.49633">
        <ele>419.62</ele>
        <time>2013-04-14T08:32:31Z</time>
      </trkpt>
      <trkpt lat="46.10167" lon="3.49625">
        <ele>420.56</ele>
        <time>2013-04-14T08:32:50Z</time>
      </trkpt>
      <trkpt lat="46.10151" lon="3.4961">
        <ele>424</ele>
        <time>2013-04-14T08:33:07Z</time>
      </trkpt>
      <trkpt lat="46.10137" lon="3.49593">
        <ele>427.57</ele>
        <time>2013-04-14T08:33:24Z</time>
      </trkpt>
      <trkpt lat="46.10123" lon="3.49576">
        <ele>431.74</ele>
        <time>2013-04-14T08:33:43Z</time>
      </trkpt>
      <trkpt lat="46.10108" lon="3.4956">
        <ele>434.96</ele>
        <time>2013-04-14T08:33:58Z</time>
      </trkpt>
      <trkpt lat="46.10093" lon="3.49545">
        <ele>437.96</ele>
        <time>2013-04-14T08:34:12Z</time>
      </trkpt>
      <trkpt lat="46.10075" lon="3.49543">
        <ele>442.68</ele>
        <time>2013-04-14T08:34:29Z</time>
      </trkpt>
      <trkpt lat="46.10056" lon="3.4955">
        <ele>447.9</ele>
        <time>2013-04-14T08:34:47Z</time>
      </trkpt>
      <trkpt lat="46.10039" lon="3.49563">
        <ele>453.04</ele>
        <time>2013-04-14T08:35:04Z</time>
      </trkpt>
      <trkpt lat="46.10021" lon="3.49565">
        <ele>455.18</ele>
        <time>2013-04-14T08:35:13Z</time>
      </trkpt>
      <trkpt lat="46.10003" lon="3.49565">
        <ele>458.42</ele>
        <time>2013-04-14T08:35:25Z</time>
      </trkpt>
      <trkpt lat="46.09986" lon="3.49556">
        <ele>462.9</ele>
        <time>2013-04-14T08:35:40Z</time>
      </trkpt>
      <trkpt lat="46.09969" lon="3.49543">
        <ele>466.34</ele>
        <time>2013-04-14T08:35:53Z</time>
      </trkpt>
      <trkpt lat="46.09956" lon="3.49526">
        <ele>469.42</ele>
        <time>2013-04-14T08:36:01Z</time>
      </trkpt>
      <trkpt lat="46.09942" lon="3.49507">
        <ele>473.5</ele>
        <time>2013-04-14T08:36:11Z</time>
      </trkpt>
      <trkpt lat="46.09924" lon="3.49496">
        <ele>477.77</ele>
        <time>2013-04-14T08:36:22Z</time>
      </trkpt>
      <trkpt lat="46.09918" lon="3.49522">
        <ele>484.2</ele>
        <time>2013-04-14T08:36:46Z</time>
      </trkpt>
      <trkpt lat="46.0991" lon="3.49545">
        <ele>486.95</ele>
        <time>2013-04-14T08:36:58Z</time>
      </trkpt>
      <trkpt lat="46.09904" lon="3.49571">
        <ele>489.23</ele>
        <time>2013-04-14T08:37:09Z</time>
      </trkpt>
      <trkpt lat="46.09897" lon="3.49595">
        <ele>491.8</ele>
        <time>2013-04-14T08:37:20Z</time>
      </trkpt>
      <trkpt lat="46.09886" lon="3.49618">
        <ele>493.49</ele>
        <time>2013-04-14T08:37:28Z</time>
      </trkpt>
      <trkpt lat="46.09874" lon="3.4964">
        <ele>495.46</ele>
        <time>2013-04-14T08:37:36Z</time>
      </trkpt>
      <trkpt lat="46.09864" lon="3.49663">
        <ele>497.73</ele>
        <time>2013-04-14T08:37:45Z</time>
      </trkpt>
      <trkpt lat="46.09855" lon="3.49687">
        <ele>499.84</ele>
        <time>2013-04-14T08:37:55Z</time>
      </trkpt>
      <trkpt lat="46.09848" lon="3.49715">
        <ele>499</ele>
        <time>2013-04-14T08:38:03Z</time>
      </trkpt>
      <trkpt lat="46.09843" lon="3.49741">
        <ele>498.57</ele>
        <time>2013-04-14T08:38:14Z</time>
      </trkpt>
      <trkpt lat="46.09833" lon="3.49764">
        <ele>499.13</ele>
        <time>2013-04-14T08:38:27Z</time>
      </trkpt>
      <trkpt lat="46.09825" lon="3.4979">
        <ele>500.44</ele>
        <time>2013-04-14T08:38:39Z</time>
      </trkpt>
      <trkpt lat="46.09807" lon="3.49805">
        <ele>501.13</ele>
        <time>2013-04-14T08:38:52Z</time>
      </trkpt>
      <trkpt lat="46.09791" lon="3.49818">
        <ele>502.19</ele>
        <time>2013-04-14T08:39:00Z</time>
      </trkpt>
      <trkpt lat="46.09776" lon="3.49833">
        <ele>502.51</ele>
        <time>2013-04-14T08:39:07Z</time>
      </trkpt>
      <trkpt lat="46.09759" lon="3.49844">
        <ele>502.55</ele>
        <time>2013-04-14T08:39:19Z</time>
      </trkpt>
      <trkpt lat="46.09742" lon="3.49852">
        <ele>502.55</ele>
        <time>2013-04-14T08:39:30Z</time>
      </trkpt>
      <trkpt lat="46.09725" lon="3.49865">
        <ele>503.32</ele>
        <time>2013-04-14T08:39:38Z</time>
      </trkpt>
      <trkpt lat="46.09707" lon="3.49876">
        <ele>504.4</ele>
        <time>2013-04-14T08:39:47Z</time>
      </trkpt>
      <trkpt lat="46.09693" lon="3.49893">
        <ele>505.44</ele>
        <time>2013-04-14T08:39:55Z</time>
      </trkpt>
      <trkpt lat="46.09684" lon="3.49919">
        <ele>505.54</ele>
        <time>2013-04-14T08:40:04Z</time>
      </trkpt>
      <trkpt lat="46.09681" lon="3.49947">
        <ele>505.55</ele>
        <time>2013-04-14T08:40:12Z</time>
      </trkpt>
      <trkpt lat="46.09679" lon="3.49975">
        <ele>503.6</ele>
        <time>2013-04-14T08:40:22Z</time>
      </trkpt>
      <trkpt lat="46.09681" lon="3.50003">
        <ele>501.93</ele>
        <time>2013-04-14T08:40:29Z</time>
      </trkpt>
      <trkpt lat="46.09684" lon="3.5005">
        <ele>500.96</ele>
        <time>2013-04-14T08:40:34Z</time>
      </trkpt>
      <trkpt lat="46.09678" lon="3.50075">
        <ele>500.61</ele>
        <time>2013-04-14T08:40:43Z</time>
      </trkpt>
      <trkpt lat="46.09668" lon="3.50099">
        <ele>500.99</ele>
        <time>2013-04-14T08:40:52Z</time>
      </trkpt>
      <trkpt lat="46.09671" lon="3.50125">
        <ele>501.92</ele>
        <time>2013-04-14T08:40:59Z</time>
      </trkpt>
      <trkpt lat="46.09684" lon="3.50148">
        <ele>503.33</ele>
        <time>2013-04-14T08:41:08Z</time>
      </trkpt>
      <trkpt lat="46.09694" lon="3.50172">
        <ele>504.3</ele>
        <time>2013-04-14T08:41:17Z</time>
      </trkpt>
      <trkpt lat="46.09701" lon="3.50196">
        <ele>505.21</ele>
        <time>2013-04-14T08:41:25Z</time>
      </trkpt>
      <trkpt lat="46.09709" lon="3.50221">
        <ele>505.51</ele>
        <time>2013-04-14T08:41:32Z</time>
      </trkpt>
      <trkpt lat="46.0972" lon="3.50245">
        <ele>506.37</ele>
        <time>2013-04-14T08:41:39Z</time>
      </trkpt>
      <trkpt lat="46.09735" lon="3.50262">
        <ele>505.95</ele>
        <time>2013-04-14T08:41:46Z</time>
      </trkpt>
      <trkpt lat="46.09754" lon="3.5026">
        <ele>504.74</ele>
        <time>2013-04-14T08:41:58Z</time>
      </trkpt>
      <trkpt lat="46.0977" lon="3.50273">
        <ele>501.81</ele>
        <time>2013-04-14T08:42:11Z</time>
      </trkpt>
      <trkpt lat="46.09779" lon="3.50299">
        <ele>499.28</ele>
        <time>2013-04-14T08:42:19Z</time>
      </trkpt>
      <trkpt lat="46.09785" lon="3.50324">
        <ele>496.99</ele>
        <time>2013-04-14T08:42:29Z</time>
      </trkpt>
      <trkpt lat="46.09789" lon="3.5035">
        <ele>495.99</ele>
        <time>2013-04-14T08:42:41Z</time>
      </trkpt>
      <trkpt lat="46.09792" lon="3.50376">
        <ele>495.57</ele>
        <time>2013-04-14T08:42:53Z</time>
      </trkpt>
      <trkpt lat="46.09781" lon="3.50397">
        <ele>496.06</ele>
        <time>2013-04-14T08:43:04Z</time>
      </trkpt>
      <trkpt lat="46.09762" lon="3.50402">
        <ele>495.6</ele>
        <time>2013-04-14T08:43:12Z</time>
      </trkpt>
      <trkpt lat="46.09744" lon="3.50399">
        <ele>494.74</ele>
        <time>2013-04-14T08:43:20Z</time>
      </trkpt>
      <trkpt lat="46.09728" lon="3.50387">
        <ele>494.57</ele>
        <time>2013-04-14T08:43:29Z</time>
      </trkpt>
      <trkpt lat="46.09711" lon="3.50376">
        <ele>494.55</ele>
        <time>2013-04-14T08:43:40Z</time>
      </trkpt>
      <trkpt lat="46.09695" lon="3.50363">
        <ele>495.24</ele>
        <time>2013-04-14T08:43:50Z</time>
      </trkpt>
      <trkpt lat="46.09682" lon="3.50339">
        <ele>496.19</ele>
        <time>2013-04-14T08:43:57Z</time>
      </trkpt>
      <trkpt lat="46.09672" lon="3.50314">
        <ele>497.19</ele>
        <time>2013-04-14T08:44:04Z</time>
      </trkpt>
      <trkpt lat="46.09664" lon="3.5029">
        <ele>498.09</ele>
        <time>2013-04-14T08:44:12Z</time>
      </trkpt>
      <trkpt lat="46.09654" lon="3.50266">
        <ele>498.74</ele>
        <time>2013-04-14T08:44:19Z</time>
      </trkpt>
      <trkpt lat="46.09645" lon="3.50243">
        <ele>499.41</ele>
        <time>2013-04-14T08:44:25Z</time>
      </trkpt>
      <trkpt lat="46.09637" lon="3.50217">
        <ele>500.11</ele>
        <time>2013-04-14T08:44:32Z</time>
      </trkpt>
      <trkpt lat="46.09628" lon="3.50191">
        <ele>500.49</ele>
        <time>2013-04-14T08:44:39Z</time>
      </trkpt>
      <trkpt lat="46.09617" lon="3.50166">
        <ele>501.12</ele>
        <time>2013-04-14T08:44:46Z</time>
      </trkpt>
      <trkpt lat="46.09604" lon="3.50142">
        <ele>501.48</ele>
        <time>2013-04-14T08:44:52Z</time>
      </trkpt>
      <trkpt lat="46.09598" lon="3.50116">
        <ele>502.22</ele>
        <time>2013-04-14T08:44:58Z</time>
      </trkpt>
      <trkpt lat="46.09597" lon="3.50088">
        <ele>502.49</ele>
        <time>2013-04-14T08:45:04Z</time>
      </trkpt>
      <trkpt lat="46.09595" lon="3.50058">
        <ele>503.31</ele>
        <time>2013-04-14T08:45:11Z</time>
      </trkpt>
      <trkpt lat="46.0959" lon="3.50033">
        <ele>504.55</ele>
        <time>2013-04-14T08:46:12Z</time>
      </trkpt>
      <trkpt lat="46.09571" lon="3.50037">
        <ele>504.55</ele>
        <time>2013-04-14T08:47:07Z</time>
      </trkpt>
      <trkpt lat="46.0955" lon="3.50033">
        <ele>503.87</ele>
        <time>2013-04-14T08:47:12Z</time>
      </trkpt>
      <trkpt lat="46.09526" lon="3.50024">
        <ele>503.4</ele>
        <time>2013-04-14T08:47:16Z</time>
      </trkpt>
      <trkpt lat="46.09502" lon="3.50015">
        <ele>502.66</ele>
        <time>2013-04-14T08:47:19Z</time>
      </trkpt>
      <trkpt lat="46.09477" lon="3.50007">
        <ele>501.58</ele>
        <time>2013-04-14T08:47:22Z</time>
      </trkpt>
      <trkpt lat="46.09455" lon="3.49998">
        <ele>500.41</ele>
        <time>2013-04-14T08:47:25Z</time>
      </trkpt>
      <trkpt lat="46.09433" lon="3.49985">
        <ele>499.09</ele>
        <time>2013-04-14T08:47:28Z</time>
      </trkpt>
      <trkpt lat="46.09415" lon="3.49977">
        <ele>497.76</ele>
        <time>2013-04-14T08:47:31Z</time>
      </trkpt>
      <trkpt lat="46.09396" lon="3.49988">
        <ele>496.36</ele>
        <time>2013-04-14T08:47:35Z</time>
      </trkpt>
      <trkpt lat="46.09388" lon="3.5002">
        <ele>495.12</ele>
        <time>2013-04-14T08:47:39Z</time>
      </trkpt>
      <trkpt lat="46.09382" lon="3.50048">
        <ele>493.97</ele>
        <time>2013-04-14T08:47:42Z</time>
      </trkpt>
      <trkpt lat="46.09378" lon="3.5008">
        <ele>490.37</ele>
        <time>2013-04-14T08:47:46Z</time>
      </trkpt>
      <trkpt lat="46.09373" lon="3.50108">
        <ele>487.07</ele>
        <time>2013-04-14T08:47:50Z</time>
      </trkpt>
      <trkpt lat="46.09367" lon="3.50138">
        <ele>483.12</ele>
        <time>2013-04-14T08:47:55Z</time>
      </trkpt>
      <trkpt lat="46.0936" lon="3.50163">
        <ele>480.79</ele>
        <time>2013-04-14T08:47:59Z</time>
      </trkpt>
      <trkpt lat="46.09355" lon="3.50194">
        <ele>479.26</ele>
        <time>2013-04-14T08:48:03Z</time>
      </trkpt>
      <trkpt lat="46.09352" lon="3.50219">
        <ele>478.6</ele>
        <time>2013-04-14T08:48:06Z</time>
      </trkpt>
      <trkpt lat="46.0935" lon="3.50254">
        <ele>477.45</ele>
        <time>2013-04-14T08:48:10Z</time>
      </trkpt>
      <trkpt lat="46.0935" lon="3.50284">
        <ele>476.59</ele>
        <time>2013-04-14T08:48:14Z</time>
      </trkpt>
      <trkpt lat="46.09348" lon="3.50312">
        <ele>475.88</ele>
        <time>2013-04-14T08:48:18Z</time>
      </trkpt>
      <trkpt lat="46.09344" lon="3.50342">
        <ele>475.08</ele>
        <time>2013-04-14T08:48:22Z</time>
      </trkpt>
      <trkpt lat="46.09341" lon="3.50369">
        <ele>473.6</ele>
        <time>2013-04-14T08:48:26Z</time>
      </trkpt>
      <trkpt lat="46.09333" lon="3.50393">
        <ele>472.12</ele>
        <time>2013-04-14T08:49:07Z</time>
      </trkpt>
      <trkpt lat="46.09324" lon="3.50419">
        <ele>468.57</ele>
        <time>2013-04-14T08:49:42Z</time>
      </trkpt>
      <trkpt lat="46.09315" lon="3.50442">
        <ele>467.73</ele>
        <time>2013-04-14T08:49:51Z</time>
      </trkpt>
      <trkpt lat="46.09308" lon="3.50466">
        <ele>467.58</ele>
        <time>2013-04-14T08:49:57Z</time>
      </trkpt>
      <trkpt lat="46.09299" lon="3.50492">
        <ele>467.56</ele>
        <time>2013-04-14T08:50:03Z</time>
      </trkpt>
      <trkpt lat="46.0929" lon="3.50515">
        <ele>467.55</ele>
        <time>2013-04-14T08:50:09Z</time>
      </trkpt>
      <trkpt lat="46.0928" lon="3.50539">
        <ele>467.55</ele>
        <time>2013-04-14T08:50:15Z</time>
      </trkpt>
      <trkpt lat="46.09265" lon="3.50554">
        <ele>467.55</ele>
        <time>2013-04-14T08:50:21Z</time>
      </trkpt>
      <trkpt lat="46.09247" lon="3.50567">
        <ele>467.55</ele>
        <time>2013-04-14T08:50:32Z</time>
      </trkpt>
      <trkpt lat="46.09238" lon="3.5059">
        <ele>466.97</ele>
        <time>2013-04-14T08:50:38Z</time>
      </trkpt>
      <trkpt lat="46.09224" lon="3.5061">
        <ele>466.61</ele>
        <time>2013-04-14T08:50:45Z</time>
      </trkpt>
      <trkpt lat="46.0921" lon="3.50631">
        <ele>465.74</ele>
        <time>2013-04-14T08:50:53Z</time>
      </trkpt>
      <trkpt lat="46.09195" lon="3.50651">
        <ele>465.58</ele>
        <time>2013-04-14T08:51:00Z</time>
      </trkpt>
      <trkpt lat="46.09183" lon="3.50672">
        <ele>465.56</ele>
        <time>2013-04-14T08:51:07Z</time>
      </trkpt>
      <trkpt lat="46.09171" lon="3.50693">
        <ele>466.24</ele>
        <time>2013-04-14T08:51:14Z</time>
      </trkpt>
      <trkpt lat="46.09158" lon="3.50713">
        <ele>466.52</ele>
        <time>2013-04-14T08:51:22Z</time>
      </trkpt>
      <trkpt lat="46.09146" lon="3.50734">
        <ele>467.48</ele>
        <time>2013-04-14T08:51:34Z</time>
      </trkpt>
      <trkpt lat="46.09137" lon="3.50758">
        <ele>467.98</ele>
        <time>2013-04-14T08:51:43Z</time>
      </trkpt>
      <trkpt lat="46.09124" lon="3.50777">
        <ele>468.77</ele>
        <time>2013-04-14T08:51:53Z</time>
      </trkpt>
      <trkpt lat="46.09111" lon="3.50796">
        <ele>470.82</ele>
        <time>2013-04-14T08:52:04Z</time>
      </trkpt>
      <trkpt lat="46.091" lon="3.50818">
        <ele>472.58</ele>
        <time>2013-04-14T08:52:14Z</time>
      </trkpt>
      <trkpt lat="46.09091" lon="3.50842">
        <ele>474.74</ele>
        <time>2013-04-14T08:52:23Z</time>
      </trkpt>
      <trkpt lat="46.0908" lon="3.50863">
        <ele>476.13</ele>
        <time>2013-04-14T08:52:30Z</time>
      </trkpt>
      <trkpt lat="46.09068" lon="3.50884">
        <ele>477.32</ele>
        <time>2013-04-14T08:52:37Z</time>
      </trkpt>
      <trkpt lat="46.09056" lon="3.50908">
        <ele>478.21</ele>
        <time>2013-04-14T08:52:45Z</time>
      </trkpt>
      <trkpt lat="46.09041" lon="3.50923">
        <ele>479.05</ele>
        <time>2013-04-14T08:52:50Z</time>
      </trkpt>
      <trkpt lat="46.09031" lon="3.50945">
        <ele>480.15</ele>
        <time>2013-04-14T08:52:56Z</time>
      </trkpt>
      <trkpt lat="46.09022" lon="3.50972">
        <ele>481.7</ele>
        <time>2013-04-14T08:53:03Z</time>
      </trkpt>
      <trkpt lat="46.09024" lon="3.50998">
        <ele>484.9</ele>
        <time>2013-04-14T08:53:10Z</time>
      </trkpt>
      <trkpt lat="46.09031" lon="3.51024">
        <ele>489.3</ele>
        <time>2013-04-14T08:53:20Z</time>
      </trkpt>
      <trkpt lat="46.09037" lon="3.51052">
        <ele>492.49</ele>
        <time>2013-04-14T08:53:28Z</time>
      </trkpt>
      <trkpt lat="46.09044" lon="3.51078">
        <ele>494.05</ele>
        <time>2013-04-14T08:53:34Z</time>
      </trkpt>
      <trkpt lat="46.09051" lon="3.51101">
        <ele>495.66</ele>
        <time>2013-04-14T08:53:38Z</time>
      </trkpt>
      <trkpt lat="46.09059" lon="3.51131">
        <ele>498.9</ele>
        <time>2013-04-14T08:53:42Z</time>
      </trkpt>
      <trkpt lat="46.09067" lon="3.51159">
        <ele>500.71</ele>
        <time>2013-04-14T08:53:46Z</time>
      </trkpt>
      <trkpt lat="46.09075" lon="3.51185">
        <ele>500.75</ele>
        <time>2013-04-14T08:53:57Z</time>
      </trkpt>
      <trkpt lat="46.09082" lon="3.51213">
        <ele>499.06</ele>
        <time>2013-04-14T08:54:08Z</time>
      </trkpt>
      <trkpt lat="46.09067" lon="3.5123">
        <ele>496.98</ele>
        <time>2013-04-14T08:54:21Z</time>
      </trkpt>
      <trkpt lat="46.09048" lon="3.51226">
        <ele>496.05</ele>
        <time>2013-04-14T08:54:27Z</time>
      </trkpt>
      <trkpt lat="46.09029" lon="3.51221">
        <ele>495.64</ele>
        <time>2013-04-14T08:54:33Z</time>
      </trkpt>
      <trkpt lat="46.0901" lon="3.51219">
        <ele>495.32</ele>
        <time>2013-04-14T08:54:38Z</time>
      </trkpt>
      <trkpt lat="46.08991" lon="3.51215">
        <ele>494.74</ele>
        <time>2013-04-14T08:54:43Z</time>
      </trkpt>
      <trkpt lat="46.0897" lon="3.51206">
        <ele>494.57</ele>
        <time>2013-04-14T08:54:51Z</time>
      </trkpt>
      <trkpt lat="46.08952" lon="3.51198">
        <ele>494.99</ele>
        <time>2013-04-14T08:55:01Z</time>
      </trkpt>
      <trkpt lat="46.08931" lon="3.51191">
        <ele>496.36</ele>
        <time>2013-04-14T08:55:13Z</time>
      </trkpt>
      <trkpt lat="46.08912" lon="3.51185">
        <ele>496.52</ele>
        <time>2013-04-14T08:55:19Z</time>
      </trkpt>
      <trkpt lat="46.08893" lon="3.51181">
        <ele>497.23</ele>
        <time>2013-04-14T08:55:23Z</time>
      </trkpt>
      <trkpt lat="46.08873" lon="3.51183">
        <ele>497.49</ele>
        <time>2013-04-14T08:55:29Z</time>
      </trkpt>
      <trkpt lat="46.08855" lon="3.51198">
        <ele>497.55</ele>
        <time>2013-04-14T08:55:37Z</time>
      </trkpt>
      <trkpt lat="46.08839" lon="3.51213">
        <ele>497.55</ele>
        <time>2013-04-14T08:55:43Z</time>
      </trkpt>
      <trkpt lat="46.08826" lon="3.51232">
        <ele>498.13</ele>
        <time>2013-04-14T08:55:49Z</time>
      </trkpt>
      <trkpt lat="46.08809" lon="3.51247">
        <ele>498.48</ele>
        <time>2013-04-14T08:55:55Z</time>
      </trkpt>
      <trkpt lat="46.08795" lon="3.51264">
        <ele>498.54</ele>
        <time>2013-04-14T08:56:00Z</time>
      </trkpt>
      <trkpt lat="46.08781" lon="3.51281">
        <ele>498.8</ele>
        <time>2013-04-14T08:56:05Z</time>
      </trkpt>
      <trkpt lat="46.08767" lon="3.51299">
        <ele>499.37</ele>
        <time>2013-04-14T08:56:10Z</time>
      </trkpt>
      <trkpt lat="46.08753" lon="3.51316">
        <ele>500.27</ele>
        <time>2013-04-14T08:56:15Z</time>
      </trkpt>
      <trkpt lat="46.08741" lon="3.51337">
        <ele>501.36</ele>
        <time>2013-04-14T08:56:20Z</time>
      </trkpt>
      <trkpt lat="46.08727" lon="3.51363">
        <ele>502.85</ele>
        <time>2013-04-14T08:56:25Z</time>
      </trkpt>
      <trkpt lat="46.08714" lon="3.51384">
        <ele>503.39</ele>
        <time>2013-04-14T08:56:30Z</time>
      </trkpt>
      <trkpt lat="46.08701" lon="3.51406">
        <ele>504.09</ele>
        <time>2013-04-14T08:56:35Z</time>
      </trkpt>
      <trkpt lat="46.08687" lon="3.51429">
        <ele>504.72</ele>
        <time>2013-04-14T08:56:41Z</time>
      </trkpt>
      <trkpt lat="46.08671" lon="3.51451">
        <ele>505.65</ele>
        <time>2013-04-14T08:56:47Z</time>
      </trkpt>
      <trkpt lat="46.08654" lon="3.51468">
        <ele>506.39</ele>
        <time>2013-04-14T08:56:53Z</time>
      </trkpt>
      <trkpt lat="46.08639" lon="3.51483">
        <ele>507.87</ele>
        <time>2013-04-14T08:56:57Z</time>
      </trkpt>
      <trkpt lat="46.08625" lon="3.515">
        <ele>510.11</ele>
        <time>2013-04-14T08:57:00Z</time>
      </trkpt>
      <trkpt lat="46.08609" lon="3.51515">
        <ele>512.35</ele>
        <time>2013-04-14T08:57:03Z</time>
      </trkpt>
      <trkpt lat="46.08591" lon="3.5153">
        <ele>514.29</ele>
        <time>2013-04-14T08:57:07Z</time>
      </trkpt>
      <trkpt lat="46.08572" lon="3.51539">
        <ele>515.59</ele>
        <time>2013-04-14T08:57:11Z</time>
      </trkpt>
      <trkpt lat="46.08555" lon="3.51552">
        <ele>516.25</ele>
        <time>2013-04-14T08:57:15Z</time>
      </trkpt>
      <trkpt lat="46.08539" lon="3.51573">
        <ele>516.23</ele>
        <time>2013-04-14T08:57:20Z</time>
      </trkpt>
      <trkpt lat="46.08524" lon="3.51593">
        <ele>515.15</ele>
        <time>2013-04-14T08:57:23Z</time>
      </trkpt>
      <trkpt lat="46.08509" lon="3.5161">
        <ele>514.23</ele>
        <time>2013-04-14T08:57:26Z</time>
      </trkpt>
      <trkpt lat="46.08493" lon="3.51625">
        <ele>513.77</ele>
        <time>2013-04-14T08:57:30Z</time>
      </trkpt>
      <trkpt lat="46.08476" lon="3.51642">
        <ele>514.37</ele>
        <time>2013-04-14T08:57:35Z</time>
      </trkpt>
      <trkpt lat="46.08475" lon="3.5167">
        <ele>515.29</ele>
        <time>2013-04-14T08:57:42Z</time>
      </trkpt>
      <trkpt lat="46.08492" lon="3.51685">
        <ele>515.54</ele>
        <time>2013-04-14T08:57:52Z</time>
      </trkpt>
      <trkpt lat="46.08505" lon="3.51708">
        <ele>515.3</ele>
        <time>2013-04-14T08:58:09Z</time>
      </trkpt>
      <trkpt lat="46.08521" lon="3.51726">
        <ele>515.85</ele>
        <time>2013-04-14T08:58:14Z</time>
      </trkpt>
      <trkpt lat="46.08538" lon="3.51743">
        <ele>517.7</ele>
        <time>2013-04-14T08:58:18Z</time>
      </trkpt>
      <trkpt lat="46.08563" lon="3.51751">
        <ele>519.8</ele>
        <time>2013-04-14T08:58:22Z</time>
      </trkpt>
      <trkpt lat="46.08585" lon="3.5176">
        <ele>522.22</ele>
        <time>2013-04-14T08:58:25Z</time>
      </trkpt>
      <trkpt lat="46.08605" lon="3.51766">
        <ele>524.26</ele>
        <time>2013-04-14T08:58:28Z</time>
      </trkpt>
      <trkpt lat="46.08627" lon="3.51775">
        <ele>525.83</ele>
        <time>2013-04-14T08:58:31Z</time>
      </trkpt>
      <trkpt lat="46.08646" lon="3.51784">
        <ele>526.34</ele>
        <time>2013-04-14T08:58:33Z</time>
      </trkpt>
      <trkpt lat="46.08665" lon="3.51794">
        <ele>525.74</ele>
        <time>2013-04-14T08:58:35Z</time>
      </trkpt>
      <trkpt lat="46.08684" lon="3.51805">
        <ele>524.54</ele>
        <time>2013-04-14T08:58:37Z</time>
      </trkpt>
      <trkpt lat="46.08705" lon="3.51818">
        <ele>522.98</ele>
        <time>2013-04-14T08:58:39Z</time>
      </trkpt>
      <trkpt lat="46.08726" lon="3.51831">
        <ele>521.48</ele>
        <time>2013-04-14T08:58:41Z</time>
      </trkpt>
      <trkpt lat="46.08745" lon="3.51841">
        <ele>519.95</ele>
        <time>2013-04-14T08:58:43Z</time>
      </trkpt>
      <trkpt lat="46.08764" lon="3.51852">
        <ele>518.21</ele>
        <time>2013-04-14T08:58:45Z</time>
      </trkpt>
      <trkpt lat="46.08781" lon="3.51861">
        <ele>516.36</ele>
        <time>2013-04-14T08:58:47Z</time>
      </trkpt>
      <trkpt lat="46.08805" lon="3.51871">
        <ele>514.05</ele>
        <time>2013-04-14T08:58:50Z</time>
      </trkpt>
      <trkpt lat="46.0882" lon="3.51887">
        <ele>512.27</ele>
        <time>2013-04-14T08:58:52Z</time>
      </trkpt>
      <trkpt lat="46.08838" lon="3.51914">
        <ele>508.17</ele>
        <time>2013-04-14T08:58:55Z</time>
      </trkpt>
      <trkpt lat="46.08849" lon="3.5194">
        <ele>505.21</ele>
        <time>2013-04-14T08:58:57Z</time>
      </trkpt>
      <trkpt lat="46.0886" lon="3.51966">
        <ele>502.49</ele>
        <time>2013-04-14T08:58:59Z</time>
      </trkpt>
      <trkpt lat="46.08872" lon="3.51994">
        <ele>500.08</ele>
        <time>2013-04-14T08:59:01Z</time>
      </trkpt>
      <trkpt lat="46.08882" lon="3.52017">
        <ele>497.85</ele>
        <time>2013-04-14T08:59:03Z</time>
      </trkpt>
      <trkpt lat="46.08898" lon="3.52045">
        <ele>494.68</ele>
        <time>2013-04-14T08:59:06Z</time>
      </trkpt>
      <trkpt lat="46.08913" lon="3.52075">
        <ele>491.61</ele>
        <time>2013-04-14T08:59:09Z</time>
      </trkpt>
      <trkpt lat="46.08919" lon="3.52112">
        <ele>489.01</ele>
        <time>2013-04-14T08:59:12Z</time>
      </trkpt>
      <trkpt lat="46.08918" lon="3.52142">
        <ele>487.69</ele>
        <time>2013-04-14T08:59:14Z</time>
      </trkpt>
      <trkpt lat="46.08914" lon="3.52178">
        <ele>485.77</ele>
        <time>2013-04-14T08:59:17Z</time>
      </trkpt>
      <trkpt lat="46.08901" lon="3.52198">
        <ele>483.8</ele>
        <time>2013-04-14T08:59:20Z</time>
      </trkpt>
      <trkpt lat="46.08892" lon="3.52221">
        <ele>480.75</ele>
        <time>2013-04-14T08:59:24Z</time>
      </trkpt>
      <trkpt lat="46.08875" lon="3.52243">
        <ele>477.98</ele>
        <time>2013-04-14T08:59:28Z</time>
      </trkpt>
      <trkpt lat="46.08862" lon="3.52266">
        <ele>472.42</ele>
        <time>2013-04-14T08:59:32Z</time>
      </trkpt>
      <trkpt lat="46.08874" lon="3.52288">
        <ele>465.2</ele>
        <time>2013-04-14T08:59:36Z</time>
      </trkpt>
      <trkpt lat="46.08892" lon="3.52296">
        <ele>460.67</ele>
        <time>2013-04-14T08:59:39Z</time>
      </trkpt>
      <trkpt lat="46.08918" lon="3.52305">
        <ele>457.46</ele>
        <time>2013-04-14T08:59:42Z</time>
      </trkpt>
      <trkpt lat="46.08938" lon="3.52309">
        <ele>455.25</ele>
        <time>2013-04-14T08:59:44Z</time>
      </trkpt>
      <trkpt lat="46.08958" lon="3.52314">
        <ele>452.7</ele>
        <time>2013-04-14T08:59:46Z</time>
      </trkpt>
      <trkpt lat="46.08977" lon="3.52322">
        <ele>450.2</ele>
        <time>2013-04-14T08:59:48Z</time>
      </trkpt>
      <trkpt lat="46.08997" lon="3.52339">
        <ele>447.51</ele>
        <time>2013-04-14T08:59:51Z</time>
      </trkpt>
      <trkpt lat="46.09005" lon="3.52363">
        <ele>446.38</ele>
        <time>2013-04-14T08:59:54Z</time>
      </trkpt>
      <trkpt lat="46.09008" lon="3.52389">
        <ele>446.21</ele>
        <time>2013-04-14T08:59:56Z</time>
      </trkpt>
      <trkpt lat="46.09004" lon="3.52417">
        <ele>446.08</ele>
        <time>2013-04-14T08:59:59Z</time>
      </trkpt>
      <trkpt lat="46.0899" lon="3.52438">
        <ele>445.27</ele>
        <time>2013-04-14T09:00:02Z</time>
      </trkpt>
      <trkpt lat="46.08973" lon="3.52453">
        <ele>440.45</ele>
        <time>2013-04-14T09:00:06Z</time>
      </trkpt>
      <trkpt lat="46.0898" lon="3.52477">
        <ele>434.76</ele>
        <time>2013-04-14T09:00:13Z</time>
      </trkpt>
      <trkpt lat="46.08971" lon="3.52504">
        <ele>430.62</ele>
        <time>2013-04-14T09:00:24Z</time>
      </trkpt>
      <trkpt lat="46.08966" lon="3.52532">
        <ele>426.89</ele>
        <time>2013-04-14T09:00:27Z</time>
      </trkpt>
      <trkpt lat="46.0896" lon="3.52562">
        <ele>422.68</ele>
        <time>2013-04-14T09:00:30Z</time>
      </trkpt>
      <trkpt lat="46.08953" lon="3.5259">
        <ele>418.05</ele>
        <time>2013-04-14T09:00:34Z</time>
      </trkpt>
      <trkpt lat="46.0895" lon="3.52616">
        <ele>414.83</ele>
        <time>2013-04-14T09:00:38Z</time>
      </trkpt>
      <trkpt lat="46.08947" lon="3.52644">
        <ele>413.08</ele>
        <time>2013-04-14T09:00:41Z</time>
      </trkpt>
      <trkpt lat="46.08946" lon="3.52674">
        <ele>410.66</ele>
        <time>2013-04-14T09:00:45Z</time>
      </trkpt>
      <trkpt lat="46.0894" lon="3.52702">
        <ele>407.4</ele>
        <time>2013-04-14T09:00:58Z</time>
      </trkpt>
      <trkpt lat="46.08934" lon="3.52728">
        <ele>405.88</ele>
        <time>2013-04-14T09:01:06Z</time>
      </trkpt>
      <trkpt lat="46.08947" lon="3.52747">
        <ele>404.2</ele>
        <time>2013-04-14T09:01:13Z</time>
      </trkpt>
      <trkpt lat="46.08958" lon="3.52768">
        <ele>402.27</ele>
        <time>2013-04-14T09:01:19Z</time>
      </trkpt>
      <trkpt lat="46.08967" lon="3.52792">
        <ele>398.5</ele>
        <time>2013-04-14T09:01:30Z</time>
      </trkpt>
      <trkpt lat="46.08975" lon="3.52818">
        <ele>394.9</ele>
        <time>2013-04-14T09:01:38Z</time>
      </trkpt>
      <trkpt lat="46.08986" lon="3.52841">
        <ele>388.39</ele>
        <time>2013-04-14T09:01:52Z</time>
      </trkpt>
      <trkpt lat="46.08999" lon="3.52863">
        <ele>383.81</ele>
        <time>2013-04-14T09:02:02Z</time>
      </trkpt>
      <trkpt lat="46.09009" lon="3.52884">
        <ele>378.75</ele>
        <time>2013-04-14T09:02:14Z</time>
      </trkpt>
      <trkpt lat="46.09018" lon="3.52908">
        <ele>373.48</ele>
        <time>2013-04-14T09:02:30Z</time>
      </trkpt>
      <trkpt lat="46.09032" lon="3.52942">
        <ele>368.1</ele>
        <time>2013-04-14T09:02:52Z</time>
      </trkpt>
      <trkpt lat="46.09043" lon="3.52964">
        <ele>365.09</ele>
        <time>2013-04-14T09:03:11Z</time>
      </trkpt>
      <trkpt lat="46.09058" lon="3.52981">
        <ele>359.56</ele>
        <time>2013-04-14T09:03:49Z</time>
      </trkpt>
      <trkpt lat="46.09073" lon="3.52996">
        <ele>358.73</ele>
        <time>2013-04-14T09:04:19Z</time>
      </trkpt>
      <trkpt lat="46.0907" lon="3.53024">
        <ele>357.59</ele>
        <time>2013-04-14T09:04:34Z</time>
      </trkpt>
      <trkpt lat="46.0906" lon="3.53045">
        <ele>357.55</ele>
        <time>2013-04-14T09:04:54Z</time>
      </trkpt>
      <trkpt lat="46.09045" lon="3.53062">
        <ele>356.57</ele>
        <time>2013-04-14T09:05:08Z</time>
      </trkpt>
      <trkpt lat="46.09028" lon="3.53075">
        <ele>356.55</ele>
        <time>2013-04-14T09:05:26Z</time>
      </trkpt>
      <trkpt lat="46.09012" lon="3.53092">
        <ele>358.49</ele>
        <time>2013-04-14T09:05:48Z</time>
      </trkpt>
      <trkpt lat="46.09002" lon="3.53114">
        <ele>360.29</ele>
        <time>2013-04-14T09:06:01Z</time>
      </trkpt>
      <trkpt lat="46.08989" lon="3.53133">
        <ele>362.43</ele>
        <time>2013-04-14T09:06:16Z</time>
      </trkpt>
      <trkpt lat="46.08972" lon="3.53146">
        <ele>364.4</ele>
        <time>2013-04-14T09:06:31Z</time>
      </trkpt>
      <trkpt lat="46.08952" lon="3.53153">
        <ele>364.55</ele>
        <time>2013-04-14T09:06:42Z</time>
      </trkpt>
      <trkpt lat="46.08934" lon="3.53155">
        <ele>365.37</ele>
        <time>2013-04-14T09:06:52Z</time>
      </trkpt>
      <trkpt lat="46.08916" lon="3.53157">
        <ele>367.59</ele>
        <time>2013-04-14T09:07:07Z</time>
      </trkpt>
      <trkpt lat="46.08898" lon="3.53157">
        <ele>370.04</ele>
        <time>2013-04-14T09:07:21Z</time>
      </trkpt>
      <trkpt lat="46.08879" lon="3.53155">
        <ele>373.07</ele>
        <time>2013-04-14T09:07:40Z</time>
      </trkpt>
      <trkpt lat="46.08864" lon="3.5314">
        <ele>375.04</ele>
        <time>2013-04-14T09:07:53Z</time>
      </trkpt>
      <trkpt lat="46.0885" lon="3.53122">
        <ele>378.2</ele>
        <time>2013-04-14T09:08:13Z</time>
      </trkpt>
      <trkpt lat="46.08843" lon="3.53099">
        <ele>378.55</ele>
        <time>2013-04-14T09:08:27Z</time>
      </trkpt>
      <trkpt lat="46.08839" lon="3.53073">
        <ele>380.37</ele>
        <time>2013-04-14T09:08:46Z</time>
      </trkpt>
      <trkpt lat="46.08829" lon="3.5305">
        <ele>385.14</ele>
        <time>2013-04-14T09:09:11Z</time>
      </trkpt>
      <trkpt lat="46.08832" lon="3.53024">
        <ele>387.54</ele>
        <time>2013-04-14T09:09:37Z</time>
      </trkpt>
      <trkpt lat="46.08816" lon="3.53011">
        <ele>395.58</ele>
        <time>2013-04-14T09:11:41Z</time>
      </trkpt>
      <trkpt lat="46.08802" lon="3.52994">
        <ele>398.77</ele>
        <time>2013-04-14T09:11:53Z</time>
      </trkpt>
      <trkpt lat="46.08787" lon="3.52979">
        <ele>399.47</ele>
        <time>2013-04-14T09:12:01Z</time>
      </trkpt>
      <trkpt lat="46.08773" lon="3.52959">
        <ele>400.47</ele>
        <time>2013-04-14T09:12:10Z</time>
      </trkpt>
      <trkpt lat="46.08759" lon="3.52942">
        <ele>400.79</ele>
        <time>2013-04-14T09:12:18Z</time>
      </trkpt>
      <trkpt lat="46.08741" lon="3.52929">
        <ele>401.75</ele>
        <time>2013-04-14T09:12:27Z</time>
      </trkpt>
      <trkpt lat="46.08724" lon="3.52914">
        <ele>403.65</ele>
        <time>2013-04-14T09:12:34Z</time>
      </trkpt>
      <trkpt lat="46.08707" lon="3.52901">
        <ele>407.08</ele>
        <time>2013-04-14T09:12:39Z</time>
      </trkpt>
      <trkpt lat="46.08684" lon="3.52891">
        <ele>412.77</ele>
        <time>2013-04-14T09:12:43Z</time>
      </trkpt>
      <trkpt lat="46.08661" lon="3.52876">
        <ele>413.99</ele>
        <time>2013-04-14T09:12:46Z</time>
      </trkpt>
      <trkpt lat="46.08639" lon="3.52859">
        <ele>414.89</ele>
        <time>2013-04-14T09:12:49Z</time>
      </trkpt>
      <trkpt lat="46.08622" lon="3.52839">
        <ele>414.7</ele>
        <time>2013-04-14T09:12:52Z</time>
      </trkpt>
      <trkpt lat="46.08608" lon="3.52822">
        <ele>414.58</ele>
        <time>2013-04-14T09:12:58Z</time>
      </trkpt>
      <trkpt lat="46.08588" lon="3.52816">
        <ele>413.44</ele>
        <time>2013-04-14T09:13:05Z</time>
      </trkpt>
      <trkpt lat="46.08587" lon="3.52846">
        <ele>405.77</ele>
        <time>2013-04-14T09:13:41Z</time>
      </trkpt>
      <trkpt lat="46.08585" lon="3.52874">
        <ele>405.59</ele>
        <time>2013-04-14T09:13:47Z</time>
      </trkpt>
      <trkpt lat="46.08583" lon="3.52899">
        <ele>406.57</ele>
        <time>2013-04-14T09:13:53Z</time>
      </trkpt>
      <trkpt lat="46.08581" lon="3.52925">
        <ele>408.03</ele>
        <time>2013-04-14T09:14:01Z</time>
      </trkpt>
      <trkpt lat="46.08575" lon="3.52951">
        <ele>408.51</ele>
        <time>2013-04-14T09:14:10Z</time>
      </trkpt>
      <trkpt lat="46.08553" lon="3.52964">
        <ele>409.45</ele>
        <time>2013-04-14T09:14:28Z</time>
      </trkpt>
      <trkpt lat="46.08538" lon="3.52983">
        <ele>410.8</ele>
        <time>2013-04-14T09:15:26Z</time>
      </trkpt>
      <trkpt lat="46.08518" lon="3.52987">
        <ele>413.69</ele>
        <time>2013-04-14T09:15:49Z</time>
      </trkpt>
      <trkpt lat="46.08502" lon="3.52974">
        <ele>415.27</ele>
        <time>2013-04-14T09:15:59Z</time>
      </trkpt>
      <trkpt lat="46.08485" lon="3.52959">
        <ele>417.15</ele>
        <time>2013-04-14T09:16:09Z</time>
      </trkpt>
      <trkpt lat="46.08471" lon="3.52942">
        <ele>419.24</ele>
        <time>2013-04-14T09:16:20Z</time>
      </trkpt>
      <trkpt lat="46.08457" lon="3.52923">
        <ele>422.13</ele>
        <time>2013-04-14T09:16:33Z</time>
      </trkpt>
      <trkpt lat="46.08445" lon="3.52901">
        <ele>425.03</ele>
        <time>2013-04-14T09:16:49Z</time>
      </trkpt>
      <trkpt lat="46.08434" lon="3.5288">
        <ele>428.61</ele>
        <time>2013-04-14T09:17:03Z</time>
      </trkpt>
      <trkpt lat="46.08416" lon="3.52884">
        <ele>431.63</ele>
        <time>2013-04-14T09:17:18Z</time>
      </trkpt>
      <trkpt lat="46.084" lon="3.52897">
        <ele>434.57</ele>
        <time>2013-04-14T09:17:33Z</time>
      </trkpt>
      <trkpt lat="46.08382" lon="3.52904">
        <ele>437.8</ele>
        <time>2013-04-14T09:17:49Z</time>
      </trkpt>
      <trkpt lat="46.08362" lon="3.52904">
        <ele>439.27</ele>
        <time>2013-04-14T09:17:59Z</time>
      </trkpt>
      <trkpt lat="46.08344" lon="3.52906">
        <ele>440.9</ele>
        <time>2013-04-14T09:18:09Z</time>
      </trkpt>
      <trkpt lat="46.08326" lon="3.52906">
        <ele>442.35</ele>
        <time>2013-04-14T09:18:21Z</time>
      </trkpt>
      <trkpt lat="46.08309" lon="3.52897">
        <ele>444.86</ele>
        <time>2013-04-14T09:18:34Z</time>
      </trkpt>
      <trkpt lat="46.08293" lon="3.52884">
        <ele>447.27</ele>
        <time>2013-04-14T09:18:50Z</time>
      </trkpt>
      <trkpt lat="46.08276" lon="3.52871">
        <ele>449.86</ele>
        <time>2013-04-14T09:19:05Z</time>
      </trkpt>
      <trkpt lat="46.08259" lon="3.52861">
        <ele>452</ele>
        <time>2013-04-14T09:19:16Z</time>
      </trkpt>
      <trkpt lat="46.08241" lon="3.52854">
        <ele>453.76</ele>
        <time>2013-04-14T09:19:24Z</time>
      </trkpt>
      <trkpt lat="46.08223" lon="3.52848">
        <ele>456.09</ele>
        <time>2013-04-14T09:19:34Z</time>
      </trkpt>
      <trkpt lat="46.08204" lon="3.52846">
        <ele>457.31</ele>
        <time>2013-04-14T09:19:41Z</time>
      </trkpt>
      <trkpt lat="46.08186" lon="3.52835">
        <ele>458.22</ele>
        <time>2013-04-14T09:19:50Z</time>
      </trkpt>
      <trkpt lat="46.08169" lon="3.52822">
        <ele>459.11</ele>
        <time>2013-04-14T09:20:00Z</time>
      </trkpt>
      <trkpt lat="46.08152" lon="3.52809">
        <ele>460.11</ele>
        <time>2013-04-14T09:20:10Z</time>
      </trkpt>
      <trkpt lat="46.08135" lon="3.52796">
        <ele>460.93</ele>
        <time>2013-04-14T09:20:17Z</time>
      </trkpt>
      <trkpt lat="46.08119" lon="3.52779">
        <ele>462.23</ele>
        <time>2013-04-14T09:20:24Z</time>
      </trkpt>
      <trkpt lat="46.08104" lon="3.52764">
        <ele>464.22</ele>
        <time>2013-04-14T09:20:33Z</time>
      </trkpt>
      <trkpt lat="46.08088" lon="3.52749">
        <ele>466.14</ele>
        <time>2013-04-14T09:20:42Z</time>
      </trkpt>
      <trkpt lat="46.08074" lon="3.52732">
        <ele>467.67</ele>
        <time>2013-04-14T09:20:51Z</time>
      </trkpt>
      <trkpt lat="46.08058" lon="3.52719">
        <ele>469.35</ele>
        <time>2013-04-14T09:21:03Z</time>
      </trkpt>
      <trkpt lat="46.08042" lon="3.52706">
        <ele>470.45</ele>
        <time>2013-04-14T09:21:15Z</time>
      </trkpt>
      <trkpt lat="46.08027" lon="3.52691">
        <ele>472.28</ele>
        <time>2013-04-14T09:21:27Z</time>
      </trkpt>
      <trkpt lat="46.08009" lon="3.52678">
        <ele>474.93</ele>
        <time>2013-04-14T09:21:45Z</time>
      </trkpt>
      <trkpt lat="46.07994" lon="3.52661">
        <ele>477.22</ele>
        <time>2013-04-14T09:21:57Z</time>
      </trkpt>
      <trkpt lat="46.07977" lon="3.5265">
        <ele>480</ele>
        <time>2013-04-14T09:22:10Z</time>
      </trkpt>
      <trkpt lat="46.07961" lon="3.52638">
        <ele>481.27</ele>
        <time>2013-04-14T09:22:19Z</time>
      </trkpt>
      <trkpt lat="46.07944" lon="3.52629">
        <ele>483.15</ele>
        <time>2013-04-14T09:22:30Z</time>
      </trkpt>
      <trkpt lat="46.07926" lon="3.52631">
        <ele>486</ele>
        <time>2013-04-14T09:22:43Z</time>
      </trkpt>
      <trkpt lat="46.07907" lon="3.52627">
        <ele>488.14</ele>
        <time>2013-04-14T09:22:54Z</time>
      </trkpt>
      <trkpt lat="46.07888" lon="3.5262">
        <ele>489.87</ele>
        <time>2013-04-14T09:23:04Z</time>
      </trkpt>
      <trkpt lat="46.0787" lon="3.52614">
        <ele>491.2</ele>
        <time>2013-04-14T09:23:14Z</time>
      </trkpt>
      <trkpt lat="46.07851" lon="3.52614">
        <ele>492.97</ele>
        <time>2013-04-14T09:23:23Z</time>
      </trkpt>
      <trkpt lat="46.07831" lon="3.52618">
        <ele>494.36</ele>
        <time>2013-04-14T09:23:35Z</time>
      </trkpt>
      <trkpt lat="46.07824" lon="3.52642">
        <ele>496.33</ele>
        <time>2013-04-14T09:23:39Z</time>
      </trkpt>
      <trkpt lat="46.07823" lon="3.5267">
        <ele>498.88</ele>
        <time>2013-04-14T09:23:42Z</time>
      </trkpt>
      <trkpt lat="46.07818" lon="3.52698">
        <ele>500.86</ele>
        <time>2013-04-14T09:23:45Z</time>
      </trkpt>
      <trkpt lat="46.07814" lon="3.52726">
        <ele>501.84</ele>
        <time>2013-04-14T09:23:48Z</time>
      </trkpt>
      <trkpt lat="46.07812" lon="3.52756">
        <ele>501.95</ele>
        <time>2013-04-14T09:23:53Z</time>
      </trkpt>
      <trkpt lat="46.07815" lon="3.52783">
        <ele>501.62</ele>
        <time>2013-04-14T09:23:59Z</time>
      </trkpt>
      <trkpt lat="46.07819" lon="3.52813">
        <ele>501.56</ele>
        <time>2013-04-14T09:24:06Z</time>
      </trkpt>
      <trkpt lat="46.07825" lon="3.52841">
        <ele>502.24</ele>
        <time>2013-04-14T09:24:11Z</time>
      </trkpt>
      <trkpt lat="46.0783" lon="3.52869">
        <ele>502.92</ele>
        <time>2013-04-14T09:24:16Z</time>
      </trkpt>
      <trkpt lat="46.07839" lon="3.52897">
        <ele>503.84</ele>
        <time>2013-04-14T09:24:21Z</time>
      </trkpt>
      <trkpt lat="46.07849" lon="3.52921">
        <ele>503.62</ele>
        <time>2013-04-14T09:24:26Z</time>
      </trkpt>
      <trkpt lat="46.07861" lon="3.52942">
        <ele>502.31</ele>
        <time>2013-04-14T09:24:31Z</time>
      </trkpt>
      <trkpt lat="46.07871" lon="3.52968">
        <ele>501.69</ele>
        <time>2013-04-14T09:24:37Z</time>
      </trkpt>
      <trkpt lat="46.07878" lon="3.52996">
        <ele>500.22</ele>
        <time>2013-04-14T09:24:41Z</time>
      </trkpt>
      <trkpt lat="46.07886" lon="3.53028">
        <ele>497.71</ele>
        <time>2013-04-14T09:24:45Z</time>
      </trkpt>
      <trkpt lat="46.07893" lon="3.53058">
        <ele>495.41</ele>
        <time>2013-04-14T09:24:49Z</time>
      </trkpt>
      <trkpt lat="46.079" lon="3.53086">
        <ele>493.99</ele>
        <time>2013-04-14T09:24:54Z</time>
      </trkpt>
      <trkpt lat="46.07887" lon="3.5311">
        <ele>493.57</ele>
        <time>2013-04-14T09:25:05Z</time>
      </trkpt>
      <trkpt lat="46.0787" lon="3.5312">
        <ele>492.87</ele>
        <time>2013-04-14T09:25:10Z</time>
      </trkpt>
      <trkpt lat="46.07854" lon="3.53135">
        <ele>491.09</ele>
        <time>2013-04-14T09:25:13Z</time>
      </trkpt>
      <trkpt lat="46.07837" lon="3.53153">
        <ele>488.94</ele>
        <time>2013-04-14T09:25:16Z</time>
      </trkpt>
      <trkpt lat="46.07819" lon="3.53165">
        <ele>487.56</ele>
        <time>2013-04-14T09:25:19Z</time>
      </trkpt>
      <trkpt lat="46.07801" lon="3.53176">
        <ele>486.98</ele>
        <time>2013-04-14T09:25:22Z</time>
      </trkpt>
      <trkpt lat="46.07783" lon="3.53183">
        <ele>486.73</ele>
        <time>2013-04-14T09:25:25Z</time>
      </trkpt>
      <trkpt lat="46.0776" lon="3.53189">
        <ele>486.19</ele>
        <time>2013-04-14T09:25:28Z</time>
      </trkpt>
      <trkpt lat="46.07739" lon="3.53195">
        <ele>485.24</ele>
        <time>2013-04-14T09:25:31Z</time>
      </trkpt>
      <trkpt lat="46.07715" lon="3.53208">
        <ele>483.83</ele>
        <time>2013-04-14T09:25:34Z</time>
      </trkpt>
      <trkpt lat="46.07694" lon="3.5323">
        <ele>483.78</ele>
        <time>2013-04-14T09:25:37Z</time>
      </trkpt>
      <trkpt lat="46.07679" lon="3.53247">
        <ele>484.37</ele>
        <time>2013-04-14T09:25:39Z</time>
      </trkpt>
      <trkpt lat="46.07661" lon="3.53268">
        <ele>485.05</ele>
        <time>2013-04-14T09:25:42Z</time>
      </trkpt>
      <trkpt lat="46.07646" lon="3.5329">
        <ele>485.34</ele>
        <time>2013-04-14T09:25:45Z</time>
      </trkpt>
      <trkpt lat="46.07642" lon="3.53316">
        <ele>485.9</ele>
        <time>2013-04-14T09:25:48Z</time>
      </trkpt>
      <trkpt lat="46.07627" lon="3.53339">
        <ele>486.4</ele>
        <time>2013-04-14T09:25:53Z</time>
      </trkpt>
      <trkpt lat="46.07604" lon="3.53348">
        <ele>486.35</ele>
        <time>2013-04-14T09:25:56Z</time>
      </trkpt>
      <trkpt lat="46.07577" lon="3.53356">
        <ele>485.39</ele>
        <time>2013-04-14T09:25:59Z</time>
      </trkpt>
      <trkpt lat="46.07558" lon="3.53359">
        <ele>483.9</ele>
        <time>2013-04-14T09:26:01Z</time>
      </trkpt>
      <trkpt lat="46.07538" lon="3.53359">
        <ele>482.18</ele>
        <time>2013-04-14T09:26:03Z</time>
      </trkpt>
      <trkpt lat="46.07519" lon="3.5335">
        <ele>480.41</ele>
        <time>2013-04-14T09:26:06Z</time>
      </trkpt>
      <trkpt lat="46.07501" lon="3.53339">
        <ele>478.65</ele>
        <time>2013-04-14T09:26:09Z</time>
      </trkpt>
      <trkpt lat="46.07481" lon="3.53348">
        <ele>471.56</ele>
        <time>2013-04-14T09:26:15Z</time>
      </trkpt>
      <trkpt lat="46.07476" lon="3.5338">
        <ele>465.8</ele>
        <time>2013-04-14T09:26:21Z</time>
      </trkpt>
      <trkpt lat="46.0748" lon="3.53408">
        <ele>463.67</ele>
        <time>2013-04-14T09:26:24Z</time>
      </trkpt>
      <trkpt lat="46.07485" lon="3.53434">
        <ele>462.01</ele>
        <time>2013-04-14T09:26:27Z</time>
      </trkpt>
      <trkpt lat="46.0749" lon="3.53466">
        <ele>458.38</ele>
        <time>2013-04-14T09:26:31Z</time>
      </trkpt>
      <trkpt lat="46.075" lon="3.53492">
        <ele>454.65</ele>
        <time>2013-04-14T09:26:34Z</time>
      </trkpt>
      <trkpt lat="46.0751" lon="3.53513">
        <ele>451.48</ele>
        <time>2013-04-14T09:26:36Z</time>
      </trkpt>
      <trkpt lat="46.07521" lon="3.53534">
        <ele>448.14</ele>
        <time>2013-04-14T09:26:38Z</time>
      </trkpt>
      <trkpt lat="46.07533" lon="3.53556">
        <ele>444.32</ele>
        <time>2013-04-14T09:26:40Z</time>
      </trkpt>
      <trkpt lat="46.07549" lon="3.53586">
        <ele>437.88</ele>
        <time>2013-04-14T09:26:43Z</time>
      </trkpt>
      <trkpt lat="46.07562" lon="3.5361">
        <ele>431.17</ele>
        <time>2013-04-14T09:26:47Z</time>
      </trkpt>
      <trkpt lat="46.07571" lon="3.53633">
        <ele>426.96</ele>
        <time>2013-04-14T09:26:56Z</time>
      </trkpt>
      <trkpt lat="46.07581" lon="3.53655">
        <ele>425.8</ele>
        <time>2013-04-14T09:27:02Z</time>
      </trkpt>
      <trkpt lat="46.07592" lon="3.53676">
        <ele>423.83</ele>
        <time>2013-04-14T09:27:06Z</time>
      </trkpt>
      <trkpt lat="46.07605" lon="3.53702">
        <ele>422.52</ele>
        <time>2013-04-14T09:27:10Z</time>
      </trkpt>
      <trkpt lat="46.07616" lon="3.53723">
        <ele>421.71</ele>
        <time>2013-04-14T09:27:13Z</time>
      </trkpt>
      <trkpt lat="46.07634" lon="3.53751">
        <ele>419.34</ele>
        <time>2013-04-14T09:27:16Z</time>
      </trkpt>
      <trkpt lat="46.07647" lon="3.5377">
        <ele>416.99</ele>
        <time>2013-04-14T09:27:18Z</time>
      </trkpt>
      <trkpt lat="46.0766" lon="3.53792">
        <ele>414.8</ele>
        <time>2013-04-14T09:27:20Z</time>
      </trkpt>
      <trkpt lat="46.07666" lon="3.53818">
        <ele>412.94</ele>
        <time>2013-04-14T09:27:22Z</time>
      </trkpt>
      <trkpt lat="46.0767" lon="3.5385">
        <ele>410.87</ele>
        <time>2013-04-14T09:27:25Z</time>
      </trkpt>
      <trkpt lat="46.07655" lon="3.53876">
        <ele>408.27</ele>
        <time>2013-04-14T09:27:29Z</time>
      </trkpt>
      <trkpt lat="46.07637" lon="3.53897">
        <ele>406.45</ele>
        <time>2013-04-14T09:27:32Z</time>
      </trkpt>
      <trkpt lat="46.07619" lon="3.53923">
        <ele>404.34</ele>
        <time>2013-04-14T09:27:35Z</time>
      </trkpt>
      <trkpt lat="46.07602" lon="3.53951">
        <ele>402.04</ele>
        <time>2013-04-14T09:27:38Z</time>
      </trkpt>
      <trkpt lat="46.07578" lon="3.53961">
        <ele>400.16</ele>
        <time>2013-04-14T09:27:41Z</time>
      </trkpt>
      <trkpt lat="46.07559" lon="3.53946">
        <ele>398.65</ele>
        <time>2013-04-14T09:27:44Z</time>
      </trkpt>
      <trkpt lat="46.07539" lon="3.53949">
        <ele>397.44</ele>
        <time>2013-04-14T09:27:47Z</time>
      </trkpt>
      <trkpt lat="46.07535" lon="3.53979">
        <ele>398.19</ele>
        <time>2013-04-14T09:27:50Z</time>
      </trkpt>
      <trkpt lat="46.07554" lon="3.54">
        <ele>399.42</ele>
        <time>2013-04-14T09:27:53Z</time>
      </trkpt>
      <trkpt lat="46.07566" lon="3.54034">
        <ele>400.51</ele>
        <time>2013-04-14T09:27:56Z</time>
      </trkpt>
      <trkpt lat="46.07573" lon="3.54064">
        <ele>398.91</ele>
        <time>2013-04-14T09:27:59Z</time>
      </trkpt>
      <trkpt lat="46.07588" lon="3.54079">
        <ele>394</ele>
        <time>2013-04-14T09:28:02Z</time>
      </trkpt>
      <trkpt lat="46.07568" lon="3.54097">
        <ele>385.87</ele>
        <time>2013-04-14T09:28:07Z</time>
      </trkpt>
      <trkpt lat="46.07549" lon="3.54097">
        <ele>380.54</ele>
        <time>2013-04-14T09:28:11Z</time>
      </trkpt>
      <trkpt lat="46.07534" lon="3.54112">
        <ele>376.91</ele>
        <time>2013-04-14T09:28:20Z</time>
      </trkpt>
      <trkpt lat="46.07516" lon="3.54122">
        <ele>374.69</ele>
        <time>2013-04-14T09:28:25Z</time>
      </trkpt>
      <trkpt lat="46.07499" lon="3.54137">
        <ele>371.18</ele>
        <time>2013-04-14T09:28:30Z</time>
      </trkpt>
      <trkpt lat="46.0749" lon="3.54161">
        <ele>370.75</ele>
        <time>2013-04-14T09:28:34Z</time>
      </trkpt>
      <trkpt lat="46.07484" lon="3.54191">
        <ele>370.35</ele>
        <time>2013-04-14T09:28:39Z</time>
      </trkpt>
      <trkpt lat="46.07476" lon="3.54221">
        <ele>369.69</ele>
        <time>2013-04-14T09:28:45Z</time>
      </trkpt>
      <trkpt lat="46.07465" lon="3.54247">
        <ele>369.58</ele>
        <time>2013-04-14T09:28:51Z</time>
      </trkpt>
      <trkpt lat="46.0746" lon="3.54273">
        <ele>369.56</ele>
        <time>2013-04-14T09:28:56Z</time>
      </trkpt>
      <trkpt lat="46.07454" lon="3.54298">
        <ele>370.49</ele>
        <time>2013-04-14T09:29:00Z</time>
      </trkpt>
      <trkpt lat="46.07447" lon="3.54328">
        <ele>371.3</ele>
        <time>2013-04-14T09:29:05Z</time>
      </trkpt>
      <trkpt lat="46.07443" lon="3.54358">
        <ele>371.74</ele>
        <time>2013-04-14T09:29:10Z</time>
      </trkpt>
      <trkpt lat="46.07435" lon="3.54384">
        <ele>371.86</ele>
        <time>2013-04-14T09:29:14Z</time>
      </trkpt>
      <trkpt lat="46.07428" lon="3.5441">
        <ele>371.65</ele>
        <time>2013-04-14T09:29:18Z</time>
      </trkpt>
      <trkpt lat="46.07417" lon="3.54438">
        <ele>371.01</ele>
        <time>2013-04-14T09:29:22Z</time>
      </trkpt>
      <trkpt lat="46.07407" lon="3.54468">
        <ele>370.45</ele>
        <time>2013-04-14T09:29:26Z</time>
      </trkpt>
      <trkpt lat="46.07395" lon="3.54496">
        <ele>369.59</ele>
        <time>2013-04-14T09:29:30Z</time>
      </trkpt>
      <trkpt lat="46.07385" lon="3.54522">
        <ele>368.99</ele>
        <time>2013-04-14T09:29:33Z</time>
      </trkpt>
      <trkpt lat="46.07376" lon="3.54545">
        <ele>368.74</ele>
        <time>2013-04-14T09:29:36Z</time>
      </trkpt>
      <trkpt lat="46.07367" lon="3.54575">
        <ele>368.61</ele>
        <time>2013-04-14T09:29:40Z</time>
      </trkpt>
      <trkpt lat="46.07362" lon="3.54603">
        <ele>368.58</ele>
        <time>2013-04-14T09:29:43Z</time>
      </trkpt>
      <trkpt lat="46.0736" lon="3.54631">
        <ele>367.55</ele>
        <time>2013-04-14T09:29:46Z</time>
      </trkpt>
      <trkpt lat="46.07357" lon="3.54663">
        <ele>364.92</ele>
        <time>2013-04-14T09:29:50Z</time>
      </trkpt>
      <trkpt lat="46.07354" lon="3.54693">
        <ele>361.79</ele>
        <time>2013-04-14T09:29:54Z</time>
      </trkpt>
      <trkpt lat="46.07351" lon="3.54723">
        <ele>359.14</ele>
        <time>2013-04-14T09:29:58Z</time>
      </trkpt>
      <trkpt lat="46.07343" lon="3.54751">
        <ele>357.48</ele>
        <time>2013-04-14T09:30:02Z</time>
      </trkpt>
      <trkpt lat="46.07336" lon="3.54779">
        <ele>356.85</ele>
        <time>2013-04-14T09:30:06Z</time>
      </trkpt>
      <trkpt lat="46.0733" lon="3.54809">
        <ele>356.62</ele>
        <time>2013-04-14T09:30:11Z</time>
      </trkpt>
      <trkpt lat="46.07325" lon="3.54837">
        <ele>356.57</ele>
        <time>2013-04-14T09:30:16Z</time>
      </trkpt>
      <trkpt lat="46.07321" lon="3.54863">
        <ele>356.56</ele>
        <time>2013-04-14T09:30:22Z</time>
      </trkpt>
      <trkpt lat="46.07317" lon="3.54888">
        <ele>357.42</ele>
        <time>2013-04-14T09:30:29Z</time>
      </trkpt>
      <trkpt lat="46.07308" lon="3.54912">
        <ele>358.36</ele>
        <time>2013-04-14T09:30:37Z</time>
      </trkpt>
      <trkpt lat="46.07299" lon="3.54938">
        <ele>358.78</ele>
        <time>2013-04-14T09:30:44Z</time>
      </trkpt>
      <trkpt lat="46.07296" lon="3.54964">
        <ele>359.41</ele>
        <time>2013-04-14T09:30:50Z</time>
      </trkpt>
      <trkpt lat="46.07298" lon="3.54994">
        <ele>359.53</ele>
        <time>2013-04-14T09:30:57Z</time>
      </trkpt>
      <trkpt lat="46.07297" lon="3.55026">
        <ele>360.37</ele>
        <time>2013-04-14T09:31:03Z</time>
      </trkpt>
      <trkpt lat="46.07281" lon="3.55041">
        <ele>360.53</ele>
        <time>2013-04-14T09:31:11Z</time>
      </trkpt>
      <trkpt lat="46.07262" lon="3.55047">
        <ele>361.45</ele>
        <time>2013-04-14T09:31:19Z</time>
      </trkpt>
      <trkpt lat="46.07242" lon="3.55052">
        <ele>361.54</ele>
        <time>2013-04-14T09:31:26Z</time>
      </trkpt>
      <trkpt lat="46.07224" lon="3.55054">
        <ele>361.55</ele>
        <time>2013-04-14T09:31:35Z</time>
      </trkpt>
      <trkpt lat="46.07206" lon="3.55056">
        <ele>361.55</ele>
        <time>2013-04-14T09:31:45Z</time>
      </trkpt>
      <trkpt lat="46.07189" lon="3.55045">
        <ele>362.76</ele>
        <time>2013-04-14T09:31:57Z</time>
      </trkpt>
      <trkpt lat="46.07174" lon="3.55028">
        <ele>364.3</ele>
        <time>2013-04-14T09:32:11Z</time>
      </trkpt>
      <trkpt lat="46.07159" lon="3.55011">
        <ele>366.6</ele>
        <time>2013-04-14T09:32:25Z</time>
      </trkpt>
      <trkpt lat="46.07144" lon="3.54994">
        <ele>369.78</ele>
        <time>2013-04-14T09:32:38Z</time>
      </trkpt>
      <trkpt lat="46.07131" lon="3.54974">
        <ele>372</ele>
        <time>2013-04-14T09:32:49Z</time>
      </trkpt>
      <trkpt lat="46.07116" lon="3.54959">
        <ele>374.03</ele>
        <time>2013-04-14T09:33:00Z</time>
      </trkpt>
      <trkpt lat="46.071" lon="3.54944">
        <ele>375.83</ele>
        <time>2013-04-14T09:33:10Z</time>
      </trkpt>
      <trkpt lat="46.07082" lon="3.54934">
        <ele>377.33</ele>
        <time>2013-04-14T09:33:20Z</time>
      </trkpt>
      <trkpt lat="46.07067" lon="3.54918">
        <ele>379.48</ele>
        <time>2013-04-14T09:33:30Z</time>
      </trkpt>
      <trkpt lat="46.07053" lon="3.54899">
        <ele>381.24</ele>
        <time>2013-04-14T09:33:39Z</time>
      </trkpt>
      <trkpt lat="46.07039" lon="3.54882">
        <ele>383</ele>
        <time>2013-04-14T09:33:47Z</time>
      </trkpt>
      <trkpt lat="46.07024" lon="3.54865">
        <ele>384.26</ele>
        <time>2013-04-14T09:33:55Z</time>
      </trkpt>
      <trkpt lat="46.07006" lon="3.54854">
        <ele>386.17</ele>
        <time>2013-04-14T09:34:06Z</time>
      </trkpt>
      <trkpt lat="46.06988" lon="3.54848">
        <ele>388.15</ele>
        <time>2013-04-14T09:34:17Z</time>
      </trkpt>
      <trkpt lat="46.06971" lon="3.54858">
        <ele>390.96</ele>
        <time>2013-04-14T09:34:30Z</time>
      </trkpt>
      <trkpt lat="46.06961" lon="3.54882">
        <ele>394.88</ele>
        <time>2013-04-14T09:34:47Z</time>
      </trkpt>
      <trkpt lat="46.06942" lon="3.54888">
        <ele>397.91</ele>
        <time>2013-04-14T09:34:58Z</time>
      </trkpt>
      <trkpt lat="46.06924" lon="3.54882">
        <ele>399.62</ele>
        <time>2013-04-14T09:35:07Z</time>
      </trkpt>
      <trkpt lat="46.06907" lon="3.54869">
        <ele>401.28</ele>
        <time>2013-04-14T09:35:18Z</time>
      </trkpt>
      <trkpt lat="46.06892" lon="3.54854">
        <ele>402.41</ele>
        <time>2013-04-14T09:35:29Z</time>
      </trkpt>
      <trkpt lat="46.06876" lon="3.54841">
        <ele>403.44</ele>
        <time>2013-04-14T09:35:39Z</time>
      </trkpt>
      <trkpt lat="46.0686" lon="3.54828">
        <ele>405.02</ele>
        <time>2013-04-14T09:35:49Z</time>
      </trkpt>
      <trkpt lat="46.06842" lon="3.54815">
        <ele>407.55</ele>
        <time>2013-04-14T09:36:01Z</time>
      </trkpt>
      <trkpt lat="46.06826" lon="3.54803">
        <ele>410.1</ele>
        <time>2013-04-14T09:36:13Z</time>
      </trkpt>
      <trkpt lat="46.06809" lon="3.54792">
        <ele>412.75</ele>
        <time>2013-04-14T09:36:24Z</time>
      </trkpt>
      <trkpt lat="46.06796" lon="3.54773">
        <ele>414.77</ele>
        <time>2013-04-14T09:36:34Z</time>
      </trkpt>
      <trkpt lat="46.06787" lon="3.54747">
        <ele>416.49</ele>
        <time>2013-04-14T09:36:42Z</time>
      </trkpt>
      <trkpt lat="46.06778" lon="3.54723">
        <ele>420.43</ele>
        <time>2013-04-14T09:36:46Z</time>
      </trkpt>
      <trkpt lat="46.06772" lon="3.54691">
        <ele>424.51</ele>
        <time>2013-04-14T09:36:50Z</time>
      </trkpt>
      <trkpt lat="46.06769" lon="3.54665">
        <ele>426.71</ele>
        <time>2013-04-14T09:36:53Z</time>
      </trkpt>
      <trkpt lat="46.06768" lon="3.54629">
        <ele>426.95</ele>
        <time>2013-04-14T09:36:57Z</time>
      </trkpt>
      <trkpt lat="46.0677" lon="3.54603">
        <ele>425.89</ele>
        <time>2013-04-14T09:37:00Z</time>
      </trkpt>
      <trkpt lat="46.06774" lon="3.54577">
        <ele>423.96</ele>
        <time>2013-04-14T09:37:04Z</time>
      </trkpt>
      <trkpt lat="46.0678" lon="3.54549">
        <ele>422.89</ele>
        <time>2013-04-14T09:37:09Z</time>
      </trkpt>
      <trkpt lat="46.06782" lon="3.54522">
        <ele>422.05</ele>
        <time>2013-04-14T09:37:14Z</time>
      </trkpt>
      <trkpt lat="46.06782" lon="3.54491">
        <ele>421.67</ele>
        <time>2013-04-14T09:37:19Z</time>
      </trkpt>
      <trkpt lat="46.06774" lon="3.54464">
        <ele>420.31</ele>
        <time>2013-04-14T09:37:26Z</time>
      </trkpt>
      <trkpt lat="46.06766" lon="3.54438">
        <ele>419.65</ele>
        <time>2013-04-14T09:37:33Z</time>
      </trkpt>
      <trkpt lat="46.06758" lon="3.54412">
        <ele>419.81</ele>
        <time>2013-04-14T09:37:42Z</time>
      </trkpt>
      <trkpt lat="46.06742" lon="3.54393">
        <ele>420.51</ele>
        <time>2013-04-14T09:37:52Z</time>
      </trkpt>
      <trkpt lat="46.06739" lon="3.54367">
        <ele>421.23</ele>
        <time>2013-04-14T09:37:57Z</time>
      </trkpt>
      <trkpt lat="46.06732" lon="3.54331">
        <ele>422.36</ele>
        <time>2013-04-14T09:38:09Z</time>
      </trkpt>
      <trkpt lat="46.06728" lon="3.54305">
        <ele>422.97</ele>
        <time>2013-04-14T09:38:17Z</time>
      </trkpt>
      <trkpt lat="46.06721" lon="3.54281">
        <ele>424.09</ele>
        <time>2013-04-14T09:38:26Z</time>
      </trkpt>
      <trkpt lat="46.06714" lon="3.54253">
        <ele>426.57</ele>
        <time>2013-04-14T09:38:40Z</time>
      </trkpt>
      <trkpt lat="46.06706" lon="3.54228">
        <ele>430.03</ele>
        <time>2013-04-14T09:39:01Z</time>
      </trkpt>
      <trkpt lat="46.0669" lon="3.54215">
        <ele>433.97</ele>
        <time>2013-04-14T09:39:24Z</time>
      </trkpt>
      <trkpt lat="46.06673" lon="3.54198">
        <ele>438.49</ele>
        <time>2013-04-14T09:39:40Z</time>
      </trkpt>
      <trkpt lat="46.06659" lon="3.54178">
        <ele>441.56</ele>
        <time>2013-04-14T09:39:52Z</time>
      </trkpt>
      <trkpt lat="46.0665" lon="3.54155">
        <ele>443.37</ele>
        <time>2013-04-14T09:40:09Z</time>
      </trkpt>
      <trkpt lat="46.06653" lon="3.54129">
        <ele>443.53</ele>
        <time>2013-04-14T09:40:16Z</time>
      </trkpt>
      <trkpt lat="46.06653" lon="3.54101">
        <ele>444.77</ele>
        <time>2013-04-14T09:40:30Z</time>
      </trkpt>
      <trkpt lat="46.06649" lon="3.54075">
        <ele>446.88</ele>
        <time>2013-04-14T09:40:46Z</time>
      </trkpt>
      <trkpt lat="46.06638" lon="3.54054">
        <ele>449.18</ele>
        <time>2013-04-14T09:41:03Z</time>
      </trkpt>
      <trkpt lat="46.06627" lon="3.54032">
        <ele>452.6</ele>
        <time>2013-04-14T09:41:25Z</time>
      </trkpt>
      <trkpt lat="46.06627" lon="3.54004">
        <ele>459.55</ele>
        <time>2013-04-14T09:43:26Z</time>
      </trkpt>
      <trkpt lat="46.0661" lon="3.53989">
        <ele>460.24</ele>
        <time>2013-04-14T09:43:41Z</time>
      </trkpt>
      <trkpt lat="46.06592" lon="3.53979">
        <ele>461.44</ele>
        <time>2013-04-14T09:43:44Z</time>
      </trkpt>
      <trkpt lat="46.06568" lon="3.53964">
        <ele>462.66</ele>
        <time>2013-04-14T09:43:47Z</time>
      </trkpt>
      <trkpt lat="46.06551" lon="3.53955">
        <ele>463.49</ele>
        <time>2013-04-14T09:43:49Z</time>
      </trkpt>
      <trkpt lat="46.06535" lon="3.5394">
        <ele>463.95</ele>
        <time>2013-04-14T09:43:51Z</time>
      </trkpt>
      <trkpt lat="46.06517" lon="3.53914">
        <ele>464.3</ele>
        <time>2013-04-14T09:43:54Z</time>
      </trkpt>
      <trkpt lat="46.06498" lon="3.53906">
        <ele>463.89</ele>
        <time>2013-04-14T09:43:58Z</time>
      </trkpt>
      <trkpt lat="46.06479" lon="3.53899">
        <ele>463.6</ele>
        <time>2013-04-14T09:44:05Z</time>
      </trkpt>
      <trkpt lat="46.06465" lon="3.53882">
        <ele>464.14</ele>
        <time>2013-04-14T09:44:11Z</time>
      </trkpt>
      <trkpt lat="46.06458" lon="3.53858">
        <ele>464.25</ele>
        <time>2013-04-14T09:44:18Z</time>
      </trkpt>
      <trkpt lat="46.06455" lon="3.53833">
        <ele>463.61</ele>
        <time>2013-04-14T09:44:27Z</time>
      </trkpt>
      <trkpt lat="46.06453" lon="3.53805">
        <ele>462.61</ele>
        <time>2013-04-14T09:44:40Z</time>
      </trkpt>
      <trkpt lat="46.0646" lon="3.53773">
        <ele>461.31</ele>
        <time>2013-04-14T09:45:00Z</time>
      </trkpt>
      <trkpt lat="46.06471" lon="3.53747">
        <ele>460.83</ele>
        <time>2013-04-14T09:45:12Z</time>
      </trkpt>
      <trkpt lat="46.06483" lon="3.53717">
        <ele>463.68</ele>
        <time>2013-04-14T09:45:32Z</time>
      </trkpt>
      <trkpt lat="46.06493" lon="3.53689">
        <ele>466.66</ele>
        <time>2013-04-14T09:45:53Z</time>
      </trkpt>
      <trkpt lat="46.06501" lon="3.53657">
        <ele>469.69</ele>
        <time>2013-04-14T09:46:13Z</time>
      </trkpt>
      <trkpt lat="46.06504" lon="3.53622">
        <ele>473.69</ele>
        <time>2013-04-14T09:46:38Z</time>
      </trkpt>
      <trkpt lat="46.06507" lon="3.53592">
        <ele>476.5</ele>
        <time>2013-04-14T09:46:51Z</time>
      </trkpt>
      <trkpt lat="46.06503" lon="3.53567">
        <ele>479.8</ele>
        <time>2013-04-14T09:47:06Z</time>
      </trkpt>
      <trkpt lat="46.06495" lon="3.53541">
        <ele>483.7</ele>
        <time>2013-04-14T09:47:20Z</time>
      </trkpt>
      <trkpt lat="46.06483" lon="3.53519">
        <ele>486.75</ele>
        <time>2013-04-14T09:47:33Z</time>
      </trkpt>
      <trkpt lat="46.0648" lon="3.53494">
        <ele>489.75</ele>
        <time>2013-04-14T09:47:46Z</time>
      </trkpt>
      <trkpt lat="46.06468" lon="3.53472">
        <ele>493.99</ele>
        <time>2013-04-14T09:48:08Z</time>
      </trkpt>
      <trkpt lat="46.0646" lon="3.53449">
        <ele>497.08</ele>
        <time>2013-04-14T09:48:29Z</time>
      </trkpt>
      <trkpt lat="46.06462" lon="3.53423">
        <ele>500.61</ele>
        <time>2013-04-14T09:48:45Z</time>
      </trkpt>
      <trkpt lat="46.0646" lon="3.53395">
        <ele>501.77</ele>
        <time>2013-04-14T09:48:57Z</time>
      </trkpt>
      <trkpt lat="46.06453" lon="3.53369">
        <ele>503.3</ele>
        <time>2013-04-14T09:49:10Z</time>
      </trkpt>
      <trkpt lat="46.06446" lon="3.53343">
        <ele>504.93</ele>
        <time>2013-04-14T09:49:22Z</time>
      </trkpt>
      <trkpt lat="46.06444" lon="3.53316">
        <ele>505.53</ele>
        <time>2013-04-14T09:49:33Z</time>
      </trkpt>
      <trkpt lat="46.06439" lon="3.5329">
        <ele>505.55</ele>
        <time>2013-04-14T09:49:43Z</time>
      </trkpt>
      <trkpt lat="46.06431" lon="3.53266">
        <ele>505.99</ele>
        <time>2013-04-14T09:49:52Z</time>
      </trkpt>
      <trkpt lat="46.06428" lon="3.5324">
        <ele>506.73</ele>
        <time>2013-04-14T09:49:59Z</time>
      </trkpt>
      <trkpt lat="46.06428" lon="3.53213">
        <ele>508.41</ele>
        <time>2013-04-14T09:50:16Z</time>
      </trkpt>
      <trkpt lat="46.06432" lon="3.53187">
        <ele>510.65</ele>
        <time>2013-04-14T09:50:31Z</time>
      </trkpt>
      <trkpt lat="46.06439" lon="3.53159">
        <ele>512.25</ele>
        <time>2013-04-14T09:50:40Z</time>
      </trkpt>
      <trkpt lat="46.06443" lon="3.53133">
        <ele>513.9</ele>
        <time>2013-04-14T09:50:50Z</time>
      </trkpt>
      <trkpt lat="46.06446" lon="3.53107">
        <ele>516.48</ele>
        <time>2013-04-14T09:51:03Z</time>
      </trkpt>
      <trkpt lat="46.06447" lon="3.53077">
        <ele>519.79</ele>
        <time>2013-04-14T09:51:13Z</time>
      </trkpt>
      <trkpt lat="46.06446" lon="3.5305">
        <ele>523.08</ele>
        <time>2013-04-14T09:51:25Z</time>
      </trkpt>
      <trkpt lat="46.06439" lon="3.53024">
        <ele>524.12</ele>
        <time>2013-04-14T09:51:31Z</time>
      </trkpt>
      <trkpt lat="46.06442" lon="3.52998">
        <ele>524.42</ele>
        <time>2013-04-14T09:51:35Z</time>
      </trkpt>
      <trkpt lat="46.06452" lon="3.52974">
        <ele>524.53</ele>
        <time>2013-04-14T09:51:41Z</time>
      </trkpt>
      <trkpt lat="46.06463" lon="3.52953">
        <ele>524.55</ele>
        <time>2013-04-14T09:51:48Z</time>
      </trkpt>
      <trkpt lat="46.06477" lon="3.52934">
        <ele>524.55</ele>
        <time>2013-04-14T09:51:55Z</time>
      </trkpt>
      <trkpt lat="46.06493" lon="3.52919">
        <ele>524.55</ele>
        <time>2013-04-14T09:52:02Z</time>
      </trkpt>
      <trkpt lat="46.06505" lon="3.52895">
        <ele>525.13</ele>
        <time>2013-04-14T09:52:09Z</time>
      </trkpt>
      <trkpt lat="46.06505" lon="3.52867">
        <ele>525.48</ele>
        <time>2013-04-14T09:52:15Z</time>
      </trkpt>
      <trkpt lat="46.06503" lon="3.52841">
        <ele>525.54</ele>
        <time>2013-04-14T09:52:20Z</time>
      </trkpt>
      <trkpt lat="46.065" lon="3.52816">
        <ele>526.23</ele>
        <time>2013-04-14T09:52:25Z</time>
      </trkpt>
      <trkpt lat="46.06492" lon="3.52788">
        <ele>526.76</ele>
        <time>2013-04-14T09:52:32Z</time>
      </trkpt>
      <trkpt lat="46.06483" lon="3.52762">
        <ele>527.7</ele>
        <time>2013-04-14T09:52:39Z</time>
      </trkpt>
      <trkpt lat="46.06475" lon="3.52738">
        <ele>528.69</ele>
        <time>2013-04-14T09:52:46Z</time>
      </trkpt>
      <trkpt lat="46.06463" lon="3.52713">
        <ele>530.17</ele>
        <time>2013-04-14T09:52:55Z</time>
      </trkpt>
      <trkpt lat="46.06443" lon="3.52702">
        <ele>532.49</ele>
        <time>2013-04-14T09:53:00Z</time>
      </trkpt>
      <trkpt lat="46.06431" lon="3.52678">
        <ele>534.19</ele>
        <time>2013-04-14T09:53:06Z</time>
      </trkpt>
      <trkpt lat="46.06425" lon="3.52653">
        <ele>534.93</ele>
        <time>2013-04-14T09:53:12Z</time>
      </trkpt>
      <trkpt lat="46.06417" lon="3.5262">
        <ele>535.4</ele>
        <time>2013-04-14T09:53:17Z</time>
      </trkpt>
      <trkpt lat="46.06411" lon="3.5259">
        <ele>535.94</ele>
        <time>2013-04-14T09:53:21Z</time>
      </trkpt>
      <trkpt lat="46.06404" lon="3.52558">
        <ele>536.3</ele>
        <time>2013-04-14T09:53:24Z</time>
      </trkpt>
      <trkpt lat="46.06396" lon="3.52522">
        <ele>535.18</ele>
        <time>2013-04-14T09:53:27Z</time>
      </trkpt>
      <trkpt lat="46.06387" lon="3.52496">
        <ele>533.78</ele>
        <time>2013-04-14T09:53:29Z</time>
      </trkpt>
      <trkpt lat="46.06379" lon="3.52472">
        <ele>532.12</ele>
        <time>2013-04-14T09:53:31Z</time>
      </trkpt>
      <trkpt lat="46.06371" lon="3.52449">
        <ele>530.75</ele>
        <time>2013-04-14T09:53:33Z</time>
      </trkpt>
      <trkpt lat="46.06357" lon="3.52417">
        <ele>528.9</ele>
        <time>2013-04-14T09:53:36Z</time>
      </trkpt>
      <trkpt lat="46.06343" lon="3.52389">
        <ele>527.54</ele>
        <time>2013-04-14T09:53:39Z</time>
      </trkpt>
      <trkpt lat="46.06328" lon="3.52359">
        <ele>526.97</ele>
        <time>2013-04-14T09:53:42Z</time>
      </trkpt>
      <trkpt lat="46.06316" lon="3.52337">
        <ele>526.79</ele>
        <time>2013-04-14T09:53:44Z</time>
      </trkpt>
      <trkpt lat="46.06305" lon="3.52316">
        <ele>526.44</ele>
        <time>2013-04-14T09:53:46Z</time>
      </trkpt>
      <trkpt lat="46.06292" lon="3.52292">
        <ele>526.05</ele>
        <time>2013-04-14T09:53:48Z</time>
      </trkpt>
      <trkpt lat="46.06278" lon="3.52268">
        <ele>525.83</ele>
        <time>2013-04-14T09:53:50Z</time>
      </trkpt>
      <trkpt lat="46.06264" lon="3.52245">
        <ele>525.71</ele>
        <time>2013-04-14T09:53:52Z</time>
      </trkpt>
      <trkpt lat="46.06248" lon="3.52221">
        <ele>525.2</ele>
        <time>2013-04-14T09:53:54Z</time>
      </trkpt>
      <trkpt lat="46.06235" lon="3.522">
        <ele>524.92</ele>
        <time>2013-04-14T09:53:56Z</time>
      </trkpt>
      <trkpt lat="46.0623" lon="3.52163">
        <ele>524.76</ele>
        <time>2013-04-14T09:53:58Z</time>
      </trkpt>
      <trkpt lat="46.06232" lon="3.52123">
        <ele>523.73</ele>
        <time>2013-04-14T09:54:00Z</time>
      </trkpt>
      <trkpt lat="46.06237" lon="3.52075">
        <ele>521.15</ele>
        <time>2013-04-14T09:54:02Z</time>
      </trkpt>
      <trkpt lat="46.06242" lon="3.52032">
        <ele>517.52</ele>
        <time>2013-04-14T09:54:04Z</time>
      </trkpt>
      <trkpt lat="46.06246" lon="3.51992">
        <ele>513.09</ele>
        <time>2013-04-14T09:54:06Z</time>
      </trkpt>
      <trkpt lat="46.06248" lon="3.51955">
        <ele>508.86</ele>
        <time>2013-04-14T09:54:08Z</time>
      </trkpt>
      <trkpt lat="46.0625" lon="3.51923">
        <ele>504.72</ele>
        <time>2013-04-14T09:54:10Z</time>
      </trkpt>
      <trkpt lat="46.06251" lon="3.51895">
        <ele>500.9</ele>
        <time>2013-04-14T09:54:12Z</time>
      </trkpt>
      <trkpt lat="46.06254" lon="3.51865">
        <ele>496.54</ele>
        <time>2013-04-14T09:54:15Z</time>
      </trkpt>
      <trkpt lat="46.06266" lon="3.51841">
        <ele>492.27</ele>
        <time>2013-04-14T09:54:24Z</time>
      </trkpt>
      <trkpt lat="46.06281" lon="3.5182">
        <ele>489.58</ele>
        <time>2013-04-14T09:55:06Z</time>
      </trkpt>
      <trkpt lat="46.06279" lon="3.51794">
        <ele>489.55</ele>
        <time>2013-04-14T09:55:32Z</time>
      </trkpt>
      <trkpt lat="46.06276" lon="3.51768">
        <ele>489.55</ele>
        <time>2013-04-14T09:55:46Z</time>
      </trkpt>
      <trkpt lat="46.06265" lon="3.51747">
        <ele>490.54</ele>
        <time>2013-04-14T09:56:01Z</time>
      </trkpt>
      <trkpt lat="46.06259" lon="3.51721">
        <ele>491.37</ele>
        <time>2013-04-14T09:56:13Z</time>
      </trkpt>
      <trkpt lat="46.06265" lon="3.51696">
        <ele>492.37</ele>
        <time>2013-04-14T09:56:24Z</time>
      </trkpt>
      <trkpt lat="46.06264" lon="3.51665">
        <ele>492.55</ele>
        <time>2013-04-14T09:56:36Z</time>
      </trkpt>
      <trkpt lat="46.06264" lon="3.51635">
        <ele>493.45</ele>
        <time>2013-04-14T09:56:50Z</time>
      </trkpt>
      <trkpt lat="46.06266" lon="3.5161">
        <ele>494.31</ele>
        <time>2013-04-14T09:57:01Z</time>
      </trkpt>
      <trkpt lat="46.06266" lon="3.5158">
        <ele>496.08</ele>
        <time>2013-04-14T09:57:14Z</time>
      </trkpt>
      <trkpt lat="46.06266" lon="3.51552">
        <ele>497.3</ele>
        <time>2013-04-14T09:57:26Z</time>
      </trkpt>
      <trkpt lat="46.06261" lon="3.51526">
        <ele>498.88</ele>
        <time>2013-04-14T09:57:36Z</time>
      </trkpt>
      <trkpt lat="46.06259" lon="3.51498">
        <ele>500.34</ele>
        <time>2013-04-14T09:57:46Z</time>
      </trkpt>
      <trkpt lat="46.06262" lon="3.51472">
        <ele>501.35</ele>
        <time>2013-04-14T09:57:54Z</time>
      </trkpt>
      <trkpt lat="46.06263" lon="3.51444">
        <ele>502.98</ele>
        <time>2013-04-14T09:58:02Z</time>
      </trkpt>
      <trkpt lat="46.06264" lon="3.51414">
        <ele>506.58</ele>
        <time>2013-04-14T09:58:12Z</time>
      </trkpt>
      <trkpt lat="46.06266" lon="3.51389">
        <ele>509.12</ele>
        <time>2013-04-14T09:58:20Z</time>
      </trkpt>
      <trkpt lat="46.06272" lon="3.51363">
        <ele>511.06</ele>
        <time>2013-04-14T09:58:32Z</time>
      </trkpt>
      <trkpt lat="46.06272" lon="3.51335">
        <ele>512.53</ele>
        <time>2013-04-14T09:58:52Z</time>
      </trkpt>
      <trkpt lat="46.06261" lon="3.51314">
        <ele>512.63</ele>
        <time>2013-04-14T10:00:12Z</time>
      </trkpt>
      <trkpt lat="46.06257" lon="3.51288">
        <ele>512.56</ele>
        <time>2013-04-14T10:00:20Z</time>
      </trkpt>
      <trkpt lat="46.06259" lon="3.51254">
        <ele>511.87</ele>
        <time>2013-04-14T10:00:25Z</time>
      </trkpt>
      <trkpt lat="46.06262" lon="3.51228">
        <ele>511.69</ele>
        <time>2013-04-14T10:00:28Z</time>
      </trkpt>
      <trkpt lat="46.06264" lon="3.51202">
        <ele>511.75</ele>
        <time>2013-04-14T10:00:31Z</time>
      </trkpt>
      <trkpt lat="46.06263" lon="3.51174">
        <ele>511.62</ele>
        <time>2013-04-14T10:00:35Z</time>
      </trkpt>
      <trkpt lat="46.06264" lon="3.51144">
        <ele>511.56</ele>
        <time>2013-04-14T10:00:42Z</time>
      </trkpt>
      <trkpt lat="46.06272" lon="3.5112">
        <ele>511.55</ele>
        <time>2013-04-14T10:00:49Z</time>
      </trkpt>
      <trkpt lat="46.06281" lon="3.51097">
        <ele>511.55</ele>
        <time>2013-04-14T10:00:59Z</time>
      </trkpt>
      <trkpt lat="46.06295" lon="3.51075">
        <ele>511.55</ele>
        <time>2013-04-14T10:01:10Z</time>
      </trkpt>
      <trkpt lat="46.06311" lon="3.51063">
        <ele>510.65</ele>
        <time>2013-04-14T10:01:19Z</time>
      </trkpt>
      <trkpt lat="46.06329" lon="3.5105">
        <ele>510.56</ele>
        <time>2013-04-14T10:01:27Z</time>
      </trkpt>
      <trkpt lat="46.06346" lon="3.51039">
        <ele>511.38</ele>
        <time>2013-04-14T10:01:35Z</time>
      </trkpt>
      <trkpt lat="46.06362" lon="3.51024">
        <ele>511.54</ele>
        <time>2013-04-14T10:01:43Z</time>
      </trkpt>
      <trkpt lat="46.0637" lon="3.50998">
        <ele>512.42</ele>
        <time>2013-04-14T10:01:51Z</time>
      </trkpt>
      <trkpt lat="46.06364" lon="3.50972">
        <ele>513.69</ele>
        <time>2013-04-14T10:01:59Z</time>
      </trkpt>
      <trkpt lat="46.06358" lon="3.50945">
        <ele>515.25</ele>
        <time>2013-04-14T10:02:08Z</time>
      </trkpt>
      <trkpt lat="46.06359" lon="3.50912">
        <ele>516.83</ele>
        <time>2013-04-14T10:02:15Z</time>
      </trkpt>
      <trkpt lat="46.06362" lon="3.50884">
        <ele>519.96</ele>
        <time>2013-04-14T10:02:19Z</time>
      </trkpt>
      <trkpt lat="46.06367" lon="3.50854">
        <ele>522.85</ele>
        <time>2013-04-14T10:02:23Z</time>
      </trkpt>
      <trkpt lat="46.06371" lon="3.50829">
        <ele>524.27</ele>
        <time>2013-04-14T10:02:26Z</time>
      </trkpt>
      <trkpt lat="46.06373" lon="3.50796">
        <ele>524.76</ele>
        <time>2013-04-14T10:02:29Z</time>
      </trkpt>
      <trkpt lat="46.06375" lon="3.50764">
        <ele>524.2</ele>
        <time>2013-04-14T10:02:32Z</time>
      </trkpt>
      <trkpt lat="46.06379" lon="3.5073">
        <ele>522.81</ele>
        <time>2013-04-14T10:02:35Z</time>
      </trkpt>
      <trkpt lat="46.06383" lon="3.507">
        <ele>521.51</ele>
        <time>2013-04-14T10:02:38Z</time>
      </trkpt>
      <trkpt lat="46.06386" lon="3.50674">
        <ele>520.17</ele>
        <time>2013-04-14T10:02:42Z</time>
      </trkpt>
      <trkpt lat="46.06393" lon="3.50644">
        <ele>519.17</ele>
        <time>2013-04-14T10:02:46Z</time>
      </trkpt>
      <trkpt lat="46.064" lon="3.50612">
        <ele>518.17</ele>
        <time>2013-04-14T10:02:50Z</time>
      </trkpt>
      <trkpt lat="46.06405" lon="3.50584">
        <ele>516.99</ele>
        <time>2013-04-14T10:02:53Z</time>
      </trkpt>
      <trkpt lat="46.06411" lon="3.50556">
        <ele>516.16</ele>
        <time>2013-04-14T10:02:56Z</time>
      </trkpt>
      <trkpt lat="46.06417" lon="3.50526">
        <ele>515.23</ele>
        <time>2013-04-14T10:02:59Z</time>
      </trkpt>
      <trkpt lat="46.06408" lon="3.50502">
        <ele>513.85</ele>
        <time>2013-04-14T10:03:05Z</time>
      </trkpt>
      <trkpt lat="46.06389" lon="3.505">
        <ele>512.96</ele>
        <time>2013-04-14T10:03:09Z</time>
      </trkpt>
      <trkpt lat="46.0637" lon="3.505">
        <ele>512.68</ele>
        <time>2013-04-14T10:03:13Z</time>
      </trkpt>
      <trkpt lat="46.0635" lon="3.505">
        <ele>512.59</ele>
        <time>2013-04-14T10:03:17Z</time>
      </trkpt>
      <trkpt lat="46.06328" lon="3.50502">
        <ele>512.57</ele>
        <time>2013-04-14T10:03:21Z</time>
      </trkpt>
      <trkpt lat="46.06308" lon="3.50507">
        <ele>512.56</ele>
        <time>2013-04-14T10:03:24Z</time>
      </trkpt>
      <trkpt lat="46.06285" lon="3.50511">
        <ele>512.56</ele>
        <time>2013-04-14T10:03:27Z</time>
      </trkpt>
      <trkpt lat="46.06261" lon="3.50509">
        <ele>511.87</ele>
        <time>2013-04-14T10:03:30Z</time>
      </trkpt>
      <trkpt lat="46.0624" lon="3.50507">
        <ele>510.28</ele>
        <time>2013-04-14T10:03:33Z</time>
      </trkpt>
      <trkpt lat="46.0622" lon="3.505">
        <ele>508.02</ele>
        <time>2013-04-14T10:03:36Z</time>
      </trkpt>
      <trkpt lat="46.06202" lon="3.50481">
        <ele>505.33</ele>
        <time>2013-04-14T10:03:39Z</time>
      </trkpt>
      <trkpt lat="46.06188" lon="3.50455">
        <ele>502.46</ele>
        <time>2013-04-14T10:03:42Z</time>
      </trkpt>
      <trkpt lat="46.06181" lon="3.50425">
        <ele>499.51</ele>
        <time>2013-04-14T10:03:45Z</time>
      </trkpt>
      <trkpt lat="46.06182" lon="3.50395">
        <ele>496.97</ele>
        <time>2013-04-14T10:03:48Z</time>
      </trkpt>
      <trkpt lat="46.06187" lon="3.50365">
        <ele>494.89</ele>
        <time>2013-04-14T10:03:51Z</time>
      </trkpt>
      <trkpt lat="46.06192" lon="3.50335">
        <ele>493.54</ele>
        <time>2013-04-14T10:03:54Z</time>
      </trkpt>
      <trkpt lat="46.06199" lon="3.50303">
        <ele>492.97</ele>
        <time>2013-04-14T10:03:57Z</time>
      </trkpt>
      <trkpt lat="46.06213" lon="3.50275">
        <ele>492.48</ele>
        <time>2013-04-14T10:04:00Z</time>
      </trkpt>
      <trkpt lat="46.06233" lon="3.50254">
        <ele>491.26</ele>
        <time>2013-04-14T10:04:03Z</time>
      </trkpt>
      <trkpt lat="46.06248" lon="3.50236">
        <ele>489.82</ele>
        <time>2013-04-14T10:04:05Z</time>
      </trkpt>
      <trkpt lat="46.06264" lon="3.50221">
        <ele>487.71</ele>
        <time>2013-04-14T10:04:07Z</time>
      </trkpt>
      <trkpt lat="46.06283" lon="3.502">
        <ele>485.05</ele>
        <time>2013-04-14T10:04:10Z</time>
      </trkpt>
      <trkpt lat="46.06297" lon="3.50176">
        <ele>483.03</ele>
        <time>2013-04-14T10:04:13Z</time>
      </trkpt>
      <trkpt lat="46.06308" lon="3.50148">
        <ele>482.18</ele>
        <time>2013-04-14T10:04:16Z</time>
      </trkpt>
      <trkpt lat="46.06313" lon="3.50114">
        <ele>481.57</ele>
        <time>2013-04-14T10:04:19Z</time>
      </trkpt>
      <trkpt lat="46.06314" lon="3.5008">
        <ele>480.73</ele>
        <time>2013-04-14T10:04:22Z</time>
      </trkpt>
      <trkpt lat="46.06306" lon="3.50052">
        <ele>478.66</ele>
        <time>2013-04-14T10:04:26Z</time>
      </trkpt>
      <trkpt lat="46.06288" lon="3.5003">
        <ele>475.74</ele>
        <time>2013-04-14T10:04:29Z</time>
      </trkpt>
      <trkpt lat="46.06267" lon="3.50007">
        <ele>472.63</ele>
        <time>2013-04-14T10:04:32Z</time>
      </trkpt>
      <trkpt lat="46.06247" lon="3.49983">
        <ele>469.59</ele>
        <time>2013-04-14T10:04:35Z</time>
      </trkpt>
      <trkpt lat="46.06232" lon="3.49953">
        <ele>466.57</ele>
        <time>2013-04-14T10:04:38Z</time>
      </trkpt>
      <trkpt lat="46.06225" lon="3.49917">
        <ele>463.56</ele>
        <time>2013-04-14T10:04:41Z</time>
      </trkpt>
      <trkpt lat="46.0622" lon="3.4988">
        <ele>460.56</ele>
        <time>2013-04-14T10:04:44Z</time>
      </trkpt>
      <trkpt lat="46.06213" lon="3.49848">
        <ele>458.13</ele>
        <time>2013-04-14T10:04:47Z</time>
      </trkpt>
      <trkpt lat="46.06203" lon="3.49814">
        <ele>455.81</ele>
        <time>2013-04-14T10:04:50Z</time>
      </trkpt>
      <trkpt lat="46.0619" lon="3.49792">
        <ele>454.39</ele>
        <time>2013-04-14T10:04:52Z</time>
      </trkpt>
      <trkpt lat="46.06177" lon="3.49773">
        <ele>453.15</ele>
        <time>2013-04-14T10:04:54Z</time>
      </trkpt>
      <trkpt lat="46.06162" lon="3.49754">
        <ele>452.01</ele>
        <time>2013-04-14T10:04:56Z</time>
      </trkpt>
      <trkpt lat="46.06147" lon="3.49732">
        <ele>450.94</ele>
        <time>2013-04-14T10:04:58Z</time>
      </trkpt>
      <trkpt lat="46.0613" lon="3.49706">
        <ele>449.31</ele>
        <time>2013-04-14T10:05:01Z</time>
      </trkpt>
      <trkpt lat="46.06115" lon="3.49687">
        <ele>447.03</ele>
        <time>2013-04-14T10:05:04Z</time>
      </trkpt>
      <trkpt lat="46.061" lon="3.49668">
        <ele>444.33</ele>
        <time>2013-04-14T10:05:07Z</time>
      </trkpt>
      <trkpt lat="46.06082" lon="3.49646">
        <ele>441.46</ele>
        <time>2013-04-14T10:05:10Z</time>
      </trkpt>
      <trkpt lat="46.06066" lon="3.49625">
        <ele>439.09</ele>
        <time>2013-04-14T10:05:13Z</time>
      </trkpt>
      <trkpt lat="46.06053" lon="3.49606">
        <ele>436.36</ele>
        <time>2013-04-14T10:05:16Z</time>
      </trkpt>
      <trkpt lat="46.06036" lon="3.49582">
        <ele>432.49</ele>
        <time>2013-04-14T10:05:20Z</time>
      </trkpt>
      <trkpt lat="46.06019" lon="3.49558">
        <ele>428.53</ele>
        <time>2013-04-14T10:05:24Z</time>
      </trkpt>
      <trkpt lat="46.06006" lon="3.49539">
        <ele>425.98</ele>
        <time>2013-04-14T10:05:27Z</time>
      </trkpt>
      <trkpt lat="46.05994" lon="3.49513">
        <ele>423.75</ele>
        <time>2013-04-14T10:05:30Z</time>
      </trkpt>
      <trkpt lat="46.05983" lon="3.49483">
        <ele>421.9</ele>
        <time>2013-04-14T10:05:33Z</time>
      </trkpt>
      <trkpt lat="46.05982" lon="3.49455">
        <ele>420.62</ele>
        <time>2013-04-14T10:05:35Z</time>
      </trkpt>
      <trkpt lat="46.05982" lon="3.49421">
        <ele>419.03</ele>
        <time>2013-04-14T10:05:37Z</time>
      </trkpt>
      <trkpt lat="46.05983" lon="3.49389">
        <ele>417.26</ele>
        <time>2013-04-14T10:05:39Z</time>
      </trkpt>
      <trkpt lat="46.05981" lon="3.49361">
        <ele>415.64</ele>
        <time>2013-04-14T10:05:41Z</time>
      </trkpt>
      <trkpt lat="46.05975" lon="3.49329">
        <ele>413.42</ele>
        <time>2013-04-14T10:05:44Z</time>
      </trkpt>
      <trkpt lat="46.05973" lon="3.49292">
        <ele>411.32</ele>
        <time>2013-04-14T10:05:47Z</time>
      </trkpt>
      <trkpt lat="46.05964" lon="3.49258">
        <ele>409.28</ele>
        <time>2013-04-14T10:05:50Z</time>
      </trkpt>
      <trkpt lat="46.05961" lon="3.49232">
        <ele>407.02</ele>
        <time>2013-04-14T10:05:53Z</time>
      </trkpt>
      <trkpt lat="46.05954" lon="3.49202">
        <ele>403.06</ele>
        <time>2013-04-14T10:05:56Z</time>
      </trkpt>
      <trkpt lat="46.05948" lon="3.49176">
        <ele>398.75</ele>
        <time>2013-04-14T10:05:59Z</time>
      </trkpt>
      <trkpt lat="46.05943" lon="3.49146">
        <ele>394.48</ele>
        <time>2013-04-14T10:06:02Z</time>
      </trkpt>
      <trkpt lat="46.05939" lon="3.49121">
        <ele>391.82</ele>
        <time>2013-04-14T10:06:04Z</time>
      </trkpt>
      <trkpt lat="46.05939" lon="3.49091">
        <ele>389.27</ele>
        <time>2013-04-14T10:06:06Z</time>
      </trkpt>
      <trkpt lat="46.0594" lon="3.49063">
        <ele>386.52</ele>
        <time>2013-04-14T10:06:08Z</time>
      </trkpt>
      <trkpt lat="46.05934" lon="3.49033">
        <ele>381.69</ele>
        <time>2013-04-14T10:06:11Z</time>
      </trkpt>
      <trkpt lat="46.05915" lon="3.49022">
        <ele>374.73</ele>
        <time>2013-04-14T10:06:16Z</time>
      </trkpt>
      <trkpt lat="46.05894" lon="3.49028">
        <ele>370.18</ele>
        <time>2013-04-14T10:06:20Z</time>
      </trkpt>
      <trkpt lat="46.05873" lon="3.4902">
        <ele>366.98</ele>
        <time>2013-04-14T10:06:25Z</time>
      </trkpt>
      <trkpt lat="46.05865" lon="3.48994">
        <ele>364.88</ele>
        <time>2013-04-14T10:06:29Z</time>
      </trkpt>
      <trkpt lat="46.05868" lon="3.48968">
        <ele>363.54</ele>
        <time>2013-04-14T10:06:32Z</time>
      </trkpt>
      <trkpt lat="46.05869" lon="3.48938">
        <ele>361.93</ele>
        <time>2013-04-14T10:06:36Z</time>
      </trkpt>
      <trkpt lat="46.05872" lon="3.48912">
        <ele>360.69</ele>
        <time>2013-04-14T10:06:44Z</time>
      </trkpt>
      <trkpt lat="46.05873" lon="3.48885">
        <ele>360.13</ele>
        <time>2013-04-14T10:06:52Z</time>
      </trkpt>
      <trkpt lat="46.05876" lon="3.48859">
        <ele>359.36</ele>
        <time>2013-04-14T10:07:00Z</time>
      </trkpt>
      <trkpt lat="46.0588" lon="3.48831">
        <ele>358.41</ele>
        <time>2013-04-14T10:07:07Z</time>
      </trkpt>
      <trkpt lat="46.05883" lon="3.48805">
        <ele>357.27</ele>
        <time>2013-04-14T10:07:13Z</time>
      </trkpt>
      <trkpt lat="46.05887" lon="3.48779">
        <ele>356.05</ele>
        <time>2013-04-14T10:07:21Z</time>
      </trkpt>
      <trkpt lat="46.05902" lon="3.48764">
        <ele>354.71</ele>
        <time>2013-04-14T10:07:31Z</time>
      </trkpt>
      <trkpt lat="46.0592" lon="3.48749">
        <ele>353.75</ele>
        <time>2013-04-14T10:07:38Z</time>
      </trkpt>
      <trkpt lat="46.05935" lon="3.4873">
        <ele>353.16</ele>
        <time>2013-04-14T10:07:43Z</time>
      </trkpt>
      <trkpt lat="46.05948" lon="3.48706">
        <ele>352.01</ele>
        <time>2013-04-14T10:07:48Z</time>
      </trkpt>
      <trkpt lat="46.05962" lon="3.48681">
        <ele>350.22</ele>
        <time>2013-04-14T10:07:53Z</time>
      </trkpt>
      <trkpt lat="46.05975" lon="3.48661">
        <ele>349.18</ele>
        <time>2013-04-14T10:07:57Z</time>
      </trkpt>
      <trkpt lat="46.05989" lon="3.48638">
        <ele>348.75</ele>
        <time>2013-04-14T10:08:01Z</time>
      </trkpt>
      <trkpt lat="46.06004" lon="3.48616">
        <ele>348.62</ele>
        <time>2013-04-14T10:08:05Z</time>
      </trkpt>
      <trkpt lat="46.06019" lon="3.48593">
        <ele>348.32</ele>
        <time>2013-04-14T10:08:09Z</time>
      </trkpt>
      <trkpt lat="46.06033" lon="3.48571">
        <ele>347.8</ele>
        <time>2013-04-14T10:08:13Z</time>
      </trkpt>
      <trkpt lat="46.06047" lon="3.4855">
        <ele>347.19</ele>
        <time>2013-04-14T10:08:17Z</time>
      </trkpt>
      <trkpt lat="46.06063" lon="3.48522">
        <ele>346.76</ele>
        <time>2013-04-14T10:08:21Z</time>
      </trkpt>
      <trkpt lat="46.06076" lon="3.48494">
        <ele>346.62</ele>
        <time>2013-04-14T10:08:25Z</time>
      </trkpt>
      <trkpt lat="46.06085" lon="3.4847">
        <ele>346.14</ele>
        <time>2013-04-14T10:08:28Z</time>
      </trkpt>
      <trkpt lat="46.06093" lon="3.48447">
        <ele>345.55</ele>
        <time>2013-04-14T10:08:31Z</time>
      </trkpt>
      <trkpt lat="46.06102" lon="3.48421">
        <ele>344.97</ele>
        <time>2013-04-14T10:08:34Z</time>
      </trkpt>
      <trkpt lat="46.06111" lon="3.48391">
        <ele>344.73</ele>
        <time>2013-04-14T10:08:37Z</time>
      </trkpt>
      <trkpt lat="46.06123" lon="3.48363">
        <ele>344.63</ele>
        <time>2013-04-14T10:08:40Z</time>
      </trkpt>
      <trkpt lat="46.06135" lon="3.48333">
        <ele>344.58</ele>
        <time>2013-04-14T10:08:43Z</time>
      </trkpt>
      <trkpt lat="46.06148" lon="3.48303">
        <ele>344.82</ele>
        <time>2013-04-14T10:08:46Z</time>
      </trkpt>
      <trkpt lat="46.06159" lon="3.48275">
        <ele>345.24</ele>
        <time>2013-04-14T10:08:49Z</time>
      </trkpt>
      <trkpt lat="46.06169" lon="3.48252">
        <ele>345.42</ele>
        <time>2013-04-14T10:08:52Z</time>
      </trkpt>
      <trkpt lat="46.06178" lon="3.48228">
        <ele>344.92</ele>
        <time>2013-04-14T10:08:55Z</time>
      </trkpt>
      <trkpt lat="46.0619" lon="3.48202">
        <ele>344.46</ele>
        <time>2013-04-14T10:08:58Z</time>
      </trkpt>
      <trkpt lat="46.06202" lon="3.48176">
        <ele>343.93</ele>
        <time>2013-04-14T10:09:01Z</time>
      </trkpt>
      <trkpt lat="46.06211" lon="3.48149">
        <ele>343.14</ele>
        <time>2013-04-14T10:09:04Z</time>
      </trkpt>
      <trkpt lat="46.06223" lon="3.48123">
        <ele>342.8</ele>
        <time>2013-04-14T10:09:07Z</time>
      </trkpt>
      <trkpt lat="46.06235" lon="3.48095">
        <ele>342.66</ele>
        <time>2013-04-14T10:09:10Z</time>
      </trkpt>
      <trkpt lat="46.06246" lon="3.48067">
        <ele>342.6</ele>
        <time>2013-04-14T10:09:13Z</time>
      </trkpt>
      <trkpt lat="46.06255" lon="3.48043">
        <ele>341.88</ele>
        <time>2013-04-14T10:09:16Z</time>
      </trkpt>
      <trkpt lat="46.06264" lon="3.48018">
        <ele>340.68</ele>
        <time>2013-04-14T10:09:19Z</time>
      </trkpt>
      <trkpt lat="46.06271" lon="3.47992">
        <ele>339.45</ele>
        <time>2013-04-14T10:09:22Z</time>
      </trkpt>
      <trkpt lat="46.06279" lon="3.47966">
        <ele>338.68</ele>
        <time>2013-04-14T10:09:25Z</time>
      </trkpt>
      <trkpt lat="46.06287" lon="3.4794">
        <ele>338.03</ele>
        <time>2013-04-14T10:09:28Z</time>
      </trkpt>
      <trkpt lat="46.06297" lon="3.47917">
        <ele>336.74</ele>
        <time>2013-04-14T10:09:31Z</time>
      </trkpt>
      <trkpt lat="46.06309" lon="3.47895">
        <ele>335.62</ele>
        <time>2013-04-14T10:09:34Z</time>
      </trkpt>
      <trkpt lat="46.0632" lon="3.47874">
        <ele>334.42</ele>
        <time>2013-04-14T10:09:37Z</time>
      </trkpt>
      <trkpt lat="46.06331" lon="3.47852">
        <ele>333.48</ele>
        <time>2013-04-14T10:09:40Z</time>
      </trkpt>
      <trkpt lat="46.06343" lon="3.47829">
        <ele>332.95</ele>
        <time>2013-04-14T10:09:43Z</time>
      </trkpt>
      <trkpt lat="46.06355" lon="3.47807">
        <ele>332.72</ele>
        <time>2013-04-14T10:09:46Z</time>
      </trkpt>
      <trkpt lat="46.06366" lon="3.47784">
        <ele>332.62</ele>
        <time>2013-04-14T10:09:49Z</time>
      </trkpt>
      <trkpt lat="46.06376" lon="3.47762">
        <ele>332</ele>
        <time>2013-04-14T10:09:52Z</time>
      </trkpt>
      <trkpt lat="46.06389" lon="3.47732">
        <ele>332.38</ele>
        <time>2013-04-14T10:09:56Z</time>
      </trkpt>
      <trkpt lat="46.06397" lon="3.47702">
        <ele>333.18</ele>
        <time>2013-04-14T10:10:00Z</time>
      </trkpt>
      <trkpt lat="46.06404" lon="3.47674">
        <ele>333.44</ele>
        <time>2013-04-14T10:10:04Z</time>
      </trkpt>
      <trkpt lat="46.06411" lon="3.47649">
        <ele>333.52</ele>
        <time>2013-04-14T10:10:08Z</time>
      </trkpt>
      <trkpt lat="46.06419" lon="3.47619">
        <ele>333.54</ele>
        <time>2013-04-14T10:10:13Z</time>
      </trkpt>
      <trkpt lat="46.06427" lon="3.47595">
        <ele>333.55</ele>
        <time>2013-04-14T10:10:17Z</time>
      </trkpt>
      <trkpt lat="46.06434" lon="3.47569">
        <ele>332.87</ele>
        <time>2013-04-14T10:10:21Z</time>
      </trkpt>
      <trkpt lat="46.06438" lon="3.47541">
        <ele>332.65</ele>
        <time>2013-04-14T10:10:25Z</time>
      </trkpt>
      <trkpt lat="46.06443" lon="3.47511">
        <ele>332.58</ele>
        <time>2013-04-14T10:10:29Z</time>
      </trkpt>
      <trkpt lat="46.06445" lon="3.47486">
        <ele>332.57</ele>
        <time>2013-04-14T10:10:32Z</time>
      </trkpt>
      <trkpt lat="46.06444" lon="3.47453">
        <ele>331.87</ele>
        <time>2013-04-14T10:10:36Z</time>
      </trkpt>
      <trkpt lat="46.06443" lon="3.47421">
        <ele>330.97</ele>
        <time>2013-04-14T10:10:40Z</time>
      </trkpt>
      <trkpt lat="46.06445" lon="3.47389">
        <ele>330.69</ele>
        <time>2013-04-14T10:10:44Z</time>
      </trkpt>
      <trkpt lat="46.06447" lon="3.47363">
        <ele>330.61</ele>
        <time>2013-04-14T10:10:47Z</time>
      </trkpt>
      <trkpt lat="46.06449" lon="3.47337">
        <ele>330.58</ele>
        <time>2013-04-14T10:10:50Z</time>
      </trkpt>
      <trkpt lat="46.06453" lon="3.47312">
        <ele>330.13</ele>
        <time>2013-04-14T10:10:53Z</time>
      </trkpt>
      <trkpt lat="46.06456" lon="3.47284">
        <ele>329.79</ele>
        <time>2013-04-14T10:10:56Z</time>
      </trkpt>
      <trkpt lat="46.06459" lon="3.47252">
        <ele>329.22</ele>
        <time>2013-04-14T10:10:59Z</time>
      </trkpt>
      <trkpt lat="46.0646" lon="3.47219">
        <ele>328.58</ele>
        <time>2013-04-14T10:11:02Z</time>
      </trkpt>
      <trkpt lat="46.06462" lon="3.47192">
        <ele>328.13</ele>
        <time>2013-04-14T10:11:04Z</time>
      </trkpt>
      <trkpt lat="46.06465" lon="3.47164">
        <ele>327.44</ele>
        <time>2013-04-14T10:11:06Z</time>
      </trkpt>
      <trkpt lat="46.06469" lon="3.47136">
        <ele>327.05</ele>
        <time>2013-04-14T10:11:08Z</time>
      </trkpt>
      <trkpt lat="46.06472" lon="3.47106">
        <ele>326.4</ele>
        <time>2013-04-14T10:11:10Z</time>
      </trkpt>
      <trkpt lat="46.06474" lon="3.47078">
        <ele>326.03</ele>
        <time>2013-04-14T10:11:12Z</time>
      </trkpt>
      <trkpt lat="46.06474" lon="3.4705">
        <ele>325.82</ele>
        <time>2013-04-14T10:11:14Z</time>
      </trkpt>
      <trkpt lat="46.06474" lon="3.4702">
        <ele>325.27</ele>
        <time>2013-04-14T10:11:16Z</time>
      </trkpt>
      <trkpt lat="46.06475" lon="3.4699">
        <ele>324.27</ele>
        <time>2013-04-14T10:11:18Z</time>
      </trkpt>
      <trkpt lat="46.06474" lon="3.46958">
        <ele>322.83</ele>
        <time>2013-04-14T10:11:20Z</time>
      </trkpt>
      <trkpt lat="46.06471" lon="3.46928">
        <ele>321.15</ele>
        <time>2013-04-14T10:11:22Z</time>
      </trkpt>
      <trkpt lat="46.06465" lon="3.469">
        <ele>319.57</ele>
        <time>2013-04-14T10:11:24Z</time>
      </trkpt>
      <trkpt lat="46.0646" lon="3.46872">
        <ele>318.25</ele>
        <time>2013-04-14T10:11:26Z</time>
      </trkpt>
      <trkpt lat="46.06454" lon="3.46846">
        <ele>317.07</ele>
        <time>2013-04-14T10:11:28Z</time>
      </trkpt>
      <trkpt lat="46.06446" lon="3.46823">
        <ele>316.41</ele>
        <time>2013-04-14T10:11:30Z</time>
      </trkpt>
      <trkpt lat="46.06439" lon="3.46797">
        <ele>316.03</ele>
        <time>2013-04-14T10:11:32Z</time>
      </trkpt>
      <trkpt lat="46.06429" lon="3.4676">
        <ele>315.76</ele>
        <time>2013-04-14T10:11:35Z</time>
      </trkpt>
      <trkpt lat="46.06421" lon="3.46737">
        <ele>314.98</ele>
        <time>2013-04-14T10:11:37Z</time>
      </trkpt>
      <trkpt lat="46.06415" lon="3.46711">
        <ele>314.11</ele>
        <time>2013-04-14T10:11:39Z</time>
      </trkpt>
      <trkpt lat="46.06406" lon="3.46687">
        <ele>313.18</ele>
        <time>2013-04-14T10:11:41Z</time>
      </trkpt>
      <trkpt lat="46.06398" lon="3.46662">
        <ele>312.22</ele>
        <time>2013-04-14T10:11:43Z</time>
      </trkpt>
      <trkpt lat="46.06387" lon="3.46638">
        <ele>311.49</ele>
        <time>2013-04-14T10:11:45Z</time>
      </trkpt>
      <trkpt lat="46.06379" lon="3.46614">
        <ele>310.64</ele>
        <time>2013-04-14T10:11:47Z</time>
      </trkpt>
      <trkpt lat="46.06368" lon="3.46589">
        <ele>308.64</ele>
        <time>2013-04-14T10:11:51Z</time>
      </trkpt>
      <trkpt lat="46.06361" lon="3.46561">
        <ele>305.7</ele>
        <time>2013-04-14T10:12:02Z</time>
      </trkpt>
      <trkpt lat="46.06356" lon="3.46529">
        <ele>300.01</ele>
        <time>2013-04-14T10:12:07Z</time>
      </trkpt>
      <trkpt lat="46.06354" lon="3.46494">
        <ele>296.82</ele>
        <time>2013-04-14T10:12:11Z</time>
      </trkpt>
      <trkpt lat="46.0635" lon="3.46462">
        <ele>294.44</ele>
        <time>2013-04-14T10:12:15Z</time>
      </trkpt>
      <trkpt lat="46.06343" lon="3.46436">
        <ele>292.91</ele>
        <time>2013-04-14T10:12:18Z</time>
      </trkpt>
      <trkpt lat="46.06332" lon="3.46411">
        <ele>291.3</ele>
        <time>2013-04-14T10:12:21Z</time>
      </trkpt>
      <trkpt lat="46.06322" lon="3.46387">
        <ele>290.29</ele>
        <time>2013-04-14T10:12:24Z</time>
      </trkpt>
      <trkpt lat="46.0631" lon="3.46361">
        <ele>289.29</ele>
        <time>2013-04-14T10:12:27Z</time>
      </trkpt>
      <trkpt lat="46.06297" lon="3.46333">
        <ele>288.42</ele>
        <time>2013-04-14T10:12:30Z</time>
      </trkpt>
      <trkpt lat="46.06283" lon="3.46303">
        <ele>287.34</ele>
        <time>2013-04-14T10:12:33Z</time>
      </trkpt>
      <trkpt lat="46.06268" lon="3.46273">
        <ele>286.45</ele>
        <time>2013-04-14T10:12:36Z</time>
      </trkpt>
      <trkpt lat="46.06256" lon="3.46247">
        <ele>285.68</ele>
        <time>2013-04-14T10:12:39Z</time>
      </trkpt>
      <trkpt lat="46.06247" lon="3.46224">
        <ele>284.91</ele>
        <time>2013-04-14T10:12:43Z</time>
      </trkpt>
      <trkpt lat="46.06227" lon="3.46215">
        <ele>284.15</ele>
        <time>2013-04-14T10:12:51Z</time>
      </trkpt>
      <trkpt lat="46.06205" lon="3.46224">
        <ele>283.12</ele>
        <time>2013-04-14T10:12:56Z</time>
      </trkpt>
      <trkpt lat="46.06187" lon="3.46228">
        <ele>281.72</ele>
        <time>2013-04-14T10:13:00Z</time>
      </trkpt>
      <trkpt lat="46.06176" lon="3.46202">
        <ele>280.07</ele>
        <time>2013-04-14T10:13:05Z</time>
      </trkpt>
      <trkpt lat="46.0618" lon="3.4617">
        <ele>278.34</ele>
        <time>2013-04-14T10:13:09Z</time>
      </trkpt>
      <trkpt lat="46.06188" lon="3.46147">
        <ele>276.62</ele>
        <time>2013-04-14T10:13:12Z</time>
      </trkpt>
      <trkpt lat="46.06204" lon="3.46125">
        <ele>274.63</ele>
        <time>2013-04-14T10:13:16Z</time>
      </trkpt>
      <trkpt lat="46.06219" lon="3.4611">
        <ele>273.43</ele>
        <time>2013-04-14T10:13:19Z</time>
      </trkpt>
      <trkpt lat="46.06236" lon="3.46093">
        <ele>272.15</ele>
        <time>2013-04-14T10:13:23Z</time>
      </trkpt>
      <trkpt lat="46.06254" lon="3.46076">
        <ele>271.16</ele>
        <time>2013-04-14T10:13:27Z</time>
      </trkpt>
      <trkpt lat="46.06272" lon="3.46061">
        <ele>270.75</ele>
        <time>2013-04-14T10:13:31Z</time>
      </trkpt>
      <trkpt lat="46.06283" lon="3.46037">
        <ele>270.61</ele>
        <time>2013-04-14T10:13:35Z</time>
      </trkpt>
      <trkpt lat="46.06277" lon="3.46007">
        <ele>270.57</ele>
        <time>2013-04-14T10:13:39Z</time>
      </trkpt>
      <trkpt lat="46.06264" lon="3.45979">
        <ele>271.24</ele>
        <time>2013-04-14T10:13:43Z</time>
      </trkpt>
      <trkpt lat="46.06255" lon="3.45956">
        <ele>271.42</ele>
        <time>2013-04-14T10:13:46Z</time>
      </trkpt>
      <trkpt lat="46.06246" lon="3.45926">
        <ele>271.26</ele>
        <time>2013-04-14T10:13:50Z</time>
      </trkpt>
      <trkpt lat="46.06232" lon="3.45902">
        <ele>270.72</ele>
        <time>2013-04-14T10:13:55Z</time>
      </trkpt>
      <trkpt lat="46.06214" lon="3.45883">
        <ele>270.59</ele>
        <time>2013-04-14T10:14:00Z</time>
      </trkpt>
      <trkpt lat="46.06198" lon="3.45865">
        <ele>270.32</ele>
        <time>2013-04-14T10:14:04Z</time>
      </trkpt>
      <trkpt lat="46.06181" lon="3.45848">
        <ele>269.54</ele>
        <time>2013-04-14T10:14:08Z</time>
      </trkpt>
      <trkpt lat="46.06163" lon="3.45831">
        <ele>268.87</ele>
        <time>2013-04-14T10:14:12Z</time>
      </trkpt>
      <trkpt lat="46.06145" lon="3.45814">
        <ele>269.23</ele>
        <time>2013-04-14T10:14:16Z</time>
      </trkpt>
      <trkpt lat="46.06126" lon="3.45799">
        <ele>269.45</ele>
        <time>2013-04-14T10:14:20Z</time>
      </trkpt>
      <trkpt lat="46.06129" lon="3.45771">
        <ele>269.55</ele>
        <time>2013-04-14T10:14:31Z</time>
      </trkpt>
      <trkpt lat="46.06146" lon="3.4576">
        <ele>268.56</ele>
        <time>2013-04-14T10:17:41Z</time>
      </trkpt>
      <trkpt lat="46.06156" lon="3.45735">
        <ele>268.55</ele>
        <time>2013-04-14T10:21:40Z</time>
      </trkpt>
      <trkpt lat="46.0617" lon="3.45711">
        <ele>268.12</ele>
        <time>2013-04-14T10:21:47Z</time>
      </trkpt>
      <trkpt lat="46.0618" lon="3.45687">
        <ele>267</ele>
        <time>2013-04-14T10:21:52Z</time>
      </trkpt>
      <trkpt lat="46.06191" lon="3.45664">
        <ele>266.41</ele>
        <time>2013-04-14T10:21:57Z</time>
      </trkpt>
      <trkpt lat="46.06203" lon="3.45638">
        <ele>265.18</ele>
        <time>2013-04-14T10:22:02Z</time>
      </trkpt>
      <trkpt lat="46.0621" lon="3.4561">
        <ele>264.7</ele>
        <time>2013-04-14T10:22:07Z</time>
      </trkpt>
      <trkpt lat="46.0622" lon="3.45587">
        <ele>264.59</ele>
        <time>2013-04-14T10:22:12Z</time>
      </trkpt>
      <trkpt lat="46.06236" lon="3.45569">
        <ele>264.56</ele>
        <time>2013-04-14T10:22:17Z</time>
      </trkpt>
      <trkpt lat="46.06254" lon="3.45556">
        <ele>265.13</ele>
        <time>2013-04-14T10:22:23Z</time>
      </trkpt>
      <trkpt lat="46.06271" lon="3.45535">
        <ele>265.45</ele>
        <time>2013-04-14T10:22:28Z</time>
      </trkpt>
      <trkpt lat="46.06283" lon="3.45511">
        <ele>266.46</ele>
        <time>2013-04-14T10:22:33Z</time>
      </trkpt>
      <trkpt lat="46.06294" lon="3.4549">
        <ele>267.29</ele>
        <time>2013-04-14T10:22:38Z</time>
      </trkpt>
      <trkpt lat="46.06302" lon="3.45464">
        <ele>267.51</ele>
        <time>2013-04-14T10:22:44Z</time>
      </trkpt>
      <trkpt lat="46.06309" lon="3.45438">
        <ele>267.54</ele>
        <time>2013-04-14T10:22:50Z</time>
      </trkpt>
      <trkpt lat="46.06317" lon="3.45413">
        <ele>268.23</ele>
        <time>2013-04-14T10:22:55Z</time>
      </trkpt>
      <trkpt lat="46.06325" lon="3.45385">
        <ele>268.5</ele>
        <time>2013-04-14T10:23:01Z</time>
      </trkpt>
      <trkpt lat="46.06337" lon="3.45357">
        <ele>268.79</ele>
        <time>2013-04-14T10:23:06Z</time>
      </trkpt>
      <trkpt lat="46.06345" lon="3.45331">
        <ele>271.01</ele>
        <time>2013-04-14T10:23:10Z</time>
      </trkpt>
      <trkpt lat="46.06354" lon="3.45305">
        <ele>272.19</ele>
        <time>2013-04-14T10:23:15Z</time>
      </trkpt>
      <trkpt lat="46.06362" lon="3.4528">
        <ele>272.5</ele>
        <time>2013-04-14T10:23:22Z</time>
      </trkpt>
      <trkpt lat="46.06373" lon="3.45254">
        <ele>272.54</ele>
        <time>2013-04-14T10:23:27Z</time>
      </trkpt>
      <trkpt lat="46.06383" lon="3.4523">
        <ele>273.13</ele>
        <time>2013-04-14T10:23:31Z</time>
      </trkpt>
      <trkpt lat="46.06397" lon="3.45202">
        <ele>273.42</ele>
        <time>2013-04-14T10:23:35Z</time>
      </trkpt>
      <trkpt lat="46.0641" lon="3.45177">
        <ele>273.51</ele>
        <time>2013-04-14T10:23:39Z</time>
      </trkpt>
      <trkpt lat="46.06423" lon="3.45155">
        <ele>273.54</ele>
        <time>2013-04-14T10:23:43Z</time>
      </trkpt>
      <trkpt lat="46.06436" lon="3.45138">
        <ele>273.55</ele>
        <time>2013-04-14T10:23:46Z</time>
      </trkpt>
      <trkpt lat="46.06446" lon="3.45114">
        <ele>272.97</ele>
        <time>2013-04-14T10:23:50Z</time>
      </trkpt>
      <trkpt lat="46.06453" lon="3.45087">
        <ele>272.19</ele>
        <time>2013-04-14T10:23:56Z</time>
      </trkpt>
      <trkpt lat="46.06461" lon="3.45061">
        <ele>271.67</ele>
        <time>2013-04-14T10:24:02Z</time>
      </trkpt>
      <trkpt lat="46.06472" lon="3.45035">
        <ele>270.9</ele>
        <time>2013-04-14T10:24:07Z</time>
      </trkpt>
      <trkpt lat="46.06485" lon="3.45011">
        <ele>268</ele>
        <time>2013-04-14T10:24:12Z</time>
      </trkpt>
      <trkpt lat="46.06498" lon="3.44988">
        <ele>264.79</ele>
        <time>2013-04-14T10:24:17Z</time>
      </trkpt>
      <trkpt lat="46.06508" lon="3.44966">
        <ele>263.26</ele>
        <time>2013-04-14T10:24:21Z</time>
      </trkpt>
      <trkpt lat="46.0652" lon="3.44943">
        <ele>262.28</ele>
        <time>2013-04-14T10:24:26Z</time>
      </trkpt>
      <trkpt lat="46.06533" lon="3.44919">
        <ele>261.73</ele>
        <time>2013-04-14T10:24:31Z</time>
      </trkpt>
      <trkpt lat="46.06546" lon="3.449">
        <ele>262.44</ele>
        <time>2013-04-14T10:24:35Z</time>
      </trkpt>
      <trkpt lat="46.06564" lon="3.44883">
        <ele>263.29</ele>
        <time>2013-04-14T10:24:40Z</time>
      </trkpt>
      <trkpt lat="46.06552" lon="3.44859">
        <ele>263.52</ele>
        <time>2013-04-14T10:24:47Z</time>
      </trkpt>
      <trkpt lat="46.06535" lon="3.44848">
        <ele>264.37</ele>
        <time>2013-04-14T10:25:02Z</time>
      </trkpt>
      <trkpt lat="46.06517" lon="3.44859">
        <ele>265.23</ele>
        <time>2013-04-14T10:25:13Z</time>
      </trkpt>
      <trkpt lat="46.06498" lon="3.44872">
        <ele>267.25</ele>
        <time>2013-04-14T10:25:18Z</time>
      </trkpt>
      <trkpt lat="46.06478" lon="3.44889">
        <ele>269.45</ele>
        <time>2013-04-14T10:25:23Z</time>
      </trkpt>
      <trkpt lat="46.06463" lon="3.44904">
        <ele>270.89</ele>
        <time>2013-04-14T10:25:27Z</time>
      </trkpt>
      <trkpt lat="46.06446" lon="3.44913">
        <ele>270.9</ele>
        <time>2013-04-14T10:25:31Z</time>
      </trkpt>
      <trkpt lat="46.06433" lon="3.44893">
        <ele>268.96</ele>
        <time>2013-04-14T10:25:35Z</time>
      </trkpt>
      <trkpt lat="46.06425" lon="3.4487">
        <ele>266.88</ele>
        <time>2013-04-14T10:25:39Z</time>
      </trkpt>
      <trkpt lat="46.06417" lon="3.44842">
        <ele>265.72</ele>
        <time>2013-04-14T10:25:43Z</time>
      </trkpt>
      <trkpt lat="46.06409" lon="3.44816">
        <ele>264.92</ele>
        <time>2013-04-14T10:25:47Z</time>
      </trkpt>
      <trkpt lat="46.06399" lon="3.44788">
        <ele>264.92</ele>
        <time>2013-04-14T10:25:51Z</time>
      </trkpt>
      <trkpt lat="46.0639" lon="3.44758">
        <ele>264.67</ele>
        <time>2013-04-14T10:25:55Z</time>
      </trkpt>
      <trkpt lat="46.06383" lon="3.44735">
        <ele>264.6</ele>
        <time>2013-04-14T10:25:58Z</time>
      </trkpt>
      <trkpt lat="46.06374" lon="3.44705">
        <ele>264.13</ele>
        <time>2013-04-14T10:26:02Z</time>
      </trkpt>
      <trkpt lat="46.06365" lon="3.44675">
        <ele>263.74</ele>
        <time>2013-04-14T10:26:06Z</time>
      </trkpt>
      <trkpt lat="46.06356" lon="3.44645">
        <ele>264.19</ele>
        <time>2013-04-14T10:26:10Z</time>
      </trkpt>
      <trkpt lat="46.06346" lon="3.44615">
        <ele>264.44</ele>
        <time>2013-04-14T10:26:14Z</time>
      </trkpt>
      <trkpt lat="46.06338" lon="3.44582">
        <ele>265.06</ele>
        <time>2013-04-14T10:26:18Z</time>
      </trkpt>
      <trkpt lat="46.0633" lon="3.44559">
        <ele>265.34</ele>
        <time>2013-04-14T10:26:21Z</time>
      </trkpt>
      <trkpt lat="46.06333" lon="3.44527">
        <ele>265.49</ele>
        <time>2013-04-14T10:26:25Z</time>
      </trkpt>
      <trkpt lat="46.0635" lon="3.44505">
        <ele>265.53</ele>
        <time>2013-04-14T10:26:29Z</time>
      </trkpt>
      <trkpt lat="46.06368" lon="3.44486">
        <ele>264.86</ele>
        <time>2013-04-14T10:26:33Z</time>
      </trkpt>
      <trkpt lat="46.06383" lon="3.44471">
        <ele>264.68</ele>
        <time>2013-04-14T10:26:36Z</time>
      </trkpt>
      <trkpt lat="46.064" lon="3.44456">
        <ele>264.61</ele>
        <time>2013-04-14T10:26:39Z</time>
      </trkpt>
      <trkpt lat="46.06416" lon="3.44441">
        <ele>264.58</ele>
        <time>2013-04-14T10:26:42Z</time>
      </trkpt>
      <trkpt lat="46.0643" lon="3.44415">
        <ele>265.14</ele>
        <time>2013-04-14T10:26:46Z</time>
      </trkpt>
      <trkpt lat="46.06439" lon="3.44391">
        <ele>265.38</ele>
        <time>2013-04-14T10:26:49Z</time>
      </trkpt>
      <trkpt lat="46.06445" lon="3.44363">
        <ele>265.48</ele>
        <time>2013-04-14T10:26:52Z</time>
      </trkpt>
      <trkpt lat="46.06452" lon="3.44336">
        <ele>265.52</ele>
        <time>2013-04-14T10:26:55Z</time>
      </trkpt>
      <trkpt lat="46.06458" lon="3.44308">
        <ele>265.54</ele>
        <time>2013-04-14T10:26:58Z</time>
      </trkpt>
      <trkpt lat="46.06464" lon="3.44282">
        <ele>265.55</ele>
        <time>2013-04-14T10:27:01Z</time>
      </trkpt>
      <trkpt lat="46.06472" lon="3.44256">
        <ele>265.55</ele>
        <time>2013-04-14T10:27:04Z</time>
      </trkpt>
      <trkpt lat="46.06479" lon="3.4423">
        <ele>265.55</ele>
        <time>2013-04-14T10:27:07Z</time>
      </trkpt>
      <trkpt lat="46.06487" lon="3.44205">
        <ele>265.55</ele>
        <time>2013-04-14T10:27:10Z</time>
      </trkpt>
      <trkpt lat="46.06494" lon="3.44179">
        <ele>265.12</ele>
        <time>2013-04-14T10:27:13Z</time>
      </trkpt>
      <trkpt lat="46.06503" lon="3.44151">
        <ele>264.79</ele>
        <time>2013-04-14T10:27:16Z</time>
      </trkpt>
      <trkpt lat="46.06509" lon="3.44125">
        <ele>264.65</ele>
        <time>2013-04-14T10:27:19Z</time>
      </trkpt>
      <trkpt lat="46.06515" lon="3.441">
        <ele>265.03</ele>
        <time>2013-04-14T10:27:22Z</time>
      </trkpt>
      <trkpt lat="46.06519" lon="3.44072">
        <ele>265.33</ele>
        <time>2013-04-14T10:27:25Z</time>
      </trkpt>
      <trkpt lat="46.06517" lon="3.44046">
        <ele>265.46</ele>
        <time>2013-04-14T10:27:28Z</time>
      </trkpt>
      <trkpt lat="46.06512" lon="3.4402">
        <ele>265.51</ele>
        <time>2013-04-14T10:27:31Z</time>
      </trkpt>
      <trkpt lat="46.06502" lon="3.43992">
        <ele>265.54</ele>
        <time>2013-04-14T10:27:35Z</time>
      </trkpt>
      <trkpt lat="46.065" lon="3.43964">
        <ele>264.87</ele>
        <time>2013-04-14T10:27:40Z</time>
      </trkpt>
      <trkpt lat="46.06501" lon="3.43934">
        <ele>264.58</ele>
        <time>2013-04-14T10:27:48Z</time>
      </trkpt>
      <trkpt lat="46.06506" lon="3.43906">
        <ele>264.56</ele>
        <time>2013-04-14T10:27:57Z</time>
      </trkpt>
      <trkpt lat="46.06513" lon="3.43881">
        <ele>265.24</ele>
        <time>2013-04-14T10:28:12Z</time>
      </trkpt>
      <trkpt lat="46.06517" lon="3.43855">
        <ele>266.11</ele>
        <time>2013-04-14T10:28:22Z</time>
      </trkpt>
      <trkpt lat="46.06521" lon="3.43829">
        <ele>266.49</ele>
        <time>2013-04-14T10:28:29Z</time>
      </trkpt>
      <trkpt lat="46.06523" lon="3.43803">
        <ele>267.36</ele>
        <time>2013-04-14T10:28:35Z</time>
      </trkpt>
      <trkpt lat="46.06527" lon="3.43776">
        <ele>268.1</ele>
        <time>2013-04-14T10:28:41Z</time>
      </trkpt>
      <trkpt lat="46.06514" lon="3.43752">
        <ele>268.49</ele>
        <time>2013-04-14T10:28:48Z</time>
      </trkpt>
      <trkpt lat="46.06497" lon="3.43741">
        <ele>269.36</ele>
        <time>2013-04-14T10:28:54Z</time>
      </trkpt>
      <trkpt lat="46.06479" lon="3.4373">
        <ele>270.28</ele>
        <time>2013-04-14T10:29:00Z</time>
      </trkpt>
      <trkpt lat="46.06462" lon="3.43718">
        <ele>271.08</ele>
        <time>2013-04-14T10:29:06Z</time>
      </trkpt>
      <trkpt lat="46.06445" lon="3.43705">
        <ele>272.05</ele>
        <time>2013-04-14T10:29:12Z</time>
      </trkpt>
      <trkpt lat="46.06428" lon="3.43692">
        <ele>276.59</ele>
        <time>2013-04-14T10:29:17Z</time>
      </trkpt>
      <trkpt lat="46.06411" lon="3.43677">
        <ele>281.31</ele>
        <time>2013-04-14T10:29:22Z</time>
      </trkpt>
      <trkpt lat="46.0639" lon="3.43662">
        <ele>284.36</ele>
        <time>2013-04-14T10:29:27Z</time>
      </trkpt>
      <trkpt lat="46.06371" lon="3.43645">
        <ele>286.03</ele>
        <time>2013-04-14T10:29:32Z</time>
      </trkpt>
      <trkpt lat="46.06356" lon="3.4363">
        <ele>286.39</ele>
        <time>2013-04-14T10:29:36Z</time>
      </trkpt>
      <trkpt lat="46.06341" lon="3.43612">
        <ele>286.5</ele>
        <time>2013-04-14T10:29:40Z</time>
      </trkpt>
      <trkpt lat="46.06326" lon="3.43595">
        <ele>285.85</ele>
        <time>2013-04-14T10:29:44Z</time>
      </trkpt>
      <trkpt lat="46.06311" lon="3.4358">
        <ele>285.65</ele>
        <time>2013-04-14T10:29:48Z</time>
      </trkpt>
      <trkpt lat="46.06295" lon="3.43561">
        <ele>285.33</ele>
        <time>2013-04-14T10:29:52Z</time>
      </trkpt>
      <trkpt lat="46.06278" lon="3.43546">
        <ele>284.8</ele>
        <time>2013-04-14T10:29:56Z</time>
      </trkpt>
      <trkpt lat="46.06259" lon="3.43533">
        <ele>284.63</ele>
        <time>2013-04-14T10:30:00Z</time>
      </trkpt>
      <trkpt lat="46.06241" lon="3.4352">
        <ele>284.58</ele>
        <time>2013-04-14T10:30:04Z</time>
      </trkpt>
      <trkpt lat="46.06225" lon="3.43507">
        <ele>284.56</ele>
        <time>2013-04-14T10:30:08Z</time>
      </trkpt>
      <trkpt lat="46.06206" lon="3.43494">
        <ele>283.87</ele>
        <time>2013-04-14T10:30:12Z</time>
      </trkpt>
      <trkpt lat="46.06184" lon="3.43484">
        <ele>283.65</ele>
        <time>2013-04-14T10:30:16Z</time>
      </trkpt>
      <trkpt lat="46.06162" lon="3.43479">
        <ele>282.46</ele>
        <time>2013-04-14T10:30:20Z</time>
      </trkpt>
      <trkpt lat="46.0614" lon="3.43475">
        <ele>281.84</ele>
        <time>2013-04-14T10:30:24Z</time>
      </trkpt>
      <trkpt lat="46.06121" lon="3.43471">
        <ele>281.64</ele>
        <time>2013-04-14T10:30:28Z</time>
      </trkpt>
      <trkpt lat="46.06101" lon="3.43467">
        <ele>281.58</ele>
        <time>2013-04-14T10:30:32Z</time>
      </trkpt>
      <trkpt lat="46.06082" lon="3.43464">
        <ele>281.56</ele>
        <time>2013-04-14T10:30:36Z</time>
      </trkpt>
      <trkpt lat="46.06066" lon="3.43449">
        <ele>281.31</ele>
        <time>2013-04-14T10:30:41Z</time>
      </trkpt>
      <trkpt lat="46.06074" lon="3.43426">
        <ele>280.15</ele>
        <time>2013-04-14T10:30:46Z</time>
      </trkpt>
      <trkpt lat="46.06082" lon="3.43402">
        <ele>278.93</ele>
        <time>2013-04-14T10:30:51Z</time>
      </trkpt>
      <trkpt lat="46.06092" lon="3.43379">
        <ele>278.64</ele>
        <time>2013-04-14T10:30:56Z</time>
      </trkpt>
      <trkpt lat="46.06103" lon="3.43357">
        <ele>278.57</ele>
        <time>2013-04-14T10:31:01Z</time>
      </trkpt>
      <trkpt lat="46.06117" lon="3.43338">
        <ele>278.56</ele>
        <time>2013-04-14T10:31:06Z</time>
      </trkpt>
      <trkpt lat="46.06132" lon="3.43323">
        <ele>278.55</ele>
        <time>2013-04-14T10:31:11Z</time>
      </trkpt>
      <trkpt lat="46.06148" lon="3.43306">
        <ele>278.55</ele>
        <time>2013-04-14T10:31:17Z</time>
      </trkpt>
      <trkpt lat="46.06164" lon="3.43288">
        <ele>279.32</ele>
        <time>2013-04-14T10:31:23Z</time>
      </trkpt>
      <trkpt lat="46.06182" lon="3.4328">
        <ele>279.52</ele>
        <time>2013-04-14T10:31:30Z</time>
      </trkpt>
      <trkpt lat="46.06202" lon="3.43278">
        <ele>279.8</ele>
        <time>2013-04-14T10:31:39Z</time>
      </trkpt>
      <trkpt lat="46.0622" lon="3.43269">
        <ele>280.48</ele>
        <time>2013-04-14T10:31:47Z</time>
      </trkpt>
      <trkpt lat="46.06236" lon="3.43254">
        <ele>280.55</ele>
        <time>2013-04-14T10:31:55Z</time>
      </trkpt>
      <trkpt lat="46.0625" lon="3.43237">
        <ele>280.55</ele>
        <time>2013-04-14T10:32:02Z</time>
      </trkpt>
      <trkpt lat="46.06263" lon="3.43215">
        <ele>281.42</ele>
        <time>2013-04-14T10:32:10Z</time>
      </trkpt>
      <trkpt lat="46.06262" lon="3.43185">
        <ele>282.72</ele>
        <time>2013-04-14T10:32:21Z</time>
      </trkpt>
      <trkpt lat="46.06247" lon="3.43168">
        <ele>284.48</ele>
        <time>2013-04-14T10:32:29Z</time>
      </trkpt>
      <trkpt lat="46.06233" lon="3.43149">
        <ele>287.33</ele>
        <time>2013-04-14T10:32:39Z</time>
      </trkpt>
      <trkpt lat="46.06219" lon="3.4313">
        <ele>289.44</ele>
        <time>2013-04-14T10:32:47Z</time>
      </trkpt>
      <trkpt lat="46.06205" lon="3.43108">
        <ele>290.84</ele>
        <time>2013-04-14T10:32:54Z</time>
      </trkpt>
      <trkpt lat="46.06194" lon="3.43087">
        <ele>291.86</ele>
        <time>2013-04-14T10:33:00Z</time>
      </trkpt>
      <trkpt lat="46.06183" lon="3.43061">
        <ele>292.87</ele>
        <time>2013-04-14T10:33:06Z</time>
      </trkpt>
      <trkpt lat="46.06171" lon="3.43035">
        <ele>293.87</ele>
        <time>2013-04-14T10:33:12Z</time>
      </trkpt>
      <trkpt lat="46.06161" lon="3.43014">
        <ele>294.64</ele>
        <time>2013-04-14T10:33:17Z</time>
      </trkpt>
      <trkpt lat="46.06149" lon="3.42992">
        <ele>295.34</ele>
        <time>2013-04-14T10:33:22Z</time>
      </trkpt>
      <trkpt lat="46.06137" lon="3.42971">
        <ele>296.77</ele>
        <time>2013-04-14T10:33:27Z</time>
      </trkpt>
      <trkpt lat="46.06125" lon="3.42945">
        <ele>299.64</ele>
        <time>2013-04-14T10:33:32Z</time>
      </trkpt>
      <trkpt lat="46.06114" lon="3.42921">
        <ele>302.11</ele>
        <time>2013-04-14T10:33:37Z</time>
      </trkpt>
      <trkpt lat="46.06102" lon="3.42896">
        <ele>303.21</ele>
        <time>2013-04-14T10:33:42Z</time>
      </trkpt>
      <trkpt lat="46.06091" lon="3.4287">
        <ele>303.72</ele>
        <time>2013-04-14T10:33:47Z</time>
      </trkpt>
      <trkpt lat="46.0608" lon="3.42844">
        <ele>304.36</ele>
        <time>2013-04-14T10:33:52Z</time>
      </trkpt>
      <trkpt lat="46.06072" lon="3.42816">
        <ele>305.19</ele>
        <time>2013-04-14T10:33:57Z</time>
      </trkpt>
      <trkpt lat="46.06066" lon="3.42786">
        <ele>305.47</ele>
        <time>2013-04-14T10:34:02Z</time>
      </trkpt>
      <trkpt lat="46.06063" lon="3.42761">
        <ele>305.53</ele>
        <time>2013-04-14T10:34:06Z</time>
      </trkpt>
      <trkpt lat="46.0606" lon="3.42735">
        <ele>306.23</ele>
        <time>2013-04-14T10:34:11Z</time>
      </trkpt>
      <trkpt lat="46.06057" lon="3.42707">
        <ele>306.5</ele>
        <time>2013-04-14T10:34:17Z</time>
      </trkpt>
      <trkpt lat="46.0605" lon="3.42681">
        <ele>306.55</ele>
        <time>2013-04-14T10:34:24Z</time>
      </trkpt>
      <trkpt lat="46.06034" lon="3.4266">
        <ele>308.36</ele>
        <time>2013-04-14T10:34:28Z</time>
      </trkpt>
      <trkpt lat="46.06019" lon="3.42638">
        <ele>309.63</ele>
        <time>2013-04-14T10:34:31Z</time>
      </trkpt>
      <trkpt lat="46.06002" lon="3.42617">
        <ele>310.16</ele>
        <time>2013-04-14T10:34:34Z</time>
      </trkpt>
      <trkpt lat="46.05985" lon="3.42593">
        <ele>309.56</ele>
        <time>2013-04-14T10:34:37Z</time>
      </trkpt>
      <trkpt lat="46.05967" lon="3.4257">
        <ele>308.15</ele>
        <time>2013-04-14T10:34:40Z</time>
      </trkpt>
      <trkpt lat="46.0595" lon="3.42548">
        <ele>306.9</ele>
        <time>2013-04-14T10:34:43Z</time>
      </trkpt>
      <trkpt lat="46.05935" lon="3.42529">
        <ele>306.7</ele>
        <time>2013-04-14T10:34:46Z</time>
      </trkpt>
      <trkpt lat="46.05923" lon="3.42505">
        <ele>305.79</ele>
        <time>2013-04-14T10:34:49Z</time>
      </trkpt>
      <trkpt lat="46.05912" lon="3.42484">
        <ele>304.06</ele>
        <time>2013-04-14T10:34:52Z</time>
      </trkpt>
      <trkpt lat="46.059" lon="3.42462">
        <ele>302.61</ele>
        <time>2013-04-14T10:34:55Z</time>
      </trkpt>
      <trkpt lat="46.05889" lon="3.42441">
        <ele>301.17</ele>
        <time>2013-04-14T10:34:58Z</time>
      </trkpt>
      <trkpt lat="46.05875" lon="3.42415">
        <ele>299.81</ele>
        <time>2013-04-14T10:35:02Z</time>
      </trkpt>
      <trkpt lat="46.0586" lon="3.42389">
        <ele>299.2</ele>
        <time>2013-04-14T10:35:06Z</time>
      </trkpt>
      <trkpt lat="46.05849" lon="3.42368">
        <ele>299.66</ele>
        <time>2013-04-14T10:35:09Z</time>
      </trkpt>
      <trkpt lat="46.05837" lon="3.42342">
        <ele>300.42</ele>
        <time>2013-04-14T10:35:12Z</time>
      </trkpt>
      <trkpt lat="46.05825" lon="3.42319">
        <ele>300.83</ele>
        <time>2013-04-14T10:35:15Z</time>
      </trkpt>
      <trkpt lat="46.05814" lon="3.42291">
        <ele>300.64</ele>
        <time>2013-04-14T10:35:19Z</time>
      </trkpt>
      <trkpt lat="46.05822" lon="3.42267">
        <ele>300.57</ele>
        <time>2013-04-14T10:35:25Z</time>
      </trkpt>
      <trkpt lat="46.0584" lon="3.42246">
        <ele>300.55</ele>
        <time>2013-04-14T10:35:35Z</time>
      </trkpt>
      <trkpt lat="46.05855" lon="3.42231">
        <ele>301.42</ele>
        <time>2013-04-14T10:35:44Z</time>
      </trkpt>
      <trkpt lat="46.05875" lon="3.42218">
        <ele>302.37</ele>
        <time>2013-04-14T10:35:55Z</time>
      </trkpt>
      <trkpt lat="46.05894" lon="3.42216">
        <ele>304.58</ele>
        <time>2013-04-14T10:36:06Z</time>
      </trkpt>
      <trkpt lat="46.0591" lon="3.42228">
        <ele>306.24</ele>
        <time>2013-04-14T10:36:15Z</time>
      </trkpt>
      <trkpt lat="46.05931" lon="3.42222">
        <ele>308.75</ele>
        <time>2013-04-14T10:36:31Z</time>
      </trkpt>
      <trkpt lat="46.05947" lon="3.42207">
        <ele>311.79</ele>
        <time>2013-04-14T10:36:58Z</time>
      </trkpt>
      <trkpt lat="46.05954" lon="3.42233">
        <ele>314.18</ele>
        <time>2013-04-14T10:37:24Z</time>
      </trkpt>
      <trkpt lat="46.05964" lon="3.42254">
        <ele>314.96</ele>
        <time>2013-04-14T10:37:33Z</time>
      </trkpt>
      <trkpt lat="46.05981" lon="3.42271">
        <ele>315.76</ele>
        <time>2013-04-14T10:37:42Z</time>
      </trkpt>
      <trkpt lat="46.05994" lon="3.42291">
        <ele>316.47</ele>
        <time>2013-04-14T10:37:50Z</time>
      </trkpt>
      <trkpt lat="46.06001" lon="3.42316">
        <ele>317.3</ele>
        <time>2013-04-14T10:37:56Z</time>
      </trkpt>
      <trkpt lat="46.06008" lon="3.42342">
        <ele>317.51</ele>
        <time>2013-04-14T10:38:02Z</time>
      </trkpt>
      <trkpt lat="46.06016" lon="3.4237">
        <ele>318.23</ele>
        <time>2013-04-14T10:38:08Z</time>
      </trkpt>
      <trkpt lat="46.06028" lon="3.42391">
        <ele>318.5</ele>
        <time>2013-04-14T10:38:14Z</time>
      </trkpt>
      <trkpt lat="46.06049" lon="3.42387">
        <ele>320.56</ele>
        <time>2013-04-14T10:38:19Z</time>
      </trkpt>
      <trkpt lat="46.06068" lon="3.42381">
        <ele>321.92</ele>
        <time>2013-04-14T10:38:23Z</time>
      </trkpt>
      <trkpt lat="46.06088" lon="3.42374">
        <ele>322.35</ele>
        <time>2013-04-14T10:38:27Z</time>
      </trkpt>
      <trkpt lat="46.06111" lon="3.42366">
        <ele>323.17</ele>
        <time>2013-04-14T10:38:31Z</time>
      </trkpt>
      <trkpt lat="46.0613" lon="3.42357">
        <ele>323.39</ele>
        <time>2013-04-14T10:38:34Z</time>
      </trkpt>
      <trkpt lat="46.06147" lon="3.42344">
        <ele>323.49</ele>
        <time>2013-04-14T10:38:37Z</time>
      </trkpt>
      <trkpt lat="46.0616" lon="3.42321">
        <ele>323.52</ele>
        <time>2013-04-14T10:38:40Z</time>
      </trkpt>
      <trkpt lat="46.06171" lon="3.42293">
        <ele>322.71</ele>
        <time>2013-04-14T10:38:43Z</time>
      </trkpt>
      <trkpt lat="46.06184" lon="3.42271">
        <ele>320.2</ele>
        <time>2013-04-14T10:38:46Z</time>
      </trkpt>
      <trkpt lat="46.06195" lon="3.4225">
        <ele>317.84</ele>
        <time>2013-04-14T10:38:49Z</time>
      </trkpt>
      <trkpt lat="46.06207" lon="3.42224">
        <ele>316.03</ele>
        <time>2013-04-14T10:38:53Z</time>
      </trkpt>
      <trkpt lat="46.06218" lon="3.42203">
        <ele>315.02</ele>
        <time>2013-04-14T10:38:57Z</time>
      </trkpt>
      <trkpt lat="46.06228" lon="3.42177">
        <ele>314.66</ele>
        <time>2013-04-14T10:39:02Z</time>
      </trkpt>
      <trkpt lat="46.06238" lon="3.42153">
        <ele>315.02</ele>
        <time>2013-04-14T10:39:07Z</time>
      </trkpt>
      <trkpt lat="46.0625" lon="3.42128">
        <ele>316.25</ele>
        <time>2013-04-14T10:39:12Z</time>
      </trkpt>
      <trkpt lat="46.06253" lon="3.421">
        <ele>318.94</ele>
        <time>2013-04-14T10:39:17Z</time>
      </trkpt>
      <trkpt lat="46.06243" lon="3.42076">
        <ele>320.73</ele>
        <time>2013-04-14T10:39:21Z</time>
      </trkpt>
      <trkpt lat="46.0623" lon="3.42052">
        <ele>321.61</ele>
        <time>2013-04-14T10:39:26Z</time>
      </trkpt>
      <trkpt lat="46.0622" lon="3.42031">
        <ele>322.83</ele>
        <time>2013-04-14T10:39:30Z</time>
      </trkpt>
      <trkpt lat="46.06209" lon="3.42007">
        <ele>323.32</ele>
        <time>2013-04-14T10:39:34Z</time>
      </trkpt>
      <trkpt lat="46.06198" lon="3.41984">
        <ele>323.04</ele>
        <time>2013-04-14T10:39:38Z</time>
      </trkpt>
      <trkpt lat="46.06188" lon="3.41962">
        <ele>322.71</ele>
        <time>2013-04-14T10:39:42Z</time>
      </trkpt>
      <trkpt lat="46.06175" lon="3.41939">
        <ele>322.59</ele>
        <time>2013-04-14T10:39:47Z</time>
      </trkpt>
      <trkpt lat="46.06164" lon="3.41917">
        <ele>322.56</ele>
        <time>2013-04-14T10:39:51Z</time>
      </trkpt>
      <trkpt lat="46.06153" lon="3.41896">
        <ele>322.56</ele>
        <time>2013-04-14T10:39:55Z</time>
      </trkpt>
      <trkpt lat="46.06143" lon="3.41868">
        <ele>322.55</ele>
        <time>2013-04-14T10:40:00Z</time>
      </trkpt>
      <trkpt lat="46.06138" lon="3.41838">
        <ele>322.3</ele>
        <time>2013-04-14T10:40:05Z</time>
      </trkpt>
      <trkpt lat="46.06133" lon="3.41808">
        <ele>321.98</ele>
        <time>2013-04-14T10:40:10Z</time>
      </trkpt>
      <trkpt lat="46.06128" lon="3.4178">
        <ele>322.85</ele>
        <time>2013-04-14T10:40:15Z</time>
      </trkpt>
      <trkpt lat="46.06121" lon="3.4175">
        <ele>323.39</ele>
        <time>2013-04-14T10:40:20Z</time>
      </trkpt>
      <trkpt lat="46.06116" lon="3.41724">
        <ele>323.5</ele>
        <time>2013-04-14T10:40:24Z</time>
      </trkpt>
      <trkpt lat="46.06108" lon="3.41696">
        <ele>322.96</ele>
        <time>2013-04-14T10:40:28Z</time>
      </trkpt>
      <trkpt lat="46.06103" lon="3.41671">
        <ele>322</ele>
        <time>2013-04-14T10:40:32Z</time>
      </trkpt>
      <trkpt lat="46.06094" lon="3.41647">
        <ele>321.69</ele>
        <time>2013-04-14T10:40:36Z</time>
      </trkpt>
      <trkpt lat="46.06082" lon="3.41621">
        <ele>321.59</ele>
        <time>2013-04-14T10:40:41Z</time>
      </trkpt>
      <trkpt lat="46.06066" lon="3.41602">
        <ele>321.56</ele>
        <time>2013-04-14T10:40:46Z</time>
      </trkpt>
      <trkpt lat="46.06052" lon="3.41585">
        <ele>321.56</ele>
        <time>2013-04-14T10:40:50Z</time>
      </trkpt>
      <trkpt lat="46.06033" lon="3.41568">
        <ele>322.67</ele>
        <time>2013-04-14T10:40:55Z</time>
      </trkpt>
      <trkpt lat="46.06014" lon="3.41557">
        <ele>324.28</ele>
        <time>2013-04-14T10:41:00Z</time>
      </trkpt>
      <trkpt lat="46.05996" lon="3.41542">
        <ele>325.25</ele>
        <time>2013-04-14T10:41:05Z</time>
      </trkpt>
      <trkpt lat="46.05976" lon="3.41529">
        <ele>326.5</ele>
        <time>2013-04-14T10:41:10Z</time>
      </trkpt>
      <trkpt lat="46.05957" lon="3.41514">
        <ele>328.64</ele>
        <time>2013-04-14T10:41:15Z</time>
      </trkpt>
      <trkpt lat="46.0594" lon="3.41503">
        <ele>329.52</ele>
        <time>2013-04-14T10:41:19Z</time>
      </trkpt>
      <trkpt lat="46.05923" lon="3.41492">
        <ele>329.79</ele>
        <time>2013-04-14T10:41:23Z</time>
      </trkpt>
      <trkpt lat="46.05903" lon="3.4148">
        <ele>329.86</ele>
        <time>2013-04-14T10:41:28Z</time>
      </trkpt>
      <trkpt lat="46.05913" lon="3.41456">
        <ele>330.02</ele>
        <time>2013-04-14T10:41:35Z</time>
      </trkpt>
      <trkpt lat="46.05929" lon="3.41443">
        <ele>329.7</ele>
        <time>2013-04-14T10:41:39Z</time>
      </trkpt>
      <trkpt lat="46.05944" lon="3.41428">
        <ele>329.02</ele>
        <time>2013-04-14T10:41:43Z</time>
      </trkpt>
      <trkpt lat="46.05962" lon="3.41411">
        <ele>327.65</ele>
        <time>2013-04-14T10:41:48Z</time>
      </trkpt>
      <trkpt lat="46.05982" lon="3.41394">
        <ele>326.81</ele>
        <time>2013-04-14T10:41:53Z</time>
      </trkpt>
      <trkpt lat="46.05997" lon="3.41379">
        <ele>326.64</ele>
        <time>2013-04-14T10:41:57Z</time>
      </trkpt>
      <trkpt lat="46.06013" lon="3.41366">
        <ele>326.58</ele>
        <time>2013-04-14T10:42:01Z</time>
      </trkpt>
      <trkpt lat="46.06029" lon="3.41351">
        <ele>327.14</ele>
        <time>2013-04-14T10:42:05Z</time>
      </trkpt>
      <trkpt lat="46.06045" lon="3.41336">
        <ele>327.86</ele>
        <time>2013-04-14T10:42:09Z</time>
      </trkpt>
      <trkpt lat="46.06059" lon="3.41316">
        <ele>328.33</ele>
        <time>2013-04-14T10:42:13Z</time>
      </trkpt>
      <trkpt lat="46.06076" lon="3.41304">
        <ele>329.42</ele>
        <time>2013-04-14T10:42:17Z</time>
      </trkpt>
      <trkpt lat="46.06096" lon="3.41299">
        <ele>330.63</ele>
        <time>2013-04-14T10:42:21Z</time>
      </trkpt>
      <trkpt lat="46.06115" lon="3.41297">
        <ele>331.94</ele>
        <time>2013-04-14T10:42:25Z</time>
      </trkpt>
      <trkpt lat="46.06133" lon="3.41289">
        <ele>333.29</ele>
        <time>2013-04-14T10:42:29Z</time>
      </trkpt>
      <trkpt lat="46.0615" lon="3.41278">
        <ele>334.59</ele>
        <time>2013-04-14T10:42:33Z</time>
      </trkpt>
      <trkpt lat="46.06166" lon="3.41261">
        <ele>336.08</ele>
        <time>2013-04-14T10:42:37Z</time>
      </trkpt>
      <trkpt lat="46.06184" lon="3.41246">
        <ele>336.26</ele>
        <time>2013-04-14T10:42:41Z</time>
      </trkpt>
      <trkpt lat="46.06202" lon="3.41231">
        <ele>334.08</ele>
        <time>2013-04-14T10:42:45Z</time>
      </trkpt>
      <trkpt lat="46.06215" lon="3.41213">
        <ele>332.35</ele>
        <time>2013-04-14T10:42:49Z</time>
      </trkpt>
      <trkpt lat="46.06232" lon="3.41192">
        <ele>331.23</ele>
        <time>2013-04-14T10:42:53Z</time>
      </trkpt>
      <trkpt lat="46.06247" lon="3.41168">
        <ele>330.19</ele>
        <time>2013-04-14T10:42:57Z</time>
      </trkpt>
      <trkpt lat="46.06264" lon="3.41147">
        <ele>328.82</ele>
        <time>2013-04-14T10:43:01Z</time>
      </trkpt>
      <trkpt lat="46.06281" lon="3.41128">
        <ele>327.95</ele>
        <time>2013-04-14T10:43:05Z</time>
      </trkpt>
      <trkpt lat="46.06299" lon="3.4111">
        <ele>327.68</ele>
        <time>2013-04-14T10:43:09Z</time>
      </trkpt>
      <trkpt lat="46.06317" lon="3.41093">
        <ele>328.28</ele>
        <time>2013-04-14T10:43:13Z</time>
      </trkpt>
      <trkpt lat="46.06335" lon="3.41076">
        <ele>329.04</ele>
        <time>2013-04-14T10:43:17Z</time>
      </trkpt>
      <trkpt lat="46.06352" lon="3.41059">
        <ele>329.39</ele>
        <time>2013-04-14T10:43:21Z</time>
      </trkpt>
      <trkpt lat="46.06369" lon="3.41042">
        <ele>330.08</ele>
        <time>2013-04-14T10:43:25Z</time>
      </trkpt>
      <trkpt lat="46.06389" lon="3.41033">
        <ele>330.4</ele>
        <time>2013-04-14T10:43:29Z</time>
      </trkpt>
      <trkpt lat="46.06412" lon="3.41031">
        <ele>330.51</ele>
        <time>2013-04-14T10:43:33Z</time>
      </trkpt>
      <trkpt lat="46.06433" lon="3.41029">
        <ele>331.22</ele>
        <time>2013-04-14T10:43:37Z</time>
      </trkpt>
      <trkpt lat="46.06457" lon="3.41027">
        <ele>331.45</ele>
        <time>2013-04-14T10:43:41Z</time>
      </trkpt>
      <trkpt lat="46.0648" lon="3.41025">
        <ele>332.1</ele>
        <time>2013-04-14T10:43:45Z</time>
      </trkpt>
      <trkpt lat="46.06504" lon="3.41022">
        <ele>332.41</ele>
        <time>2013-04-14T10:43:49Z</time>
      </trkpt>
      <trkpt lat="46.06527" lon="3.41018">
        <ele>333.09</ele>
        <time>2013-04-14T10:43:53Z</time>
      </trkpt>
      <trkpt lat="46.06547" lon="3.41014">
        <ele>333.41</ele>
        <time>2013-04-14T10:43:57Z</time>
      </trkpt>
      <trkpt lat="46.06561" lon="3.40997">
        <ele>333.52</ele>
        <time>2013-04-14T10:44:02Z</time>
      </trkpt>
      <trkpt lat="46.06576" lon="3.40977">
        <ele>333.54</ele>
        <time>2013-04-14T10:44:06Z</time>
      </trkpt>
      <trkpt lat="46.06594" lon="3.40958">
        <ele>333.55</ele>
        <time>2013-04-14T10:44:10Z</time>
      </trkpt>
      <trkpt lat="46.0661" lon="3.40941">
        <ele>333.11</ele>
        <time>2013-04-14T10:44:13Z</time>
      </trkpt>
      <trkpt lat="46.0663" lon="3.40924">
        <ele>332.54</ele>
        <time>2013-04-14T10:44:16Z</time>
      </trkpt>
      <trkpt lat="46.06652" lon="3.40917">
        <ele>331.72</ele>
        <time>2013-04-14T10:44:19Z</time>
      </trkpt>
      <trkpt lat="46.06677" lon="3.40917">
        <ele>331.05</ele>
        <time>2013-04-14T10:44:22Z</time>
      </trkpt>
      <trkpt lat="46.067" lon="3.40898">
        <ele>330.18</ele>
        <time>2013-04-14T10:44:25Z</time>
      </trkpt>
      <trkpt lat="46.0672" lon="3.40881">
        <ele>329.66</ele>
        <time>2013-04-14T10:44:27Z</time>
      </trkpt>
      <trkpt lat="46.06741" lon="3.40864">
        <ele>329.17</ele>
        <time>2013-04-14T10:44:29Z</time>
      </trkpt>
      <trkpt lat="46.06765" lon="3.40849">
        <ele>328.46</ele>
        <time>2013-04-14T10:44:31Z</time>
      </trkpt>
      <trkpt lat="46.06786" lon="3.40838">
        <ele>327.63</ele>
        <time>2013-04-14T10:44:33Z</time>
      </trkpt>
      <trkpt lat="46.06804" lon="3.40849">
        <ele>326.43</ele>
        <time>2013-04-14T10:44:36Z</time>
      </trkpt>
      <trkpt lat="46.06824" lon="3.40855">
        <ele>325.34</ele>
        <time>2013-04-14T10:44:39Z</time>
      </trkpt>
      <trkpt lat="46.06847" lon="3.40842">
        <ele>324.06</ele>
        <time>2013-04-14T10:44:42Z</time>
      </trkpt>
      <trkpt lat="46.06865" lon="3.40829">
        <ele>322.96</ele>
        <time>2013-04-14T10:44:44Z</time>
      </trkpt>
      <trkpt lat="46.06883" lon="3.40816">
        <ele>321.91</ele>
        <time>2013-04-14T10:44:46Z</time>
      </trkpt>
      <trkpt lat="46.06899" lon="3.40801">
        <ele>320.88</ele>
        <time>2013-04-14T10:44:48Z</time>
      </trkpt>
      <trkpt lat="46.06919" lon="3.4078">
        <ele>319.86</ele>
        <time>2013-04-14T10:44:51Z</time>
      </trkpt>
      <trkpt lat="46.0694" lon="3.40769">
        <ele>318.72</ele>
        <time>2013-04-14T10:44:55Z</time>
      </trkpt>
      <trkpt lat="46.06955" lon="3.40754">
        <ele>317.67</ele>
        <time>2013-04-14T10:45:03Z</time>
      </trkpt>
      <trkpt lat="46.06961" lon="3.40729">
        <ele>316.3</ele>
        <time>2013-04-14T10:45:13Z</time>
      </trkpt>
      <trkpt lat="46.06968" lon="3.40701">
        <ele>314</ele>
        <time>2013-04-14T10:45:24Z</time>
      </trkpt>
      <trkpt lat="46.06973" lon="3.40675">
        <ele>311.94</ele>
        <time>2013-04-14T10:45:36Z</time>
      </trkpt>
      <trkpt lat="46.0698" lon="3.40651">
        <ele>310.67</ele>
        <time>2013-04-14T10:45:48Z</time>
      </trkpt>
      <trkpt lat="46.06986" lon="3.40626">
        <ele>309.98</ele>
        <time>2013-04-14T10:45:59Z</time>
      </trkpt>
      <trkpt lat="46.0699" lon="3.406">
        <ele>309.57</ele>
        <time>2013-04-14T10:46:10Z</time>
      </trkpt>
      <trkpt lat="46.06992" lon="3.40574">
        <ele>310.51</ele>
        <time>2013-04-14T10:46:24Z</time>
      </trkpt>
      <trkpt lat="46.07002" lon="3.4055">
        <ele>312.31</ele>
        <time>2013-04-14T10:46:40Z</time>
      </trkpt>
      <trkpt lat="46.07013" lon="3.40529">
        <ele>313.76</ele>
        <time>2013-04-14T10:46:56Z</time>
      </trkpt>
      <trkpt lat="46.07027" lon="3.40512">
        <ele>315.36</ele>
        <time>2013-04-14T10:47:10Z</time>
      </trkpt>
      <trkpt lat="46.07041" lon="3.4049">
        <ele>318.01</ele>
        <time>2013-04-14T10:47:26Z</time>
      </trkpt>
      <trkpt lat="46.07051" lon="3.40469">
        <ele>320.82</ele>
        <time>2013-04-14T10:47:40Z</time>
      </trkpt>
      <trkpt lat="46.07061" lon="3.40443">
        <ele>323.09</ele>
        <time>2013-04-14T10:47:50Z</time>
      </trkpt>
      <trkpt lat="46.07061" lon="3.40415">
        <ele>324.33</ele>
        <time>2013-04-14T10:47:58Z</time>
      </trkpt>
      <trkpt lat="46.07059" lon="3.40387">
        <ele>325.64</ele>
        <time>2013-04-14T10:48:05Z</time>
      </trkpt>
      <trkpt lat="46.07077" lon="3.40377">
        <ele>326.87</ele>
        <time>2013-04-14T10:48:12Z</time>
      </trkpt>
      <trkpt lat="46.07097" lon="3.40372">
        <ele>327.87</ele>
        <time>2013-04-14T10:48:18Z</time>
      </trkpt>
      <trkpt lat="46.07116" lon="3.40372">
        <ele>328.89</ele>
        <time>2013-04-14T10:48:23Z</time>
      </trkpt>
      <trkpt lat="46.07137" lon="3.40372">
        <ele>333.2</ele>
        <time>2013-04-14T10:48:28Z</time>
      </trkpt>
      <trkpt lat="46.0716" lon="3.4037">
        <ele>335.24</ele>
        <time>2013-04-14T10:48:32Z</time>
      </trkpt>
      <trkpt lat="46.07174" lon="3.40353">
        <ele>336.44</ele>
        <time>2013-04-14T10:48:35Z</time>
      </trkpt>
      <trkpt lat="46.07178" lon="3.40323">
        <ele>337.66</ele>
        <time>2013-04-14T10:48:38Z</time>
      </trkpt>
      <trkpt lat="46.07181" lon="3.40286">
        <ele>337.49</ele>
        <time>2013-04-14T10:48:41Z</time>
      </trkpt>
      <trkpt lat="46.07184" lon="3.40261">
        <ele>336.64</ele>
        <time>2013-04-14T10:48:43Z</time>
      </trkpt>
      <trkpt lat="46.07204" lon="3.40235">
        <ele>334.75</ele>
        <time>2013-04-14T10:48:46Z</time>
      </trkpt>
      <trkpt lat="46.07225" lon="3.40248">
        <ele>332.42</ele>
        <time>2013-04-14T10:48:50Z</time>
      </trkpt>
      <trkpt lat="46.07241" lon="3.40265">
        <ele>330.46</ele>
        <time>2013-04-14T10:48:54Z</time>
      </trkpt>
      <trkpt lat="46.07257" lon="3.40282">
        <ele>330.09</ele>
        <time>2013-04-14T10:48:58Z</time>
      </trkpt>
      <trkpt lat="46.07272" lon="3.40299">
        <ele>330.84</ele>
        <time>2013-04-14T10:49:02Z</time>
      </trkpt>
      <trkpt lat="46.07287" lon="3.40314">
        <ele>331.33</ele>
        <time>2013-04-14T10:49:06Z</time>
      </trkpt>
      <trkpt lat="46.07309" lon="3.40321">
        <ele>332.08</ele>
        <time>2013-04-14T10:49:11Z</time>
      </trkpt>
      <trkpt lat="46.07328" lon="3.40327">
        <ele>332.44</ele>
        <time>2013-04-14T10:49:16Z</time>
      </trkpt>
      <trkpt lat="46.07347" lon="3.40336">
        <ele>332.53</ele>
        <time>2013-04-14T10:49:22Z</time>
      </trkpt>
      <trkpt lat="46.07348" lon="3.40308">
        <ele>332.8</ele>
        <time>2013-04-14T10:49:30Z</time>
      </trkpt>
      <trkpt lat="46.07345" lon="3.40282">
        <ele>332.69</ele>
        <time>2013-04-14T10:49:35Z</time>
      </trkpt>
      <trkpt lat="46.0734" lon="3.40254">
        <ele>333.02</ele>
        <time>2013-04-14T10:49:40Z</time>
      </trkpt>
      <trkpt lat="46.07332" lon="3.40226">
        <ele>332.74</ele>
        <time>2013-04-14T10:49:45Z</time>
      </trkpt>
      <trkpt lat="46.07319" lon="3.40205">
        <ele>332.86</ele>
        <time>2013-04-14T10:49:49Z</time>
      </trkpt>
      <trkpt lat="46.07306" lon="3.40181">
        <ele>333.83</ele>
        <time>2013-04-14T10:49:54Z</time>
      </trkpt>
      <trkpt lat="46.07299" lon="3.40151">
        <ele>334.38</ele>
        <time>2013-04-14T10:49:59Z</time>
      </trkpt>
      <trkpt lat="46.07296" lon="3.40126">
        <ele>334.51</ele>
        <time>2013-04-14T10:50:04Z</time>
      </trkpt>
      <trkpt lat="46.07292" lon="3.401">
        <ele>334.54</ele>
        <time>2013-04-14T10:50:09Z</time>
      </trkpt>
      <trkpt lat="46.07283" lon="3.40076">
        <ele>334.55</ele>
        <time>2013-04-14T10:50:14Z</time>
      </trkpt>
      <trkpt lat="46.07275" lon="3.40053">
        <ele>335.57</ele>
        <time>2013-04-14T10:50:18Z</time>
      </trkpt>
      <trkpt lat="46.07266" lon="3.40027">
        <ele>337.15</ele>
        <time>2013-04-14T10:50:23Z</time>
      </trkpt>
      <trkpt lat="46.07257" lon="3.40001">
        <ele>338.8</ele>
        <time>2013-04-14T10:50:28Z</time>
      </trkpt>
      <trkpt lat="46.0725" lon="3.39975">
        <ele>339.37</ele>
        <time>2013-04-14T10:50:33Z</time>
      </trkpt>
      <trkpt lat="46.07242" lon="3.3995">
        <ele>338.93</ele>
        <time>2013-04-14T10:50:38Z</time>
      </trkpt>
      <trkpt lat="46.07236" lon="3.39922">
        <ele>339.08</ele>
        <time>2013-04-14T10:50:43Z</time>
      </trkpt>
      <trkpt lat="46.07231" lon="3.39892">
        <ele>340.02</ele>
        <time>2013-04-14T10:50:48Z</time>
      </trkpt>
      <trkpt lat="46.07227" lon="3.39864">
        <ele>340.43</ele>
        <time>2013-04-14T10:50:53Z</time>
      </trkpt>
      <trkpt lat="46.07221" lon="3.39834">
        <ele>340.52</ele>
        <time>2013-04-14T10:50:58Z</time>
      </trkpt>
      <trkpt lat="46.07216" lon="3.39804">
        <ele>339.86</ele>
        <time>2013-04-14T10:51:03Z</time>
      </trkpt>
      <trkpt lat="46.07211" lon="3.39774">
        <ele>339.63</ele>
        <time>2013-04-14T10:51:08Z</time>
      </trkpt>
      <trkpt lat="46.07206" lon="3.39746">
        <ele>339.57</ele>
        <time>2013-04-14T10:51:13Z</time>
      </trkpt>
      <trkpt lat="46.072" lon="3.3972">
        <ele>338.79</ele>
        <time>2013-04-14T10:51:18Z</time>
      </trkpt>
      <trkpt lat="46.07213" lon="3.39696">
        <ele>338.59</ele>
        <time>2013-04-14T10:51:25Z</time>
      </trkpt>
      <trkpt lat="46.07231" lon="3.39684">
        <ele>339.24</ele>
        <time>2013-04-14T10:51:30Z</time>
      </trkpt>
      <trkpt lat="46.07249" lon="3.39675">
        <ele>339.48</ele>
        <time>2013-04-14T10:51:35Z</time>
      </trkpt>
      <trkpt lat="46.07267" lon="3.39664">
        <ele>341.23</ele>
        <time>2013-04-14T10:51:40Z</time>
      </trkpt>
      <trkpt lat="46.07284" lon="3.39653">
        <ele>343.44</ele>
        <time>2013-04-14T10:51:45Z</time>
      </trkpt>
      <trkpt lat="46.07296" lon="3.39632">
        <ele>344.44</ele>
        <time>2013-04-14T10:51:53Z</time>
      </trkpt>
      <trkpt lat="46.07295" lon="3.39604">
        <ele>344.54</ele>
        <time>2013-04-14T10:52:01Z</time>
      </trkpt>
      <trkpt lat="46.07291" lon="3.39578">
        <ele>344.55</ele>
        <time>2013-04-14T10:52:08Z</time>
      </trkpt>
      <trkpt lat="46.07287" lon="3.3955">
        <ele>344.99</ele>
        <time>2013-04-14T10:52:16Z</time>
      </trkpt>
      <trkpt lat="46.07278" lon="3.39525">
        <ele>345.52</ele>
        <time>2013-04-14T10:52:26Z</time>
      </trkpt>
      <trkpt lat="46.07275" lon="3.39493">
        <ele>345.55</ele>
        <time>2013-04-14T10:52:35Z</time>
      </trkpt>
      <trkpt lat="46.07273" lon="3.39465">
        <ele>345.55</ele>
        <time>2013-04-14T10:52:43Z</time>
      </trkpt>
      <trkpt lat="46.07269" lon="3.39437">
        <ele>346.45</ele>
        <time>2013-04-14T10:52:52Z</time>
      </trkpt>
      <trkpt lat="46.07265" lon="3.39409">
        <ele>348.23</ele>
        <time>2013-04-14T10:53:01Z</time>
      </trkpt>
      <trkpt lat="46.07262" lon="3.39381">
        <ele>349.67</ele>
        <time>2013-04-14T10:53:09Z</time>
      </trkpt>
      <trkpt lat="46.07264" lon="3.39355">
        <ele>351.04</ele>
        <time>2013-04-14T10:53:17Z</time>
      </trkpt>
      <trkpt lat="46.07266" lon="3.39329">
        <ele>353.14</ele>
        <time>2013-04-14T10:53:24Z</time>
      </trkpt>
      <trkpt lat="46.07264" lon="3.39304">
        <ele>355.81</ele>
        <time>2013-04-14T10:53:32Z</time>
      </trkpt>
      <trkpt lat="46.07269" lon="3.39278">
        <ele>357.28</ele>
        <time>2013-04-14T10:53:39Z</time>
      </trkpt>
      <trkpt lat="46.07258" lon="3.39257">
        <ele>359.93</ele>
        <time>2013-04-14T10:53:53Z</time>
      </trkpt>
      <trkpt lat="46.07253" lon="3.39231">
        <ele>362</ele>
        <time>2013-04-14T10:54:03Z</time>
      </trkpt>
      <trkpt lat="46.07243" lon="3.39207">
        <ele>363.97</ele>
        <time>2013-04-14T10:54:13Z</time>
      </trkpt>
      <trkpt lat="46.07231" lon="3.39186">
        <ele>366.04</ele>
        <time>2013-04-14T10:54:21Z</time>
      </trkpt>
      <trkpt lat="46.07223" lon="3.39162">
        <ele>366.46</ele>
        <time>2013-04-14T10:54:27Z</time>
      </trkpt>
      <trkpt lat="46.07218" lon="3.39136">
        <ele>367.3</ele>
        <time>2013-04-14T10:54:33Z</time>
      </trkpt>
      <trkpt lat="46.0721" lon="3.39113">
        <ele>367.53</ele>
        <time>2013-04-14T10:54:41Z</time>
      </trkpt>
      <trkpt lat="46.07199" lon="3.39089">
        <ele>368.89</ele>
        <time>2013-04-14T10:54:50Z</time>
      </trkpt>
      <trkpt lat="46.07194" lon="3.39059">
        <ele>370.15</ele>
        <time>2013-04-14T10:54:57Z</time>
      </trkpt>
      <trkpt lat="46.07193" lon="3.39031">
        <ele>371.22</ele>
        <time>2013-04-14T10:55:02Z</time>
      </trkpt>
      <trkpt lat="46.07189" lon="3.39005">
        <ele>372.75</ele>
        <time>2013-04-14T10:55:08Z</time>
      </trkpt>
      <trkpt lat="46.0719" lon="3.38978">
        <ele>373.94</ele>
        <time>2013-04-14T10:55:13Z</time>
      </trkpt>
      <trkpt lat="46.07191" lon="3.38948">
        <ele>374.41</ele>
        <time>2013-04-14T10:55:18Z</time>
      </trkpt>
      <trkpt lat="46.07191" lon="3.38915">
        <ele>374.96</ele>
        <time>2013-04-14T10:55:24Z</time>
      </trkpt>
      <trkpt lat="46.07189" lon="3.38887">
        <ele>376.03</ele>
        <time>2013-04-14T10:55:30Z</time>
      </trkpt>
      <trkpt lat="46.07191" lon="3.3886">
        <ele>376.9</ele>
        <time>2013-04-14T10:55:36Z</time>
      </trkpt>
      <trkpt lat="46.07192" lon="3.38832">
        <ele>377.44</ele>
        <time>2013-04-14T10:55:42Z</time>
      </trkpt>
      <trkpt lat="46.07193" lon="3.38802">
        <ele>376.71</ele>
        <time>2013-04-14T10:55:48Z</time>
      </trkpt>
      <trkpt lat="46.07208" lon="3.38772">
        <ele>376.59</ele>
        <time>2013-04-14T10:55:53Z</time>
      </trkpt>
      <trkpt lat="46.07223" lon="3.38757">
        <ele>376.57</ele>
        <time>2013-04-14T10:55:56Z</time>
      </trkpt>
      <trkpt lat="46.07243" lon="3.3875">
        <ele>375.73</ele>
        <time>2013-04-14T10:56:02Z</time>
      </trkpt>
      <trkpt lat="46.07264" lon="3.3875">
        <ele>374.76</ele>
        <time>2013-04-14T10:56:09Z</time>
      </trkpt>
      <trkpt lat="46.07283" lon="3.3875">
        <ele>374.59</ele>
        <time>2013-04-14T10:56:15Z</time>
      </trkpt>
      <trkpt lat="46.07301" lon="3.38754">
        <ele>373.74</ele>
        <time>2013-04-14T10:56:21Z</time>
      </trkpt>
      <trkpt lat="46.07321" lon="3.38754">
        <ele>373.59</ele>
        <time>2013-04-14T10:56:27Z</time>
      </trkpt>
      <trkpt lat="46.07341" lon="3.38757">
        <ele>373.81</ele>
        <time>2013-04-14T10:56:33Z</time>
      </trkpt>
      <trkpt lat="46.07359" lon="3.38763">
        <ele>374.42</ele>
        <time>2013-04-14T10:56:39Z</time>
      </trkpt>
      <trkpt lat="46.07378" lon="3.38772">
        <ele>374.54</ele>
        <time>2013-04-14T10:56:47Z</time>
      </trkpt>
      <trkpt lat="46.07398" lon="3.38767">
        <ele>374.55</ele>
        <time>2013-04-14T10:56:53Z</time>
      </trkpt>
      <trkpt lat="46.07419" lon="3.38772">
        <ele>376.25</ele>
        <time>2013-04-14T10:56:58Z</time>
      </trkpt>
      <trkpt lat="46.0744" lon="3.38774">
        <ele>378.07</ele>
        <time>2013-04-14T10:57:03Z</time>
      </trkpt>
      <trkpt lat="46.0746" lon="3.38778">
        <ele>379.96</ele>
        <time>2013-04-14T10:57:08Z</time>
      </trkpt>
      <trkpt lat="46.07481" lon="3.38782">
        <ele>382</ele>
        <time>2013-04-14T10:57:13Z</time>
      </trkpt>
      <trkpt lat="46.07501" lon="3.38784">
        <ele>383.31</ele>
        <time>2013-04-14T10:57:17Z</time>
      </trkpt>
      <trkpt lat="46.07519" lon="3.38791">
        <ele>384.6</ele>
        <time>2013-04-14T10:57:21Z</time>
      </trkpt>
      <trkpt lat="46.07537" lon="3.38795">
        <ele>385.59</ele>
        <time>2013-04-14T10:57:24Z</time>
      </trkpt>
      <trkpt lat="46.07558" lon="3.38797">
        <ele>387.16</ele>
        <time>2013-04-14T10:57:27Z</time>
      </trkpt>
      <trkpt lat="46.07578" lon="3.38804">
        <ele>387.97</ele>
        <time>2013-04-14T10:57:30Z</time>
      </trkpt>
      <trkpt lat="46.07596" lon="3.38808">
        <ele>387.73</ele>
        <time>2013-04-14T10:57:33Z</time>
      </trkpt>
      <trkpt lat="46.07616" lon="3.38814">
        <ele>387.63</ele>
        <time>2013-04-14T10:57:36Z</time>
      </trkpt>
      <trkpt lat="46.07634" lon="3.38817">
        <ele>387.01</ele>
        <time>2013-04-14T10:57:39Z</time>
      </trkpt>
      <trkpt lat="46.07652" lon="3.38823">
        <ele>386.49</ele>
        <time>2013-04-14T10:57:42Z</time>
      </trkpt>
      <trkpt lat="46.07674" lon="3.38832">
        <ele>385.95</ele>
        <time>2013-04-14T10:57:45Z</time>
      </trkpt>
      <trkpt lat="46.07693" lon="3.3884">
        <ele>385.72</ele>
        <time>2013-04-14T10:57:48Z</time>
      </trkpt>
      <trkpt lat="46.07715" lon="3.38849">
        <ele>384</ele>
        <time>2013-04-14T10:57:51Z</time>
      </trkpt>
      <trkpt lat="46.07738" lon="3.38855">
        <ele>378.9</ele>
        <time>2013-04-14T10:57:54Z</time>
      </trkpt>
      <trkpt lat="46.07759" lon="3.3886">
        <ele>373.96</ele>
        <time>2013-04-14T10:57:57Z</time>
      </trkpt>
      <trkpt lat="46.07778" lon="3.38862">
        <ele>370.4</ele>
        <time>2013-04-14T10:58:00Z</time>
      </trkpt>
      <trkpt lat="46.078" lon="3.38866">
        <ele>368.89</ele>
        <time>2013-04-14T10:58:04Z</time>
      </trkpt>
      <trkpt lat="46.07818" lon="3.3887">
        <ele>369.52</ele>
        <time>2013-04-14T10:58:07Z</time>
      </trkpt>
      <trkpt lat="46.07837" lon="3.38872">
        <ele>370.56</ele>
        <time>2013-04-14T10:58:10Z</time>
      </trkpt>
      <trkpt lat="46.07858" lon="3.38879">
        <ele>372.5</ele>
        <time>2013-04-14T10:58:14Z</time>
      </trkpt>
      <trkpt lat="46.07878" lon="3.38885">
        <ele>374.15</ele>
        <time>2013-04-14T10:58:18Z</time>
      </trkpt>
      <trkpt lat="46.07899" lon="3.38887">
        <ele>375.11</ele>
        <time>2013-04-14T10:58:22Z</time>
      </trkpt>
      <trkpt lat="46.07917" lon="3.38892">
        <ele>375.16</ele>
        <time>2013-04-14T10:58:26Z</time>
      </trkpt>
      <trkpt lat="46.07939" lon="3.38894">
        <ele>374.5</ele>
        <time>2013-04-14T10:58:30Z</time>
      </trkpt>
      <trkpt lat="46.0796" lon="3.38896">
        <ele>373.6</ele>
        <time>2013-04-14T10:58:34Z</time>
      </trkpt>
      <trkpt lat="46.07984" lon="3.389">
        <ele>372.88</ele>
        <time>2013-04-14T10:58:38Z</time>
      </trkpt>
      <trkpt lat="46.08005" lon="3.38907">
        <ele>373.34</ele>
        <time>2013-04-14T10:58:42Z</time>
      </trkpt>
      <trkpt lat="46.08025" lon="3.38913">
        <ele>373.49</ele>
        <time>2013-04-14T10:58:46Z</time>
      </trkpt>
      <trkpt lat="46.08047" lon="3.3892">
        <ele>373.53</ele>
        <time>2013-04-14T10:58:50Z</time>
      </trkpt>
      <trkpt lat="46.0807" lon="3.38928">
        <ele>373.55</ele>
        <time>2013-04-14T10:58:54Z</time>
      </trkpt>
      <trkpt lat="46.08089" lon="3.38933">
        <ele>374.13</ele>
        <time>2013-04-14T10:58:57Z</time>
      </trkpt>
      <trkpt lat="46.08107" lon="3.38937">
        <ele>374.37</ele>
        <time>2013-04-14T10:59:00Z</time>
      </trkpt>
      <trkpt lat="46.08125" lon="3.38943">
        <ele>374.23</ele>
        <time>2013-04-14T10:59:03Z</time>
      </trkpt>
      <trkpt lat="46.08145" lon="3.38948">
        <ele>374.09</ele>
        <time>2013-04-14T10:59:06Z</time>
      </trkpt>
      <trkpt lat="46.08165" lon="3.3895">
        <ele>374.36</ele>
        <time>2013-04-14T10:59:09Z</time>
      </trkpt>
      <trkpt lat="46.08189" lon="3.38956">
        <ele>374.93</ele>
        <time>2013-04-14T10:59:13Z</time>
      </trkpt>
      <trkpt lat="46.08208" lon="3.3896">
        <ele>375.87</ele>
        <time>2013-04-14T10:59:16Z</time>
      </trkpt>
      <trkpt lat="46.08229" lon="3.3896">
        <ele>376.01</ele>
        <time>2013-04-14T10:59:19Z</time>
      </trkpt>
      <trkpt lat="46.08251" lon="3.3896">
        <ele>375.06</ele>
        <time>2013-04-14T10:59:22Z</time>
      </trkpt>
      <trkpt lat="46.08271" lon="3.3896">
        <ele>372.92</ele>
        <time>2013-04-14T10:59:25Z</time>
      </trkpt>
      <trkpt lat="46.08289" lon="3.38963">
        <ele>370.54</ele>
        <time>2013-04-14T10:59:28Z</time>
      </trkpt>
      <trkpt lat="46.08309" lon="3.38965">
        <ele>368.56</ele>
        <time>2013-04-14T10:59:31Z</time>
      </trkpt>
      <trkpt lat="46.08332" lon="3.38967">
        <ele>366.61</ele>
        <time>2013-04-14T10:59:35Z</time>
      </trkpt>
      <trkpt lat="46.08351" lon="3.38967">
        <ele>365.56</ele>
        <time>2013-04-14T10:59:38Z</time>
      </trkpt>
      <trkpt lat="46.08373" lon="3.38967">
        <ele>364.43</ele>
        <time>2013-04-14T10:59:42Z</time>
      </trkpt>
      <trkpt lat="46.08391" lon="3.38969">
        <ele>362.66</ele>
        <time>2013-04-14T10:59:45Z</time>
      </trkpt>
      <trkpt lat="46.0841" lon="3.38969">
        <ele>360.86</ele>
        <time>2013-04-14T10:59:48Z</time>
      </trkpt>
      <trkpt lat="46.08428" lon="3.38971">
        <ele>359.53</ele>
        <time>2013-04-14T10:59:51Z</time>
      </trkpt>
      <trkpt lat="46.08447" lon="3.38973">
        <ele>358.96</ele>
        <time>2013-04-14T10:59:54Z</time>
      </trkpt>
      <trkpt lat="46.08471" lon="3.38971">
        <ele>358.68</ele>
        <time>2013-04-14T10:59:58Z</time>
      </trkpt>
      <trkpt lat="46.08494" lon="3.38971">
        <ele>358.59</ele>
        <time>2013-04-14T11:00:02Z</time>
      </trkpt>
      <trkpt lat="46.08513" lon="3.38971">
        <ele>357.99</ele>
        <time>2013-04-14T11:00:05Z</time>
      </trkpt>
      <trkpt lat="46.08535" lon="3.38971">
        <ele>357.25</ele>
        <time>2013-04-14T11:00:09Z</time>
      </trkpt>
      <trkpt lat="46.08549" lon="3.38988">
        <ele>356.09</ele>
        <time>2013-04-14T11:00:13Z</time>
      </trkpt>
      <trkpt lat="46.08562" lon="3.39008">
        <ele>354.79</ele>
        <time>2013-04-14T11:00:17Z</time>
      </trkpt>
      <trkpt lat="46.08579" lon="3.39016">
        <ele>354.32</ele>
        <time>2013-04-14T11:00:20Z</time>
      </trkpt>
      <trkpt lat="46.086" lon="3.39025">
        <ele>354.89</ele>
        <time>2013-04-14T11:00:23Z</time>
      </trkpt>
      <trkpt lat="46.08623" lon="3.39031">
        <ele>354.45</ele>
        <time>2013-04-14T11:00:26Z</time>
      </trkpt>
      <trkpt lat="46.08643" lon="3.3904">
        <ele>353.24</ele>
        <time>2013-04-14T11:00:29Z</time>
      </trkpt>
      <trkpt lat="46.08664" lon="3.39046">
        <ele>352.02</ele>
        <time>2013-04-14T11:00:32Z</time>
      </trkpt>
      <trkpt lat="46.08683" lon="3.39055">
        <ele>350.92</ele>
        <time>2013-04-14T11:00:35Z</time>
      </trkpt>
      <trkpt lat="46.08701" lon="3.39066">
        <ele>350.13</ele>
        <time>2013-04-14T11:00:38Z</time>
      </trkpt>
      <trkpt lat="46.08717" lon="3.39083">
        <ele>349.8</ele>
        <time>2013-04-14T11:00:41Z</time>
      </trkpt>
      <trkpt lat="46.08735" lon="3.39093">
        <ele>349.66</ele>
        <time>2013-04-14T11:00:44Z</time>
      </trkpt>
      <trkpt lat="46.08754" lon="3.391">
        <ele>349.6</ele>
        <time>2013-04-14T11:00:47Z</time>
      </trkpt>
      <trkpt lat="46.08773" lon="3.39106">
        <ele>349.57</ele>
        <time>2013-04-14T11:00:50Z</time>
      </trkpt>
      <trkpt lat="46.08791" lon="3.39111">
        <ele>349.12</ele>
        <time>2013-04-14T11:00:53Z</time>
      </trkpt>
      <trkpt lat="46.0881" lon="3.39108">
        <ele>348.79</ele>
        <time>2013-04-14T11:00:56Z</time>
      </trkpt>
      <trkpt lat="46.08831" lon="3.39104">
        <ele>349.31</ele>
        <time>2013-04-14T11:01:00Z</time>
      </trkpt>
      <trkpt lat="46.08853" lon="3.39102">
        <ele>350.06</ele>
        <time>2013-04-14T11:01:04Z</time>
      </trkpt>
      <trkpt lat="46.08872" lon="3.391">
        <ele>350.58</ele>
        <time>2013-04-14T11:01:08Z</time>
      </trkpt>
      <trkpt lat="46.08893" lon="3.39102">
        <ele>350.56</ele>
        <time>2013-04-14T11:01:12Z</time>
      </trkpt>
      <trkpt lat="46.08916" lon="3.39106">
        <ele>350.56</ele>
        <time>2013-04-14T11:01:16Z</time>
      </trkpt>
      <trkpt lat="46.0894" lon="3.39113">
        <ele>351.13</ele>
        <time>2013-04-14T11:01:20Z</time>
      </trkpt>
      <trkpt lat="46.08957" lon="3.39121">
        <ele>351.13</ele>
        <time>2013-04-14T11:01:23Z</time>
      </trkpt>
      <trkpt lat="46.08977" lon="3.39134">
        <ele>350.73</ele>
        <time>2013-04-14T11:01:27Z</time>
      </trkpt>
      <trkpt lat="46.08993" lon="3.39147">
        <ele>350.63</ele>
        <time>2013-04-14T11:01:30Z</time>
      </trkpt>
      <trkpt lat="46.09011" lon="3.39158">
        <ele>350.59</ele>
        <time>2013-04-14T11:01:33Z</time>
      </trkpt>
      <trkpt lat="46.09029" lon="3.39171">
        <ele>350.57</ele>
        <time>2013-04-14T11:01:36Z</time>
      </trkpt>
      <trkpt lat="46.09046" lon="3.39184">
        <ele>350.56</ele>
        <time>2013-04-14T11:01:39Z</time>
      </trkpt>
      <trkpt lat="46.09062" lon="3.39196">
        <ele>350.12</ele>
        <time>2013-04-14T11:01:42Z</time>
      </trkpt>
      <trkpt lat="46.09077" lon="3.39211">
        <ele>349.79</ele>
        <time>2013-04-14T11:01:45Z</time>
      </trkpt>
      <trkpt lat="46.09084" lon="3.39235">
        <ele>349.65</ele>
        <time>2013-04-14T11:01:48Z</time>
      </trkpt>
      <trkpt lat="46.09087" lon="3.39261">
        <ele>349.6</ele>
        <time>2013-04-14T11:01:51Z</time>
      </trkpt>
      <trkpt lat="46.09089" lon="3.39289">
        <ele>349.57</ele>
        <time>2013-04-14T11:01:54Z</time>
      </trkpt>
      <trkpt lat="46.09091" lon="3.39321">
        <ele>349.56</ele>
        <time>2013-04-14T11:01:58Z</time>
      </trkpt>
      <trkpt lat="46.09093" lon="3.39347">
        <ele>349.55</ele>
        <time>2013-04-14T11:02:02Z</time>
      </trkpt>
      <trkpt lat="46.09099" lon="3.39372">
        <ele>347.94</ele>
        <time>2013-04-14T11:03:51Z</time>
      </trkpt>
      <trkpt lat="46.09095" lon="3.39398">
        <ele>345.29</ele>
        <time>2013-04-14T11:03:55Z</time>
      </trkpt>
      <trkpt lat="46.09094" lon="3.39428">
        <ele>343.52</ele>
        <time>2013-04-14T11:03:59Z</time>
      </trkpt>
      <trkpt lat="46.09094" lon="3.39463">
        <ele>343.11</ele>
        <time>2013-04-14T11:04:03Z</time>
      </trkpt>
      <trkpt lat="46.09093" lon="3.3949">
        <ele>343.8</ele>
        <time>2013-04-14T11:04:06Z</time>
      </trkpt>
      <trkpt lat="46.09094" lon="3.3952">
        <ele>344.82</ele>
        <time>2013-04-14T11:04:09Z</time>
      </trkpt>
      <trkpt lat="46.09094" lon="3.39553">
        <ele>345.49</ele>
        <time>2013-04-14T11:04:12Z</time>
      </trkpt>
      <trkpt lat="46.09095" lon="3.39583">
        <ele>346.11</ele>
        <time>2013-04-14T11:04:15Z</time>
      </trkpt>
      <trkpt lat="46.09095" lon="3.39611">
        <ele>345.93</ele>
        <time>2013-04-14T11:04:18Z</time>
      </trkpt>
      <trkpt lat="46.09096" lon="3.39638">
        <ele>345.46</ele>
        <time>2013-04-14T11:04:21Z</time>
      </trkpt>
      <trkpt lat="46.09102" lon="3.39664">
        <ele>344.71</ele>
        <time>2013-04-14T11:04:27Z</time>
      </trkpt>
      <trkpt lat="46.0911" lon="3.39688">
        <ele>344.58</ele>
        <time>2013-04-14T11:04:33Z</time>
      </trkpt>
      <trkpt lat="46.09115" lon="3.39714">
        <ele>344.56</ele>
        <time>2013-04-14T11:04:37Z</time>
      </trkpt>
      <trkpt lat="46.0912" lon="3.39741">
        <ele>344.74</ele>
        <time>2013-04-14T11:04:41Z</time>
      </trkpt>
      <trkpt lat="46.09124" lon="3.39772">
        <ele>344.61</ele>
        <time>2013-04-14T11:04:45Z</time>
      </trkpt>
      <trkpt lat="46.09127" lon="3.39802">
        <ele>344.57</ele>
        <time>2013-04-14T11:04:49Z</time>
      </trkpt>
      <trkpt lat="46.09131" lon="3.39827">
        <ele>344.56</ele>
        <time>2013-04-14T11:04:52Z</time>
      </trkpt>
      <trkpt lat="46.09134" lon="3.39853">
        <ele>344.56</ele>
        <time>2013-04-14T11:04:55Z</time>
      </trkpt>
      <trkpt lat="46.09134" lon="3.39881">
        <ele>344.3</ele>
        <time>2013-04-14T11:04:58Z</time>
      </trkpt>
      <trkpt lat="46.09129" lon="3.39907">
        <ele>343.87</ele>
        <time>2013-04-14T11:05:01Z</time>
      </trkpt>
      <trkpt lat="46.09133" lon="3.39935">
        <ele>343.65</ele>
        <time>2013-04-14T11:05:05Z</time>
      </trkpt>
      <trkpt lat="46.09141" lon="3.39962">
        <ele>343.58</ele>
        <time>2013-04-14T11:05:09Z</time>
      </trkpt>
      <trkpt lat="46.09159" lon="3.39967">
        <ele>344.25</ele>
        <time>2013-04-14T11:05:13Z</time>
      </trkpt>
      <trkpt lat="46.09182" lon="3.39956">
        <ele>344.46</ele>
        <time>2013-04-14T11:05:17Z</time>
      </trkpt>
      <trkpt lat="46.09203" lon="3.39943">
        <ele>344.27</ele>
        <time>2013-04-14T11:05:20Z</time>
      </trkpt>
      <trkpt lat="46.09222" lon="3.39932">
        <ele>343.86</ele>
        <time>2013-04-14T11:05:23Z</time>
      </trkpt>
      <trkpt lat="46.09239" lon="3.39922">
        <ele>343.68</ele>
        <time>2013-04-14T11:05:26Z</time>
      </trkpt>
      <trkpt lat="46.09247" lon="3.39898">
        <ele>343.61</ele>
        <time>2013-04-14T11:05:29Z</time>
      </trkpt>
      <trkpt lat="46.09256" lon="3.39875">
        <ele>343.58</ele>
        <time>2013-04-14T11:05:32Z</time>
      </trkpt>
      <trkpt lat="46.09272" lon="3.39849">
        <ele>343.56</ele>
        <time>2013-04-14T11:05:36Z</time>
      </trkpt>
      <trkpt lat="46.09288" lon="3.39825">
        <ele>343.99</ele>
        <time>2013-04-14T11:05:40Z</time>
      </trkpt>
      <trkpt lat="46.09306" lon="3.39804">
        <ele>344.38</ele>
        <time>2013-04-14T11:05:44Z</time>
      </trkpt>
      <trkpt lat="46.09327" lon="3.39789">
        <ele>343.23</ele>
        <time>2013-04-14T11:05:48Z</time>
      </trkpt>
      <trkpt lat="46.09347" lon="3.39774">
        <ele>340.38</ele>
        <time>2013-04-14T11:05:52Z</time>
      </trkpt>
      <trkpt lat="46.09363" lon="3.39759">
        <ele>338.75</ele>
        <time>2013-04-14T11:05:55Z</time>
      </trkpt>
      <trkpt lat="46.09378" lon="3.39744">
        <ele>337.48</ele>
        <time>2013-04-14T11:05:58Z</time>
      </trkpt>
      <trkpt lat="46.09394" lon="3.39731">
        <ele>336.51</ele>
        <time>2013-04-14T11:06:01Z</time>
      </trkpt>
      <trkpt lat="46.09416" lon="3.39716">
        <ele>335.85</ele>
        <time>2013-04-14T11:06:05Z</time>
      </trkpt>
      <trkpt lat="46.09437" lon="3.39703">
        <ele>335.65</ele>
        <time>2013-04-14T11:06:09Z</time>
      </trkpt>
      <trkpt lat="46.0946" lon="3.39692">
        <ele>335.58</ele>
        <time>2013-04-14T11:06:13Z</time>
      </trkpt>
      <trkpt lat="46.0948" lon="3.39679">
        <ele>335.56</ele>
        <time>2013-04-14T11:06:17Z</time>
      </trkpt>
      <trkpt lat="46.09491" lon="3.39653">
        <ele>335.56</ele>
        <time>2013-04-14T11:06:22Z</time>
      </trkpt>
      <trkpt lat="46.09511" lon="3.39664">
        <ele>335.8</ele>
        <time>2013-04-14T11:06:28Z</time>
      </trkpt>
      <trkpt lat="46.09525" lon="3.39686">
        <ele>336.32</ele>
        <time>2013-04-14T11:06:32Z</time>
      </trkpt>
      <trkpt lat="46.0954" lon="3.39714">
        <ele>336.48</ele>
        <time>2013-04-14T11:06:36Z</time>
      </trkpt>
      <trkpt lat="46.09553" lon="3.39735">
        <ele>336.52</ele>
        <time>2013-04-14T11:06:39Z</time>
      </trkpt>
      <trkpt lat="46.09566" lon="3.39756">
        <ele>336.54</ele>
        <time>2013-04-14T11:06:42Z</time>
      </trkpt>
      <trkpt lat="46.09582" lon="3.39772">
        <ele>335.97</ele>
        <time>2013-04-14T11:06:46Z</time>
      </trkpt>
      <trkpt lat="46.09599" lon="3.39756">
        <ele>335.69</ele>
        <time>2013-04-14T11:06:50Z</time>
      </trkpt>
      <trkpt lat="46.0962" lon="3.39754">
        <ele>335.59</ele>
        <time>2013-04-14T11:06:54Z</time>
      </trkpt>
      <trkpt lat="46.09642" lon="3.39759">
        <ele>335.57</ele>
        <time>2013-04-14T11:06:58Z</time>
      </trkpt>
      <trkpt lat="46.09661" lon="3.39763">
        <ele>335.56</ele>
        <time>2013-04-14T11:07:01Z</time>
      </trkpt>
      <trkpt lat="46.09679" lon="3.39765">
        <ele>335.56</ele>
        <time>2013-04-14T11:07:04Z</time>
      </trkpt>
      <trkpt lat="46.097" lon="3.39761">
        <ele>335.55</ele>
        <time>2013-04-14T11:07:08Z</time>
      </trkpt>
      <trkpt lat="46.0972" lon="3.39765">
        <ele>335.3</ele>
        <time>2013-04-14T11:07:12Z</time>
      </trkpt>
      <trkpt lat="46.09736" lon="3.39782">
        <ele>334.87</ele>
        <time>2013-04-14T11:07:15Z</time>
      </trkpt>
      <trkpt lat="46.09752" lon="3.39795">
        <ele>334.94</ele>
        <time>2013-04-14T11:07:18Z</time>
      </trkpt>
      <trkpt lat="46.09769" lon="3.39808">
        <ele>335.04</ele>
        <time>2013-04-14T11:07:21Z</time>
      </trkpt>
      <trkpt lat="46.09789" lon="3.39817">
        <ele>334.76</ele>
        <time>2013-04-14T11:07:24Z</time>
      </trkpt>
      <trkpt lat="46.09809" lon="3.39814">
        <ele>334.2</ele>
        <time>2013-04-14T11:07:27Z</time>
      </trkpt>
      <trkpt lat="46.09827" lon="3.39812">
        <ele>333.83</ele>
        <time>2013-04-14T11:07:30Z</time>
      </trkpt>
      <trkpt lat="46.09846" lon="3.3981">
        <ele>333.67</ele>
        <time>2013-04-14T11:07:33Z</time>
      </trkpt>
      <trkpt lat="46.09865" lon="3.39806">
        <ele>333.6</ele>
        <time>2013-04-14T11:07:36Z</time>
      </trkpt>
      <trkpt lat="46.09889" lon="3.39802">
        <ele>333.39</ele>
        <time>2013-04-14T11:07:39Z</time>
      </trkpt>
      <trkpt lat="46.09914" lon="3.39795">
        <ele>333.48</ele>
        <time>2013-04-14T11:07:42Z</time>
      </trkpt>
      <trkpt lat="46.09933" lon="3.39789">
        <ele>333.26</ele>
        <time>2013-04-14T11:07:44Z</time>
      </trkpt>
      <trkpt lat="46.09952" lon="3.3978">
        <ele>332.95</ele>
        <time>2013-04-14T11:07:46Z</time>
      </trkpt>
      <trkpt lat="46.09972" lon="3.39769">
        <ele>332.78</ele>
        <time>2013-04-14T11:07:48Z</time>
      </trkpt>
      <trkpt lat="46.09992" lon="3.39759">
        <ele>332.43</ele>
        <time>2013-04-14T11:07:50Z</time>
      </trkpt>
      <trkpt lat="46.10012" lon="3.39748">
        <ele>331.8</ele>
        <time>2013-04-14T11:07:52Z</time>
      </trkpt>
      <trkpt lat="46.10033" lon="3.39739">
        <ele>331</ele>
        <time>2013-04-14T11:07:54Z</time>
      </trkpt>
      <trkpt lat="46.10054" lon="3.39733">
        <ele>330.12</ele>
        <time>2013-04-14T11:07:56Z</time>
      </trkpt>
      <trkpt lat="46.10078" lon="3.39726">
        <ele>329.18</ele>
        <time>2013-04-14T11:07:58Z</time>
      </trkpt>
      <trkpt lat="46.101" lon="3.3972">
        <ele>328.47</ele>
        <time>2013-04-14T11:08:00Z</time>
      </trkpt>
      <trkpt lat="46.10125" lon="3.39718">
        <ele>328.07</ele>
        <time>2013-04-14T11:08:02Z</time>
      </trkpt>
      <trkpt lat="46.10152" lon="3.39714">
        <ele>327.59</ele>
        <time>2013-04-14T11:08:04Z</time>
      </trkpt>
      <trkpt lat="46.10182" lon="3.39711">
        <ele>325.76</ele>
        <time>2013-04-14T11:08:06Z</time>
      </trkpt>
      <trkpt lat="46.10209" lon="3.39709">
        <ele>322.73</ele>
        <time>2013-04-14T11:08:08Z</time>
      </trkpt>
      <trkpt lat="46.10229" lon="3.39707">
        <ele>318.65</ele>
        <time>2013-04-14T11:08:10Z</time>
      </trkpt>
      <trkpt lat="46.10243" lon="3.39686">
        <ele>311</ele>
        <time>2013-04-14T11:08:13Z</time>
      </trkpt>
      <trkpt lat="46.10245" lon="3.3966">
        <ele>304.85</ele>
        <time>2013-04-14T11:08:16Z</time>
      </trkpt>
      <trkpt lat="46.10242" lon="3.3963">
        <ele>299.97</ele>
        <time>2013-04-14T11:08:20Z</time>
      </trkpt>
      <trkpt lat="46.10237" lon="3.39604">
        <ele>293.03</ele>
        <time>2013-04-14T11:08:25Z</time>
      </trkpt>
      <trkpt lat="46.1023" lon="3.39578">
        <ele>286.65</ele>
        <time>2013-04-14T11:08:29Z</time>
      </trkpt>
      <trkpt lat="46.10224" lon="3.39553">
        <ele>282.34</ele>
        <time>2013-04-14T11:08:33Z</time>
      </trkpt>
      <trkpt lat="46.1021" lon="3.39535">
        <ele>279.86</ele>
        <time>2013-04-14T11:08:37Z</time>
      </trkpt>
      <trkpt lat="46.10196" lon="3.39518">
        <ele>279.54</ele>
        <time>2013-04-14T11:08:41Z</time>
      </trkpt>
      <trkpt lat="46.10185" lon="3.39493">
        <ele>279.8</ele>
        <time>2013-04-14T11:08:45Z</time>
      </trkpt>
      <trkpt lat="46.10178" lon="3.39465">
        <ele>279.63</ele>
        <time>2013-04-14T11:08:49Z</time>
      </trkpt>
      <trkpt lat="46.10171" lon="3.39439">
        <ele>279.58</ele>
        <time>2013-04-14T11:08:53Z</time>
      </trkpt>
      <trkpt lat="46.10163" lon="3.39409">
        <ele>279.56</ele>
        <time>2013-04-14T11:08:58Z</time>
      </trkpt>
      <trkpt lat="46.10174" lon="3.39381">
        <ele>279.55</ele>
        <time>2013-04-14T11:09:03Z</time>
      </trkpt>
      <trkpt lat="46.10188" lon="3.39362">
        <ele>278.98</ele>
        <time>2013-04-14T11:09:06Z</time>
      </trkpt>
      <trkpt lat="46.102" lon="3.39334">
        <ele>278.73</ele>
        <time>2013-04-14T11:09:09Z</time>
      </trkpt>
      <trkpt lat="46.10207" lon="3.39306">
        <ele>278.63</ele>
        <time>2013-04-14T11:09:12Z</time>
      </trkpt>
      <trkpt lat="46.10209" lon="3.39278">
        <ele>277.75</ele>
        <time>2013-04-14T11:09:16Z</time>
      </trkpt>
      <trkpt lat="46.10221" lon="3.39254">
        <ele>276.4</ele>
        <time>2013-04-14T11:09:21Z</time>
      </trkpt>
      <trkpt lat="46.10234" lon="3.39272">
        <ele>275.82</ele>
        <time>2013-04-14T11:09:25Z</time>
      </trkpt>
      <trkpt lat="46.1025" lon="3.39287">
        <ele>274.84</ele>
        <time>2013-04-14T11:09:31Z</time>
      </trkpt>
      <trkpt lat="46.1024" lon="3.39263">
        <ele>275.46</ele>
        <time>2013-04-14T11:09:38Z</time>
      </trkpt>
      <trkpt lat="46.10227" lon="3.39239">
        <ele>276.22</ele>
        <time>2013-04-14T11:09:44Z</time>
      </trkpt>
      <trkpt lat="46.10214" lon="3.39218">
        <ele>276.49</ele>
        <time>2013-04-14T11:09:50Z</time>
      </trkpt>
      <trkpt lat="46.10199" lon="3.39196">
        <ele>277.36</ele>
        <time>2013-04-14T11:09:56Z</time>
      </trkpt>
      <trkpt lat="46.10187" lon="3.39175">
        <ele>278.77</ele>
        <time>2013-04-14T11:10:01Z</time>
      </trkpt>
      <trkpt lat="46.10173" lon="3.39149">
        <ele>282.16</ele>
        <time>2013-04-14T11:10:06Z</time>
      </trkpt>
      <trkpt lat="46.10163" lon="3.39126">
        <ele>283.69</ele>
        <time>2013-04-14T11:10:10Z</time>
      </trkpt>
      <trkpt lat="46.10153" lon="3.391">
        <ele>283.84</ele>
        <time>2013-04-14T11:10:14Z</time>
      </trkpt>
      <trkpt lat="46.10144" lon="3.39072">
        <ele>283.64</ele>
        <time>2013-04-14T11:10:18Z</time>
      </trkpt>
      <trkpt lat="46.10138" lon="3.39042">
        <ele>283.83</ele>
        <time>2013-04-14T11:10:22Z</time>
      </trkpt>
      <trkpt lat="46.10135" lon="3.39014">
        <ele>284.32</ele>
        <time>2013-04-14T11:10:26Z</time>
      </trkpt>
      <trkpt lat="46.10133" lon="3.38982">
        <ele>283.8</ele>
        <time>2013-04-14T11:10:30Z</time>
      </trkpt>
      <trkpt lat="46.10132" lon="3.38952">
        <ele>283.05</ele>
        <time>2013-04-14T11:10:34Z</time>
      </trkpt>
      <trkpt lat="46.1013" lon="3.3892">
        <ele>282.27</ele>
        <time>2013-04-14T11:10:38Z</time>
      </trkpt>
      <trkpt lat="46.10134" lon="3.38892">
        <ele>281.34</ele>
        <time>2013-04-14T11:10:42Z</time>
      </trkpt>
      <trkpt lat="46.10154" lon="3.38881">
        <ele>280.69</ele>
        <time>2013-04-14T11:10:48Z</time>
      </trkpt>
      <trkpt lat="46.10173" lon="3.38885">
        <ele>279.76</ele>
        <time>2013-04-14T11:10:54Z</time>
      </trkpt>
      <trkpt lat="46.10193" lon="3.38887">
        <ele>279.57</ele>
        <time>2013-04-14T11:11:03Z</time>
      </trkpt>
      <trkpt lat="46.10212" lon="3.38887">
        <ele>279.55</ele>
        <time>2013-04-14T11:11:12Z</time>
      </trkpt>
      <trkpt lat="46.10231" lon="3.3889">
        <ele>279.99</ele>
        <time>2013-04-14T11:11:21Z</time>
      </trkpt>
      <trkpt lat="46.10246" lon="3.38905">
        <ele>281.24</ele>
        <time>2013-04-14T11:11:40Z</time>
      </trkpt>
      <trkpt lat="46.10254" lon="3.38928">
        <ele>284.17</ele>
        <time>2013-04-14T11:11:56Z</time>
      </trkpt>
      <trkpt lat="46.10257" lon="3.38954">
        <ele>286.06</ele>
        <time>2013-04-14T11:12:08Z</time>
      </trkpt>
      <trkpt lat="46.10258" lon="3.38982">
        <ele>288.04</ele>
        <time>2013-04-14T11:12:21Z</time>
      </trkpt>
      <trkpt lat="46.10258" lon="3.3901">
        <ele>290.2</ele>
        <time>2013-04-14T11:12:37Z</time>
      </trkpt>
      <trkpt lat="46.10259" lon="3.39038">
        <ele>292.86</ele>
        <time>2013-04-14T11:12:51Z</time>
      </trkpt>
      <trkpt lat="46.1027" lon="3.39059">
        <ele>295.39</ele>
        <time>2013-04-14T11:13:07Z</time>
      </trkpt>
      <trkpt lat="46.10284" lon="3.39076">
        <ele>300.02</ele>
        <time>2013-04-14T11:13:53Z</time>
      </trkpt>
      <trkpt lat="46.10301" lon="3.39087">
        <ele>304.73</ele>
        <time>2013-04-14T11:14:11Z</time>
      </trkpt>
      <trkpt lat="46.10319" lon="3.39089">
        <ele>309.13</ele>
        <time>2013-04-14T11:14:30Z</time>
      </trkpt>
      <trkpt lat="46.10337" lon="3.39089">
        <ele>313.75</ele>
        <time>2013-04-14T11:14:51Z</time>
      </trkpt>
      <trkpt lat="46.10356" lon="3.39091">
        <ele>317.24</ele>
        <time>2013-04-14T11:15:08Z</time>
      </trkpt>
      <trkpt lat="46.10374" lon="3.39087">
        <ele>321.02</ele>
        <time>2013-04-14T11:15:23Z</time>
      </trkpt>
      <trkpt lat="46.10392" lon="3.39089">
        <ele>323.88</ele>
        <time>2013-04-14T11:15:36Z</time>
      </trkpt>
      <trkpt lat="46.10409" lon="3.39098">
        <ele>325.15</ele>
        <time>2013-04-14T11:15:43Z</time>
      </trkpt>
      <trkpt lat="46.1042" lon="3.39119">
        <ele>326.55</ele>
        <time>2013-04-14T11:15:47Z</time>
      </trkpt>
      <trkpt lat="46.10427" lon="3.39145">
        <ele>329.04</ele>
        <time>2013-04-14T11:15:51Z</time>
      </trkpt>
      <trkpt lat="46.10434" lon="3.39171">
        <ele>330.07</ele>
        <time>2013-04-14T11:15:55Z</time>
      </trkpt>
      <trkpt lat="46.10448" lon="3.39194">
        <ele>330.15</ele>
        <time>2013-04-14T11:15:59Z</time>
      </trkpt>
      <trkpt lat="46.10467" lon="3.39209">
        <ele>329.3</ele>
        <time>2013-04-14T11:16:03Z</time>
      </trkpt>
      <trkpt lat="46.1049" lon="3.39222">
        <ele>328.11</ele>
        <time>2013-04-14T11:16:07Z</time>
      </trkpt>
      <trkpt lat="46.10507" lon="3.39233">
        <ele>327.21</ele>
        <time>2013-04-14T11:16:10Z</time>
      </trkpt>
      <trkpt lat="46.10528" lon="3.39246">
        <ele>326.51</ele>
        <time>2013-04-14T11:16:14Z</time>
      </trkpt>
      <trkpt lat="46.10548" lon="3.39257">
        <ele>325.86</ele>
        <time>2013-04-14T11:16:18Z</time>
      </trkpt>
      <trkpt lat="46.10564" lon="3.39269">
        <ele>325.07</ele>
        <time>2013-04-14T11:16:22Z</time>
      </trkpt>
      <trkpt lat="46.10576" lon="3.39293">
        <ele>324.72</ele>
        <time>2013-04-14T11:16:26Z</time>
      </trkpt>
      <trkpt lat="46.10577" lon="3.39321">
        <ele>324.62</ele>
        <time>2013-04-14T11:16:29Z</time>
      </trkpt>
      <trkpt lat="46.10575" lon="3.39347">
        <ele>324.58</ele>
        <time>2013-04-14T11:16:32Z</time>
      </trkpt>
      <trkpt lat="46.10584" lon="3.39375">
        <ele>324.56</ele>
        <time>2013-04-14T11:16:36Z</time>
      </trkpt>
      <trkpt lat="46.10605" lon="3.3939">
        <ele>324.56</ele>
        <time>2013-04-14T11:16:39Z</time>
      </trkpt>
      <trkpt lat="46.10628" lon="3.394">
        <ele>324.3</ele>
        <time>2013-04-14T11:16:42Z</time>
      </trkpt>
      <trkpt lat="46.10651" lon="3.39409">
        <ele>323.43</ele>
        <time>2013-04-14T11:16:45Z</time>
      </trkpt>
      <trkpt lat="46.1067" lon="3.39415">
        <ele>322.67</ele>
        <time>2013-04-14T11:16:48Z</time>
      </trkpt>
      <trkpt lat="46.10688" lon="3.39426">
        <ele>321.91</ele>
        <time>2013-04-14T11:16:52Z</time>
      </trkpt>
      <trkpt lat="46.10702" lon="3.39445">
        <ele>321.67</ele>
        <time>2013-04-14T11:16:56Z</time>
      </trkpt>
      <trkpt lat="46.10723" lon="3.39456">
        <ele>322.95</ele>
        <time>2013-04-14T11:17:01Z</time>
      </trkpt>
      <trkpt lat="46.10743" lon="3.39454">
        <ele>326.06</ele>
        <time>2013-04-14T11:17:06Z</time>
      </trkpt>
      <trkpt lat="46.10754" lon="3.3943">
        <ele>327.35</ele>
        <time>2013-04-14T11:17:13Z</time>
      </trkpt>
      <trkpt lat="46.10756" lon="3.39402">
        <ele>326.94</ele>
        <time>2013-04-14T11:17:19Z</time>
      </trkpt>
      <trkpt lat="46.1076" lon="3.39375">
        <ele>326.07</ele>
        <time>2013-04-14T11:17:24Z</time>
      </trkpt>
      <trkpt lat="46.10778" lon="3.39366">
        <ele>325.67</ele>
        <time>2013-04-14T11:17:29Z</time>
      </trkpt>
      <trkpt lat="46.108" lon="3.39364">
        <ele>324.82</ele>
        <time>2013-04-14T11:17:34Z</time>
      </trkpt>
      <trkpt lat="46.10821" lon="3.39364">
        <ele>324.64</ele>
        <time>2013-04-14T11:17:38Z</time>
      </trkpt>
      <trkpt lat="46.10844" lon="3.39362">
        <ele>325.16</ele>
        <time>2013-04-14T11:17:42Z</time>
      </trkpt>
      <trkpt lat="46.10862" lon="3.39362">
        <ele>325.39</ele>
        <time>2013-04-14T11:17:45Z</time>
      </trkpt>
      <trkpt lat="46.1088" lon="3.3936">
        <ele>325.23</ele>
        <time>2013-04-14T11:17:48Z</time>
      </trkpt>
      <trkpt lat="46.10899" lon="3.39357">
        <ele>324.84</ele>
        <time>2013-04-14T11:17:51Z</time>
      </trkpt>
      <trkpt lat="46.10919" lon="3.39355">
        <ele>324.67</ele>
        <time>2013-04-14T11:17:54Z</time>
      </trkpt>
      <trkpt lat="46.10938" lon="3.39355">
        <ele>324.6</ele>
        <time>2013-04-14T11:17:57Z</time>
      </trkpt>
      <trkpt lat="46.10958" lon="3.39353">
        <ele>324.57</ele>
        <time>2013-04-14T11:18:00Z</time>
      </trkpt>
      <trkpt lat="46.10977" lon="3.39347">
        <ele>324.56</ele>
        <time>2013-04-14T11:18:03Z</time>
      </trkpt>
      <trkpt lat="46.10996" lon="3.39338">
        <ele>324.99</ele>
        <time>2013-04-14T11:18:06Z</time>
      </trkpt>
      <trkpt lat="46.11016" lon="3.39327">
        <ele>325.32</ele>
        <time>2013-04-14T11:18:09Z</time>
      </trkpt>
      <trkpt lat="46.11037" lon="3.39314">
        <ele>325.48</ele>
        <time>2013-04-14T11:18:13Z</time>
      </trkpt>
      <trkpt lat="46.11053" lon="3.39302">
        <ele>325.52</ele>
        <time>2013-04-14T11:18:16Z</time>
      </trkpt>
      <trkpt lat="46.11073" lon="3.39287">
        <ele>325.29</ele>
        <time>2013-04-14T11:18:20Z</time>
      </trkpt>
      <trkpt lat="46.11093" lon="3.39272">
        <ele>324.79</ele>
        <time>2013-04-14T11:18:24Z</time>
      </trkpt>
      <trkpt lat="46.11114" lon="3.39261">
        <ele>324.63</ele>
        <time>2013-04-14T11:18:28Z</time>
      </trkpt>
      <trkpt lat="46.11137" lon="3.39257">
        <ele>324.58</ele>
        <time>2013-04-14T11:18:32Z</time>
      </trkpt>
      <trkpt lat="46.11155" lon="3.39263">
        <ele>324.56</ele>
        <time>2013-04-14T11:18:35Z</time>
      </trkpt>
      <trkpt lat="46.11178" lon="3.39267">
        <ele>324.56</ele>
        <time>2013-04-14T11:18:39Z</time>
      </trkpt>
      <trkpt lat="46.11199" lon="3.39272">
        <ele>324.55</ele>
        <time>2013-04-14T11:18:43Z</time>
      </trkpt>
      <trkpt lat="46.1122" lon="3.39272">
        <ele>324.23</ele>
        <time>2013-04-14T11:18:47Z</time>
      </trkpt>
      <trkpt lat="46.11243" lon="3.39274">
        <ele>324.7</ele>
        <time>2013-04-14T11:18:51Z</time>
      </trkpt>
      <trkpt lat="46.11263" lon="3.39272">
        <ele>325.28</ele>
        <time>2013-04-14T11:18:55Z</time>
      </trkpt>
      <trkpt lat="46.11281" lon="3.39282">
        <ele>324.78</ele>
        <time>2013-04-14T11:18:59Z</time>
      </trkpt>
      <trkpt lat="46.11286" lon="3.39317">
        <ele>324.63</ele>
        <time>2013-04-14T11:19:03Z</time>
      </trkpt>
      <trkpt lat="46.1129" lon="3.39349">
        <ele>324.58</ele>
        <time>2013-04-14T11:19:06Z</time>
      </trkpt>
      <trkpt lat="46.11293" lon="3.39381">
        <ele>324.57</ele>
        <time>2013-04-14T11:19:09Z</time>
      </trkpt>
      <trkpt lat="46.11299" lon="3.39413">
        <ele>324.56</ele>
        <time>2013-04-14T11:19:12Z</time>
      </trkpt>
      <trkpt lat="46.1131" lon="3.39439">
        <ele>324.74</ele>
        <time>2013-04-14T11:19:15Z</time>
      </trkpt>
      <trkpt lat="46.11305" lon="3.39465">
        <ele>324.57</ele>
        <time>2013-04-14T11:19:23Z</time>
      </trkpt>
      <trkpt lat="46.11288" lon="3.39482">
        <ele>324.56</ele>
        <time>2013-04-14T11:19:30Z</time>
      </trkpt>
      <trkpt lat="46.11277" lon="3.39503">
        <ele>325.13</ele>
        <time>2013-04-14T11:19:34Z</time>
      </trkpt>
      <trkpt lat="46.11261" lon="3.39516">
        <ele>325.67</ele>
        <time>2013-04-14T11:19:38Z</time>
      </trkpt>
      <trkpt lat="46.11243" lon="3.39508">
        <ele>326.85</ele>
        <time>2013-04-14T11:19:43Z</time>
      </trkpt>
      <trkpt lat="46.11225" lon="3.39495">
        <ele>327.46</ele>
        <time>2013-04-14T11:19:50Z</time>
      </trkpt>
      <trkpt lat="46.11209" lon="3.39478">
        <ele>328.45</ele>
        <time>2013-04-14T11:20:01Z</time>
      </trkpt>
      <trkpt lat="46.11193" lon="3.39458">
        <ele>329.55</ele>
        <time>2013-04-14T11:20:07Z</time>
      </trkpt>
      <trkpt lat="46.1118" lon="3.39439">
        <ele>330.31</ele>
        <time>2013-04-14T11:20:12Z</time>
      </trkpt>
      <trkpt lat="46.11164" lon="3.39417">
        <ele>331.26</ele>
        <time>2013-04-14T11:20:17Z</time>
      </trkpt>
      <trkpt lat="46.11149" lon="3.39396">
        <ele>332.25</ele>
        <time>2013-04-14T11:20:22Z</time>
      </trkpt>
      <trkpt lat="46.11133" lon="3.39383">
        <ele>332.52</ele>
        <time>2013-04-14T11:20:30Z</time>
      </trkpt>
      <trkpt lat="46.11143" lon="3.39411">
        <ele>328.75</ele>
        <time>2013-04-14T11:20:37Z</time>
      </trkpt>
      <trkpt lat="46.11148" lon="3.39439">
        <ele>326.13</ele>
        <time>2013-04-14T11:20:41Z</time>
      </trkpt>
      <trkpt lat="46.11143" lon="3.39467">
        <ele>323.93</ele>
        <time>2013-04-14T11:20:45Z</time>
      </trkpt>
      <trkpt lat="46.11144" lon="3.39499">
        <ele>322.2</ele>
        <time>2013-04-14T11:20:50Z</time>
      </trkpt>
      <trkpt lat="46.1115" lon="3.39533">
        <ele>321.76</ele>
        <time>2013-04-14T11:20:54Z</time>
      </trkpt>
      <trkpt lat="46.11144" lon="3.39561">
        <ele>321.2</ele>
        <time>2013-04-14T11:20:57Z</time>
      </trkpt>
      <trkpt lat="46.11127" lon="3.39587">
        <ele>320.18</ele>
        <time>2013-04-14T11:21:01Z</time>
      </trkpt>
      <trkpt lat="46.11111" lon="3.39608">
        <ele>318.94</ele>
        <time>2013-04-14T11:21:06Z</time>
      </trkpt>
      <trkpt lat="46.11093" lon="3.39628">
        <ele>318.1</ele>
        <time>2013-04-14T11:21:10Z</time>
      </trkpt>
      <trkpt lat="46.11072" lon="3.39645">
        <ele>318.36</ele>
        <time>2013-04-14T11:21:13Z</time>
      </trkpt>
      <trkpt lat="46.11051" lon="3.3966">
        <ele>318.47</ele>
        <time>2013-04-14T11:21:16Z</time>
      </trkpt>
      <trkpt lat="46.11038" lon="3.39681">
        <ele>318.52</ele>
        <time>2013-04-14T11:21:19Z</time>
      </trkpt>
      <trkpt lat="46.11032" lon="3.39707">
        <ele>318.1</ele>
        <time>2013-04-14T11:21:22Z</time>
      </trkpt>
      <trkpt lat="46.11028" lon="3.39737">
        <ele>316.03</ele>
        <time>2013-04-14T11:21:26Z</time>
      </trkpt>
      <trkpt lat="46.11026" lon="3.39765">
        <ele>313.65</ele>
        <time>2013-04-14T11:21:30Z</time>
      </trkpt>
      <trkpt lat="46.11022" lon="3.39795">
        <ele>310.12</ele>
        <time>2013-04-14T11:21:34Z</time>
      </trkpt>
      <trkpt lat="46.11018" lon="3.39823">
        <ele>304.47</ele>
        <time>2013-04-14T11:21:38Z</time>
      </trkpt>
      <trkpt lat="46.11012" lon="3.39849">
        <ele>300.8</ele>
        <time>2013-04-14T11:21:43Z</time>
      </trkpt>
      <trkpt lat="46.1101" lon="3.39875">
        <ele>299.77</ele>
        <time>2013-04-14T11:21:49Z</time>
      </trkpt>
      <trkpt lat="46.11012" lon="3.39902">
        <ele>299.03</ele>
        <time>2013-04-14T11:21:54Z</time>
      </trkpt>
      <trkpt lat="46.11017" lon="3.39928">
        <ele>297.9</ele>
        <time>2013-04-14T11:21:59Z</time>
      </trkpt>
      <trkpt lat="46.11025" lon="3.39954">
        <ele>297.6</ele>
        <time>2013-04-14T11:22:06Z</time>
      </trkpt>
      <trkpt lat="46.11033" lon="3.39984">
        <ele>297.56</ele>
        <time>2013-04-14T11:22:12Z</time>
      </trkpt>
      <trkpt lat="46.11038" lon="3.4001">
        <ele>297.45</ele>
        <time>2013-04-14T11:22:16Z</time>
      </trkpt>
      <trkpt lat="46.11037" lon="3.4004">
        <ele>298.1</ele>
        <time>2013-04-14T11:22:20Z</time>
      </trkpt>
      <trkpt lat="46.11039" lon="3.40068">
        <ele>298.41</ele>
        <time>2013-04-14T11:22:24Z</time>
      </trkpt>
      <trkpt lat="46.11045" lon="3.40096">
        <ele>298.09</ele>
        <time>2013-04-14T11:22:30Z</time>
      </trkpt>
      <trkpt lat="46.11051" lon="3.40121">
        <ele>297.72</ele>
        <time>2013-04-14T11:22:34Z</time>
      </trkpt>
      <trkpt lat="46.11057" lon="3.40149">
        <ele>296.58</ele>
        <time>2013-04-14T11:22:39Z</time>
      </trkpt>
      <trkpt lat="46.11065" lon="3.40175">
        <ele>294.86</ele>
        <time>2013-04-14T11:22:43Z</time>
      </trkpt>
      <trkpt lat="46.11079" lon="3.40192">
        <ele>293.39</ele>
        <time>2013-04-14T11:22:47Z</time>
      </trkpt>
      <trkpt lat="46.11079" lon="3.40224">
        <ele>290.66</ele>
        <time>2013-04-14T11:22:52Z</time>
      </trkpt>
      <trkpt lat="46.11094" lon="3.40248">
        <ele>286.16</ele>
        <time>2013-04-14T11:22:57Z</time>
      </trkpt>
      <trkpt lat="46.11114" lon="3.40261">
        <ele>283.49</ele>
        <time>2013-04-14T11:23:02Z</time>
      </trkpt>
      <trkpt lat="46.11134" lon="3.40265">
        <ele>282.85</ele>
        <time>2013-04-14T11:23:06Z</time>
      </trkpt>
      <trkpt lat="46.11155" lon="3.40269">
        <ele>282.65</ele>
        <time>2013-04-14T11:23:10Z</time>
      </trkpt>
      <trkpt lat="46.11173" lon="3.40274">
        <ele>282.59</ele>
        <time>2013-04-14T11:23:13Z</time>
      </trkpt>
      <trkpt lat="46.11197" lon="3.40278">
        <ele>282.13</ele>
        <time>2013-04-14T11:23:17Z</time>
      </trkpt>
      <trkpt lat="46.1122" lon="3.40282">
        <ele>281.73</ele>
        <time>2013-04-14T11:23:21Z</time>
      </trkpt>
      <trkpt lat="46.11243" lon="3.40286">
        <ele>281.61</ele>
        <time>2013-04-14T11:23:25Z</time>
      </trkpt>
      <trkpt lat="46.11266" lon="3.40293">
        <ele>281.57</ele>
        <time>2013-04-14T11:23:29Z</time>
      </trkpt>
      <trkpt lat="46.11285" lon="3.40312">
        <ele>281.31</ele>
        <time>2013-04-14T11:23:33Z</time>
      </trkpt>
      <trkpt lat="46.11297" lon="3.40336">
        <ele>280.87</ele>
        <time>2013-04-14T11:23:36Z</time>
      </trkpt>
      <trkpt lat="46.1131" lon="3.40362">
        <ele>280.69</ele>
        <time>2013-04-14T11:23:39Z</time>
      </trkpt>
      <trkpt lat="46.11321" lon="3.40385">
        <ele>280.03</ele>
        <time>2013-04-14T11:23:42Z</time>
      </trkpt>
      <trkpt lat="46.11334" lon="3.40411">
        <ele>279.32</ele>
        <time>2013-04-14T11:23:45Z</time>
      </trkpt>
      <trkpt lat="46.11347" lon="3.40435">
        <ele>278.44</ele>
        <time>2013-04-14T11:23:48Z</time>
      </trkpt>
      <trkpt lat="46.1136" lon="3.40458">
        <ele>277.49</ele>
        <time>2013-04-14T11:23:51Z</time>
      </trkpt>
      <trkpt lat="46.11372" lon="3.40482">
        <ele>276.37</ele>
        <time>2013-04-14T11:23:54Z</time>
      </trkpt>
      <trkpt lat="46.11385" lon="3.40508">
        <ele>275.32</ele>
        <time>2013-04-14T11:23:57Z</time>
      </trkpt>
      <trkpt lat="46.11398" lon="3.40531">
        <ele>274.3</ele>
        <time>2013-04-14T11:24:00Z</time>
      </trkpt>
      <trkpt lat="46.11409" lon="3.40555">
        <ele>273.62</ele>
        <time>2013-04-14T11:24:03Z</time>
      </trkpt>
      <trkpt lat="46.11421" lon="3.40578">
        <ele>273</ele>
        <time>2013-04-14T11:24:06Z</time>
      </trkpt>
      <trkpt lat="46.11433" lon="3.40602">
        <ele>272.74</ele>
        <time>2013-04-14T11:24:09Z</time>
      </trkpt>
      <trkpt lat="46.11444" lon="3.40623">
        <ele>272.63</ele>
        <time>2013-04-14T11:24:12Z</time>
      </trkpt>
      <trkpt lat="46.11462" lon="3.40634">
        <ele>272.57</ele>
        <time>2013-04-14T11:24:17Z</time>
      </trkpt>
      <trkpt lat="46.11478" lon="3.40615">
        <ele>272.55</ele>
        <time>2013-04-14T11:24:36Z</time>
      </trkpt>
      <trkpt lat="46.11491" lon="3.40593">
        <ele>273.32</ele>
        <time>2013-04-14T11:24:41Z</time>
      </trkpt>
      <trkpt lat="46.11506" lon="3.40576">
        <ele>274.18</ele>
        <time>2013-04-14T11:24:46Z</time>
      </trkpt>
      <trkpt lat="46.11522" lon="3.40561">
        <ele>274.46</ele>
        <time>2013-04-14T11:24:51Z</time>
      </trkpt>
      <trkpt lat="46.11537" lon="3.40546">
        <ele>275.29</ele>
        <time>2013-04-14T11:24:56Z</time>
      </trkpt>
      <trkpt lat="46.11551" lon="3.40529">
        <ele>275.51</ele>
        <time>2013-04-14T11:25:02Z</time>
      </trkpt>
      <trkpt lat="46.11458" lon="3.40634">
        <ele>262</ele>
        <time>2013-04-14T11:47:40Z</time>
      </trkpt>
      <trkpt lat="46.11458" lon="3.40662">
        <ele>267.09</ele>
        <time>2013-04-14T11:47:47Z</time>
      </trkpt>
      <trkpt lat="46.11469" lon="3.40683">
        <ele>270.09</ele>
        <time>2013-04-14T11:47:52Z</time>
      </trkpt>
      <trkpt lat="46.11481" lon="3.40709">
        <ele>271.21</ele>
        <time>2013-04-14T11:47:57Z</time>
      </trkpt>
      <trkpt lat="46.11495" lon="3.40735">
        <ele>271.47</ele>
        <time>2013-04-14T11:48:02Z</time>
      </trkpt>
      <trkpt lat="46.11506" lon="3.40756">
        <ele>271.53</ele>
        <time>2013-04-14T11:48:06Z</time>
      </trkpt>
      <trkpt lat="46.11518" lon="3.40778">
        <ele>271.54</ele>
        <time>2013-04-14T11:48:10Z</time>
      </trkpt>
      <trkpt lat="46.11528" lon="3.40801">
        <ele>271.55</ele>
        <time>2013-04-14T11:48:19Z</time>
      </trkpt>
      <trkpt lat="46.11537" lon="3.40825">
        <ele>271.55</ele>
        <time>2013-04-14T11:48:25Z</time>
      </trkpt>
      <trkpt lat="46.11555" lon="3.40842">
        <ele>271.55</ele>
        <time>2013-04-14T11:48:30Z</time>
      </trkpt>
      <trkpt lat="46.11572" lon="3.40864">
        <ele>270.87</ele>
        <time>2013-04-14T11:48:34Z</time>
      </trkpt>
      <trkpt lat="46.11588" lon="3.40885">
        <ele>270.44</ele>
        <time>2013-04-14T11:48:37Z</time>
      </trkpt>
      <trkpt lat="46.11605" lon="3.40909">
        <ele>270.36</ele>
        <time>2013-04-14T11:48:40Z</time>
      </trkpt>
      <trkpt lat="46.11621" lon="3.40932">
        <ele>269.89</ele>
        <time>2013-04-14T11:48:43Z</time>
      </trkpt>
      <trkpt lat="46.11635" lon="3.40956">
        <ele>269.7</ele>
        <time>2013-04-14T11:48:46Z</time>
      </trkpt>
      <trkpt lat="46.11647" lon="3.4098">
        <ele>269.18</ele>
        <time>2013-04-14T11:48:49Z</time>
      </trkpt>
      <trkpt lat="46.11659" lon="3.41003">
        <ele>268.57</ele>
        <time>2013-04-14T11:48:52Z</time>
      </trkpt>
      <trkpt lat="46.1167" lon="3.41025">
        <ele>267.98</ele>
        <time>2013-04-14T11:48:55Z</time>
      </trkpt>
      <trkpt lat="46.11679" lon="3.41048">
        <ele>267.16</ele>
        <time>2013-04-14T11:48:58Z</time>
      </trkpt>
      <trkpt lat="46.11689" lon="3.41076">
        <ele>265.81</ele>
        <time>2013-04-14T11:49:02Z</time>
      </trkpt>
      <trkpt lat="46.11697" lon="3.41102">
        <ele>265.08</ele>
        <time>2013-04-14T11:49:05Z</time>
      </trkpt>
      <trkpt lat="46.11704" lon="3.41125">
        <ele>264.53</ele>
        <time>2013-04-14T11:49:08Z</time>
      </trkpt>
      <trkpt lat="46.11712" lon="3.41156">
        <ele>263.86</ele>
        <time>2013-04-14T11:49:12Z</time>
      </trkpt>
      <trkpt lat="46.11718" lon="3.41186">
        <ele>264.33</ele>
        <time>2013-04-14T11:49:16Z</time>
      </trkpt>
      <trkpt lat="46.11727" lon="3.41211">
        <ele>264.5</ele>
        <time>2013-04-14T11:49:21Z</time>
      </trkpt>
      <trkpt lat="46.1174" lon="3.41233">
        <ele>264.55</ele>
        <time>2013-04-14T11:49:28Z</time>
      </trkpt>
      <trkpt lat="46.11742" lon="3.41263">
        <ele>263.97</ele>
        <time>2013-04-14T11:49:33Z</time>
      </trkpt>
      <trkpt lat="46.1174" lon="3.41291">
        <ele>263.69</ele>
        <time>2013-04-14T11:49:37Z</time>
      </trkpt>
      <trkpt lat="46.11737" lon="3.41319">
        <ele>263.6</ele>
        <time>2013-04-14T11:49:41Z</time>
      </trkpt>
      <trkpt lat="46.11733" lon="3.41344">
        <ele>263.57</ele>
        <time>2013-04-14T11:49:45Z</time>
      </trkpt>
      <trkpt lat="46.11731" lon="3.41374">
        <ele>263.81</ele>
        <time>2013-04-14T11:49:50Z</time>
      </trkpt>
      <trkpt lat="46.11731" lon="3.41402">
        <ele>264.32</ele>
        <time>2013-04-14T11:49:54Z</time>
      </trkpt>
      <trkpt lat="46.11738" lon="3.41428">
        <ele>264.48</ele>
        <time>2013-04-14T11:49:58Z</time>
      </trkpt>
      <trkpt lat="46.11747" lon="3.41454">
        <ele>264.53</ele>
        <time>2013-04-14T11:50:02Z</time>
      </trkpt>
      <trkpt lat="46.11761" lon="3.41477">
        <ele>264.55</ele>
        <time>2013-04-14T11:50:06Z</time>
      </trkpt>
      <trkpt lat="46.11776" lon="3.41499">
        <ele>264.55</ele>
        <time>2013-04-14T11:50:10Z</time>
      </trkpt>
      <trkpt lat="46.11791" lon="3.41518">
        <ele>264.55</ele>
        <time>2013-04-14T11:50:14Z</time>
      </trkpt>
      <trkpt lat="46.11806" lon="3.41537">
        <ele>264.55</ele>
        <time>2013-04-14T11:50:18Z</time>
      </trkpt>
      <trkpt lat="46.1182" lon="3.41559">
        <ele>264.55</ele>
        <time>2013-04-14T11:50:22Z</time>
      </trkpt>
      <trkpt lat="46.11834" lon="3.41578">
        <ele>264.8</ele>
        <time>2013-04-14T11:50:26Z</time>
      </trkpt>
      <trkpt lat="46.11848" lon="3.416">
        <ele>265.75</ele>
        <time>2013-04-14T11:50:30Z</time>
      </trkpt>
      <trkpt lat="46.11863" lon="3.41621">
        <ele>266.74</ele>
        <time>2013-04-14T11:50:34Z</time>
      </trkpt>
      <trkpt lat="46.11879" lon="3.4164">
        <ele>267.29</ele>
        <time>2013-04-14T11:50:38Z</time>
      </trkpt>
      <trkpt lat="46.11895" lon="3.41662">
        <ele>267.47</ele>
        <time>2013-04-14T11:50:42Z</time>
      </trkpt>
      <trkpt lat="46.11911" lon="3.41683">
        <ele>267.53</ele>
        <time>2013-04-14T11:50:46Z</time>
      </trkpt>
      <trkpt lat="46.11928" lon="3.41705">
        <ele>266.97</ele>
        <time>2013-04-14T11:50:50Z</time>
      </trkpt>
      <trkpt lat="46.11944" lon="3.41724">
        <ele>266.68</ele>
        <time>2013-04-14T11:50:54Z</time>
      </trkpt>
      <trkpt lat="46.11959" lon="3.41746">
        <ele>267.03</ele>
        <time>2013-04-14T11:50:58Z</time>
      </trkpt>
      <trkpt lat="46.11974" lon="3.41767">
        <ele>267.39</ele>
        <time>2013-04-14T11:51:02Z</time>
      </trkpt>
      <trkpt lat="46.1199" lon="3.41789">
        <ele>267.5</ele>
        <time>2013-04-14T11:51:06Z</time>
      </trkpt>
      <trkpt lat="46.12005" lon="3.41808">
        <ele>267.54</ele>
        <time>2013-04-14T11:51:10Z</time>
      </trkpt>
      <trkpt lat="46.12018" lon="3.41827">
        <ele>267.55</ele>
        <time>2013-04-14T11:51:14Z</time>
      </trkpt>
      <trkpt lat="46.12037" lon="3.41823">
        <ele>267.55</ele>
        <time>2013-04-14T11:51:19Z</time>
      </trkpt>
      <trkpt lat="46.12053" lon="3.41801">
        <ele>267.3</ele>
        <time>2013-04-14T11:51:24Z</time>
      </trkpt>
      <trkpt lat="46.12069" lon="3.41782">
        <ele>266.54</ele>
        <time>2013-04-14T11:51:28Z</time>
      </trkpt>
      <trkpt lat="46.12084" lon="3.41767">
        <ele>265.87</ele>
        <time>2013-04-14T11:51:32Z</time>
      </trkpt>
      <trkpt lat="46.12101" lon="3.41752">
        <ele>265.65</ele>
        <time>2013-04-14T11:51:36Z</time>
      </trkpt>
      <trkpt lat="46.12121" lon="3.41735">
        <ele>266.4</ele>
        <time>2013-04-14T11:51:41Z</time>
      </trkpt>
      <trkpt lat="46.1214" lon="3.41718">
        <ele>268.73</ele>
        <time>2013-04-14T11:51:46Z</time>
      </trkpt>
      <trkpt lat="46.12156" lon="3.41701">
        <ele>270.23</ele>
        <time>2013-04-14T11:51:50Z</time>
      </trkpt>
      <trkpt lat="46.12173" lon="3.41681">
        <ele>271.57</ele>
        <time>2013-04-14T11:51:54Z</time>
      </trkpt>
      <trkpt lat="46.12191" lon="3.41666">
        <ele>272.32</ele>
        <time>2013-04-14T11:51:59Z</time>
      </trkpt>
      <trkpt lat="46.12211" lon="3.41651">
        <ele>272.75</ele>
        <time>2013-04-14T11:52:04Z</time>
      </trkpt>
      <trkpt lat="46.1223" lon="3.41638">
        <ele>273.74</ele>
        <time>2013-04-14T11:52:08Z</time>
      </trkpt>
      <trkpt lat="46.12249" lon="3.41625">
        <ele>274.29</ele>
        <time>2013-04-14T11:52:12Z</time>
      </trkpt>
      <trkpt lat="46.12269" lon="3.41617">
        <ele>274.03</ele>
        <time>2013-04-14T11:52:16Z</time>
      </trkpt>
      <trkpt lat="46.12288" lon="3.41608">
        <ele>274.14</ele>
        <time>2013-04-14T11:52:20Z</time>
      </trkpt>
      <trkpt lat="46.12308" lon="3.41598">
        <ele>274.67</ele>
        <time>2013-04-14T11:52:24Z</time>
      </trkpt>
      <trkpt lat="46.1233" lon="3.41589">
        <ele>274.15</ele>
        <time>2013-04-14T11:52:28Z</time>
      </trkpt>
      <trkpt lat="46.12351" lon="3.4158">
        <ele>272.81</ele>
        <time>2013-04-14T11:52:32Z</time>
      </trkpt>
      <trkpt lat="46.12373" lon="3.41572">
        <ele>271.95</ele>
        <time>2013-04-14T11:52:36Z</time>
      </trkpt>
      <trkpt lat="46.12395" lon="3.41565">
        <ele>272.26</ele>
        <time>2013-04-14T11:52:40Z</time>
      </trkpt>
      <trkpt lat="46.12418" lon="3.41563">
        <ele>272.46</ele>
        <time>2013-04-14T11:52:44Z</time>
      </trkpt>
      <trkpt lat="46.12438" lon="3.41559">
        <ele>273.64</ele>
        <time>2013-04-14T11:52:48Z</time>
      </trkpt>
      <trkpt lat="46.12459" lon="3.41557">
        <ele>274.27</ele>
        <time>2013-04-14T11:52:52Z</time>
      </trkpt>
      <trkpt lat="46.12479" lon="3.41552">
        <ele>275.15</ele>
        <time>2013-04-14T11:52:56Z</time>
      </trkpt>
      <trkpt lat="46.12499" lon="3.41548">
        <ele>275.42</ele>
        <time>2013-04-14T11:53:00Z</time>
      </trkpt>
      <trkpt lat="46.1252" lon="3.41548">
        <ele>275.76</ele>
        <time>2013-04-14T11:53:04Z</time>
      </trkpt>
      <trkpt lat="46.12538" lon="3.41546">
        <ele>275.04</ele>
        <time>2013-04-14T11:53:08Z</time>
      </trkpt>
      <trkpt lat="46.12557" lon="3.41544">
        <ele>274.71</ele>
        <time>2013-04-14T11:53:12Z</time>
      </trkpt>
      <trkpt lat="46.12577" lon="3.41542">
        <ele>275.29</ele>
        <time>2013-04-14T11:53:16Z</time>
      </trkpt>
      <trkpt lat="46.12597" lon="3.41544">
        <ele>274.78</ele>
        <time>2013-04-14T11:53:20Z</time>
      </trkpt>
      <trkpt lat="46.1262" lon="3.41544">
        <ele>275.06</ele>
        <time>2013-04-14T11:53:24Z</time>
      </trkpt>
      <trkpt lat="46.12639" lon="3.41544">
        <ele>275.92</ele>
        <time>2013-04-14T11:53:27Z</time>
      </trkpt>
      <trkpt lat="46.12658" lon="3.41546">
        <ele>276.54</ele>
        <time>2013-04-14T11:53:30Z</time>
      </trkpt>
      <trkpt lat="46.12675" lon="3.41555">
        <ele>276.55</ele>
        <time>2013-04-14T11:53:33Z</time>
      </trkpt>
      <trkpt lat="46.12695" lon="3.41565">
        <ele>276.11</ele>
        <time>2013-04-14T11:53:37Z</time>
      </trkpt>
      <trkpt lat="46.12716" lon="3.4157">
        <ele>274.9</ele>
        <time>2013-04-14T11:53:41Z</time>
      </trkpt>
      <trkpt lat="46.12739" lon="3.41576">
        <ele>273.29</ele>
        <time>2013-04-14T11:53:45Z</time>
      </trkpt>
      <trkpt lat="46.12758" lon="3.41583">
        <ele>271.28</ele>
        <time>2013-04-14T11:53:49Z</time>
      </trkpt>
      <trkpt lat="46.12778" lon="3.41591">
        <ele>269.27</ele>
        <time>2013-04-14T11:53:53Z</time>
      </trkpt>
      <trkpt lat="46.12799" lon="3.41598">
        <ele>267.66</ele>
        <time>2013-04-14T11:53:57Z</time>
      </trkpt>
      <trkpt lat="46.1282" lon="3.41604">
        <ele>266.24</ele>
        <time>2013-04-14T11:54:02Z</time>
      </trkpt>
      <trkpt lat="46.12842" lon="3.4161">
        <ele>265.28</ele>
        <time>2013-04-14T11:54:07Z</time>
      </trkpt>
      <trkpt lat="46.12861" lon="3.41619">
        <ele>264.73</ele>
        <time>2013-04-14T11:54:12Z</time>
      </trkpt>
      <trkpt lat="46.12882" lon="3.41617">
        <ele>264.35</ele>
        <time>2013-04-14T11:54:17Z</time>
      </trkpt>
      <trkpt lat="46.12904" lon="3.41608">
        <ele>264.74</ele>
        <time>2013-04-14T11:54:21Z</time>
      </trkpt>
      <trkpt lat="46.12926" lon="3.41598">
        <ele>265.3</ele>
        <time>2013-04-14T11:54:25Z</time>
      </trkpt>
      <trkpt lat="46.12949" lon="3.41591">
        <ele>265.47</ele>
        <time>2013-04-14T11:54:29Z</time>
      </trkpt>
      <trkpt lat="46.12967" lon="3.41585">
        <ele>265.52</ele>
        <time>2013-04-14T11:54:32Z</time>
      </trkpt>
      <trkpt lat="46.12985" lon="3.41578">
        <ele>265.54</ele>
        <time>2013-04-14T11:54:35Z</time>
      </trkpt>
      <trkpt lat="46.13004" lon="3.41572">
        <ele>266.12</ele>
        <time>2013-04-14T11:54:38Z</time>
      </trkpt>
      <trkpt lat="46.13027" lon="3.41563">
        <ele>266.67</ele>
        <time>2013-04-14T11:54:42Z</time>
      </trkpt>
      <trkpt lat="46.13045" lon="3.41557">
        <ele>267.18</ele>
        <time>2013-04-14T11:54:45Z</time>
      </trkpt>
      <trkpt lat="46.13064" lon="3.4155">
        <ele>267.4</ele>
        <time>2013-04-14T11:54:48Z</time>
      </trkpt>
      <trkpt lat="46.13082" lon="3.41544">
        <ele>267.49</ele>
        <time>2013-04-14T11:54:51Z</time>
      </trkpt>
      <trkpt lat="46.13101" lon="3.41537">
        <ele>267.96</ele>
        <time>2013-04-14T11:54:54Z</time>
      </trkpt>
      <trkpt lat="46.13121" lon="3.41531">
        <ele>268.3</ele>
        <time>2013-04-14T11:54:57Z</time>
      </trkpt>
      <trkpt lat="46.1314" lon="3.41522">
        <ele>268.45</ele>
        <time>2013-04-14T11:55:00Z</time>
      </trkpt>
      <trkpt lat="46.13159" lon="3.41516">
        <ele>268.51</ele>
        <time>2013-04-14T11:55:03Z</time>
      </trkpt>
      <trkpt lat="46.1318" lon="3.4151">
        <ele>268.78</ele>
        <time>2013-04-14T11:55:06Z</time>
      </trkpt>
      <trkpt lat="46.13199" lon="3.41503">
        <ele>269.23</ele>
        <time>2013-04-14T11:55:09Z</time>
      </trkpt>
      <trkpt lat="46.13219" lon="3.41495">
        <ele>269.42</ele>
        <time>2013-04-14T11:55:12Z</time>
      </trkpt>
      <trkpt lat="46.13239" lon="3.41488">
        <ele>269.5</ele>
        <time>2013-04-14T11:55:15Z</time>
      </trkpt>
      <trkpt lat="46.13259" lon="3.41482">
        <ele>269.53</ele>
        <time>2013-04-14T11:55:18Z</time>
      </trkpt>
      <trkpt lat="46.13279" lon="3.41475">
        <ele>270.12</ele>
        <time>2013-04-14T11:55:21Z</time>
      </trkpt>
      <trkpt lat="46.133" lon="3.41467">
        <ele>270.37</ele>
        <time>2013-04-14T11:55:24Z</time>
      </trkpt>
      <trkpt lat="46.13321" lon="3.4146">
        <ele>269.9</ele>
        <time>2013-04-14T11:55:27Z</time>
      </trkpt>
      <trkpt lat="46.13343" lon="3.41452">
        <ele>269.7</ele>
        <time>2013-04-14T11:55:30Z</time>
      </trkpt>
      <trkpt lat="46.13364" lon="3.41445">
        <ele>269.61</ele>
        <time>2013-04-14T11:55:33Z</time>
      </trkpt>
      <trkpt lat="46.13387" lon="3.41437">
        <ele>269.58</ele>
        <time>2013-04-14T11:55:36Z</time>
      </trkpt>
      <trkpt lat="46.13409" lon="3.41428">
        <ele>269.31</ele>
        <time>2013-04-14T11:55:39Z</time>
      </trkpt>
      <trkpt lat="46.13431" lon="3.41422">
        <ele>268.87</ele>
        <time>2013-04-14T11:55:42Z</time>
      </trkpt>
      <trkpt lat="46.13453" lon="3.41415">
        <ele>268.69</ele>
        <time>2013-04-14T11:55:45Z</time>
      </trkpt>
      <trkpt lat="46.13475" lon="3.41409">
        <ele>268.61</ele>
        <time>2013-04-14T11:55:48Z</time>
      </trkpt>
      <trkpt lat="46.13497" lon="3.41402">
        <ele>268.83</ele>
        <time>2013-04-14T11:55:51Z</time>
      </trkpt>
      <trkpt lat="46.13519" lon="3.41398">
        <ele>269.25</ele>
        <time>2013-04-14T11:55:54Z</time>
      </trkpt>
      <trkpt lat="46.13541" lon="3.41394">
        <ele>269.86</ele>
        <time>2013-04-14T11:55:57Z</time>
      </trkpt>
      <trkpt lat="46.13563" lon="3.41392">
        <ele>270.7</ele>
        <time>2013-04-14T11:56:00Z</time>
      </trkpt>
      <trkpt lat="46.13585" lon="3.41387">
        <ele>271.18</ele>
        <time>2013-04-14T11:56:03Z</time>
      </trkpt>
      <trkpt lat="46.13615" lon="3.41374">
        <ele>272.59</ele>
        <time>2013-04-14T11:56:07Z</time>
      </trkpt>
      <trkpt lat="46.13637" lon="3.41362">
        <ele>273.16</ele>
        <time>2013-04-14T11:56:10Z</time>
      </trkpt>
      <trkpt lat="46.13659" lon="3.41353">
        <ele>272.34</ele>
        <time>2013-04-14T11:56:13Z</time>
      </trkpt>
      <trkpt lat="46.13682" lon="3.41349">
        <ele>268.89</ele>
        <time>2013-04-14T11:56:16Z</time>
      </trkpt>
      <trkpt lat="46.13704" lon="3.41347">
        <ele>264.68</ele>
        <time>2013-04-14T11:56:19Z</time>
      </trkpt>
      <trkpt lat="46.13726" lon="3.41344">
        <ele>261.61</ele>
        <time>2013-04-14T11:56:22Z</time>
      </trkpt>
      <trkpt lat="46.13747" lon="3.41342">
        <ele>259.26</ele>
        <time>2013-04-14T11:56:25Z</time>
      </trkpt>
      <trkpt lat="46.13769" lon="3.4134">
        <ele>257.84</ele>
        <time>2013-04-14T11:56:28Z</time>
      </trkpt>
      <trkpt lat="46.13789" lon="3.4134">
        <ele>257.09</ele>
        <time>2013-04-14T11:56:31Z</time>
      </trkpt>
      <trkpt lat="46.13809" lon="3.41338">
        <ele>257.36</ele>
        <time>2013-04-14T11:56:34Z</time>
      </trkpt>
      <trkpt lat="46.1383" lon="3.41336">
        <ele>257.8</ele>
        <time>2013-04-14T11:56:37Z</time>
      </trkpt>
      <trkpt lat="46.1385" lon="3.41334">
        <ele>257.91</ele>
        <time>2013-04-14T11:56:40Z</time>
      </trkpt>
      <trkpt lat="46.13869" lon="3.41331">
        <ele>258.97</ele>
        <time>2013-04-14T11:56:43Z</time>
      </trkpt>
      <trkpt lat="46.13889" lon="3.41329">
        <ele>260.32</ele>
        <time>2013-04-14T11:56:46Z</time>
      </trkpt>
      <trkpt lat="46.13909" lon="3.41325">
        <ele>262.05</ele>
        <time>2013-04-14T11:56:49Z</time>
      </trkpt>
      <trkpt lat="46.13931" lon="3.41321">
        <ele>263.5</ele>
        <time>2013-04-14T11:56:52Z</time>
      </trkpt>
      <trkpt lat="46.13951" lon="3.41316">
        <ele>264.11</ele>
        <time>2013-04-14T11:56:55Z</time>
      </trkpt>
      <trkpt lat="46.13972" lon="3.4131">
        <ele>264.36</ele>
        <time>2013-04-14T11:56:58Z</time>
      </trkpt>
      <trkpt lat="46.13993" lon="3.41306">
        <ele>263.9</ele>
        <time>2013-04-14T11:57:01Z</time>
      </trkpt>
      <trkpt lat="46.14014" lon="3.41301">
        <ele>263.12</ele>
        <time>2013-04-14T11:57:04Z</time>
      </trkpt>
      <trkpt lat="46.14035" lon="3.41297">
        <ele>261.78</ele>
        <time>2013-04-14T11:57:07Z</time>
      </trkpt>
      <trkpt lat="46.14056" lon="3.41293">
        <ele>260.49</ele>
        <time>2013-04-14T11:57:10Z</time>
      </trkpt>
      <trkpt lat="46.14076" lon="3.41291">
        <ele>259.95</ele>
        <time>2013-04-14T11:57:13Z</time>
      </trkpt>
      <trkpt lat="46.14097" lon="3.41286">
        <ele>259.72</ele>
        <time>2013-04-14T11:57:16Z</time>
      </trkpt>
      <trkpt lat="46.14117" lon="3.41284">
        <ele>259.62</ele>
        <time>2013-04-14T11:57:19Z</time>
      </trkpt>
      <trkpt lat="46.14137" lon="3.4128">
        <ele>260.41</ele>
        <time>2013-04-14T11:57:22Z</time>
      </trkpt>
      <trkpt lat="46.14157" lon="3.41278">
        <ele>261.32</ele>
        <time>2013-04-14T11:57:25Z</time>
      </trkpt>
      <trkpt lat="46.14176" lon="3.41276">
        <ele>262.28</ele>
        <time>2013-04-14T11:57:28Z</time>
      </trkpt>
      <trkpt lat="46.14196" lon="3.41271">
        <ele>263.45</ele>
        <time>2013-04-14T11:57:31Z</time>
      </trkpt>
      <trkpt lat="46.14215" lon="3.41267">
        <ele>264.78</ele>
        <time>2013-04-14T11:57:34Z</time>
      </trkpt>
      <trkpt lat="46.14239" lon="3.41261">
        <ele>266.43</ele>
        <time>2013-04-14T11:57:38Z</time>
      </trkpt>
      <trkpt lat="46.1426" lon="3.41261">
        <ele>266.55</ele>
        <time>2013-04-14T11:57:53Z</time>
      </trkpt>
      <trkpt lat="46.1428" lon="3.41252">
        <ele>265.43</ele>
        <time>2013-04-14T11:57:57Z</time>
      </trkpt>
      <trkpt lat="46.14304" lon="3.41244">
        <ele>264.15</ele>
        <time>2013-04-14T11:58:01Z</time>
      </trkpt>
      <trkpt lat="46.14321" lon="3.41235">
        <ele>263.8</ele>
        <time>2013-04-14T11:58:04Z</time>
      </trkpt>
      <trkpt lat="46.14339" lon="3.41228">
        <ele>263.66</ele>
        <time>2013-04-14T11:58:07Z</time>
      </trkpt>
      <trkpt lat="46.14357" lon="3.4122">
        <ele>263.35</ele>
        <time>2013-04-14T11:58:10Z</time>
      </trkpt>
      <trkpt lat="46.14375" lon="3.41213">
        <ele>262.64</ele>
        <time>2013-04-14T11:58:13Z</time>
      </trkpt>
      <trkpt lat="46.14392" lon="3.41205">
        <ele>261.57</ele>
        <time>2013-04-14T11:58:16Z</time>
      </trkpt>
      <trkpt lat="46.14409" lon="3.41194">
        <ele>260.73</ele>
        <time>2013-04-14T11:58:19Z</time>
      </trkpt>
      <trkpt lat="46.14427" lon="3.41183">
        <ele>260.05</ele>
        <time>2013-04-14T11:58:22Z</time>
      </trkpt>
      <trkpt lat="46.14443" lon="3.41171">
        <ele>259.76</ele>
        <time>2013-04-14T11:58:25Z</time>
      </trkpt>
      <trkpt lat="46.1446" lon="3.41156">
        <ele>259.64</ele>
        <time>2013-04-14T11:58:28Z</time>
      </trkpt>
      <trkpt lat="46.14477" lon="3.41145">
        <ele>259.59</ele>
        <time>2013-04-14T11:58:31Z</time>
      </trkpt>
      <trkpt lat="46.14495" lon="3.41141">
        <ele>260.01</ele>
        <time>2013-04-14T11:58:34Z</time>
      </trkpt>
      <trkpt lat="46.14514" lon="3.41136">
        <ele>260.76</ele>
        <time>2013-04-14T11:58:37Z</time>
      </trkpt>
      <trkpt lat="46.14532" lon="3.41128">
        <ele>261.22</ele>
        <time>2013-04-14T11:58:40Z</time>
      </trkpt>
      <trkpt lat="46.1455" lon="3.41115">
        <ele>261.41</ele>
        <time>2013-04-14T11:58:43Z</time>
      </trkpt>
      <trkpt lat="46.14568" lon="3.41108">
        <ele>261.49</ele>
        <time>2013-04-14T11:58:46Z</time>
      </trkpt>
      <trkpt lat="46.14589" lon="3.41102">
        <ele>261.53</ele>
        <time>2013-04-14T11:58:50Z</time>
      </trkpt>
      <trkpt lat="46.14606" lon="3.41089">
        <ele>261.55</ele>
        <time>2013-04-14T11:58:54Z</time>
      </trkpt>
      <trkpt lat="46.14623" lon="3.41072">
        <ele>261.55</ele>
        <time>2013-04-14T11:58:58Z</time>
      </trkpt>
      <trkpt lat="46.14639" lon="3.41046">
        <ele>261.11</ele>
        <time>2013-04-14T11:59:02Z</time>
      </trkpt>
      <trkpt lat="46.14655" lon="3.41022">
        <ele>260.73</ele>
        <time>2013-04-14T11:59:06Z</time>
      </trkpt>
      <trkpt lat="46.14674" lon="3.41003">
        <ele>260.17</ele>
        <time>2013-04-14T11:59:10Z</time>
      </trkpt>
      <trkpt lat="46.14694" lon="3.40992">
        <ele>259.75</ele>
        <time>2013-04-14T11:59:14Z</time>
      </trkpt>
      <trkpt lat="46.14714" lon="3.40984">
        <ele>259.61</ele>
        <time>2013-04-14T11:59:18Z</time>
      </trkpt>
      <trkpt lat="46.14733" lon="3.4098">
        <ele>259.57</ele>
        <time>2013-04-14T11:59:22Z</time>
      </trkpt>
      <trkpt lat="46.14753" lon="3.40969">
        <ele>259.56</ele>
        <time>2013-04-14T11:59:26Z</time>
      </trkpt>
      <trkpt lat="46.14774" lon="3.40954">
        <ele>259.99</ele>
        <time>2013-04-14T11:59:30Z</time>
      </trkpt>
      <trkpt lat="46.1479" lon="3.40941">
        <ele>259.74</ele>
        <time>2013-04-14T11:59:33Z</time>
      </trkpt>
      <trkpt lat="46.14809" lon="3.40924">
        <ele>259.17</ele>
        <time>2013-04-14T11:59:37Z</time>
      </trkpt>
      <trkpt lat="46.14828" lon="3.40907">
        <ele>258.75</ele>
        <time>2013-04-14T11:59:41Z</time>
      </trkpt>
      <trkpt lat="46.14843" lon="3.40892">
        <ele>258.64</ele>
        <time>2013-04-14T11:59:44Z</time>
      </trkpt>
      <trkpt lat="46.14863" lon="3.40872">
        <ele>257.9</ele>
        <time>2013-04-14T11:59:48Z</time>
      </trkpt>
      <trkpt lat="46.14882" lon="3.40855">
        <ele>258.24</ele>
        <time>2013-04-14T11:59:52Z</time>
      </trkpt>
      <trkpt lat="46.14902" lon="3.4084">
        <ele>258.45</ele>
        <time>2013-04-14T11:59:56Z</time>
      </trkpt>
      <trkpt lat="46.14919" lon="3.40832">
        <ele>258.95</ele>
        <time>2013-04-14T11:59:59Z</time>
      </trkpt>
      <trkpt lat="46.14936" lon="3.40823">
        <ele>259.3</ele>
        <time>2013-04-14T12:00:02Z</time>
      </trkpt>
      <trkpt lat="46.14954" lon="3.40816">
        <ele>259.45</ele>
        <time>2013-04-14T12:00:05Z</time>
      </trkpt>
      <trkpt lat="46.14977" lon="3.40812">
        <ele>259.96</ele>
        <time>2013-04-14T12:00:09Z</time>
      </trkpt>
      <trkpt lat="46.15" lon="3.40812">
        <ele>260.36</ele>
        <time>2013-04-14T12:00:13Z</time>
      </trkpt>
      <trkpt lat="46.15023" lon="3.40819">
        <ele>260.49</ele>
        <time>2013-04-14T12:00:17Z</time>
      </trkpt>
      <trkpt lat="46.15043" lon="3.40825">
        <ele>260.78</ele>
        <time>2013-04-14T12:00:21Z</time>
      </trkpt>
      <trkpt lat="46.15064" lon="3.40836">
        <ele>261.31</ele>
        <time>2013-04-14T12:00:25Z</time>
      </trkpt>
      <trkpt lat="46.15085" lon="3.40847">
        <ele>261.04</ele>
        <time>2013-04-14T12:00:29Z</time>
      </trkpt>
      <trkpt lat="46.15102" lon="3.40864">
        <ele>261.28</ele>
        <time>2013-04-14T12:00:33Z</time>
      </trkpt>
      <trkpt lat="46.15111" lon="3.40892">
        <ele>261.47</ele>
        <time>2013-04-14T12:00:37Z</time>
      </trkpt>
      <trkpt lat="46.15115" lon="3.40919">
        <ele>260.41</ele>
        <time>2013-04-14T12:00:41Z</time>
      </trkpt>
      <trkpt lat="46.15124" lon="3.40945">
        <ele>259.14</ele>
        <time>2013-04-14T12:00:45Z</time>
      </trkpt>
      <trkpt lat="46.15143" lon="3.40958">
        <ele>258.3</ele>
        <time>2013-04-14T12:00:49Z</time>
      </trkpt>
      <trkpt lat="46.15161" lon="3.40967">
        <ele>258.72</ele>
        <time>2013-04-14T12:00:53Z</time>
      </trkpt>
      <trkpt lat="46.15176" lon="3.4099">
        <ele>259.93</ele>
        <time>2013-04-14T12:00:58Z</time>
      </trkpt>
      <trkpt lat="46.15186" lon="3.41018">
        <ele>260.98</ele>
        <time>2013-04-14T12:01:03Z</time>
      </trkpt>
      <trkpt lat="46.15197" lon="3.4104">
        <ele>261.37</ele>
        <time>2013-04-14T12:01:07Z</time>
      </trkpt>
      <trkpt lat="46.15209" lon="3.41061">
        <ele>261.5</ele>
        <time>2013-04-14T12:01:11Z</time>
      </trkpt>
      <trkpt lat="46.1523" lon="3.41076">
        <ele>261.54</ele>
        <time>2013-04-14T12:01:16Z</time>
      </trkpt>
      <trkpt lat="46.15248" lon="3.41083">
        <ele>261.99</ele>
        <time>2013-04-14T12:01:20Z</time>
      </trkpt>
      <trkpt lat="46.15267" lon="3.41072">
        <ele>262.42</ele>
        <time>2013-04-14T12:01:25Z</time>
      </trkpt>
      <trkpt lat="46.15288" lon="3.41061">
        <ele>262.52</ele>
        <time>2013-04-14T12:01:30Z</time>
      </trkpt>
      <trkpt lat="46.15308" lon="3.41059">
        <ele>262.98</ele>
        <time>2013-04-14T12:01:34Z</time>
      </trkpt>
      <trkpt lat="46.15329" lon="3.41059">
        <ele>263.37</ele>
        <time>2013-04-14T12:01:38Z</time>
      </trkpt>
      <trkpt lat="46.15341" lon="3.41078">
        <ele>263.52</ele>
        <time>2013-04-14T12:01:44Z</time>
      </trkpt>
      <trkpt lat="46.15355" lon="3.41102">
        <ele>264.42</ele>
        <time>2013-04-14T12:01:52Z</time>
      </trkpt>
      <trkpt lat="46.15375" lon="3.41102">
        <ele>264.54</ele>
        <time>2013-04-14T12:02:01Z</time>
      </trkpt>
      <trkpt lat="46.15393" lon="3.41083">
        <ele>264.55</ele>
        <time>2013-04-14T12:02:07Z</time>
      </trkpt>
      <trkpt lat="46.1541" lon="3.41074">
        <ele>264.55</ele>
        <time>2013-04-14T12:02:11Z</time>
      </trkpt>
      <trkpt lat="46.1543" lon="3.41063">
        <ele>264.55</ele>
        <time>2013-04-14T12:02:15Z</time>
      </trkpt>
      <trkpt lat="46.15452" lon="3.41055">
        <ele>264.55</ele>
        <time>2013-04-14T12:02:19Z</time>
      </trkpt>
      <trkpt lat="46.15476" lon="3.41048">
        <ele>264.55</ele>
        <time>2013-04-14T12:02:23Z</time>
      </trkpt>
      <trkpt lat="46.15498" lon="3.41042">
        <ele>264.55</ele>
        <time>2013-04-14T12:02:27Z</time>
      </trkpt>
      <trkpt lat="46.15521" lon="3.41044">
        <ele>263.87</ele>
        <time>2013-04-14T12:02:31Z</time>
      </trkpt>
      <trkpt lat="46.15542" lon="3.41053">
        <ele>263.65</ele>
        <time>2013-04-14T12:02:35Z</time>
      </trkpt>
      <trkpt lat="46.15558" lon="3.41072">
        <ele>263.58</ele>
        <time>2013-04-14T12:02:39Z</time>
      </trkpt>
      <trkpt lat="46.15579" lon="3.41087">
        <ele>263.56</ele>
        <time>2013-04-14T12:02:43Z</time>
      </trkpt>
      <trkpt lat="46.15599" lon="3.41102">
        <ele>263.56</ele>
        <time>2013-04-14T12:02:47Z</time>
      </trkpt>
      <trkpt lat="46.15614" lon="3.41117">
        <ele>263.55</ele>
        <time>2013-04-14T12:02:50Z</time>
      </trkpt>
      <trkpt lat="46.15634" lon="3.41132">
        <ele>263.55</ele>
        <time>2013-04-14T12:02:54Z</time>
      </trkpt>
      <trkpt lat="46.15656" lon="3.41147">
        <ele>263.55</ele>
        <time>2013-04-14T12:02:58Z</time>
      </trkpt>
      <trkpt lat="46.15676" lon="3.41164">
        <ele>263.99</ele>
        <time>2013-04-14T12:03:02Z</time>
      </trkpt>
      <trkpt lat="46.15695" lon="3.41181">
        <ele>264.38</ele>
        <time>2013-04-14T12:03:06Z</time>
      </trkpt>
      <trkpt lat="46.15714" lon="3.41198">
        <ele>264.5</ele>
        <time>2013-04-14T12:03:10Z</time>
      </trkpt>
      <trkpt lat="46.15729" lon="3.41213">
        <ele>264.53</ele>
        <time>2013-04-14T12:03:13Z</time>
      </trkpt>
      <trkpt lat="46.15748" lon="3.41231">
        <ele>264.55</ele>
        <time>2013-04-14T12:03:17Z</time>
      </trkpt>
      <trkpt lat="46.15768" lon="3.41248">
        <ele>264.55</ele>
        <time>2013-04-14T12:03:21Z</time>
      </trkpt>
      <trkpt lat="46.15788" lon="3.41265">
        <ele>264.55</ele>
        <time>2013-04-14T12:03:25Z</time>
      </trkpt>
      <trkpt lat="46.15804" lon="3.41278">
        <ele>264.3</ele>
        <time>2013-04-14T12:03:28Z</time>
      </trkpt>
      <trkpt lat="46.15823" lon="3.41297">
        <ele>263.79</ele>
        <time>2013-04-14T12:03:32Z</time>
      </trkpt>
      <trkpt lat="46.15842" lon="3.41316">
        <ele>263.05</ele>
        <time>2013-04-14T12:03:36Z</time>
      </trkpt>
      <trkpt lat="46.15862" lon="3.41334">
        <ele>262.71</ele>
        <time>2013-04-14T12:03:40Z</time>
      </trkpt>
      <trkpt lat="46.1588" lon="3.41353">
        <ele>262.6</ele>
        <time>2013-04-14T12:03:44Z</time>
      </trkpt>
      <trkpt lat="46.15895" lon="3.41368">
        <ele>262.57</ele>
        <time>2013-04-14T12:03:47Z</time>
      </trkpt>
      <trkpt lat="46.15915" lon="3.41385">
        <ele>262.56</ele>
        <time>2013-04-14T12:03:51Z</time>
      </trkpt>
      <trkpt lat="46.15937" lon="3.414">
        <ele>262.99</ele>
        <time>2013-04-14T12:03:55Z</time>
      </trkpt>
      <trkpt lat="46.15958" lon="3.41413">
        <ele>263.38</ele>
        <time>2013-04-14T12:03:59Z</time>
      </trkpt>
      <trkpt lat="46.15981" lon="3.41428">
        <ele>263.5</ele>
        <time>2013-04-14T12:04:03Z</time>
      </trkpt>
      <trkpt lat="46.16002" lon="3.41441">
        <ele>264.11</ele>
        <time>2013-04-14T12:04:07Z</time>
      </trkpt>
      <trkpt lat="46.16018" lon="3.41454">
        <ele>264.37</ele>
        <time>2013-04-14T12:04:10Z</time>
      </trkpt>
      <trkpt lat="46.16035" lon="3.41467">
        <ele>264.47</ele>
        <time>2013-04-14T12:04:13Z</time>
      </trkpt>
      <trkpt lat="46.16056" lon="3.41482">
        <ele>264.53</ele>
        <time>2013-04-14T12:04:17Z</time>
      </trkpt>
      <trkpt lat="46.16072" lon="3.41495">
        <ele>264.68</ele>
        <time>2013-04-14T12:04:20Z</time>
      </trkpt>
      <trkpt lat="46.16089" lon="3.41507">
        <ele>264.61</ele>
        <time>2013-04-14T12:04:23Z</time>
      </trkpt>
      <trkpt lat="46.1611" lon="3.41522">
        <ele>264.57</ele>
        <time>2013-04-14T12:04:27Z</time>
      </trkpt>
      <trkpt lat="46.16131" lon="3.41537">
        <ele>264.56</ele>
        <time>2013-04-14T12:04:31Z</time>
      </trkpt>
      <trkpt lat="46.16153" lon="3.4155">
        <ele>264.55</ele>
        <time>2013-04-14T12:04:35Z</time>
      </trkpt>
      <trkpt lat="46.16173" lon="3.41565">
        <ele>264.55</ele>
        <time>2013-04-14T12:04:39Z</time>
      </trkpt>
      <trkpt lat="46.1619" lon="3.4158">
        <ele>264.55</ele>
        <time>2013-04-14T12:04:43Z</time>
      </trkpt>
      <trkpt lat="46.16209" lon="3.41591">
        <ele>264.55</ele>
        <time>2013-04-14T12:04:47Z</time>
      </trkpt>
      <trkpt lat="46.16228" lon="3.41595">
        <ele>264.55</ele>
        <time>2013-04-14T12:04:51Z</time>
      </trkpt>
      <trkpt lat="46.16246" lon="3.41608">
        <ele>264.55</ele>
        <time>2013-04-14T12:04:55Z</time>
      </trkpt>
      <trkpt lat="46.16265" lon="3.41623">
        <ele>264.8</ele>
        <time>2013-04-14T12:04:59Z</time>
      </trkpt>
      <trkpt lat="46.16283" lon="3.4164">
        <ele>265.32</ele>
        <time>2013-04-14T12:05:03Z</time>
      </trkpt>
      <trkpt lat="46.16302" lon="3.4166">
        <ele>265.62</ele>
        <time>2013-04-14T12:05:07Z</time>
      </trkpt>
      <trkpt lat="46.16319" lon="3.41683">
        <ele>265</ele>
        <time>2013-04-14T12:05:11Z</time>
      </trkpt>
      <trkpt lat="46.16335" lon="3.41707">
        <ele>263.86</ele>
        <time>2013-04-14T12:05:15Z</time>
      </trkpt>
      <trkpt lat="46.1635" lon="3.41728">
        <ele>262.39</ele>
        <time>2013-04-14T12:05:19Z</time>
      </trkpt>
      <trkpt lat="46.16366" lon="3.41746">
        <ele>261.71</ele>
        <time>2013-04-14T12:05:23Z</time>
      </trkpt>
      <trkpt lat="46.16382" lon="3.41763">
        <ele>262.29</ele>
        <time>2013-04-14T12:05:27Z</time>
      </trkpt>
      <trkpt lat="46.16397" lon="3.41782">
        <ele>262.47</ele>
        <time>2013-04-14T12:05:31Z</time>
      </trkpt>
      <trkpt lat="46.16412" lon="3.41801">
        <ele>262.53</ele>
        <time>2013-04-14T12:05:35Z</time>
      </trkpt>
      <trkpt lat="46.16428" lon="3.41816">
        <ele>262.54</ele>
        <time>2013-04-14T12:05:39Z</time>
      </trkpt>
      <trkpt lat="46.16446" lon="3.41834">
        <ele>263.13</ele>
        <time>2013-04-14T12:05:43Z</time>
      </trkpt>
      <trkpt lat="46.16467" lon="3.41849">
        <ele>263.09</ele>
        <time>2013-04-14T12:05:47Z</time>
      </trkpt>
      <trkpt lat="46.16486" lon="3.41861">
        <ele>263.41</ele>
        <time>2013-04-14T12:05:51Z</time>
      </trkpt>
      <trkpt lat="46.16503" lon="3.41872">
        <ele>263.51</ele>
        <time>2013-04-14T12:05:55Z</time>
      </trkpt>
      <trkpt lat="46.16522" lon="3.41883">
        <ele>263.54</ele>
        <time>2013-04-14T12:06:00Z</time>
      </trkpt>
      <trkpt lat="46.16539" lon="3.41896">
        <ele>263.55</ele>
        <time>2013-04-14T12:06:05Z</time>
      </trkpt>
      <trkpt lat="46.16553" lon="3.41913">
        <ele>263.55</ele>
        <time>2013-04-14T12:06:10Z</time>
      </trkpt>
      <trkpt lat="46.16569" lon="3.41934">
        <ele>263.55</ele>
        <time>2013-04-14T12:06:16Z</time>
      </trkpt>
      <trkpt lat="46.16581" lon="3.41956">
        <ele>263.55</ele>
        <time>2013-04-14T12:06:22Z</time>
      </trkpt>
      <trkpt lat="46.16595" lon="3.4198">
        <ele>263.55</ele>
        <time>2013-04-14T12:06:29Z</time>
      </trkpt>
      <trkpt lat="46.16606" lon="3.42001">
        <ele>263.55</ele>
        <time>2013-04-14T12:06:35Z</time>
      </trkpt>
      <trkpt lat="46.16621" lon="3.4202">
        <ele>263.55</ele>
        <time>2013-04-14T12:06:41Z</time>
      </trkpt>
      <trkpt lat="46.1664" lon="3.4204">
        <ele>264.81</ele>
        <time>2013-04-14T12:06:46Z</time>
      </trkpt>
      <trkpt lat="46.16657" lon="3.4205">
        <ele>265.24</ele>
        <time>2013-04-14T12:06:49Z</time>
      </trkpt>
      <trkpt lat="46.16676" lon="3.42061">
        <ele>265.42</ele>
        <time>2013-04-14T12:06:52Z</time>
      </trkpt>
      <trkpt lat="46.16694" lon="3.42067">
        <ele>265.06</ele>
        <time>2013-04-14T12:06:55Z</time>
      </trkpt>
      <trkpt lat="46.16707" lon="3.42087">
        <ele>265.4</ele>
        <time>2013-04-14T12:06:59Z</time>
      </trkpt>
      <trkpt lat="46.16714" lon="3.42115">
        <ele>264.83</ele>
        <time>2013-04-14T12:07:04Z</time>
      </trkpt>
      <trkpt lat="46.16733" lon="3.42128">
        <ele>264.62</ele>
        <time>2013-04-14T12:07:09Z</time>
      </trkpt>
      <trkpt lat="46.16751" lon="3.4213">
        <ele>264.57</ele>
        <time>2013-04-14T12:07:13Z</time>
      </trkpt>
      <trkpt lat="46.16771" lon="3.4213">
        <ele>264.81</ele>
        <time>2013-04-14T12:07:17Z</time>
      </trkpt>
      <trkpt lat="46.16787" lon="3.42149">
        <ele>265.38</ele>
        <time>2013-04-14T12:07:22Z</time>
      </trkpt>
      <trkpt lat="46.16782" lon="3.42179">
        <ele>265.51</ele>
        <time>2013-04-14T12:07:27Z</time>
      </trkpt>
      <trkpt lat="46.16777" lon="3.42207">
        <ele>265.54</ele>
        <time>2013-04-14T12:07:32Z</time>
      </trkpt>
      <trkpt lat="46.16769" lon="3.42235">
        <ele>264.79</ele>
        <time>2013-04-14T12:07:38Z</time>
      </trkpt>
      <trkpt lat="46.16762" lon="3.42258">
        <ele>265.17</ele>
        <time>2013-04-14T12:07:44Z</time>
      </trkpt>
      <trkpt lat="46.16755" lon="3.42286">
        <ele>265.49</ele>
        <time>2013-04-14T12:07:50Z</time>
      </trkpt>
      <trkpt lat="46.16754" lon="3.42314">
        <ele>265.54</ele>
        <time>2013-04-14T12:07:56Z</time>
      </trkpt>
      <trkpt lat="46.16758" lon="3.4234">
        <ele>265.55</ele>
        <time>2013-04-14T12:08:03Z</time>
      </trkpt>
      <trkpt lat="46.16763" lon="3.42368">
        <ele>265.55</ele>
        <time>2013-04-14T12:08:10Z</time>
      </trkpt>
      <trkpt lat="46.16767" lon="3.42394">
        <ele>266.42</ele>
        <time>2013-04-14T12:08:17Z</time>
      </trkpt>
      <trkpt lat="46.16776" lon="3.42417">
        <ele>266.8</ele>
        <time>2013-04-14T12:08:29Z</time>
      </trkpt>
      <trkpt lat="46.16789" lon="3.42439">
        <ele>267.79</ele>
        <time>2013-04-14T12:08:43Z</time>
      </trkpt>
      <trkpt lat="46.16804" lon="3.42456">
        <ele>269.21</ele>
        <time>2013-04-14T12:08:55Z</time>
      </trkpt>
      <trkpt lat="46.1682" lon="3.42471">
        <ele>270.47</ele>
        <time>2013-04-14T12:09:09Z</time>
      </trkpt>
      <trkpt lat="46.16834" lon="3.42488">
        <ele>272.22</ele>
        <time>2013-04-14T12:09:23Z</time>
      </trkpt>
      <trkpt lat="46.16848" lon="3.42505">
        <ele>273.22</ele>
        <time>2013-04-14T12:09:34Z</time>
      </trkpt>
      <trkpt lat="46.16862" lon="3.42522">
        <ele>274.41</ele>
        <time>2013-04-14T12:09:46Z</time>
      </trkpt>
      <trkpt lat="46.16875" lon="3.42548">
        <ele>276.35</ele>
        <time>2013-04-14T12:10:02Z</time>
      </trkpt>
      <trkpt lat="46.16882" lon="3.42572">
        <ele>278.35</ele>
        <time>2013-04-14T12:10:15Z</time>
      </trkpt>
      <trkpt lat="46.16886" lon="3.42597">
        <ele>280.34</ele>
        <time>2013-04-14T12:10:27Z</time>
      </trkpt>
      <trkpt lat="46.16892" lon="3.42623">
        <ele>282.64</ele>
        <time>2013-04-14T12:10:40Z</time>
      </trkpt>
      <trkpt lat="46.16897" lon="3.42649">
        <ele>284.87</ele>
        <time>2013-04-14T12:10:54Z</time>
      </trkpt>
      <trkpt lat="46.16904" lon="3.42675">
        <ele>286.4</ele>
        <time>2013-04-14T12:11:06Z</time>
      </trkpt>
      <trkpt lat="46.16911" lon="3.42698">
        <ele>288.35</ele>
        <time>2013-04-14T12:11:19Z</time>
      </trkpt>
      <trkpt lat="46.1692" lon="3.42722">
        <ele>290.08</ele>
        <time>2013-04-14T12:11:31Z</time>
      </trkpt>
      <trkpt lat="46.16927" lon="3.42746">
        <ele>291.41</ele>
        <time>2013-04-14T12:11:44Z</time>
      </trkpt>
      <trkpt lat="46.16936" lon="3.42769">
        <ele>293.1</ele>
        <time>2013-04-14T12:11:57Z</time>
      </trkpt>
      <trkpt lat="46.16943" lon="3.42793">
        <ele>294.36</ele>
        <time>2013-04-14T12:12:10Z</time>
      </trkpt>
      <trkpt lat="46.16951" lon="3.42816">
        <ele>295.45</ele>
        <time>2013-04-14T12:12:22Z</time>
      </trkpt>
      <trkpt lat="46.16959" lon="3.4284">
        <ele>296.49</ele>
        <time>2013-04-14T12:12:35Z</time>
      </trkpt>
      <trkpt lat="46.1697" lon="3.42864">
        <ele>297.96</ele>
        <time>2013-04-14T12:12:49Z</time>
      </trkpt>
      <trkpt lat="46.16979" lon="3.42887">
        <ele>299.44</ele>
        <time>2013-04-14T12:13:04Z</time>
      </trkpt>
      <trkpt lat="46.16988" lon="3.42911">
        <ele>300.3</ele>
        <time>2013-04-14T12:13:12Z</time>
      </trkpt>
      <trkpt lat="46.16998" lon="3.42937">
        <ele>300.97</ele>
        <time>2013-04-14T12:13:21Z</time>
      </trkpt>
      <trkpt lat="46.17004" lon="3.42962">
        <ele>301.76</ele>
        <time>2013-04-14T12:13:30Z</time>
      </trkpt>
      <trkpt lat="46.1701" lon="3.42988">
        <ele>302.93</ele>
        <time>2013-04-14T12:13:39Z</time>
      </trkpt>
      <trkpt lat="46.17015" lon="3.43016">
        <ele>304.08</ele>
        <time>2013-04-14T12:13:48Z</time>
      </trkpt>
      <trkpt lat="46.1702" lon="3.43042">
        <ele>305.2</ele>
        <time>2013-04-14T12:13:57Z</time>
      </trkpt>
      <trkpt lat="46.17028" lon="3.43065">
        <ele>306.29</ele>
        <time>2013-04-14T12:14:06Z</time>
      </trkpt>
      <trkpt lat="46.17039" lon="3.43089">
        <ele>307.36</ele>
        <time>2013-04-14T12:14:15Z</time>
      </trkpt>
      <trkpt lat="46.17052" lon="3.4311">
        <ele>308.41</ele>
        <time>2013-04-14T12:14:26Z</time>
      </trkpt>
      <trkpt lat="46.17033" lon="3.43112">
        <ele>313.6</ele>
        <time>2013-04-14T12:15:23Z</time>
      </trkpt>
    </trkseg>
  </trk>
</gpx>